<?xml version="1.0" encoding="UTF-8" standalone="no" ?>
<gpx xmlns="http://www.topografix.com/GPX/1/1" xmlns:xsi="http://www.w3.org/2001/XMLSchema-instance" xsi:schemaLocation="http://www.topografix.com/GPX/1/1 http://www.topografix.com/GPX/1/1/gpx.xsd" version="1.1" creator="VisuGPX - https://www.visugpx.com">
  <metadata>
    <name>XtremLoue2022</name>
  </metadata>
  <trk>
    <name><![CDATA[XtremLoue2022_1]]></name>
    <trkseg>
      <trkpt lat="47.10202" lon="6.16122">
        <ele>340.8</ele>
        <time>2022-10-02T07:23:01Z</time>
      </trkpt>
      <trkpt lat="47.10196" lon="6.16123">
        <ele>341</ele>
        <time>2022-10-02T07:23:04Z</time>
      </trkpt>
      <trkpt lat="47.10192" lon="6.16119">
        <ele>341.2</ele>
        <time>2022-10-02T07:23:06Z</time>
      </trkpt>
      <trkpt lat="47.1019" lon="6.16111">
        <ele>340.8</ele>
        <time>2022-10-02T07:23:11Z</time>
      </trkpt>
      <trkpt lat="47.10191" lon="6.16107">
        <ele>340.8</ele>
        <time>2022-10-02T07:23:14Z</time>
      </trkpt>
      <trkpt lat="47.10191" lon="6.16103">
        <ele>341.2</ele>
        <time>2022-10-02T07:23:18Z</time>
      </trkpt>
      <trkpt lat="47.10191" lon="6.1609">
        <ele>340.6</ele>
        <time>2022-10-02T07:26:41Z</time>
      </trkpt>
      <trkpt lat="47.10186" lon="6.16088">
        <ele>340.4</ele>
        <time>2022-10-02T07:26:44Z</time>
      </trkpt>
      <trkpt lat="47.1018" lon="6.16084">
        <ele>339.8</ele>
        <time>2022-10-02T07:26:48Z</time>
      </trkpt>
      <trkpt lat="47.10174" lon="6.16082">
        <ele>339.6</ele>
        <time>2022-10-02T07:26:51Z</time>
      </trkpt>
      <trkpt lat="47.10155" lon="6.16077">
        <ele>339.2</ele>
        <time>2022-10-02T07:26:59Z</time>
      </trkpt>
      <trkpt lat="47.10144" lon="6.16077">
        <ele>339.2</ele>
        <time>2022-10-02T07:27:05Z</time>
      </trkpt>
      <trkpt lat="47.10135" lon="6.16078">
        <ele>338.6</ele>
        <time>2022-10-02T07:27:13Z</time>
      </trkpt>
      <trkpt lat="47.10123" lon="6.16083">
        <ele>338.6</ele>
        <time>2022-10-02T07:27:21Z</time>
      </trkpt>
      <trkpt lat="47.10112" lon="6.16091">
        <ele>338.8</ele>
        <time>2022-10-02T07:27:29Z</time>
      </trkpt>
      <trkpt lat="47.1011" lon="6.161">
        <ele>338.8</ele>
        <time>2022-10-02T07:27:35Z</time>
      </trkpt>
      <trkpt lat="47.10114" lon="6.16108">
        <ele>339.4</ele>
        <time>2022-10-02T07:27:40Z</time>
      </trkpt>
      <trkpt lat="47.10115" lon="6.16112">
        <ele>339.4</ele>
        <time>2022-10-02T07:27:42Z</time>
      </trkpt>
      <trkpt lat="47.1012" lon="6.16123">
        <ele>339.6</ele>
        <time>2022-10-02T07:27:48Z</time>
      </trkpt>
      <trkpt lat="47.10123" lon="6.1613">
        <ele>340</ele>
        <time>2022-10-02T07:27:51Z</time>
      </trkpt>
      <trkpt lat="47.10132" lon="6.16148">
        <ele>340</ele>
        <time>2022-10-02T07:27:59Z</time>
      </trkpt>
      <trkpt lat="47.10143" lon="6.16155">
        <ele>340</ele>
        <time>2022-10-02T07:28:06Z</time>
      </trkpt>
      <trkpt lat="47.10158" lon="6.16156">
        <ele>340.6</ele>
        <time>2022-10-02T07:28:14Z</time>
      </trkpt>
      <trkpt lat="47.10161" lon="6.16158">
        <ele>340.8</ele>
        <time>2022-10-02T07:28:16Z</time>
      </trkpt>
      <trkpt lat="47.10167" lon="6.16162">
        <ele>341</ele>
        <time>2022-10-02T07:28:20Z</time>
      </trkpt>
      <trkpt lat="47.10177" lon="6.16172">
        <ele>341.8</ele>
        <time>2022-10-02T07:28:26Z</time>
      </trkpt>
      <trkpt lat="47.10181" lon="6.16172">
        <ele>341.6</ele>
        <time>2022-10-02T07:28:28Z</time>
      </trkpt>
      <trkpt lat="47.10189" lon="6.16163">
        <ele>342.2</ele>
        <time>2022-10-02T07:28:33Z</time>
      </trkpt>
      <trkpt lat="47.10204" lon="6.16147">
        <ele>342.4</ele>
        <time>2022-10-02T07:28:42Z</time>
      </trkpt>
      <trkpt lat="47.10217" lon="6.16134">
        <ele>342.2</ele>
        <time>2022-10-02T07:28:50Z</time>
      </trkpt>
      <trkpt lat="47.10232" lon="6.16119">
        <ele>342</ele>
        <time>2022-10-02T07:28:59Z</time>
      </trkpt>
      <trkpt lat="47.10244" lon="6.16108">
        <ele>342.4</ele>
        <time>2022-10-02T07:29:07Z</time>
      </trkpt>
      <trkpt lat="47.10257" lon="6.16095">
        <ele>342</ele>
        <time>2022-10-02T07:29:15Z</time>
      </trkpt>
      <trkpt lat="47.1027" lon="6.1608">
        <ele>342.4</ele>
        <time>2022-10-02T07:29:22Z</time>
      </trkpt>
      <trkpt lat="47.10279" lon="6.16069">
        <ele>342.6</ele>
        <time>2022-10-02T07:29:28Z</time>
      </trkpt>
      <trkpt lat="47.10291" lon="6.16058">
        <ele>342.6</ele>
        <time>2022-10-02T07:29:33Z</time>
      </trkpt>
      <trkpt lat="47.1031" lon="6.16036">
        <ele>342.6</ele>
        <time>2022-10-02T07:29:41Z</time>
      </trkpt>
      <trkpt lat="47.10314" lon="6.1603">
        <ele>342.8</ele>
        <time>2022-10-02T07:29:43Z</time>
      </trkpt>
      <trkpt lat="47.1033" lon="6.16006">
        <ele>342.2</ele>
        <time>2022-10-02T07:29:50Z</time>
      </trkpt>
      <trkpt lat="47.10343" lon="6.15982">
        <ele>341.8</ele>
        <time>2022-10-02T07:29:56Z</time>
      </trkpt>
      <trkpt lat="47.10345" lon="6.15979">
        <ele>341.6</ele>
        <time>2022-10-02T07:29:57Z</time>
      </trkpt>
      <trkpt lat="47.10358" lon="6.15948">
        <ele>341.2</ele>
        <time>2022-10-02T07:30:04Z</time>
      </trkpt>
      <trkpt lat="47.10374" lon="6.15905">
        <ele>341.2</ele>
        <time>2022-10-02T07:30:13Z</time>
      </trkpt>
      <trkpt lat="47.10385" lon="6.15859">
        <ele>341.6</ele>
        <time>2022-10-02T07:30:22Z</time>
      </trkpt>
      <trkpt lat="47.10394" lon="6.1582">
        <ele>342.6</ele>
        <time>2022-10-02T07:30:30Z</time>
      </trkpt>
      <trkpt lat="47.10399" lon="6.15786">
        <ele>343.2</ele>
        <time>2022-10-02T07:30:37Z</time>
      </trkpt>
      <trkpt lat="47.10401" lon="6.15766">
        <ele>343.8</ele>
        <time>2022-10-02T07:30:41Z</time>
      </trkpt>
      <trkpt lat="47.10404" lon="6.15746">
        <ele>344</ele>
        <time>2022-10-02T07:30:46Z</time>
      </trkpt>
      <trkpt lat="47.10409" lon="6.15704">
        <ele>344</ele>
        <time>2022-10-02T07:30:56Z</time>
      </trkpt>
      <trkpt lat="47.10417" lon="6.15659">
        <ele>344.6</ele>
        <time>2022-10-02T07:31:06Z</time>
      </trkpt>
      <trkpt lat="47.10421" lon="6.15653">
        <ele>344.2</ele>
        <time>2022-10-02T07:31:09Z</time>
      </trkpt>
      <trkpt lat="47.10423" lon="6.15652">
        <ele>344.2</ele>
        <time>2022-10-02T07:31:10Z</time>
      </trkpt>
      <trkpt lat="47.10435" lon="6.15649">
        <ele>344</ele>
        <time>2022-10-02T07:31:14Z</time>
      </trkpt>
      <trkpt lat="47.10438" lon="6.15653">
        <ele>344</ele>
        <time>2022-10-02T07:31:15Z</time>
      </trkpt>
      <trkpt lat="47.10448" lon="6.15674">
        <ele>343</ele>
        <time>2022-10-02T07:31:19Z</time>
      </trkpt>
      <trkpt lat="47.1045" lon="6.15681">
        <ele>342.8</ele>
        <time>2022-10-02T07:31:20Z</time>
      </trkpt>
      <trkpt lat="47.10451" lon="6.15689">
        <ele>342.4</ele>
        <time>2022-10-02T07:31:21Z</time>
      </trkpt>
      <trkpt lat="47.10454" lon="6.1571">
        <ele>341.2</ele>
        <time>2022-10-02T07:31:24Z</time>
      </trkpt>
      <trkpt lat="47.10454" lon="6.15717">
        <ele>341</ele>
        <time>2022-10-02T07:31:25Z</time>
      </trkpt>
      <trkpt lat="47.10455" lon="6.15729">
        <ele>340.2</ele>
        <time>2022-10-02T07:31:27Z</time>
      </trkpt>
      <trkpt lat="47.10453" lon="6.15744">
        <ele>339</ele>
        <time>2022-10-02T07:31:30Z</time>
      </trkpt>
      <trkpt lat="47.10442" lon="6.1575">
        <ele>337.6</ele>
        <time>2022-10-02T07:31:33Z</time>
      </trkpt>
      <trkpt lat="47.1043" lon="6.15744">
        <ele>336.4</ele>
        <time>2022-10-02T07:31:36Z</time>
      </trkpt>
      <trkpt lat="47.10426" lon="6.15741">
        <ele>336.2</ele>
        <time>2022-10-02T07:31:37Z</time>
      </trkpt>
      <trkpt lat="47.10412" lon="6.15733">
        <ele>335.4</ele>
        <time>2022-10-02T07:31:41Z</time>
      </trkpt>
      <trkpt lat="47.10402" lon="6.15727">
        <ele>335</ele>
        <time>2022-10-02T07:31:44Z</time>
      </trkpt>
      <trkpt lat="47.10376" lon="6.15706">
        <ele>335.4</ele>
        <time>2022-10-02T07:31:52Z</time>
      </trkpt>
      <trkpt lat="47.10351" lon="6.15683">
        <ele>335.6</ele>
        <time>2022-10-02T07:32:00Z</time>
      </trkpt>
      <trkpt lat="47.10327" lon="6.15658">
        <ele>336</ele>
        <time>2022-10-02T07:32:08Z</time>
      </trkpt>
      <trkpt lat="47.10302" lon="6.15629">
        <ele>335.4</ele>
        <time>2022-10-02T07:32:16Z</time>
      </trkpt>
      <trkpt lat="47.10274" lon="6.15596">
        <ele>334.4</ele>
        <time>2022-10-02T07:32:23Z</time>
      </trkpt>
      <trkpt lat="47.1027" lon="6.15591">
        <ele>334.2</ele>
        <time>2022-10-02T07:32:24Z</time>
      </trkpt>
      <trkpt lat="47.10262" lon="6.15579">
        <ele>333.8</ele>
        <time>2022-10-02T07:32:26Z</time>
      </trkpt>
      <trkpt lat="47.10255" lon="6.15558">
        <ele>333.2</ele>
        <time>2022-10-02T07:32:29Z</time>
      </trkpt>
      <trkpt lat="47.10254" lon="6.15527">
        <ele>332.4</ele>
        <time>2022-10-02T07:32:33Z</time>
      </trkpt>
      <trkpt lat="47.10255" lon="6.1552">
        <ele>332.2</ele>
        <time>2022-10-02T07:32:34Z</time>
      </trkpt>
      <trkpt lat="47.10258" lon="6.15489">
        <ele>331.8</ele>
        <time>2022-10-02T07:32:39Z</time>
      </trkpt>
      <trkpt lat="47.10263" lon="6.15461">
        <ele>332.4</ele>
        <time>2022-10-02T07:32:45Z</time>
      </trkpt>
      <trkpt lat="47.10269" lon="6.15426">
        <ele>332.8</ele>
        <time>2022-10-02T07:32:53Z</time>
      </trkpt>
      <trkpt lat="47.1027" lon="6.15417">
        <ele>333.4</ele>
        <time>2022-10-02T07:32:55Z</time>
      </trkpt>
      <trkpt lat="47.1027" lon="6.15407">
        <ele>333.8</ele>
        <time>2022-10-02T07:32:58Z</time>
      </trkpt>
      <trkpt lat="47.10269" lon="6.15405">
        <ele>334</ele>
        <time>2022-10-02T07:32:59Z</time>
      </trkpt>
      <trkpt lat="47.10263" lon="6.15409">
        <ele>334</ele>
        <time>2022-10-02T07:33:02Z</time>
      </trkpt>
      <trkpt lat="47.1026" lon="6.15418">
        <ele>333.8</ele>
        <time>2022-10-02T07:33:04Z</time>
      </trkpt>
      <trkpt lat="47.10255" lon="6.15429">
        <ele>333.4</ele>
        <time>2022-10-02T07:33:06Z</time>
      </trkpt>
      <trkpt lat="47.10249" lon="6.15439">
        <ele>333.2</ele>
        <time>2022-10-02T07:33:08Z</time>
      </trkpt>
      <trkpt lat="47.10239" lon="6.15444">
        <ele>332.8</ele>
        <time>2022-10-02T07:33:10Z</time>
      </trkpt>
      <trkpt lat="47.10228" lon="6.15447">
        <ele>332.2</ele>
        <time>2022-10-02T07:33:12Z</time>
      </trkpt>
      <trkpt lat="47.10212" lon="6.15447">
        <ele>331.8</ele>
        <time>2022-10-02T07:33:15Z</time>
      </trkpt>
      <trkpt lat="47.10189" lon="6.15445">
        <ele>332.2</ele>
        <time>2022-10-02T07:33:21Z</time>
      </trkpt>
      <trkpt lat="47.10172" lon="6.15439">
        <ele>332.2</ele>
        <time>2022-10-02T07:33:27Z</time>
      </trkpt>
      <trkpt lat="47.10167" lon="6.15417">
        <ele>333</ele>
        <time>2022-10-02T07:33:32Z</time>
      </trkpt>
      <trkpt lat="47.10168" lon="6.15407">
        <ele>333.2</ele>
        <time>2022-10-02T07:33:34Z</time>
      </trkpt>
      <trkpt lat="47.10168" lon="6.15403">
        <ele>333.6</ele>
        <time>2022-10-02T07:33:35Z</time>
      </trkpt>
      <trkpt lat="47.1017" lon="6.1539">
        <ele>334.6</ele>
        <time>2022-10-02T07:33:38Z</time>
      </trkpt>
      <trkpt lat="47.1017" lon="6.15386">
        <ele>334.8</ele>
        <time>2022-10-02T07:33:39Z</time>
      </trkpt>
      <trkpt lat="47.10171" lon="6.15378">
        <ele>335.6</ele>
        <time>2022-10-02T07:33:41Z</time>
      </trkpt>
      <trkpt lat="47.10176" lon="6.15349">
        <ele>336.8</ele>
        <time>2022-10-02T07:33:48Z</time>
      </trkpt>
      <trkpt lat="47.10176" lon="6.15346">
        <ele>337</ele>
        <time>2022-10-02T07:33:49Z</time>
      </trkpt>
      <trkpt lat="47.10176" lon="6.15315">
        <ele>337.8</ele>
        <time>2022-10-02T07:33:56Z</time>
      </trkpt>
      <trkpt lat="47.10174" lon="6.15297">
        <ele>338.8</ele>
        <time>2022-10-02T07:34:00Z</time>
      </trkpt>
      <trkpt lat="47.10174" lon="6.15283">
        <ele>340.2</ele>
        <time>2022-10-02T07:34:04Z</time>
      </trkpt>
      <trkpt lat="47.10173" lon="6.15264">
        <ele>341.4</ele>
        <time>2022-10-02T07:34:09Z</time>
      </trkpt>
      <trkpt lat="47.10172" lon="6.15253">
        <ele>342.2</ele>
        <time>2022-10-02T07:34:12Z</time>
      </trkpt>
      <trkpt lat="47.10171" lon="6.15249">
        <ele>342.4</ele>
        <time>2022-10-02T07:34:13Z</time>
      </trkpt>
      <trkpt lat="47.1017" lon="6.15234">
        <ele>343.6</ele>
        <time>2022-10-02T07:34:17Z</time>
      </trkpt>
      <trkpt lat="47.1017" lon="6.15222">
        <ele>345</ele>
        <time>2022-10-02T07:34:20Z</time>
      </trkpt>
      <trkpt lat="47.10169" lon="6.1521">
        <ele>346.6</ele>
        <time>2022-10-02T07:34:23Z</time>
      </trkpt>
      <trkpt lat="47.1017" lon="6.15199">
        <ele>347.6</ele>
        <time>2022-10-02T07:34:26Z</time>
      </trkpt>
      <trkpt lat="47.1017" lon="6.15192">
        <ele>348.2</ele>
        <time>2022-10-02T07:34:28Z</time>
      </trkpt>
      <trkpt lat="47.10171" lon="6.15186">
        <ele>348.8</ele>
        <time>2022-10-02T07:34:30Z</time>
      </trkpt>
      <trkpt lat="47.10175" lon="6.15174">
        <ele>349.8</ele>
        <time>2022-10-02T07:34:34Z</time>
      </trkpt>
      <trkpt lat="47.10178" lon="6.15168">
        <ele>350.2</ele>
        <time>2022-10-02T07:34:36Z</time>
      </trkpt>
      <trkpt lat="47.10181" lon="6.15159">
        <ele>351</ele>
        <time>2022-10-02T07:34:39Z</time>
      </trkpt>
      <trkpt lat="47.10186" lon="6.15147">
        <ele>351.8</ele>
        <time>2022-10-02T07:34:44Z</time>
      </trkpt>
      <trkpt lat="47.10187" lon="6.15145">
        <ele>352</ele>
        <time>2022-10-02T07:34:45Z</time>
      </trkpt>
      <trkpt lat="47.10193" lon="6.1513">
        <ele>353</ele>
        <time>2022-10-02T07:34:51Z</time>
      </trkpt>
      <trkpt lat="47.10195" lon="6.15124">
        <ele>353.2</ele>
        <time>2022-10-02T07:34:54Z</time>
      </trkpt>
      <trkpt lat="47.10201" lon="6.15109">
        <ele>354.2</ele>
        <time>2022-10-02T07:35:00Z</time>
      </trkpt>
      <trkpt lat="47.10204" lon="6.15101">
        <ele>354.8</ele>
        <time>2022-10-02T07:35:03Z</time>
      </trkpt>
      <trkpt lat="47.10208" lon="6.1509">
        <ele>355.2</ele>
        <time>2022-10-02T07:35:07Z</time>
      </trkpt>
      <trkpt lat="47.10213" lon="6.15075">
        <ele>356.4</ele>
        <time>2022-10-02T07:35:12Z</time>
      </trkpt>
      <trkpt lat="47.10221" lon="6.15047">
        <ele>357.8</ele>
        <time>2022-10-02T07:35:20Z</time>
      </trkpt>
      <trkpt lat="47.10222" lon="6.15044">
        <ele>358</ele>
        <time>2022-10-02T07:35:21Z</time>
      </trkpt>
      <trkpt lat="47.10226" lon="6.15021">
        <ele>358.8</ele>
        <time>2022-10-02T07:35:28Z</time>
      </trkpt>
      <trkpt lat="47.10229" lon="6.15">
        <ele>359.8</ele>
        <time>2022-10-02T07:35:33Z</time>
      </trkpt>
      <trkpt lat="47.1023" lon="6.14996">
        <ele>360</ele>
        <time>2022-10-02T07:35:34Z</time>
      </trkpt>
      <trkpt lat="47.10231" lon="6.14973">
        <ele>360.4</ele>
        <time>2022-10-02T07:35:40Z</time>
      </trkpt>
      <trkpt lat="47.10231" lon="6.14943">
        <ele>359.8</ele>
        <time>2022-10-02T07:35:45Z</time>
      </trkpt>
      <trkpt lat="47.1023" lon="6.14931">
        <ele>359.6</ele>
        <time>2022-10-02T07:35:47Z</time>
      </trkpt>
      <trkpt lat="47.10228" lon="6.14923">
        <ele>359.4</ele>
        <time>2022-10-02T07:35:49Z</time>
      </trkpt>
      <trkpt lat="47.10219" lon="6.14912">
        <ele>359</ele>
        <time>2022-10-02T07:35:54Z</time>
      </trkpt>
      <trkpt lat="47.10206" lon="6.14897">
        <ele>359</ele>
        <time>2022-10-02T07:36:02Z</time>
      </trkpt>
      <trkpt lat="47.10205" lon="6.14895">
        <ele>358.8</ele>
        <time>2022-10-02T07:36:03Z</time>
      </trkpt>
      <trkpt lat="47.10194" lon="6.14883">
        <ele>359.2</ele>
        <time>2022-10-02T07:36:09Z</time>
      </trkpt>
      <trkpt lat="47.1018" lon="6.14871">
        <ele>360</ele>
        <time>2022-10-02T07:36:17Z</time>
      </trkpt>
      <trkpt lat="47.10173" lon="6.14865">
        <ele>361.2</ele>
        <time>2022-10-02T07:36:22Z</time>
      </trkpt>
      <trkpt lat="47.1017" lon="6.14862">
        <ele>361.6</ele>
        <time>2022-10-02T07:36:24Z</time>
      </trkpt>
      <trkpt lat="47.10162" lon="6.14856">
        <ele>362.4</ele>
        <time>2022-10-02T07:36:29Z</time>
      </trkpt>
      <trkpt lat="47.10158" lon="6.14852">
        <ele>363.2</ele>
        <time>2022-10-02T07:36:32Z</time>
      </trkpt>
      <trkpt lat="47.1015" lon="6.14841">
        <ele>363.4</ele>
        <time>2022-10-02T07:36:39Z</time>
      </trkpt>
      <trkpt lat="47.10147" lon="6.14835">
        <ele>363.4</ele>
        <time>2022-10-02T07:36:41Z</time>
      </trkpt>
      <trkpt lat="47.10139" lon="6.14819">
        <ele>363.8</ele>
        <time>2022-10-02T07:36:45Z</time>
      </trkpt>
      <trkpt lat="47.10122" lon="6.14788">
        <ele>364.4</ele>
        <time>2022-10-02T07:36:51Z</time>
      </trkpt>
      <trkpt lat="47.1012" lon="6.14783">
        <ele>364.6</ele>
        <time>2022-10-02T07:36:52Z</time>
      </trkpt>
      <trkpt lat="47.10111" lon="6.14773">
        <ele>365.8</ele>
        <time>2022-10-02T07:36:55Z</time>
      </trkpt>
      <trkpt lat="47.10108" lon="6.14769">
        <ele>366.4</ele>
        <time>2022-10-02T07:36:56Z</time>
      </trkpt>
      <trkpt lat="47.10104" lon="6.1476">
        <ele>367</ele>
        <time>2022-10-02T07:36:58Z</time>
      </trkpt>
      <trkpt lat="47.10094" lon="6.14744">
        <ele>368.2</ele>
        <time>2022-10-02T07:37:02Z</time>
      </trkpt>
      <trkpt lat="47.10091" lon="6.1474">
        <ele>368.4</ele>
        <time>2022-10-02T07:37:03Z</time>
      </trkpt>
      <trkpt lat="47.10081" lon="6.14725">
        <ele>369.2</ele>
        <time>2022-10-02T07:37:07Z</time>
      </trkpt>
      <trkpt lat="47.10067" lon="6.14708">
        <ele>370.6</ele>
        <time>2022-10-02T07:37:12Z</time>
      </trkpt>
      <trkpt lat="47.10055" lon="6.14693">
        <ele>371.6</ele>
        <time>2022-10-02T07:37:17Z</time>
      </trkpt>
      <trkpt lat="47.1005" lon="6.14688">
        <ele>371.8</ele>
        <time>2022-10-02T07:37:19Z</time>
      </trkpt>
      <trkpt lat="47.1004" lon="6.14679">
        <ele>372.8</ele>
        <time>2022-10-02T07:37:23Z</time>
      </trkpt>
      <trkpt lat="47.10028" lon="6.1467">
        <ele>373.6</ele>
        <time>2022-10-02T07:37:28Z</time>
      </trkpt>
      <trkpt lat="47.10026" lon="6.14668">
        <ele>373.8</ele>
        <time>2022-10-02T07:37:29Z</time>
      </trkpt>
      <trkpt lat="47.10016" lon="6.14661">
        <ele>375</ele>
        <time>2022-10-02T07:37:33Z</time>
      </trkpt>
      <trkpt lat="47.10009" lon="6.14655">
        <ele>376.2</ele>
        <time>2022-10-02T07:37:36Z</time>
      </trkpt>
      <trkpt lat="47.10006" lon="6.14653">
        <ele>376.8</ele>
        <time>2022-10-02T07:37:37Z</time>
      </trkpt>
      <trkpt lat="47.09987" lon="6.14641">
        <ele>377.4</ele>
        <time>2022-10-02T07:37:44Z</time>
      </trkpt>
      <trkpt lat="47.09984" lon="6.14639">
        <ele>377.6</ele>
        <time>2022-10-02T07:37:45Z</time>
      </trkpt>
      <trkpt lat="47.09969" lon="6.14628">
        <ele>378.8</ele>
        <time>2022-10-02T07:37:50Z</time>
      </trkpt>
      <trkpt lat="47.09963" lon="6.14624">
        <ele>379</ele>
        <time>2022-10-02T07:37:52Z</time>
      </trkpt>
      <trkpt lat="47.09949" lon="6.14613">
        <ele>378.8</ele>
        <time>2022-10-02T07:37:58Z</time>
      </trkpt>
      <trkpt lat="47.09928" lon="6.146">
        <ele>379.8</ele>
        <time>2022-10-02T07:38:05Z</time>
      </trkpt>
      <trkpt lat="47.09912" lon="6.14589">
        <ele>380.8</ele>
        <time>2022-10-02T07:38:11Z</time>
      </trkpt>
      <trkpt lat="47.09908" lon="6.14586">
        <ele>381.4</ele>
        <time>2022-10-02T07:38:13Z</time>
      </trkpt>
      <trkpt lat="47.09902" lon="6.1458">
        <ele>382</ele>
        <time>2022-10-02T07:38:16Z</time>
      </trkpt>
      <trkpt lat="47.09889" lon="6.14571">
        <ele>382.6</ele>
        <time>2022-10-02T07:38:21Z</time>
      </trkpt>
      <trkpt lat="47.09884" lon="6.14566">
        <ele>383</ele>
        <time>2022-10-02T07:38:23Z</time>
      </trkpt>
      <trkpt lat="47.09878" lon="6.1456">
        <ele>384.2</ele>
        <time>2022-10-02T07:38:26Z</time>
      </trkpt>
      <trkpt lat="47.09873" lon="6.14556">
        <ele>384.8</ele>
        <time>2022-10-02T07:38:29Z</time>
      </trkpt>
      <trkpt lat="47.09868" lon="6.14551">
        <ele>385.6</ele>
        <time>2022-10-02T07:38:32Z</time>
      </trkpt>
      <trkpt lat="47.09859" lon="6.14543">
        <ele>386</ele>
        <time>2022-10-02T07:38:37Z</time>
      </trkpt>
      <trkpt lat="47.09848" lon="6.14534">
        <ele>386.2</ele>
        <time>2022-10-02T07:38:43Z</time>
      </trkpt>
      <trkpt lat="47.09844" lon="6.1453">
        <ele>386.6</ele>
        <time>2022-10-02T07:38:45Z</time>
      </trkpt>
      <trkpt lat="47.09835" lon="6.14524">
        <ele>387.4</ele>
        <time>2022-10-02T07:38:50Z</time>
      </trkpt>
      <trkpt lat="47.09828" lon="6.14519">
        <ele>387.8</ele>
        <time>2022-10-02T07:38:55Z</time>
      </trkpt>
      <trkpt lat="47.09824" lon="6.14517">
        <ele>388.2</ele>
        <time>2022-10-02T07:38:57Z</time>
      </trkpt>
      <trkpt lat="47.09813" lon="6.14508">
        <ele>388</ele>
        <time>2022-10-02T07:39:04Z</time>
      </trkpt>
      <trkpt lat="47.09811" lon="6.14507">
        <ele>388</ele>
        <time>2022-10-02T07:39:05Z</time>
      </trkpt>
      <trkpt lat="47.09807" lon="6.14503">
        <ele>389.2</ele>
        <time>2022-10-02T07:39:08Z</time>
      </trkpt>
      <trkpt lat="47.09802" lon="6.145">
        <ele>390.2</ele>
        <time>2022-10-02T07:39:12Z</time>
      </trkpt>
      <trkpt lat="47.09797" lon="6.145">
        <ele>390.2</ele>
        <time>2022-10-02T07:39:16Z</time>
      </trkpt>
      <trkpt lat="47.09796" lon="6.14504">
        <ele>390.6</ele>
        <time>2022-10-02T07:39:18Z</time>
      </trkpt>
      <trkpt lat="47.09797" lon="6.14509">
        <ele>391.2</ele>
        <time>2022-10-02T07:39:20Z</time>
      </trkpt>
      <trkpt lat="47.09798" lon="6.14511">
        <ele>391.6</ele>
        <time>2022-10-02T07:39:21Z</time>
      </trkpt>
      <trkpt lat="47.09801" lon="6.14515">
        <ele>391.8</ele>
        <time>2022-10-02T07:39:23Z</time>
      </trkpt>
      <trkpt lat="47.09805" lon="6.14521">
        <ele>392.2</ele>
        <time>2022-10-02T07:39:26Z</time>
      </trkpt>
      <trkpt lat="47.09806" lon="6.14524">
        <ele>392.4</ele>
        <time>2022-10-02T07:39:27Z</time>
      </trkpt>
      <trkpt lat="47.0981" lon="6.14532">
        <ele>393</ele>
        <time>2022-10-02T07:39:30Z</time>
      </trkpt>
      <trkpt lat="47.09818" lon="6.14544">
        <ele>393.6</ele>
        <time>2022-10-02T07:39:34Z</time>
      </trkpt>
      <trkpt lat="47.09823" lon="6.14553">
        <ele>393.6</ele>
        <time>2022-10-02T07:39:37Z</time>
      </trkpt>
      <trkpt lat="47.09833" lon="6.1457">
        <ele>394.8</ele>
        <time>2022-10-02T07:39:43Z</time>
      </trkpt>
      <trkpt lat="47.09837" lon="6.14578">
        <ele>395</ele>
        <time>2022-10-02T07:39:45Z</time>
      </trkpt>
      <trkpt lat="47.09849" lon="6.14594">
        <ele>395.8</ele>
        <time>2022-10-02T07:39:51Z</time>
      </trkpt>
      <trkpt lat="47.0985" lon="6.14596">
        <ele>396</ele>
        <time>2022-10-02T07:39:52Z</time>
      </trkpt>
      <trkpt lat="47.09858" lon="6.14611">
        <ele>397</ele>
        <time>2022-10-02T07:39:58Z</time>
      </trkpt>
      <trkpt lat="47.09859" lon="6.14613">
        <ele>397.2</ele>
        <time>2022-10-02T07:39:59Z</time>
      </trkpt>
      <trkpt lat="47.09865" lon="6.14625">
        <ele>398</ele>
        <time>2022-10-02T07:40:04Z</time>
      </trkpt>
      <trkpt lat="47.09868" lon="6.14631">
        <ele>397.8</ele>
        <time>2022-10-02T07:40:06Z</time>
      </trkpt>
      <trkpt lat="47.09881" lon="6.14653">
        <ele>397.8</ele>
        <time>2022-10-02T07:40:13Z</time>
      </trkpt>
      <trkpt lat="47.09893" lon="6.14671">
        <ele>398.6</ele>
        <time>2022-10-02T07:40:20Z</time>
      </trkpt>
      <trkpt lat="47.09907" lon="6.1469">
        <ele>398.8</ele>
        <time>2022-10-02T07:40:28Z</time>
      </trkpt>
      <trkpt lat="47.09921" lon="6.14706">
        <ele>399.2</ele>
        <time>2022-10-02T07:40:35Z</time>
      </trkpt>
      <trkpt lat="47.09923" lon="6.14709">
        <ele>399.4</ele>
        <time>2022-10-02T07:40:36Z</time>
      </trkpt>
      <trkpt lat="47.09929" lon="6.14715">
        <ele>400.2</ele>
        <time>2022-10-02T07:40:39Z</time>
      </trkpt>
      <trkpt lat="47.0994" lon="6.14726">
        <ele>401.2</ele>
        <time>2022-10-02T07:40:44Z</time>
      </trkpt>
      <trkpt lat="47.09941" lon="6.14728">
        <ele>401.4</ele>
        <time>2022-10-02T07:40:45Z</time>
      </trkpt>
      <trkpt lat="47.09948" lon="6.14736">
        <ele>402.6</ele>
        <time>2022-10-02T07:40:49Z</time>
      </trkpt>
      <trkpt lat="47.09952" lon="6.14742">
        <ele>403.2</ele>
        <time>2022-10-02T07:40:52Z</time>
      </trkpt>
      <trkpt lat="47.09957" lon="6.1475">
        <ele>403.6</ele>
        <time>2022-10-02T07:40:56Z</time>
      </trkpt>
      <trkpt lat="47.09959" lon="6.14755">
        <ele>404.2</ele>
        <time>2022-10-02T07:40:58Z</time>
      </trkpt>
      <trkpt lat="47.09963" lon="6.14762">
        <ele>404.8</ele>
        <time>2022-10-02T07:41:01Z</time>
      </trkpt>
      <trkpt lat="47.09968" lon="6.14773">
        <ele>404.4</ele>
        <time>2022-10-02T07:41:06Z</time>
      </trkpt>
      <trkpt lat="47.09976" lon="6.1479">
        <ele>404.2</ele>
        <time>2022-10-02T07:41:14Z</time>
      </trkpt>
      <trkpt lat="47.09983" lon="6.14805">
        <ele>404.6</ele>
        <time>2022-10-02T07:41:22Z</time>
      </trkpt>
      <trkpt lat="47.09989" lon="6.1482">
        <ele>404.4</ele>
        <time>2022-10-02T07:41:28Z</time>
      </trkpt>
      <trkpt lat="47.09995" lon="6.14831">
        <ele>404.6</ele>
        <time>2022-10-02T07:41:34Z</time>
      </trkpt>
      <trkpt lat="47.09997" lon="6.14835">
        <ele>404.8</ele>
        <time>2022-10-02T07:41:35Z</time>
      </trkpt>
      <trkpt lat="47.10003" lon="6.14849">
        <ele>405.8</ele>
        <time>2022-10-02T07:41:40Z</time>
      </trkpt>
      <trkpt lat="47.10006" lon="6.14855">
        <ele>406.2</ele>
        <time>2022-10-02T07:41:42Z</time>
      </trkpt>
      <trkpt lat="47.1001" lon="6.14867">
        <ele>406.8</ele>
        <time>2022-10-02T07:41:47Z</time>
      </trkpt>
      <trkpt lat="47.10013" lon="6.14874">
        <ele>407.4</ele>
        <time>2022-10-02T07:41:50Z</time>
      </trkpt>
      <trkpt lat="47.10014" lon="6.14879">
        <ele>408</ele>
        <time>2022-10-02T07:41:52Z</time>
      </trkpt>
      <trkpt lat="47.10018" lon="6.1489">
        <ele>409</ele>
        <time>2022-10-02T07:41:57Z</time>
      </trkpt>
      <trkpt lat="47.10019" lon="6.14892">
        <ele>409.4</ele>
        <time>2022-10-02T07:41:58Z</time>
      </trkpt>
      <trkpt lat="47.10027" lon="6.14906">
        <ele>409.4</ele>
        <time>2022-10-02T07:42:05Z</time>
      </trkpt>
      <trkpt lat="47.1003" lon="6.14912">
        <ele>410.4</ele>
        <time>2022-10-02T07:42:08Z</time>
      </trkpt>
      <trkpt lat="47.10034" lon="6.14921">
        <ele>410.4</ele>
        <time>2022-10-02T07:42:12Z</time>
      </trkpt>
      <trkpt lat="47.10037" lon="6.14928">
        <ele>410.8</ele>
        <time>2022-10-02T07:42:17Z</time>
      </trkpt>
      <trkpt lat="47.10038" lon="6.14933">
        <ele>410.8</ele>
        <time>2022-10-02T07:42:19Z</time>
      </trkpt>
      <trkpt lat="47.10041" lon="6.14953">
        <ele>409.8</ele>
        <time>2022-10-02T07:42:26Z</time>
      </trkpt>
      <trkpt lat="47.10038" lon="6.1497">
        <ele>410.2</ele>
        <time>2022-10-02T07:42:31Z</time>
      </trkpt>
      <trkpt lat="47.10033" lon="6.14986">
        <ele>411.6</ele>
        <time>2022-10-02T07:42:36Z</time>
      </trkpt>
      <trkpt lat="47.10031" lon="6.14991">
        <ele>412.4</ele>
        <time>2022-10-02T07:42:38Z</time>
      </trkpt>
      <trkpt lat="47.10029" lon="6.14994">
        <ele>412.8</ele>
        <time>2022-10-02T07:42:39Z</time>
      </trkpt>
      <trkpt lat="47.10026" lon="6.14997">
        <ele>414.2</ele>
        <time>2022-10-02T07:42:41Z</time>
      </trkpt>
      <trkpt lat="47.1002" lon="6.15003">
        <ele>415.4</ele>
        <time>2022-10-02T07:42:44Z</time>
      </trkpt>
      <trkpt lat="47.10018" lon="6.15004">
        <ele>416</ele>
        <time>2022-10-02T07:42:45Z</time>
      </trkpt>
      <trkpt lat="47.10015" lon="6.15004">
        <ele>416.6</ele>
        <time>2022-10-02T07:42:47Z</time>
      </trkpt>
      <trkpt lat="47.10011" lon="6.15004">
        <ele>418</ele>
        <time>2022-10-02T07:42:49Z</time>
      </trkpt>
      <trkpt lat="47.10007" lon="6.15002">
        <ele>419</ele>
        <time>2022-10-02T07:42:51Z</time>
      </trkpt>
      <trkpt lat="47.10002" lon="6.14997">
        <ele>420.4</ele>
        <time>2022-10-02T07:42:54Z</time>
      </trkpt>
      <trkpt lat="47.09997" lon="6.14988">
        <ele>421.6</ele>
        <time>2022-10-02T07:42:58Z</time>
      </trkpt>
      <trkpt lat="47.09989" lon="6.14971">
        <ele>422.8</ele>
        <time>2022-10-02T07:43:04Z</time>
      </trkpt>
      <trkpt lat="47.09985" lon="6.14963">
        <ele>423.4</ele>
        <time>2022-10-02T07:43:07Z</time>
      </trkpt>
      <trkpt lat="47.09983" lon="6.14955">
        <ele>423.8</ele>
        <time>2022-10-02T07:43:10Z</time>
      </trkpt>
      <trkpt lat="47.09979" lon="6.14945">
        <ele>424.4</ele>
        <time>2022-10-02T07:43:13Z</time>
      </trkpt>
      <trkpt lat="47.09976" lon="6.1494">
        <ele>425</ele>
        <time>2022-10-02T07:43:15Z</time>
      </trkpt>
      <trkpt lat="47.09969" lon="6.14927">
        <ele>425.2</ele>
        <time>2022-10-02T07:43:20Z</time>
      </trkpt>
      <trkpt lat="47.09958" lon="6.1491">
        <ele>425.8</ele>
        <time>2022-10-02T07:43:26Z</time>
      </trkpt>
      <trkpt lat="47.09956" lon="6.14908">
        <ele>426</ele>
        <time>2022-10-02T07:43:27Z</time>
      </trkpt>
      <trkpt lat="47.09944" lon="6.14897">
        <ele>425.8</ele>
        <time>2022-10-02T07:43:33Z</time>
      </trkpt>
      <trkpt lat="47.09934" lon="6.14886">
        <ele>425.8</ele>
        <time>2022-10-02T07:43:39Z</time>
      </trkpt>
      <trkpt lat="47.09922" lon="6.14877">
        <ele>425.2</ele>
        <time>2022-10-02T07:43:46Z</time>
      </trkpt>
      <trkpt lat="47.09919" lon="6.14875">
        <ele>425</ele>
        <time>2022-10-02T07:43:48Z</time>
      </trkpt>
      <trkpt lat="47.09911" lon="6.14871">
        <ele>425.6</ele>
        <time>2022-10-02T07:43:53Z</time>
      </trkpt>
      <trkpt lat="47.09898" lon="6.14858">
        <ele>425.2</ele>
        <time>2022-10-02T07:44:00Z</time>
      </trkpt>
      <trkpt lat="47.09885" lon="6.14848">
        <ele>424.4</ele>
        <time>2022-10-02T07:44:06Z</time>
      </trkpt>
      <trkpt lat="47.0987" lon="6.14836">
        <ele>425.6</ele>
        <time>2022-10-02T07:44:11Z</time>
      </trkpt>
      <trkpt lat="47.09868" lon="6.14833">
        <ele>426.2</ele>
        <time>2022-10-02T07:44:12Z</time>
      </trkpt>
      <trkpt lat="47.09851" lon="6.14815">
        <ele>427</ele>
        <time>2022-10-02T07:44:19Z</time>
      </trkpt>
      <trkpt lat="47.09848" lon="6.14813">
        <ele>427.2</ele>
        <time>2022-10-02T07:44:20Z</time>
      </trkpt>
      <trkpt lat="47.09837" lon="6.14802">
        <ele>428.4</ele>
        <time>2022-10-02T07:44:25Z</time>
      </trkpt>
      <trkpt lat="47.09832" lon="6.14799">
        <ele>428.8</ele>
        <time>2022-10-02T07:44:27Z</time>
      </trkpt>
      <trkpt lat="47.0982" lon="6.14783">
        <ele>429.6</ele>
        <time>2022-10-02T07:44:34Z</time>
      </trkpt>
      <trkpt lat="47.09811" lon="6.14773">
        <ele>431</ele>
        <time>2022-10-02T07:44:38Z</time>
      </trkpt>
      <trkpt lat="47.09806" lon="6.14767">
        <ele>431.6</ele>
        <time>2022-10-02T07:44:41Z</time>
      </trkpt>
      <trkpt lat="47.09803" lon="6.14763">
        <ele>432</ele>
        <time>2022-10-02T07:44:43Z</time>
      </trkpt>
      <trkpt lat="47.09787" lon="6.14746">
        <ele>432.8</ele>
        <time>2022-10-02T07:44:51Z</time>
      </trkpt>
      <trkpt lat="47.09783" lon="6.14741">
        <ele>433</ele>
        <time>2022-10-02T07:44:53Z</time>
      </trkpt>
      <trkpt lat="47.09777" lon="6.14734">
        <ele>434</ele>
        <time>2022-10-02T07:44:57Z</time>
      </trkpt>
      <trkpt lat="47.09775" lon="6.14731">
        <ele>434.4</ele>
        <time>2022-10-02T07:44:58Z</time>
      </trkpt>
      <trkpt lat="47.09764" lon="6.14719">
        <ele>434</ele>
        <time>2022-10-02T07:45:04Z</time>
      </trkpt>
      <trkpt lat="47.09752" lon="6.14705">
        <ele>435.2</ele>
        <time>2022-10-02T07:45:10Z</time>
      </trkpt>
      <trkpt lat="47.09738" lon="6.14691">
        <ele>436</ele>
        <time>2022-10-02T07:45:17Z</time>
      </trkpt>
      <trkpt lat="47.09736" lon="6.1469">
        <ele>436.4</ele>
        <time>2022-10-02T07:45:18Z</time>
      </trkpt>
      <trkpt lat="47.09732" lon="6.14685">
        <ele>437.6</ele>
        <time>2022-10-02T07:45:21Z</time>
      </trkpt>
      <trkpt lat="47.09728" lon="6.14682">
        <ele>438</ele>
        <time>2022-10-02T07:45:23Z</time>
      </trkpt>
      <trkpt lat="47.09722" lon="6.14677">
        <ele>438.8</ele>
        <time>2022-10-02T07:45:26Z</time>
      </trkpt>
      <trkpt lat="47.09713" lon="6.14671">
        <ele>440</ele>
        <time>2022-10-02T07:45:30Z</time>
      </trkpt>
      <trkpt lat="47.09703" lon="6.14663">
        <ele>441.2</ele>
        <time>2022-10-02T07:45:34Z</time>
      </trkpt>
      <trkpt lat="47.09693" lon="6.14657">
        <ele>442.2</ele>
        <time>2022-10-02T07:45:38Z</time>
      </trkpt>
      <trkpt lat="47.0969" lon="6.14655">
        <ele>442.4</ele>
        <time>2022-10-02T07:45:39Z</time>
      </trkpt>
      <trkpt lat="47.09684" lon="6.1465">
        <ele>443.8</ele>
        <time>2022-10-02T07:45:42Z</time>
      </trkpt>
      <trkpt lat="47.09676" lon="6.14645">
        <ele>444.2</ele>
        <time>2022-10-02T07:45:45Z</time>
      </trkpt>
      <trkpt lat="47.09662" lon="6.14635">
        <ele>444.8</ele>
        <time>2022-10-02T07:45:51Z</time>
      </trkpt>
      <trkpt lat="47.09656" lon="6.14633">
        <ele>445.2</ele>
        <time>2022-10-02T07:45:53Z</time>
      </trkpt>
      <trkpt lat="47.0964" lon="6.14625">
        <ele>446</ele>
        <time>2022-10-02T07:45:59Z</time>
      </trkpt>
      <trkpt lat="47.09629" lon="6.14622">
        <ele>447</ele>
        <time>2022-10-02T07:46:03Z</time>
      </trkpt>
      <trkpt lat="47.09622" lon="6.14621">
        <ele>447.6</ele>
        <time>2022-10-02T07:46:06Z</time>
      </trkpt>
      <trkpt lat="47.09604" lon="6.14619">
        <ele>448.2</ele>
        <time>2022-10-02T07:46:13Z</time>
      </trkpt>
      <trkpt lat="47.09602" lon="6.1462">
        <ele>448.2</ele>
        <time>2022-10-02T07:46:14Z</time>
      </trkpt>
      <trkpt lat="47.09592" lon="6.14619">
        <ele>447.8</ele>
        <time>2022-10-02T07:46:19Z</time>
      </trkpt>
      <trkpt lat="47.09579" lon="6.14622">
        <ele>448</ele>
        <time>2022-10-02T07:46:26Z</time>
      </trkpt>
      <trkpt lat="47.09565" lon="6.14625">
        <ele>449.2</ele>
        <time>2022-10-02T07:46:33Z</time>
      </trkpt>
      <trkpt lat="47.09563" lon="6.14626">
        <ele>449.4</ele>
        <time>2022-10-02T07:46:34Z</time>
      </trkpt>
      <trkpt lat="47.09556" lon="6.14627">
        <ele>450.4</ele>
        <time>2022-10-02T07:46:38Z</time>
      </trkpt>
      <trkpt lat="47.09553" lon="6.14628">
        <ele>451</ele>
        <time>2022-10-02T07:46:40Z</time>
      </trkpt>
      <trkpt lat="47.09549" lon="6.1463">
        <ele>451.8</ele>
        <time>2022-10-02T07:46:42Z</time>
      </trkpt>
      <trkpt lat="47.0954" lon="6.1463">
        <ele>453</ele>
        <time>2022-10-02T07:46:46Z</time>
      </trkpt>
      <trkpt lat="47.09524" lon="6.14635">
        <ele>453.6</ele>
        <time>2022-10-02T07:46:54Z</time>
      </trkpt>
      <trkpt lat="47.0952" lon="6.14636">
        <ele>454</ele>
        <time>2022-10-02T07:46:56Z</time>
      </trkpt>
      <trkpt lat="47.09514" lon="6.14637">
        <ele>455.2</ele>
        <time>2022-10-02T07:47:00Z</time>
      </trkpt>
      <trkpt lat="47.09506" lon="6.14637">
        <ele>455.6</ele>
        <time>2022-10-02T07:47:04Z</time>
      </trkpt>
      <trkpt lat="47.09501" lon="6.14638">
        <ele>455.8</ele>
        <time>2022-10-02T07:47:06Z</time>
      </trkpt>
      <trkpt lat="47.09492" lon="6.14643">
        <ele>455.6</ele>
        <time>2022-10-02T07:47:10Z</time>
      </trkpt>
      <trkpt lat="47.09478" lon="6.14646">
        <ele>454.4</ele>
        <time>2022-10-02T07:47:17Z</time>
      </trkpt>
      <trkpt lat="47.09466" lon="6.14646">
        <ele>454.4</ele>
        <time>2022-10-02T07:47:23Z</time>
      </trkpt>
      <trkpt lat="47.09457" lon="6.14647">
        <ele>454.4</ele>
        <time>2022-10-02T07:47:28Z</time>
      </trkpt>
      <trkpt lat="47.09443" lon="6.1465">
        <ele>455.6</ele>
        <time>2022-10-02T07:47:35Z</time>
      </trkpt>
      <trkpt lat="47.09432" lon="6.14649">
        <ele>456.2</ele>
        <time>2022-10-02T07:47:41Z</time>
      </trkpt>
      <trkpt lat="47.0943" lon="6.14649">
        <ele>456.2</ele>
        <time>2022-10-02T07:47:42Z</time>
      </trkpt>
      <trkpt lat="47.09414" lon="6.14652">
        <ele>455.2</ele>
        <time>2022-10-02T07:47:50Z</time>
      </trkpt>
      <trkpt lat="47.09412" lon="6.14652">
        <ele>455.2</ele>
        <time>2022-10-02T07:47:51Z</time>
      </trkpt>
      <trkpt lat="47.09399" lon="6.14655">
        <ele>455</ele>
        <time>2022-10-02T07:47:58Z</time>
      </trkpt>
      <trkpt lat="47.09388" lon="6.14658">
        <ele>454.8</ele>
        <time>2022-10-02T07:48:04Z</time>
      </trkpt>
      <trkpt lat="47.09371" lon="6.14656">
        <ele>456.2</ele>
        <time>2022-10-02T07:48:11Z</time>
      </trkpt>
      <trkpt lat="47.09353" lon="6.14657">
        <ele>456.2</ele>
        <time>2022-10-02T07:48:18Z</time>
      </trkpt>
      <trkpt lat="47.09336" lon="6.14659">
        <ele>456.6</ele>
        <time>2022-10-02T07:48:26Z</time>
      </trkpt>
      <trkpt lat="47.09327" lon="6.14659">
        <ele>457.4</ele>
        <time>2022-10-02T07:48:31Z</time>
      </trkpt>
      <trkpt lat="47.09322" lon="6.1466">
        <ele>457.4</ele>
        <time>2022-10-02T07:48:33Z</time>
      </trkpt>
      <trkpt lat="47.09309" lon="6.14664">
        <ele>456.4</ele>
        <time>2022-10-02T07:48:40Z</time>
      </trkpt>
      <trkpt lat="47.09307" lon="6.14665">
        <ele>456.2</ele>
        <time>2022-10-02T07:48:41Z</time>
      </trkpt>
      <trkpt lat="47.0929" lon="6.14668">
        <ele>456.6</ele>
        <time>2022-10-02T07:48:48Z</time>
      </trkpt>
      <trkpt lat="47.09269" lon="6.1467">
        <ele>457</ele>
        <time>2022-10-02T07:48:56Z</time>
      </trkpt>
      <trkpt lat="47.09256" lon="6.14672">
        <ele>456.6</ele>
        <time>2022-10-02T07:49:02Z</time>
      </trkpt>
      <trkpt lat="47.09247" lon="6.14675">
        <ele>457.4</ele>
        <time>2022-10-02T07:49:07Z</time>
      </trkpt>
      <trkpt lat="47.0924" lon="6.14677">
        <ele>457</ele>
        <time>2022-10-02T07:49:10Z</time>
      </trkpt>
      <trkpt lat="47.09231" lon="6.14681">
        <ele>457.6</ele>
        <time>2022-10-02T07:49:15Z</time>
      </trkpt>
      <trkpt lat="47.09228" lon="6.14683">
        <ele>458.2</ele>
        <time>2022-10-02T07:49:17Z</time>
      </trkpt>
      <trkpt lat="47.09222" lon="6.14686">
        <ele>458.6</ele>
        <time>2022-10-02T07:49:20Z</time>
      </trkpt>
      <trkpt lat="47.09213" lon="6.1469">
        <ele>458.6</ele>
        <time>2022-10-02T07:49:24Z</time>
      </trkpt>
      <trkpt lat="47.09206" lon="6.14696">
        <ele>460.2</ele>
        <time>2022-10-02T07:49:27Z</time>
      </trkpt>
      <trkpt lat="47.09203" lon="6.14697">
        <ele>461.4</ele>
        <time>2022-10-02T07:49:29Z</time>
      </trkpt>
      <trkpt lat="47.09201" lon="6.14698">
        <ele>462</ele>
        <time>2022-10-02T07:49:30Z</time>
      </trkpt>
      <trkpt lat="47.09199" lon="6.14698">
        <ele>462.4</ele>
        <time>2022-10-02T07:49:31Z</time>
      </trkpt>
      <trkpt lat="47.0919" lon="6.14703">
        <ele>463.4</ele>
        <time>2022-10-02T07:49:35Z</time>
      </trkpt>
      <trkpt lat="47.09188" lon="6.14704">
        <ele>463.8</ele>
        <time>2022-10-02T07:49:36Z</time>
      </trkpt>
      <trkpt lat="47.09183" lon="6.14709">
        <ele>464.6</ele>
        <time>2022-10-02T07:49:39Z</time>
      </trkpt>
      <trkpt lat="47.09174" lon="6.14717">
        <ele>465.4</ele>
        <time>2022-10-02T07:49:43Z</time>
      </trkpt>
      <trkpt lat="47.09172" lon="6.14719">
        <ele>465.6</ele>
        <time>2022-10-02T07:49:44Z</time>
      </trkpt>
      <trkpt lat="47.09156" lon="6.14736">
        <ele>466.8</ele>
        <time>2022-10-02T07:49:51Z</time>
      </trkpt>
      <trkpt lat="47.09142" lon="6.14748">
        <ele>467.8</ele>
        <time>2022-10-02T07:49:56Z</time>
      </trkpt>
      <trkpt lat="47.09139" lon="6.1475">
        <ele>468</ele>
        <time>2022-10-02T07:49:57Z</time>
      </trkpt>
      <trkpt lat="47.09134" lon="6.14756">
        <ele>468.8</ele>
        <time>2022-10-02T07:50:00Z</time>
      </trkpt>
      <trkpt lat="47.0913" lon="6.1476">
        <ele>470</ele>
        <time>2022-10-02T07:50:02Z</time>
      </trkpt>
      <trkpt lat="47.09125" lon="6.14765">
        <ele>471</ele>
        <time>2022-10-02T07:50:04Z</time>
      </trkpt>
      <trkpt lat="47.09123" lon="6.14767">
        <ele>471.6</ele>
        <time>2022-10-02T07:50:05Z</time>
      </trkpt>
      <trkpt lat="47.09119" lon="6.14772">
        <ele>472.6</ele>
        <time>2022-10-02T07:50:07Z</time>
      </trkpt>
      <trkpt lat="47.09115" lon="6.14777">
        <ele>474</ele>
        <time>2022-10-02T07:50:09Z</time>
      </trkpt>
      <trkpt lat="47.09112" lon="6.14779">
        <ele>474.8</ele>
        <time>2022-10-02T07:50:10Z</time>
      </trkpt>
      <trkpt lat="47.09111" lon="6.14781">
        <ele>475.6</ele>
        <time>2022-10-02T07:50:11Z</time>
      </trkpt>
      <trkpt lat="47.09107" lon="6.14785">
        <ele>477</ele>
        <time>2022-10-02T07:50:13Z</time>
      </trkpt>
      <trkpt lat="47.09103" lon="6.14789">
        <ele>478.4</ele>
        <time>2022-10-02T07:50:15Z</time>
      </trkpt>
      <trkpt lat="47.09101" lon="6.14794">
        <ele>479.8</ele>
        <time>2022-10-02T07:50:17Z</time>
      </trkpt>
      <trkpt lat="47.09098" lon="6.14799">
        <ele>481.2</ele>
        <time>2022-10-02T07:50:19Z</time>
      </trkpt>
      <trkpt lat="47.09094" lon="6.14804">
        <ele>482.6</ele>
        <time>2022-10-02T07:50:21Z</time>
      </trkpt>
      <trkpt lat="47.09088" lon="6.14812">
        <ele>484</ele>
        <time>2022-10-02T07:50:24Z</time>
      </trkpt>
      <trkpt lat="47.09081" lon="6.1482">
        <ele>485</ele>
        <time>2022-10-02T07:50:27Z</time>
      </trkpt>
      <trkpt lat="47.09075" lon="6.1483">
        <ele>486.6</ele>
        <time>2022-10-02T07:50:30Z</time>
      </trkpt>
      <trkpt lat="47.09071" lon="6.14836">
        <ele>488.2</ele>
        <time>2022-10-02T07:50:32Z</time>
      </trkpt>
      <trkpt lat="47.09068" lon="6.14843">
        <ele>489.6</ele>
        <time>2022-10-02T07:50:34Z</time>
      </trkpt>
      <trkpt lat="47.09063" lon="6.1485">
        <ele>490.8</ele>
        <time>2022-10-02T07:50:37Z</time>
      </trkpt>
      <trkpt lat="47.09059" lon="6.14855">
        <ele>492.2</ele>
        <time>2022-10-02T07:50:39Z</time>
      </trkpt>
      <trkpt lat="47.09054" lon="6.14859">
        <ele>493.4</ele>
        <time>2022-10-02T07:50:41Z</time>
      </trkpt>
      <trkpt lat="47.09049" lon="6.14862">
        <ele>494.6</ele>
        <time>2022-10-02T07:50:43Z</time>
      </trkpt>
      <trkpt lat="47.09042" lon="6.14867">
        <ele>495.8</ele>
        <time>2022-10-02T07:50:46Z</time>
      </trkpt>
      <trkpt lat="47.09033" lon="6.14873">
        <ele>496.6</ele>
        <time>2022-10-02T07:50:50Z</time>
      </trkpt>
      <trkpt lat="47.09027" lon="6.14878">
        <ele>497</ele>
        <time>2022-10-02T07:50:53Z</time>
      </trkpt>
      <trkpt lat="47.09018" lon="6.14884">
        <ele>497.6</ele>
        <time>2022-10-02T07:50:57Z</time>
      </trkpt>
      <trkpt lat="47.09007" lon="6.1489">
        <ele>498.2</ele>
        <time>2022-10-02T07:51:02Z</time>
      </trkpt>
      <trkpt lat="47.09004" lon="6.14893">
        <ele>498.8</ele>
        <time>2022-10-02T07:51:04Z</time>
      </trkpt>
      <trkpt lat="47.09002" lon="6.14894">
        <ele>499.4</ele>
        <time>2022-10-02T07:51:05Z</time>
      </trkpt>
      <trkpt lat="47.08997" lon="6.14898">
        <ele>500.6</ele>
        <time>2022-10-02T07:51:08Z</time>
      </trkpt>
      <trkpt lat="47.08992" lon="6.14902">
        <ele>501.4</ele>
        <time>2022-10-02T07:51:12Z</time>
      </trkpt>
      <trkpt lat="47.0899" lon="6.14902">
        <ele>501.8</ele>
        <time>2022-10-02T07:51:14Z</time>
      </trkpt>
      <trkpt lat="47.08988" lon="6.14904">
        <ele>502.4</ele>
        <time>2022-10-02T07:54:02Z</time>
      </trkpt>
      <trkpt lat="47.08987" lon="6.14906">
        <ele>502.4</ele>
        <time>2022-10-02T07:54:03Z</time>
      </trkpt>
      <trkpt lat="47.08986" lon="6.14917">
        <ele>502.2</ele>
        <time>2022-10-02T07:54:10Z</time>
      </trkpt>
      <trkpt lat="47.08992" lon="6.14915">
        <ele>502.4</ele>
        <time>2022-10-02T07:54:13Z</time>
      </trkpt>
      <trkpt lat="47.08998" lon="6.14911">
        <ele>502.8</ele>
        <time>2022-10-02T07:54:16Z</time>
      </trkpt>
      <trkpt lat="47.09004" lon="6.14908">
        <ele>503.8</ele>
        <time>2022-10-02T07:54:19Z</time>
      </trkpt>
      <trkpt lat="47.09006" lon="6.14908">
        <ele>504.2</ele>
        <time>2022-10-02T07:54:20Z</time>
      </trkpt>
      <trkpt lat="47.09013" lon="6.14907">
        <ele>505.8</ele>
        <time>2022-10-02T07:54:23Z</time>
      </trkpt>
      <trkpt lat="47.09018" lon="6.14908">
        <ele>507</ele>
        <time>2022-10-02T07:54:26Z</time>
      </trkpt>
      <trkpt lat="47.09025" lon="6.1491">
        <ele>508.2</ele>
        <time>2022-10-02T07:54:30Z</time>
      </trkpt>
      <trkpt lat="47.09031" lon="6.14912">
        <ele>509.2</ele>
        <time>2022-10-02T07:54:33Z</time>
      </trkpt>
      <trkpt lat="47.09033" lon="6.14912">
        <ele>509.4</ele>
        <time>2022-10-02T07:54:34Z</time>
      </trkpt>
      <trkpt lat="47.0905" lon="6.1491">
        <ele>508.8</ele>
        <time>2022-10-02T07:54:41Z</time>
      </trkpt>
      <trkpt lat="47.09067" lon="6.14908">
        <ele>508.8</ele>
        <time>2022-10-02T07:54:48Z</time>
      </trkpt>
      <trkpt lat="47.09091" lon="6.14901">
        <ele>509.8</ele>
        <time>2022-10-02T07:54:57Z</time>
      </trkpt>
      <trkpt lat="47.09101" lon="6.14894">
        <ele>510.4</ele>
        <time>2022-10-02T07:55:01Z</time>
      </trkpt>
      <trkpt lat="47.09105" lon="6.1489">
        <ele>510.4</ele>
        <time>2022-10-02T07:55:03Z</time>
      </trkpt>
      <trkpt lat="47.09116" lon="6.14875">
        <ele>510.2</ele>
        <time>2022-10-02T07:55:09Z</time>
      </trkpt>
      <trkpt lat="47.09128" lon="6.14861">
        <ele>510.6</ele>
        <time>2022-10-02T07:55:16Z</time>
      </trkpt>
      <trkpt lat="47.09138" lon="6.14851">
        <ele>510.6</ele>
        <time>2022-10-02T07:55:22Z</time>
      </trkpt>
      <trkpt lat="47.09148" lon="6.14842">
        <ele>510.4</ele>
        <time>2022-10-02T07:55:29Z</time>
      </trkpt>
      <trkpt lat="47.0916" lon="6.1483">
        <ele>510.8</ele>
        <time>2022-10-02T07:55:37Z</time>
      </trkpt>
      <trkpt lat="47.09171" lon="6.14824">
        <ele>511</ele>
        <time>2022-10-02T07:55:44Z</time>
      </trkpt>
      <trkpt lat="47.09174" lon="6.14822">
        <ele>511.6</ele>
        <time>2022-10-02T07:55:46Z</time>
      </trkpt>
      <trkpt lat="47.0918" lon="6.14819">
        <ele>512.2</ele>
        <time>2022-10-02T07:55:50Z</time>
      </trkpt>
      <trkpt lat="47.09188" lon="6.14816">
        <ele>513</ele>
        <time>2022-10-02T07:55:55Z</time>
      </trkpt>
      <trkpt lat="47.0919" lon="6.14815">
        <ele>513.6</ele>
        <time>2022-10-02T07:55:56Z</time>
      </trkpt>
      <trkpt lat="47.09194" lon="6.14812">
        <ele>514.2</ele>
        <time>2022-10-02T07:55:59Z</time>
      </trkpt>
      <trkpt lat="47.09201" lon="6.14809">
        <ele>514.2</ele>
        <time>2022-10-02T07:56:03Z</time>
      </trkpt>
      <trkpt lat="47.09203" lon="6.14809">
        <ele>514.4</ele>
        <time>2022-10-02T07:56:04Z</time>
      </trkpt>
      <trkpt lat="47.09213" lon="6.14809">
        <ele>515.8</ele>
        <time>2022-10-02T07:56:10Z</time>
      </trkpt>
      <trkpt lat="47.09221" lon="6.14806">
        <ele>516.4</ele>
        <time>2022-10-02T07:56:15Z</time>
      </trkpt>
      <trkpt lat="47.09227" lon="6.14802">
        <ele>517</ele>
        <time>2022-10-02T07:56:18Z</time>
      </trkpt>
      <trkpt lat="47.09239" lon="6.14797">
        <ele>516.6</ele>
        <time>2022-10-02T07:56:24Z</time>
      </trkpt>
      <trkpt lat="47.09252" lon="6.14795">
        <ele>517</ele>
        <time>2022-10-02T07:56:30Z</time>
      </trkpt>
      <trkpt lat="47.09264" lon="6.14793">
        <ele>517.2</ele>
        <time>2022-10-02T07:56:36Z</time>
      </trkpt>
      <trkpt lat="47.0927" lon="6.14792">
        <ele>517.6</ele>
        <time>2022-10-02T07:56:39Z</time>
      </trkpt>
      <trkpt lat="47.0928" lon="6.14792">
        <ele>518.2</ele>
        <time>2022-10-02T07:56:44Z</time>
      </trkpt>
      <trkpt lat="47.09297" lon="6.14791">
        <ele>518</ele>
        <time>2022-10-02T07:56:51Z</time>
      </trkpt>
      <trkpt lat="47.09313" lon="6.14791">
        <ele>518</ele>
        <time>2022-10-02T07:56:59Z</time>
      </trkpt>
      <trkpt lat="47.09321" lon="6.14791">
        <ele>518.8</ele>
        <time>2022-10-02T07:57:03Z</time>
      </trkpt>
      <trkpt lat="47.09323" lon="6.14791">
        <ele>519.2</ele>
        <time>2022-10-02T07:57:04Z</time>
      </trkpt>
      <trkpt lat="47.09336" lon="6.14794">
        <ele>519.6</ele>
        <time>2022-10-02T07:57:10Z</time>
      </trkpt>
      <trkpt lat="47.09341" lon="6.14795">
        <ele>520</ele>
        <time>2022-10-02T07:57:12Z</time>
      </trkpt>
      <trkpt lat="47.09348" lon="6.14797">
        <ele>521</ele>
        <time>2022-10-02T07:57:15Z</time>
      </trkpt>
      <trkpt lat="47.09352" lon="6.14797">
        <ele>521</ele>
        <time>2022-10-02T07:57:17Z</time>
      </trkpt>
      <trkpt lat="47.09366" lon="6.14798">
        <ele>520.4</ele>
        <time>2022-10-02T07:57:23Z</time>
      </trkpt>
      <trkpt lat="47.09373" lon="6.14798">
        <ele>519.8</ele>
        <time>2022-10-02T07:57:26Z</time>
      </trkpt>
      <trkpt lat="47.09384" lon="6.14799">
        <ele>519</ele>
        <time>2022-10-02T07:57:31Z</time>
      </trkpt>
      <trkpt lat="47.09399" lon="6.148">
        <ele>519</ele>
        <time>2022-10-02T07:57:37Z</time>
      </trkpt>
      <trkpt lat="47.09405" lon="6.14801">
        <ele>518.6</ele>
        <time>2022-10-02T07:57:39Z</time>
      </trkpt>
      <trkpt lat="47.09416" lon="6.14803">
        <ele>517.6</ele>
        <time>2022-10-02T07:57:43Z</time>
      </trkpt>
      <trkpt lat="47.09418" lon="6.14803">
        <ele>517.4</ele>
        <time>2022-10-02T07:57:44Z</time>
      </trkpt>
      <trkpt lat="47.09432" lon="6.14803">
        <ele>516.6</ele>
        <time>2022-10-02T07:57:49Z</time>
      </trkpt>
      <trkpt lat="47.09434" lon="6.14803">
        <ele>516.2</ele>
        <time>2022-10-02T07:57:50Z</time>
      </trkpt>
      <trkpt lat="47.09449" lon="6.14802">
        <ele>515.8</ele>
        <time>2022-10-02T07:57:56Z</time>
      </trkpt>
      <trkpt lat="47.09467" lon="6.14807">
        <ele>515.4</ele>
        <time>2022-10-02T07:58:03Z</time>
      </trkpt>
      <trkpt lat="47.09469" lon="6.14808">
        <ele>515</ele>
        <time>2022-10-02T07:58:04Z</time>
      </trkpt>
      <trkpt lat="47.09479" lon="6.14812">
        <ele>514</ele>
        <time>2022-10-02T07:58:09Z</time>
      </trkpt>
      <trkpt lat="47.09499" lon="6.14816">
        <ele>513.8</ele>
        <time>2022-10-02T07:58:14Z</time>
      </trkpt>
      <trkpt lat="47.09502" lon="6.14818">
        <ele>513.8</ele>
        <time>2022-10-02T07:58:15Z</time>
      </trkpt>
      <trkpt lat="47.09523" lon="6.14828">
        <ele>514</ele>
        <time>2022-10-02T07:58:22Z</time>
      </trkpt>
      <trkpt lat="47.09545" lon="6.14842">
        <ele>514</ele>
        <time>2022-10-02T07:58:30Z</time>
      </trkpt>
      <trkpt lat="47.09564" lon="6.14859">
        <ele>513.6</ele>
        <time>2022-10-02T07:58:36Z</time>
      </trkpt>
      <trkpt lat="47.0957" lon="6.14866">
        <ele>512.8</ele>
        <time>2022-10-02T07:58:38Z</time>
      </trkpt>
      <trkpt lat="47.09582" lon="6.1488">
        <ele>512.6</ele>
        <time>2022-10-02T07:58:43Z</time>
      </trkpt>
      <trkpt lat="47.09588" lon="6.1489">
        <ele>511.6</ele>
        <time>2022-10-02T07:58:46Z</time>
      </trkpt>
      <trkpt lat="47.09599" lon="6.14907">
        <ele>510.8</ele>
        <time>2022-10-02T07:58:51Z</time>
      </trkpt>
      <trkpt lat="47.09601" lon="6.1491">
        <ele>510.4</ele>
        <time>2022-10-02T07:58:52Z</time>
      </trkpt>
      <trkpt lat="47.09613" lon="6.14923">
        <ele>509.8</ele>
        <time>2022-10-02T07:58:57Z</time>
      </trkpt>
      <trkpt lat="47.09629" lon="6.14941">
        <ele>510</ele>
        <time>2022-10-02T07:59:04Z</time>
      </trkpt>
      <trkpt lat="47.09634" lon="6.14947">
        <ele>509.2</ele>
        <time>2022-10-02T07:59:06Z</time>
      </trkpt>
      <trkpt lat="47.09643" lon="6.14958">
        <ele>507.8</ele>
        <time>2022-10-02T07:59:10Z</time>
      </trkpt>
      <trkpt lat="47.09648" lon="6.14968">
        <ele>506.8</ele>
        <time>2022-10-02T07:59:13Z</time>
      </trkpt>
      <trkpt lat="47.09652" lon="6.14978">
        <ele>505.6</ele>
        <time>2022-10-02T07:59:16Z</time>
      </trkpt>
      <trkpt lat="47.09657" lon="6.14989">
        <ele>504.6</ele>
        <time>2022-10-02T07:59:20Z</time>
      </trkpt>
      <trkpt lat="47.0966" lon="6.14995">
        <ele>504</ele>
        <time>2022-10-02T07:59:22Z</time>
      </trkpt>
      <trkpt lat="47.09665" lon="6.15005">
        <ele>503.4</ele>
        <time>2022-10-02T07:59:25Z</time>
      </trkpt>
      <trkpt lat="47.09672" lon="6.15017">
        <ele>502.4</ele>
        <time>2022-10-02T07:59:29Z</time>
      </trkpt>
      <trkpt lat="47.09679" lon="6.15028">
        <ele>501</ele>
        <time>2022-10-02T07:59:33Z</time>
      </trkpt>
      <trkpt lat="47.09684" lon="6.15034">
        <ele>500.2</ele>
        <time>2022-10-02T07:59:35Z</time>
      </trkpt>
      <trkpt lat="47.0969" lon="6.15043">
        <ele>499.6</ele>
        <time>2022-10-02T07:59:38Z</time>
      </trkpt>
      <trkpt lat="47.09696" lon="6.15053">
        <ele>498.4</ele>
        <time>2022-10-02T07:59:41Z</time>
      </trkpt>
      <trkpt lat="47.09697" lon="6.15056">
        <ele>498.2</ele>
        <time>2022-10-02T07:59:42Z</time>
      </trkpt>
      <trkpt lat="47.09701" lon="6.15068">
        <ele>497.6</ele>
        <time>2022-10-02T07:59:46Z</time>
      </trkpt>
      <trkpt lat="47.09703" lon="6.15077">
        <ele>497.2</ele>
        <time>2022-10-02T07:59:49Z</time>
      </trkpt>
      <trkpt lat="47.09706" lon="6.15086">
        <ele>496.8</ele>
        <time>2022-10-02T07:59:52Z</time>
      </trkpt>
      <trkpt lat="47.09724" lon="6.15152">
        <ele>505.4</ele>
        <time>2022-10-02T08:00:45Z</time>
      </trkpt>
      <trkpt lat="47.09723" lon="6.15161">
        <ele>506.6</ele>
        <time>2022-10-02T08:00:49Z</time>
      </trkpt>
      <trkpt lat="47.09729" lon="6.15176">
        <ele>508.6</ele>
        <time>2022-10-02T08:00:59Z</time>
      </trkpt>
      <trkpt lat="47.09729" lon="6.15185">
        <ele>508.8</ele>
        <time>2022-10-02T08:01:02Z</time>
      </trkpt>
      <trkpt lat="47.09728" lon="6.15197">
        <ele>508.6</ele>
        <time>2022-10-02T08:01:06Z</time>
      </trkpt>
      <trkpt lat="47.09726" lon="6.15203">
        <ele>508.8</ele>
        <time>2022-10-02T08:01:08Z</time>
      </trkpt>
      <trkpt lat="47.0972" lon="6.15223">
        <ele>508.2</ele>
        <time>2022-10-02T08:01:15Z</time>
      </trkpt>
      <trkpt lat="47.09718" lon="6.15231">
        <ele>507.4</ele>
        <time>2022-10-02T08:01:18Z</time>
      </trkpt>
      <trkpt lat="47.09713" lon="6.15237">
        <ele>506.2</ele>
        <time>2022-10-02T08:01:21Z</time>
      </trkpt>
      <trkpt lat="47.0971" lon="6.15242">
        <ele>505.2</ele>
        <time>2022-10-02T08:01:23Z</time>
      </trkpt>
      <trkpt lat="47.09708" lon="6.1525">
        <ele>504</ele>
        <time>2022-10-02T08:01:25Z</time>
      </trkpt>
      <trkpt lat="47.09707" lon="6.15253">
        <ele>503.4</ele>
        <time>2022-10-02T08:01:26Z</time>
      </trkpt>
      <trkpt lat="47.09707" lon="6.15255">
        <ele>502.8</ele>
        <time>2022-10-02T08:01:27Z</time>
      </trkpt>
      <trkpt lat="47.09705" lon="6.15265">
        <ele>501.6</ele>
        <time>2022-10-02T08:01:31Z</time>
      </trkpt>
      <trkpt lat="47.09704" lon="6.15268">
        <ele>501.2</ele>
        <time>2022-10-02T08:01:32Z</time>
      </trkpt>
      <trkpt lat="47.09703" lon="6.1527">
        <ele>501</ele>
        <time>2022-10-02T08:01:33Z</time>
      </trkpt>
      <trkpt lat="47.09701" lon="6.15274">
        <ele>500.6</ele>
        <time>2022-10-02T08:01:35Z</time>
      </trkpt>
      <trkpt lat="47.09698" lon="6.15278">
        <ele>500</ele>
        <time>2022-10-02T08:01:37Z</time>
      </trkpt>
      <trkpt lat="47.09695" lon="6.15281">
        <ele>499.4</ele>
        <time>2022-10-02T08:01:39Z</time>
      </trkpt>
      <trkpt lat="47.09687" lon="6.15291">
        <ele>498.2</ele>
        <time>2022-10-02T08:01:43Z</time>
      </trkpt>
      <trkpt lat="47.09678" lon="6.15295">
        <ele>498</ele>
        <time>2022-10-02T08:01:48Z</time>
      </trkpt>
      <trkpt lat="47.09677" lon="6.15296">
        <ele>498</ele>
        <time>2022-10-02T08:01:49Z</time>
      </trkpt>
      <trkpt lat="47.0967" lon="6.15302">
        <ele>497.6</ele>
        <time>2022-10-02T08:01:53Z</time>
      </trkpt>
      <trkpt lat="47.09665" lon="6.15306">
        <ele>498</ele>
        <time>2022-10-02T08:01:56Z</time>
      </trkpt>
      <trkpt lat="47.09661" lon="6.15311">
        <ele>498</ele>
        <time>2022-10-02T08:01:58Z</time>
      </trkpt>
      <trkpt lat="47.09654" lon="6.15318">
        <ele>497.6</ele>
        <time>2022-10-02T08:02:02Z</time>
      </trkpt>
      <trkpt lat="47.0965" lon="6.15319">
        <ele>497.4</ele>
        <time>2022-10-02T08:02:04Z</time>
      </trkpt>
      <trkpt lat="47.09636" lon="6.15323">
        <ele>499.2</ele>
        <time>2022-10-02T08:02:12Z</time>
      </trkpt>
      <trkpt lat="47.09626" lon="6.15335">
        <ele>500.2</ele>
        <time>2022-10-02T08:02:17Z</time>
      </trkpt>
      <trkpt lat="47.09623" lon="6.15338">
        <ele>500.6</ele>
        <time>2022-10-02T08:02:18Z</time>
      </trkpt>
      <trkpt lat="47.09621" lon="6.1534">
        <ele>500.6</ele>
        <time>2022-10-02T08:02:19Z</time>
      </trkpt>
      <trkpt lat="47.09613" lon="6.15348">
        <ele>501.4</ele>
        <time>2022-10-02T08:02:23Z</time>
      </trkpt>
      <trkpt lat="47.09609" lon="6.15351">
        <ele>501.6</ele>
        <time>2022-10-02T08:02:25Z</time>
      </trkpt>
      <trkpt lat="47.09602" lon="6.15353">
        <ele>502.8</ele>
        <time>2022-10-02T08:02:28Z</time>
      </trkpt>
      <trkpt lat="47.09601" lon="6.15354">
        <ele>503</ele>
        <time>2022-10-02T08:02:29Z</time>
      </trkpt>
      <trkpt lat="47.09599" lon="6.15355">
        <ele>503.4</ele>
        <time>2022-10-02T08:02:30Z</time>
      </trkpt>
      <trkpt lat="47.09597" lon="6.15357">
        <ele>503.8</ele>
        <time>2022-10-02T08:02:31Z</time>
      </trkpt>
      <trkpt lat="47.09592" lon="6.15363">
        <ele>505</ele>
        <time>2022-10-02T08:02:34Z</time>
      </trkpt>
      <trkpt lat="47.0959" lon="6.15366">
        <ele>505.6</ele>
        <time>2022-10-02T08:02:35Z</time>
      </trkpt>
      <trkpt lat="47.0958" lon="6.1538">
        <ele>505.8</ele>
        <time>2022-10-02T08:02:40Z</time>
      </trkpt>
      <trkpt lat="47.09565" lon="6.15392">
        <ele>505.8</ele>
        <time>2022-10-02T08:02:47Z</time>
      </trkpt>
      <trkpt lat="47.09562" lon="6.15396">
        <ele>506</ele>
        <time>2022-10-02T08:02:49Z</time>
      </trkpt>
      <trkpt lat="47.09556" lon="6.154">
        <ele>507.2</ele>
        <time>2022-10-02T08:02:52Z</time>
      </trkpt>
      <trkpt lat="47.09555" lon="6.15402">
        <ele>507.2</ele>
        <time>2022-10-02T08:02:53Z</time>
      </trkpt>
      <trkpt lat="47.09548" lon="6.15407">
        <ele>508.2</ele>
        <time>2022-10-02T08:02:57Z</time>
      </trkpt>
      <trkpt lat="47.09545" lon="6.15411">
        <ele>509</ele>
        <time>2022-10-02T08:02:59Z</time>
      </trkpt>
      <trkpt lat="47.09544" lon="6.15412">
        <ele>509.4</ele>
        <time>2022-10-02T08:03:00Z</time>
      </trkpt>
      <trkpt lat="47.09446" lon="6.15456">
        <ele>535.6</ele>
        <time>2022-10-02T08:05:10Z</time>
      </trkpt>
      <trkpt lat="47.09444" lon="6.1544">
        <ele>536.2</ele>
        <time>2022-10-02T08:05:17Z</time>
      </trkpt>
      <trkpt lat="47.09441" lon="6.15432">
        <ele>536.2</ele>
        <time>2022-10-02T08:05:21Z</time>
      </trkpt>
      <trkpt lat="47.09439" lon="6.15427">
        <ele>536.6</ele>
        <time>2022-10-02T08:05:23Z</time>
      </trkpt>
      <trkpt lat="47.09437" lon="6.15424">
        <ele>536.8</ele>
        <time>2022-10-02T08:05:24Z</time>
      </trkpt>
      <trkpt lat="47.0943" lon="6.15412">
        <ele>537.6</ele>
        <time>2022-10-02T08:05:30Z</time>
      </trkpt>
      <trkpt lat="47.09428" lon="6.15409">
        <ele>537.8</ele>
        <time>2022-10-02T08:05:31Z</time>
      </trkpt>
      <trkpt lat="47.09422" lon="6.15402">
        <ele>537.8</ele>
        <time>2022-10-02T08:05:35Z</time>
      </trkpt>
      <trkpt lat="47.09412" lon="6.15391">
        <ele>537.6</ele>
        <time>2022-10-02T08:05:41Z</time>
      </trkpt>
      <trkpt lat="47.09411" lon="6.15389">
        <ele>537.4</ele>
        <time>2022-10-02T08:05:42Z</time>
      </trkpt>
      <trkpt lat="47.09405" lon="6.15378">
        <ele>536.8</ele>
        <time>2022-10-02T08:05:46Z</time>
      </trkpt>
      <trkpt lat="47.09403" lon="6.15377">
        <ele>536.4</ele>
        <time>2022-10-02T08:05:47Z</time>
      </trkpt>
      <trkpt lat="47.09397" lon="6.15367">
        <ele>535.6</ele>
        <time>2022-10-02T08:05:51Z</time>
      </trkpt>
      <trkpt lat="47.09396" lon="6.15365">
        <ele>535.8</ele>
        <time>2022-10-02T08:05:52Z</time>
      </trkpt>
      <trkpt lat="47.09388" lon="6.15344">
        <ele>535.2</ele>
        <time>2022-10-02T08:05:58Z</time>
      </trkpt>
      <trkpt lat="47.09383" lon="6.15329">
        <ele>535.4</ele>
        <time>2022-10-02T08:06:03Z</time>
      </trkpt>
      <trkpt lat="47.09375" lon="6.15304">
        <ele>536.2</ele>
        <time>2022-10-02T08:06:11Z</time>
      </trkpt>
      <trkpt lat="47.09366" lon="6.15284">
        <ele>536.4</ele>
        <time>2022-10-02T08:06:17Z</time>
      </trkpt>
      <trkpt lat="47.09364" lon="6.1528">
        <ele>536.8</ele>
        <time>2022-10-02T08:06:18Z</time>
      </trkpt>
      <trkpt lat="47.09361" lon="6.1527">
        <ele>538</ele>
        <time>2022-10-02T08:06:21Z</time>
      </trkpt>
      <trkpt lat="47.09356" lon="6.15258">
        <ele>539.2</ele>
        <time>2022-10-02T08:06:24Z</time>
      </trkpt>
      <trkpt lat="47.09352" lon="6.15245">
        <ele>540.6</ele>
        <time>2022-10-02T08:06:27Z</time>
      </trkpt>
      <trkpt lat="47.09346" lon="6.15233">
        <ele>542</ele>
        <time>2022-10-02T08:06:30Z</time>
      </trkpt>
      <trkpt lat="47.09342" lon="6.15226">
        <ele>543</ele>
        <time>2022-10-02T08:06:32Z</time>
      </trkpt>
      <trkpt lat="47.0934" lon="6.15222">
        <ele>543.4</ele>
        <time>2022-10-02T08:06:33Z</time>
      </trkpt>
      <trkpt lat="47.09327" lon="6.15208">
        <ele>544.4</ele>
        <time>2022-10-02T08:06:38Z</time>
      </trkpt>
      <trkpt lat="47.09323" lon="6.15205">
        <ele>544.6</ele>
        <time>2022-10-02T08:06:40Z</time>
      </trkpt>
      <trkpt lat="47.09315" lon="6.15199">
        <ele>543.8</ele>
        <time>2022-10-02T08:06:43Z</time>
      </trkpt>
      <trkpt lat="47.09312" lon="6.15197">
        <ele>543.6</ele>
        <time>2022-10-02T08:06:44Z</time>
      </trkpt>
      <trkpt lat="47.09291" lon="6.15187">
        <ele>543</ele>
        <time>2022-10-02T08:06:50Z</time>
      </trkpt>
      <trkpt lat="47.09274" lon="6.15181">
        <ele>542.4</ele>
        <time>2022-10-02T08:06:54Z</time>
      </trkpt>
      <trkpt lat="47.09264" lon="6.15178">
        <ele>541.8</ele>
        <time>2022-10-02T08:06:56Z</time>
      </trkpt>
      <trkpt lat="47.09255" lon="6.15176">
        <ele>541</ele>
        <time>2022-10-02T08:06:58Z</time>
      </trkpt>
      <trkpt lat="47.09237" lon="6.15172">
        <ele>540.4</ele>
        <time>2022-10-02T08:07:02Z</time>
      </trkpt>
      <trkpt lat="47.09226" lon="6.15172">
        <ele>539.8</ele>
        <time>2022-10-02T08:07:04Z</time>
      </trkpt>
      <trkpt lat="47.0921" lon="6.15175">
        <ele>539.6</ele>
        <time>2022-10-02T08:07:07Z</time>
      </trkpt>
      <trkpt lat="47.09195" lon="6.15183">
        <ele>541</ele>
        <time>2022-10-02T08:07:10Z</time>
      </trkpt>
      <trkpt lat="47.09186" lon="6.15189">
        <ele>542.4</ele>
        <time>2022-10-02T08:07:12Z</time>
      </trkpt>
      <trkpt lat="47.09179" lon="6.15195">
        <ele>543.6</ele>
        <time>2022-10-02T08:07:14Z</time>
      </trkpt>
      <trkpt lat="47.09169" lon="6.15202">
        <ele>544.8</ele>
        <time>2022-10-02T08:07:17Z</time>
      </trkpt>
      <trkpt lat="47.09158" lon="6.15204">
        <ele>545</ele>
        <time>2022-10-02T08:07:20Z</time>
      </trkpt>
      <trkpt lat="47.09143" lon="6.15204">
        <ele>544.6</ele>
        <time>2022-10-02T08:07:24Z</time>
      </trkpt>
      <trkpt lat="47.09121" lon="6.15211">
        <ele>543.8</ele>
        <time>2022-10-02T08:07:30Z</time>
      </trkpt>
      <trkpt lat="47.09116" lon="6.15212">
        <ele>543.8</ele>
        <time>2022-10-02T08:07:31Z</time>
      </trkpt>
      <trkpt lat="47.09098" lon="6.15217">
        <ele>542.4</ele>
        <time>2022-10-02T08:07:35Z</time>
      </trkpt>
      <trkpt lat="47.09094" lon="6.15218">
        <ele>542.4</ele>
        <time>2022-10-02T08:07:36Z</time>
      </trkpt>
      <trkpt lat="47.09085" lon="6.15218">
        <ele>542</ele>
        <time>2022-10-02T08:07:38Z</time>
      </trkpt>
      <trkpt lat="47.09075" lon="6.15219">
        <ele>541.2</ele>
        <time>2022-10-02T08:07:40Z</time>
      </trkpt>
      <trkpt lat="47.0907" lon="6.15219">
        <ele>540.8</ele>
        <time>2022-10-02T08:07:41Z</time>
      </trkpt>
      <trkpt lat="47.0906" lon="6.15221">
        <ele>540</ele>
        <time>2022-10-02T08:07:43Z</time>
      </trkpt>
      <trkpt lat="47.0904" lon="6.15222">
        <ele>538.8</ele>
        <time>2022-10-02T08:07:47Z</time>
      </trkpt>
      <trkpt lat="47.09035" lon="6.15222">
        <ele>538.6</ele>
        <time>2022-10-02T08:07:48Z</time>
      </trkpt>
      <trkpt lat="47.08991" lon="6.15228">
        <ele>539</ele>
        <time>2022-10-02T08:07:56Z</time>
      </trkpt>
      <trkpt lat="47.08967" lon="6.15231">
        <ele>540</ele>
        <time>2022-10-02T08:08:00Z</time>
      </trkpt>
      <trkpt lat="47.08949" lon="6.15231">
        <ele>540.4</ele>
        <time>2022-10-02T08:08:03Z</time>
      </trkpt>
      <trkpt lat="47.08937" lon="6.15229">
        <ele>540.6</ele>
        <time>2022-10-02T08:08:05Z</time>
      </trkpt>
      <trkpt lat="47.08919" lon="6.15222">
        <ele>541</ele>
        <time>2022-10-02T08:08:08Z</time>
      </trkpt>
      <trkpt lat="47.08912" lon="6.15219">
        <ele>541</ele>
        <time>2022-10-02T08:08:09Z</time>
      </trkpt>
      <trkpt lat="47.08887" lon="6.1521">
        <ele>542</ele>
        <time>2022-10-02T08:08:13Z</time>
      </trkpt>
      <trkpt lat="47.08868" lon="6.15202">
        <ele>542.6</ele>
        <time>2022-10-02T08:08:16Z</time>
      </trkpt>
      <trkpt lat="47.08822" lon="6.15168">
        <ele>543.2</ele>
        <time>2022-10-02T08:08:24Z</time>
      </trkpt>
      <trkpt lat="47.0878" lon="6.15132">
        <ele>543.4</ele>
        <time>2022-10-02T08:08:32Z</time>
      </trkpt>
      <trkpt lat="47.0877" lon="6.15126">
        <ele>543.6</ele>
        <time>2022-10-02T08:08:34Z</time>
      </trkpt>
      <trkpt lat="47.08751" lon="6.15119">
        <ele>544</ele>
        <time>2022-10-02T08:08:38Z</time>
      </trkpt>
      <trkpt lat="47.08747" lon="6.15117">
        <ele>544.2</ele>
        <time>2022-10-02T08:08:39Z</time>
      </trkpt>
      <trkpt lat="47.0873" lon="6.1511">
        <ele>545.4</ele>
        <time>2022-10-02T08:08:43Z</time>
      </trkpt>
      <trkpt lat="47.08727" lon="6.15108">
        <ele>545.6</ele>
        <time>2022-10-02T08:08:44Z</time>
      </trkpt>
      <trkpt lat="47.08714" lon="6.15104">
        <ele>546.4</ele>
        <time>2022-10-02T08:08:47Z</time>
      </trkpt>
      <trkpt lat="47.08702" lon="6.151">
        <ele>547</ele>
        <time>2022-10-02T08:08:50Z</time>
      </trkpt>
      <trkpt lat="47.08698" lon="6.15097">
        <ele>547.2</ele>
        <time>2022-10-02T08:08:51Z</time>
      </trkpt>
      <trkpt lat="47.08694" lon="6.15094">
        <ele>547.4</ele>
        <time>2022-10-02T08:08:52Z</time>
      </trkpt>
      <trkpt lat="47.08682" lon="6.15086">
        <ele>548.4</ele>
        <time>2022-10-02T08:08:55Z</time>
      </trkpt>
      <trkpt lat="47.0867" lon="6.15079">
        <ele>549.2</ele>
        <time>2022-10-02T08:08:58Z</time>
      </trkpt>
      <trkpt lat="47.08657" lon="6.15072">
        <ele>549.6</ele>
        <time>2022-10-02T08:09:01Z</time>
      </trkpt>
      <trkpt lat="47.08639" lon="6.15061">
        <ele>550.4</ele>
        <time>2022-10-02T08:09:05Z</time>
      </trkpt>
      <trkpt lat="47.08635" lon="6.15059">
        <ele>550.6</ele>
        <time>2022-10-02T08:09:06Z</time>
      </trkpt>
      <trkpt lat="47.08619" lon="6.15048">
        <ele>551.6</ele>
        <time>2022-10-02T08:09:10Z</time>
      </trkpt>
      <trkpt lat="47.08612" lon="6.15042">
        <ele>552</ele>
        <time>2022-10-02T08:09:12Z</time>
      </trkpt>
      <trkpt lat="47.08602" lon="6.15034">
        <ele>552.8</ele>
        <time>2022-10-02T08:09:15Z</time>
      </trkpt>
      <trkpt lat="47.08589" lon="6.15024">
        <ele>554.2</ele>
        <time>2022-10-02T08:09:19Z</time>
      </trkpt>
      <trkpt lat="47.08582" lon="6.1502">
        <ele>554.6</ele>
        <time>2022-10-02T08:09:21Z</time>
      </trkpt>
      <trkpt lat="47.08569" lon="6.1501">
        <ele>555.2</ele>
        <time>2022-10-02T08:09:25Z</time>
      </trkpt>
      <trkpt lat="47.08559" lon="6.15004">
        <ele>556.2</ele>
        <time>2022-10-02T08:09:28Z</time>
      </trkpt>
      <trkpt lat="47.08556" lon="6.15002">
        <ele>556.4</ele>
        <time>2022-10-02T08:09:29Z</time>
      </trkpt>
      <trkpt lat="47.08537" lon="6.14989">
        <ele>557.6</ele>
        <time>2022-10-02T08:09:35Z</time>
      </trkpt>
      <trkpt lat="47.08534" lon="6.14987">
        <ele>557.8</ele>
        <time>2022-10-02T08:09:36Z</time>
      </trkpt>
      <trkpt lat="47.08525" lon="6.14981">
        <ele>559</ele>
        <time>2022-10-02T08:09:39Z</time>
      </trkpt>
      <trkpt lat="47.08514" lon="6.14972">
        <ele>560</ele>
        <time>2022-10-02T08:09:42Z</time>
      </trkpt>
      <trkpt lat="47.0851" lon="6.14969">
        <ele>560.2</ele>
        <time>2022-10-02T08:09:43Z</time>
      </trkpt>
      <trkpt lat="47.08485" lon="6.14955">
        <ele>561.2</ele>
        <time>2022-10-02T08:09:49Z</time>
      </trkpt>
      <trkpt lat="47.08481" lon="6.14952">
        <ele>561.6</ele>
        <time>2022-10-02T08:09:50Z</time>
      </trkpt>
      <trkpt lat="47.0847" lon="6.14944">
        <ele>562.4</ele>
        <time>2022-10-02T08:09:53Z</time>
      </trkpt>
      <trkpt lat="47.08455" lon="6.14934">
        <ele>563.2</ele>
        <time>2022-10-02T08:09:57Z</time>
      </trkpt>
      <trkpt lat="47.08451" lon="6.14931">
        <ele>563.4</ele>
        <time>2022-10-02T08:09:58Z</time>
      </trkpt>
      <trkpt lat="47.08441" lon="6.14923">
        <ele>564.6</ele>
        <time>2022-10-02T08:10:01Z</time>
      </trkpt>
      <trkpt lat="47.08427" lon="6.14912">
        <ele>565.6</ele>
        <time>2022-10-02T08:10:06Z</time>
      </trkpt>
      <trkpt lat="47.08425" lon="6.1491">
        <ele>565.8</ele>
        <time>2022-10-02T08:10:07Z</time>
      </trkpt>
      <trkpt lat="47.08424" lon="6.14908">
        <ele>566</ele>
        <time>2022-10-02T08:10:08Z</time>
      </trkpt>
      <trkpt lat="47.08425" lon="6.149">
        <ele>566</ele>
        <time>2022-10-02T08:10:10Z</time>
      </trkpt>
      <trkpt lat="47.08429" lon="6.14877">
        <ele>566.4</ele>
        <time>2022-10-02T08:10:15Z</time>
      </trkpt>
      <trkpt lat="47.08426" lon="6.14854">
        <ele>566</ele>
        <time>2022-10-02T08:10:20Z</time>
      </trkpt>
      <trkpt lat="47.0842" lon="6.14819">
        <ele>565.4</ele>
        <time>2022-10-02T08:10:28Z</time>
      </trkpt>
      <trkpt lat="47.0842" lon="6.14809">
        <ele>564.6</ele>
        <time>2022-10-02T08:10:30Z</time>
      </trkpt>
      <trkpt lat="47.08423" lon="6.148">
        <ele>564.4</ele>
        <time>2022-10-02T08:10:32Z</time>
      </trkpt>
      <trkpt lat="47.08426" lon="6.14797">
        <ele>564.2</ele>
        <time>2022-10-02T08:10:33Z</time>
      </trkpt>
      <trkpt lat="47.08438" lon="6.14793">
        <ele>563.6</ele>
        <time>2022-10-02T08:10:36Z</time>
      </trkpt>
      <trkpt lat="47.08442" lon="6.14792">
        <ele>563.2</ele>
        <time>2022-10-02T08:10:37Z</time>
      </trkpt>
      <trkpt lat="47.08452" lon="6.14792">
        <ele>562.6</ele>
        <time>2022-10-02T08:10:39Z</time>
      </trkpt>
      <trkpt lat="47.08457" lon="6.14792">
        <ele>562.2</ele>
        <time>2022-10-02T08:10:40Z</time>
      </trkpt>
      <trkpt lat="47.08472" lon="6.14791">
        <ele>561.4</ele>
        <time>2022-10-02T08:10:43Z</time>
      </trkpt>
      <trkpt lat="47.08488" lon="6.14784">
        <ele>560.6</ele>
        <time>2022-10-02T08:10:47Z</time>
      </trkpt>
      <trkpt lat="47.0849" lon="6.14779">
        <ele>560.4</ele>
        <time>2022-10-02T08:10:48Z</time>
      </trkpt>
      <trkpt lat="47.08497" lon="6.14755">
        <ele>559</ele>
        <time>2022-10-02T08:10:52Z</time>
      </trkpt>
      <trkpt lat="47.08499" lon="6.14748">
        <ele>558.6</ele>
        <time>2022-10-02T08:10:53Z</time>
      </trkpt>
      <trkpt lat="47.08501" lon="6.14734">
        <ele>557.8</ele>
        <time>2022-10-02T08:10:55Z</time>
      </trkpt>
      <trkpt lat="47.08506" lon="6.14715">
        <ele>556.4</ele>
        <time>2022-10-02T08:10:58Z</time>
      </trkpt>
      <trkpt lat="47.08512" lon="6.14699">
        <ele>555.2</ele>
        <time>2022-10-02T08:11:01Z</time>
      </trkpt>
      <trkpt lat="47.08521" lon="6.14684">
        <ele>553.8</ele>
        <time>2022-10-02T08:11:05Z</time>
      </trkpt>
      <trkpt lat="47.08522" lon="6.14681">
        <ele>553.6</ele>
        <time>2022-10-02T08:11:06Z</time>
      </trkpt>
      <trkpt lat="47.08521" lon="6.14679">
        <ele>553.4</ele>
        <time>2022-10-02T08:11:07Z</time>
      </trkpt>
      <trkpt lat="47.08517" lon="6.14672">
        <ele>553.2</ele>
        <time>2022-10-02T08:11:10Z</time>
      </trkpt>
      <trkpt lat="47.0852" lon="6.14665">
        <ele>552.8</ele>
        <time>2022-10-02T08:11:14Z</time>
      </trkpt>
      <trkpt lat="47.08525" lon="6.14664">
        <ele>552.2</ele>
        <time>2022-10-02T08:11:16Z</time>
      </trkpt>
      <trkpt lat="47.08531" lon="6.14664">
        <ele>551.8</ele>
        <time>2022-10-02T08:11:18Z</time>
      </trkpt>
      <trkpt lat="47.08542" lon="6.14657">
        <ele>550.6</ele>
        <time>2022-10-02T08:11:21Z</time>
      </trkpt>
      <trkpt lat="47.08546" lon="6.14655">
        <ele>550.4</ele>
        <time>2022-10-02T08:11:22Z</time>
      </trkpt>
      <trkpt lat="47.08555" lon="6.14649">
        <ele>549.6</ele>
        <time>2022-10-02T08:11:24Z</time>
      </trkpt>
      <trkpt lat="47.08568" lon="6.14639">
        <ele>548.6</ele>
        <time>2022-10-02T08:11:27Z</time>
      </trkpt>
      <trkpt lat="47.08572" lon="6.14635">
        <ele>548.4</ele>
        <time>2022-10-02T08:11:28Z</time>
      </trkpt>
      <trkpt lat="47.08583" lon="6.14623">
        <ele>547.4</ele>
        <time>2022-10-02T08:11:31Z</time>
      </trkpt>
      <trkpt lat="47.08587" lon="6.14619">
        <ele>547.2</ele>
        <time>2022-10-02T08:11:32Z</time>
      </trkpt>
      <trkpt lat="47.08593" lon="6.14609">
        <ele>546.2</ele>
        <time>2022-10-02T08:11:34Z</time>
      </trkpt>
      <trkpt lat="47.08601" lon="6.14594">
        <ele>544.8</ele>
        <time>2022-10-02T08:11:37Z</time>
      </trkpt>
      <trkpt lat="47.08611" lon="6.14577">
        <ele>543.4</ele>
        <time>2022-10-02T08:11:40Z</time>
      </trkpt>
      <trkpt lat="47.08619" lon="6.14564">
        <ele>542.2</ele>
        <time>2022-10-02T08:11:42Z</time>
      </trkpt>
      <trkpt lat="47.08626" lon="6.14553">
        <ele>541</ele>
        <time>2022-10-02T08:11:44Z</time>
      </trkpt>
      <trkpt lat="47.08633" lon="6.14541">
        <ele>539.6</ele>
        <time>2022-10-02T08:11:46Z</time>
      </trkpt>
      <trkpt lat="47.08637" lon="6.14535">
        <ele>538.8</ele>
        <time>2022-10-02T08:11:47Z</time>
      </trkpt>
      <trkpt lat="47.0864" lon="6.14528">
        <ele>538.2</ele>
        <time>2022-10-02T08:11:48Z</time>
      </trkpt>
      <trkpt lat="47.08648" lon="6.14514">
        <ele>536.8</ele>
        <time>2022-10-02T08:11:50Z</time>
      </trkpt>
      <trkpt lat="47.08658" lon="6.14501">
        <ele>535.4</ele>
        <time>2022-10-02T08:11:52Z</time>
      </trkpt>
      <trkpt lat="47.08668" lon="6.14488">
        <ele>534</ele>
        <time>2022-10-02T08:11:54Z</time>
      </trkpt>
      <trkpt lat="47.08679" lon="6.14474">
        <ele>532.2</ele>
        <time>2022-10-02T08:11:56Z</time>
      </trkpt>
      <trkpt lat="47.08691" lon="6.14459">
        <ele>530.4</ele>
        <time>2022-10-02T08:11:58Z</time>
      </trkpt>
      <trkpt lat="47.08703" lon="6.14444">
        <ele>528.6</ele>
        <time>2022-10-02T08:12:00Z</time>
      </trkpt>
      <trkpt lat="47.08715" lon="6.1443">
        <ele>526.8</ele>
        <time>2022-10-02T08:12:02Z</time>
      </trkpt>
      <trkpt lat="47.08729" lon="6.1442">
        <ele>525.2</ele>
        <time>2022-10-02T08:12:04Z</time>
      </trkpt>
      <trkpt lat="47.08741" lon="6.1441">
        <ele>523.8</ele>
        <time>2022-10-02T08:12:06Z</time>
      </trkpt>
      <trkpt lat="47.08752" lon="6.14402">
        <ele>522.8</ele>
        <time>2022-10-02T08:12:08Z</time>
      </trkpt>
      <trkpt lat="47.08758" lon="6.144">
        <ele>522.4</ele>
        <time>2022-10-02T08:12:09Z</time>
      </trkpt>
      <trkpt lat="47.08769" lon="6.14395">
        <ele>521.6</ele>
        <time>2022-10-02T08:12:11Z</time>
      </trkpt>
      <trkpt lat="47.08795" lon="6.14381">
        <ele>520.8</ele>
        <time>2022-10-02T08:12:16Z</time>
      </trkpt>
      <trkpt lat="47.088" lon="6.14379">
        <ele>520.4</ele>
        <time>2022-10-02T08:12:17Z</time>
      </trkpt>
      <trkpt lat="47.08813" lon="6.14373">
        <ele>519.2</ele>
        <time>2022-10-02T08:12:20Z</time>
      </trkpt>
      <trkpt lat="47.08822" lon="6.14372">
        <ele>518.6</ele>
        <time>2022-10-02T08:12:22Z</time>
      </trkpt>
      <trkpt lat="47.08829" lon="6.14374">
        <ele>518.4</ele>
        <time>2022-10-02T08:12:24Z</time>
      </trkpt>
      <trkpt lat="47.08838" lon="6.14377">
        <ele>518</ele>
        <time>2022-10-02T08:12:26Z</time>
      </trkpt>
      <trkpt lat="47.08844" lon="6.14379">
        <ele>517.4</ele>
        <time>2022-10-02T08:12:27Z</time>
      </trkpt>
      <trkpt lat="47.08849" lon="6.14381">
        <ele>516.8</ele>
        <time>2022-10-02T08:12:28Z</time>
      </trkpt>
      <trkpt lat="47.0886" lon="6.14383">
        <ele>515.4</ele>
        <time>2022-10-02T08:12:30Z</time>
      </trkpt>
      <trkpt lat="47.08872" lon="6.14383">
        <ele>514.2</ele>
        <time>2022-10-02T08:12:32Z</time>
      </trkpt>
      <trkpt lat="47.08884" lon="6.14386">
        <ele>512.8</ele>
        <time>2022-10-02T08:12:34Z</time>
      </trkpt>
      <trkpt lat="47.08903" lon="6.14387">
        <ele>511.8</ele>
        <time>2022-10-02T08:12:37Z</time>
      </trkpt>
      <trkpt lat="47.08907" lon="6.14387">
        <ele>511.4</ele>
        <time>2022-10-02T08:12:38Z</time>
      </trkpt>
      <trkpt lat="47.08914" lon="6.14388">
        <ele>510.4</ele>
        <time>2022-10-02T08:12:40Z</time>
      </trkpt>
      <trkpt lat="47.08915" lon="6.14389">
        <ele>510.2</ele>
        <time>2022-10-02T08:12:41Z</time>
      </trkpt>
      <trkpt lat="47.08917" lon="6.14387">
        <ele>510</ele>
        <time>2022-10-02T08:12:48Z</time>
      </trkpt>
      <trkpt lat="47.08918" lon="6.14387">
        <ele>509.6</ele>
        <time>2022-10-02T08:12:49Z</time>
      </trkpt>
      <trkpt lat="47.0892" lon="6.14386">
        <ele>509.4</ele>
        <time>2022-10-02T08:12:50Z</time>
      </trkpt>
      <trkpt lat="47.08924" lon="6.14387">
        <ele>509</ele>
        <time>2022-10-02T08:12:52Z</time>
      </trkpt>
      <trkpt lat="47.08936" lon="6.14388">
        <ele>508.8</ele>
        <time>2022-10-02T08:12:56Z</time>
      </trkpt>
      <trkpt lat="47.0896" lon="6.14389">
        <ele>508.8</ele>
        <time>2022-10-02T08:13:03Z</time>
      </trkpt>
      <trkpt lat="47.08976" lon="6.14385">
        <ele>509</ele>
        <time>2022-10-02T08:13:07Z</time>
      </trkpt>
      <trkpt lat="47.08985" lon="6.14387">
        <ele>509.2</ele>
        <time>2022-10-02T08:13:09Z</time>
      </trkpt>
      <trkpt lat="47.09001" lon="6.144">
        <ele>509</ele>
        <time>2022-10-02T08:13:13Z</time>
      </trkpt>
      <trkpt lat="47.09005" lon="6.14403">
        <ele>508.8</ele>
        <time>2022-10-02T08:13:14Z</time>
      </trkpt>
      <trkpt lat="47.0901" lon="6.14405">
        <ele>508.8</ele>
        <time>2022-10-02T08:13:15Z</time>
      </trkpt>
      <trkpt lat="47.0902" lon="6.14403">
        <ele>508.4</ele>
        <time>2022-10-02T08:13:17Z</time>
      </trkpt>
      <trkpt lat="47.09024" lon="6.14401">
        <ele>508.2</ele>
        <time>2022-10-02T08:13:18Z</time>
      </trkpt>
      <trkpt lat="47.09042" lon="6.144">
        <ele>507.2</ele>
        <time>2022-10-02T08:13:22Z</time>
      </trkpt>
      <trkpt lat="47.09046" lon="6.14401">
        <ele>506.8</ele>
        <time>2022-10-02T08:13:23Z</time>
      </trkpt>
      <trkpt lat="47.09052" lon="6.14404">
        <ele>505.8</ele>
        <time>2022-10-02T08:13:25Z</time>
      </trkpt>
      <trkpt lat="47.09058" lon="6.14406">
        <ele>505</ele>
        <time>2022-10-02T08:13:27Z</time>
      </trkpt>
      <trkpt lat="47.09061" lon="6.14407">
        <ele>504.4</ele>
        <time>2022-10-02T08:13:28Z</time>
      </trkpt>
      <trkpt lat="47.09066" lon="6.14409">
        <ele>503.4</ele>
        <time>2022-10-02T08:13:30Z</time>
      </trkpt>
      <trkpt lat="47.09071" lon="6.1441">
        <ele>502.6</ele>
        <time>2022-10-02T08:13:32Z</time>
      </trkpt>
      <trkpt lat="47.09074" lon="6.14411">
        <ele>502.4</ele>
        <time>2022-10-02T08:13:33Z</time>
      </trkpt>
      <trkpt lat="47.09081" lon="6.14414">
        <ele>501</ele>
        <time>2022-10-02T08:13:36Z</time>
      </trkpt>
      <trkpt lat="47.09086" lon="6.14413">
        <ele>500.2</ele>
        <time>2022-10-02T08:13:38Z</time>
      </trkpt>
      <trkpt lat="47.09089" lon="6.14413">
        <ele>499.6</ele>
        <time>2022-10-02T08:13:39Z</time>
      </trkpt>
      <trkpt lat="47.09096" lon="6.14411">
        <ele>498.4</ele>
        <time>2022-10-02T08:13:43Z</time>
      </trkpt>
      <trkpt lat="47.09098" lon="6.1441">
        <ele>498</ele>
        <time>2022-10-02T08:13:44Z</time>
      </trkpt>
      <trkpt lat="47.09101" lon="6.14409">
        <ele>497.2</ele>
        <time>2022-10-02T08:13:46Z</time>
      </trkpt>
      <trkpt lat="47.09106" lon="6.14407">
        <ele>496</ele>
        <time>2022-10-02T08:13:50Z</time>
      </trkpt>
      <trkpt lat="47.09147" lon="6.1441">
        <ele>490.2</ele>
        <time>2022-10-02T08:14:42Z</time>
      </trkpt>
      <trkpt lat="47.09153" lon="6.14413">
        <ele>489.4</ele>
        <time>2022-10-02T08:14:45Z</time>
      </trkpt>
      <trkpt lat="47.09156" lon="6.14413">
        <ele>489</ele>
        <time>2022-10-02T08:14:46Z</time>
      </trkpt>
      <trkpt lat="47.09162" lon="6.14418">
        <ele>488</ele>
        <time>2022-10-02T08:14:50Z</time>
      </trkpt>
      <trkpt lat="47.09166" lon="6.14419">
        <ele>487.6</ele>
        <time>2022-10-02T08:14:51Z</time>
      </trkpt>
      <trkpt lat="47.09169" lon="6.1442">
        <ele>487</ele>
        <time>2022-10-02T08:14:52Z</time>
      </trkpt>
      <trkpt lat="47.09176" lon="6.14424">
        <ele>486</ele>
        <time>2022-10-02T08:14:54Z</time>
      </trkpt>
      <trkpt lat="47.09187" lon="6.14425">
        <ele>484</ele>
        <time>2022-10-02T08:14:56Z</time>
      </trkpt>
      <trkpt lat="47.09196" lon="6.14426">
        <ele>482.8</ele>
        <time>2022-10-02T08:14:58Z</time>
      </trkpt>
      <trkpt lat="47.09205" lon="6.14427">
        <ele>481.4</ele>
        <time>2022-10-02T08:15:00Z</time>
      </trkpt>
      <trkpt lat="47.09213" lon="6.14428">
        <ele>480.2</ele>
        <time>2022-10-02T08:15:02Z</time>
      </trkpt>
      <trkpt lat="47.09223" lon="6.14428">
        <ele>479.2</ele>
        <time>2022-10-02T08:15:05Z</time>
      </trkpt>
      <trkpt lat="47.09235" lon="6.14425">
        <ele>477.8</ele>
        <time>2022-10-02T08:15:09Z</time>
      </trkpt>
      <trkpt lat="47.09245" lon="6.14422">
        <ele>476.8</ele>
        <time>2022-10-02T08:15:12Z</time>
      </trkpt>
      <trkpt lat="47.09253" lon="6.1442">
        <ele>475.6</ele>
        <time>2022-10-02T08:15:15Z</time>
      </trkpt>
      <trkpt lat="47.09261" lon="6.14417">
        <ele>474.6</ele>
        <time>2022-10-02T08:15:18Z</time>
      </trkpt>
      <trkpt lat="47.0927" lon="6.14416">
        <ele>473.2</ele>
        <time>2022-10-02T08:15:21Z</time>
      </trkpt>
      <trkpt lat="47.09279" lon="6.14416">
        <ele>472</ele>
        <time>2022-10-02T08:15:24Z</time>
      </trkpt>
      <trkpt lat="47.09284" lon="6.14414">
        <ele>471</ele>
        <time>2022-10-02T08:15:26Z</time>
      </trkpt>
      <trkpt lat="47.0929" lon="6.14415">
        <ele>469.6</ele>
        <time>2022-10-02T08:15:28Z</time>
      </trkpt>
      <trkpt lat="47.09296" lon="6.14416">
        <ele>468.4</ele>
        <time>2022-10-02T08:15:30Z</time>
      </trkpt>
      <trkpt lat="47.09302" lon="6.14415">
        <ele>467</ele>
        <time>2022-10-02T08:15:32Z</time>
      </trkpt>
      <trkpt lat="47.09307" lon="6.14415">
        <ele>465.6</ele>
        <time>2022-10-02T08:15:34Z</time>
      </trkpt>
      <trkpt lat="47.09312" lon="6.14415">
        <ele>464</ele>
        <time>2022-10-02T08:15:36Z</time>
      </trkpt>
      <trkpt lat="47.09316" lon="6.14414">
        <ele>462.4</ele>
        <time>2022-10-02T08:15:38Z</time>
      </trkpt>
      <trkpt lat="47.0932" lon="6.14412">
        <ele>460.8</ele>
        <time>2022-10-02T08:15:40Z</time>
      </trkpt>
      <trkpt lat="47.09323" lon="6.14412">
        <ele>460.2</ele>
        <time>2022-10-02T08:15:41Z</time>
      </trkpt>
      <trkpt lat="47.09325" lon="6.14411">
        <ele>459.4</ele>
        <time>2022-10-02T08:15:42Z</time>
      </trkpt>
      <trkpt lat="47.09331" lon="6.14411">
        <ele>458</ele>
        <time>2022-10-02T08:15:44Z</time>
      </trkpt>
      <trkpt lat="47.09336" lon="6.14413">
        <ele>456.4</ele>
        <time>2022-10-02T08:15:46Z</time>
      </trkpt>
      <trkpt lat="47.09342" lon="6.14413">
        <ele>454.6</ele>
        <time>2022-10-02T08:15:48Z</time>
      </trkpt>
      <trkpt lat="47.09345" lon="6.14413">
        <ele>453.4</ele>
        <time>2022-10-02T08:15:49Z</time>
      </trkpt>
      <trkpt lat="47.09349" lon="6.14411">
        <ele>452.4</ele>
        <time>2022-10-02T08:15:50Z</time>
      </trkpt>
      <trkpt lat="47.09352" lon="6.14409">
        <ele>451.4</ele>
        <time>2022-10-02T08:15:51Z</time>
      </trkpt>
      <trkpt lat="47.09355" lon="6.14408">
        <ele>450.2</ele>
        <time>2022-10-02T08:15:52Z</time>
      </trkpt>
      <trkpt lat="47.09358" lon="6.14407">
        <ele>449.4</ele>
        <time>2022-10-02T08:15:53Z</time>
      </trkpt>
      <trkpt lat="47.09361" lon="6.14406">
        <ele>448.6</ele>
        <time>2022-10-02T08:15:54Z</time>
      </trkpt>
      <trkpt lat="47.09367" lon="6.14403">
        <ele>446.8</ele>
        <time>2022-10-02T08:15:56Z</time>
      </trkpt>
      <trkpt lat="47.09372" lon="6.14401">
        <ele>445.6</ele>
        <time>2022-10-02T08:15:58Z</time>
      </trkpt>
      <trkpt lat="47.09378" lon="6.14399">
        <ele>443.8</ele>
        <time>2022-10-02T08:16:00Z</time>
      </trkpt>
      <trkpt lat="47.09382" lon="6.14398">
        <ele>443</ele>
        <time>2022-10-02T08:16:01Z</time>
      </trkpt>
      <trkpt lat="47.09386" lon="6.14397">
        <ele>442</ele>
        <time>2022-10-02T08:16:02Z</time>
      </trkpt>
      <trkpt lat="47.09395" lon="6.14392">
        <ele>440</ele>
        <time>2022-10-02T08:16:04Z</time>
      </trkpt>
      <trkpt lat="47.09401" lon="6.1439">
        <ele>438.8</ele>
        <time>2022-10-02T08:16:05Z</time>
      </trkpt>
      <trkpt lat="47.09406" lon="6.14388">
        <ele>437.6</ele>
        <time>2022-10-02T08:16:06Z</time>
      </trkpt>
      <trkpt lat="47.09412" lon="6.14387">
        <ele>436.4</ele>
        <time>2022-10-02T08:16:07Z</time>
      </trkpt>
      <trkpt lat="47.09418" lon="6.14384">
        <ele>435.4</ele>
        <time>2022-10-02T08:16:08Z</time>
      </trkpt>
      <trkpt lat="47.09424" lon="6.14383">
        <ele>434</ele>
        <time>2022-10-02T08:16:09Z</time>
      </trkpt>
      <trkpt lat="47.09429" lon="6.14381">
        <ele>432.8</ele>
        <time>2022-10-02T08:16:10Z</time>
      </trkpt>
      <trkpt lat="47.09434" lon="6.1438">
        <ele>431.6</ele>
        <time>2022-10-02T08:16:11Z</time>
      </trkpt>
      <trkpt lat="47.0944" lon="6.14379">
        <ele>430.4</ele>
        <time>2022-10-02T08:16:12Z</time>
      </trkpt>
      <trkpt lat="47.09445" lon="6.14378">
        <ele>429.4</ele>
        <time>2022-10-02T08:16:13Z</time>
      </trkpt>
      <trkpt lat="47.09451" lon="6.14377">
        <ele>428.4</ele>
        <time>2022-10-02T08:16:14Z</time>
      </trkpt>
      <trkpt lat="47.09455" lon="6.14376">
        <ele>427.2</ele>
        <time>2022-10-02T08:16:15Z</time>
      </trkpt>
      <trkpt lat="47.09459" lon="6.14375">
        <ele>425.8</ele>
        <time>2022-10-02T08:16:16Z</time>
      </trkpt>
      <trkpt lat="47.09463" lon="6.14375">
        <ele>424</ele>
        <time>2022-10-02T08:16:17Z</time>
      </trkpt>
      <trkpt lat="47.09467" lon="6.14375">
        <ele>422.8</ele>
        <time>2022-10-02T08:16:18Z</time>
      </trkpt>
      <trkpt lat="47.09474" lon="6.14373">
        <ele>421.2</ele>
        <time>2022-10-02T08:16:20Z</time>
      </trkpt>
      <trkpt lat="47.09481" lon="6.14372">
        <ele>419.2</ele>
        <time>2022-10-02T08:16:22Z</time>
      </trkpt>
      <trkpt lat="47.09488" lon="6.14372">
        <ele>417.6</ele>
        <time>2022-10-02T08:16:24Z</time>
      </trkpt>
      <trkpt lat="47.09495" lon="6.14371">
        <ele>415.6</ele>
        <time>2022-10-02T08:16:26Z</time>
      </trkpt>
      <trkpt lat="47.09501" lon="6.14371">
        <ele>414.2</ele>
        <time>2022-10-02T08:16:28Z</time>
      </trkpt>
      <trkpt lat="47.09509" lon="6.1437">
        <ele>412.8</ele>
        <time>2022-10-02T08:16:30Z</time>
      </trkpt>
      <trkpt lat="47.09518" lon="6.14368">
        <ele>411.2</ele>
        <time>2022-10-02T08:16:32Z</time>
      </trkpt>
      <trkpt lat="47.09526" lon="6.14366">
        <ele>409.6</ele>
        <time>2022-10-02T08:16:34Z</time>
      </trkpt>
      <trkpt lat="47.09534" lon="6.14365">
        <ele>407.8</ele>
        <time>2022-10-02T08:16:36Z</time>
      </trkpt>
      <trkpt lat="47.09542" lon="6.14365">
        <ele>406.4</ele>
        <time>2022-10-02T08:16:38Z</time>
      </trkpt>
      <trkpt lat="47.09551" lon="6.14364">
        <ele>405.2</ele>
        <time>2022-10-02T08:16:40Z</time>
      </trkpt>
      <trkpt lat="47.09562" lon="6.14365">
        <ele>403.8</ele>
        <time>2022-10-02T08:16:42Z</time>
      </trkpt>
      <trkpt lat="47.09573" lon="6.14366">
        <ele>402.4</ele>
        <time>2022-10-02T08:16:44Z</time>
      </trkpt>
      <trkpt lat="47.09584" lon="6.14369">
        <ele>400.8</ele>
        <time>2022-10-02T08:16:46Z</time>
      </trkpt>
      <trkpt lat="47.09588" lon="6.14371">
        <ele>400.2</ele>
        <time>2022-10-02T08:16:47Z</time>
      </trkpt>
      <trkpt lat="47.09592" lon="6.14373">
        <ele>399.6</ele>
        <time>2022-10-02T08:16:48Z</time>
      </trkpt>
      <trkpt lat="47.096" lon="6.1438">
        <ele>398.4</ele>
        <time>2022-10-02T08:16:50Z</time>
      </trkpt>
      <trkpt lat="47.09609" lon="6.14386">
        <ele>397.2</ele>
        <time>2022-10-02T08:16:52Z</time>
      </trkpt>
      <trkpt lat="47.09614" lon="6.1439">
        <ele>396.6</ele>
        <time>2022-10-02T08:16:53Z</time>
      </trkpt>
      <trkpt lat="47.09619" lon="6.14393">
        <ele>395.8</ele>
        <time>2022-10-02T08:16:54Z</time>
      </trkpt>
      <trkpt lat="47.09633" lon="6.14401">
        <ele>394.6</ele>
        <time>2022-10-02T08:16:57Z</time>
      </trkpt>
      <trkpt lat="47.0964" lon="6.14405">
        <ele>394.4</ele>
        <time>2022-10-02T08:16:59Z</time>
      </trkpt>
      <trkpt lat="47.09653" lon="6.14413">
        <ele>394.6</ele>
        <time>2022-10-02T08:17:04Z</time>
      </trkpt>
      <trkpt lat="47.09667" lon="6.14417">
        <ele>393.6</ele>
        <time>2022-10-02T08:17:09Z</time>
      </trkpt>
      <trkpt lat="47.09688" lon="6.1442">
        <ele>392.6</ele>
        <time>2022-10-02T08:17:14Z</time>
      </trkpt>
      <trkpt lat="47.09703" lon="6.14421">
        <ele>391.4</ele>
        <time>2022-10-02T08:17:18Z</time>
      </trkpt>
      <trkpt lat="47.09717" lon="6.14425">
        <ele>390.2</ele>
        <time>2022-10-02T08:17:22Z</time>
      </trkpt>
      <trkpt lat="47.09722" lon="6.14422">
        <ele>389.8</ele>
        <time>2022-10-02T08:17:24Z</time>
      </trkpt>
      <trkpt lat="47.09724" lon="6.1441">
        <ele>389</ele>
        <time>2022-10-02T08:17:27Z</time>
      </trkpt>
      <trkpt lat="47.09723" lon="6.14406">
        <ele>388.6</ele>
        <time>2022-10-02T08:17:28Z</time>
      </trkpt>
      <trkpt lat="47.09721" lon="6.14396">
        <ele>388</ele>
        <time>2022-10-02T08:17:30Z</time>
      </trkpt>
      <trkpt lat="47.09719" lon="6.14392">
        <ele>387.6</ele>
        <time>2022-10-02T08:17:31Z</time>
      </trkpt>
      <trkpt lat="47.09719" lon="6.14385">
        <ele>386.8</ele>
        <time>2022-10-02T08:17:33Z</time>
      </trkpt>
      <trkpt lat="47.0972" lon="6.14382">
        <ele>386.4</ele>
        <time>2022-10-02T08:17:34Z</time>
      </trkpt>
      <trkpt lat="47.09725" lon="6.1438">
        <ele>385.8</ele>
        <time>2022-10-02T08:17:36Z</time>
      </trkpt>
      <trkpt lat="47.09728" lon="6.1438">
        <ele>385.4</ele>
        <time>2022-10-02T08:17:37Z</time>
      </trkpt>
      <trkpt lat="47.09734" lon="6.14379">
        <ele>384.6</ele>
        <time>2022-10-02T08:17:40Z</time>
      </trkpt>
      <trkpt lat="47.09736" lon="6.14379">
        <ele>384.4</ele>
        <time>2022-10-02T08:17:41Z</time>
      </trkpt>
      <trkpt lat="47.09738" lon="6.1438">
        <ele>384.2</ele>
        <time>2022-10-02T08:17:42Z</time>
      </trkpt>
      <trkpt lat="47.09745" lon="6.14379">
        <ele>383.6</ele>
        <time>2022-10-02T08:17:44Z</time>
      </trkpt>
      <trkpt lat="47.09753" lon="6.14376">
        <ele>382.8</ele>
        <time>2022-10-02T08:17:46Z</time>
      </trkpt>
      <trkpt lat="47.09765" lon="6.1437">
        <ele>381.8</ele>
        <time>2022-10-02T08:17:49Z</time>
      </trkpt>
      <trkpt lat="47.09779" lon="6.14363">
        <ele>380.6</ele>
        <time>2022-10-02T08:17:53Z</time>
      </trkpt>
      <trkpt lat="47.09782" lon="6.14361">
        <ele>380.4</ele>
        <time>2022-10-02T08:17:54Z</time>
      </trkpt>
      <trkpt lat="47.09796" lon="6.14356">
        <ele>379.6</ele>
        <time>2022-10-02T08:17:59Z</time>
      </trkpt>
      <trkpt lat="47.09811" lon="6.14347">
        <ele>378.6</ele>
        <time>2022-10-02T08:18:05Z</time>
      </trkpt>
      <trkpt lat="47.09815" lon="6.14345">
        <ele>378.4</ele>
        <time>2022-10-02T08:18:06Z</time>
      </trkpt>
      <trkpt lat="47.09826" lon="6.14336">
        <ele>377</ele>
        <time>2022-10-02T08:18:10Z</time>
      </trkpt>
      <trkpt lat="47.09828" lon="6.14333">
        <ele>376.8</ele>
        <time>2022-10-02T08:18:11Z</time>
      </trkpt>
      <trkpt lat="47.09831" lon="6.14321">
        <ele>376</ele>
        <time>2022-10-02T08:18:15Z</time>
      </trkpt>
      <trkpt lat="47.09832" lon="6.14317">
        <ele>375.8</ele>
        <time>2022-10-02T08:18:16Z</time>
      </trkpt>
      <trkpt lat="47.09838" lon="6.14292">
        <ele>375</ele>
        <time>2022-10-02T08:18:21Z</time>
      </trkpt>
      <trkpt lat="47.09841" lon="6.1428">
        <ele>374.6</ele>
        <time>2022-10-02T08:18:23Z</time>
      </trkpt>
      <trkpt lat="47.09846" lon="6.1426">
        <ele>373.8</ele>
        <time>2022-10-02T08:18:26Z</time>
      </trkpt>
      <trkpt lat="47.09847" lon="6.14253">
        <ele>373.8</ele>
        <time>2022-10-02T08:18:27Z</time>
      </trkpt>
      <trkpt lat="47.09852" lon="6.14203">
        <ele>372.6</ele>
        <time>2022-10-02T08:18:33Z</time>
      </trkpt>
      <trkpt lat="47.09848" lon="6.14145">
        <ele>372</ele>
        <time>2022-10-02T08:18:40Z</time>
      </trkpt>
      <trkpt lat="47.0984" lon="6.14115">
        <ele>372.2</ele>
        <time>2022-10-02T08:18:44Z</time>
      </trkpt>
      <trkpt lat="47.09834" lon="6.14102">
        <ele>372.4</ele>
        <time>2022-10-02T08:18:46Z</time>
      </trkpt>
      <trkpt lat="47.09832" lon="6.14096">
        <ele>372.6</ele>
        <time>2022-10-02T08:18:47Z</time>
      </trkpt>
      <trkpt lat="47.0982" lon="6.14076">
        <ele>373.6</ele>
        <time>2022-10-02T08:18:51Z</time>
      </trkpt>
      <trkpt lat="47.09817" lon="6.14071">
        <ele>373.8</ele>
        <time>2022-10-02T08:18:52Z</time>
      </trkpt>
      <trkpt lat="47.09802" lon="6.14051">
        <ele>374.8</ele>
        <time>2022-10-02T08:18:57Z</time>
      </trkpt>
      <trkpt lat="47.09789" lon="6.14035">
        <ele>375.8</ele>
        <time>2022-10-02T08:19:01Z</time>
      </trkpt>
      <trkpt lat="47.09777" lon="6.1402">
        <ele>376.8</ele>
        <time>2022-10-02T08:19:05Z</time>
      </trkpt>
      <trkpt lat="47.09774" lon="6.14018">
        <ele>376.8</ele>
        <time>2022-10-02T08:19:06Z</time>
      </trkpt>
      <trkpt lat="47.09759" lon="6.14005">
        <ele>377.8</ele>
        <time>2022-10-02T08:19:11Z</time>
      </trkpt>
      <trkpt lat="47.09756" lon="6.14002">
        <ele>378</ele>
        <time>2022-10-02T08:19:12Z</time>
      </trkpt>
      <trkpt lat="47.0974" lon="6.13989">
        <ele>378.8</ele>
        <time>2022-10-02T08:19:17Z</time>
      </trkpt>
      <trkpt lat="47.09733" lon="6.13984">
        <ele>379</ele>
        <time>2022-10-02T08:19:19Z</time>
      </trkpt>
      <trkpt lat="47.09709" lon="6.13963">
        <ele>379.8</ele>
        <time>2022-10-02T08:19:26Z</time>
      </trkpt>
      <trkpt lat="47.0968" lon="6.13933">
        <ele>379</ele>
        <time>2022-10-02T08:19:33Z</time>
      </trkpt>
      <trkpt lat="47.09676" lon="6.13927">
        <ele>379</ele>
        <time>2022-10-02T08:19:34Z</time>
      </trkpt>
      <trkpt lat="47.09664" lon="6.13899">
        <ele>378.4</ele>
        <time>2022-10-02T08:19:38Z</time>
      </trkpt>
      <trkpt lat="47.09661" lon="6.13893">
        <ele>378</ele>
        <time>2022-10-02T08:19:39Z</time>
      </trkpt>
      <trkpt lat="47.0966" lon="6.13885">
        <ele>377.4</ele>
        <time>2022-10-02T08:19:40Z</time>
      </trkpt>
      <trkpt lat="47.09658" lon="6.13872">
        <ele>376.4</ele>
        <time>2022-10-02T08:19:42Z</time>
      </trkpt>
      <trkpt lat="47.09648" lon="6.13859">
        <ele>375.2</ele>
        <time>2022-10-02T08:19:45Z</time>
      </trkpt>
      <trkpt lat="47.09643" lon="6.13855">
        <ele>374.8</ele>
        <time>2022-10-02T08:19:46Z</time>
      </trkpt>
      <trkpt lat="47.09633" lon="6.13848">
        <ele>374</ele>
        <time>2022-10-02T08:19:48Z</time>
      </trkpt>
      <trkpt lat="47.09619" lon="6.13837">
        <ele>372.6</ele>
        <time>2022-10-02T08:19:51Z</time>
      </trkpt>
      <trkpt lat="47.09604" lon="6.13825">
        <ele>371.4</ele>
        <time>2022-10-02T08:19:54Z</time>
      </trkpt>
      <trkpt lat="47.09588" lon="6.13812">
        <ele>370.2</ele>
        <time>2022-10-02T08:19:57Z</time>
      </trkpt>
      <trkpt lat="47.09571" lon="6.138">
        <ele>369</ele>
        <time>2022-10-02T08:20:00Z</time>
      </trkpt>
      <trkpt lat="47.09554" lon="6.13791">
        <ele>367.4</ele>
        <time>2022-10-02T08:20:03Z</time>
      </trkpt>
      <trkpt lat="47.09549" lon="6.13789">
        <ele>367</ele>
        <time>2022-10-02T08:20:04Z</time>
      </trkpt>
      <trkpt lat="47.09533" lon="6.13778">
        <ele>366</ele>
        <time>2022-10-02T08:20:07Z</time>
      </trkpt>
      <trkpt lat="47.09519" lon="6.13761">
        <ele>365</ele>
        <time>2022-10-02T08:20:10Z</time>
      </trkpt>
      <trkpt lat="47.09508" lon="6.13742">
        <ele>363.6</ele>
        <time>2022-10-02T08:20:13Z</time>
      </trkpt>
      <trkpt lat="47.09505" lon="6.13734">
        <ele>363.2</ele>
        <time>2022-10-02T08:20:14Z</time>
      </trkpt>
      <trkpt lat="47.09498" lon="6.13719">
        <ele>362.4</ele>
        <time>2022-10-02T08:20:16Z</time>
      </trkpt>
      <trkpt lat="47.09494" lon="6.13712">
        <ele>362.2</ele>
        <time>2022-10-02T08:20:17Z</time>
      </trkpt>
      <trkpt lat="47.0948" lon="6.137">
        <ele>362.4</ele>
        <time>2022-10-02T08:20:20Z</time>
      </trkpt>
      <trkpt lat="47.09471" lon="6.13696">
        <ele>361.8</ele>
        <time>2022-10-02T08:20:22Z</time>
      </trkpt>
      <trkpt lat="47.09465" lon="6.13695">
        <ele>361.6</ele>
        <time>2022-10-02T08:20:23Z</time>
      </trkpt>
      <trkpt lat="47.09458" lon="6.13694">
        <ele>361.2</ele>
        <time>2022-10-02T08:20:24Z</time>
      </trkpt>
      <trkpt lat="47.09425" lon="6.13695">
        <ele>359.2</ele>
        <time>2022-10-02T08:20:28Z</time>
      </trkpt>
      <trkpt lat="47.09414" lon="6.13695">
        <ele>358</ele>
        <time>2022-10-02T08:20:29Z</time>
      </trkpt>
      <trkpt lat="47.09404" lon="6.13694">
        <ele>357</ele>
        <time>2022-10-02T08:20:30Z</time>
      </trkpt>
      <trkpt lat="47.09395" lon="6.13692">
        <ele>355.8</ele>
        <time>2022-10-02T08:20:31Z</time>
      </trkpt>
      <trkpt lat="47.09379" lon="6.1369">
        <ele>354</ele>
        <time>2022-10-02T08:20:33Z</time>
      </trkpt>
      <trkpt lat="47.09371" lon="6.13689">
        <ele>353</ele>
        <time>2022-10-02T08:20:34Z</time>
      </trkpt>
      <trkpt lat="47.09356" lon="6.13689">
        <ele>351.2</ele>
        <time>2022-10-02T08:20:36Z</time>
      </trkpt>
      <trkpt lat="47.09343" lon="6.1369">
        <ele>349.8</ele>
        <time>2022-10-02T08:20:38Z</time>
      </trkpt>
      <trkpt lat="47.0933" lon="6.13692">
        <ele>348.6</ele>
        <time>2022-10-02T08:20:40Z</time>
      </trkpt>
      <trkpt lat="47.09319" lon="6.13695">
        <ele>347.4</ele>
        <time>2022-10-02T08:20:42Z</time>
      </trkpt>
      <trkpt lat="47.09309" lon="6.13696">
        <ele>346.2</ele>
        <time>2022-10-02T08:20:44Z</time>
      </trkpt>
      <trkpt lat="47.09302" lon="6.13692">
        <ele>345</ele>
        <time>2022-10-02T08:20:46Z</time>
      </trkpt>
      <trkpt lat="47.093" lon="6.13688">
        <ele>344.4</ele>
        <time>2022-10-02T08:20:47Z</time>
      </trkpt>
      <trkpt lat="47.09296" lon="6.13685">
        <ele>343.8</ele>
        <time>2022-10-02T08:20:48Z</time>
      </trkpt>
      <trkpt lat="47.09288" lon="6.13679">
        <ele>342.8</ele>
        <time>2022-10-02T08:20:50Z</time>
      </trkpt>
      <trkpt lat="47.09282" lon="6.13673">
        <ele>341.8</ele>
        <time>2022-10-02T08:20:52Z</time>
      </trkpt>
      <trkpt lat="47.09278" lon="6.1367">
        <ele>341.2</ele>
        <time>2022-10-02T08:20:53Z</time>
      </trkpt>
      <trkpt lat="47.09273" lon="6.13666">
        <ele>340</ele>
        <time>2022-10-02T08:20:55Z</time>
      </trkpt>
      <trkpt lat="47.0927" lon="6.13666">
        <ele>338.6</ele>
        <time>2022-10-02T08:20:57Z</time>
      </trkpt>
      <trkpt lat="47.09261" lon="6.13653">
        <ele>334.2</ele>
        <time>2022-10-02T08:21:19Z</time>
      </trkpt>
      <trkpt lat="47.09256" lon="6.13648">
        <ele>334</ele>
        <time>2022-10-02T08:21:22Z</time>
      </trkpt>
      <trkpt lat="47.0925" lon="6.13635">
        <ele>333.8</ele>
        <time>2022-10-02T08:21:27Z</time>
      </trkpt>
      <trkpt lat="47.09247" lon="6.13633">
        <ele>333.8</ele>
        <time>2022-10-02T08:21:28Z</time>
      </trkpt>
      <trkpt lat="47.09239" lon="6.13624">
        <ele>333.4</ele>
        <time>2022-10-02T08:21:31Z</time>
      </trkpt>
      <trkpt lat="47.09236" lon="6.13621">
        <ele>333.2</ele>
        <time>2022-10-02T08:21:32Z</time>
      </trkpt>
      <trkpt lat="47.09226" lon="6.13611">
        <ele>332.8</ele>
        <time>2022-10-02T08:21:36Z</time>
      </trkpt>
      <trkpt lat="47.09209" lon="6.13587">
        <ele>333.2</ele>
        <time>2022-10-02T08:21:44Z</time>
      </trkpt>
      <trkpt lat="47.09197" lon="6.13574">
        <ele>333.4</ele>
        <time>2022-10-02T08:21:50Z</time>
      </trkpt>
      <trkpt lat="47.09182" lon="6.13556">
        <ele>333.6</ele>
        <time>2022-10-02T08:21:57Z</time>
      </trkpt>
      <trkpt lat="47.09178" lon="6.13552">
        <ele>334.4</ele>
        <time>2022-10-02T08:21:58Z</time>
      </trkpt>
      <trkpt lat="47.09174" lon="6.13549">
        <ele>335.4</ele>
        <time>2022-10-02T08:21:59Z</time>
      </trkpt>
      <trkpt lat="47.0917" lon="6.13546">
        <ele>337.2</ele>
        <time>2022-10-02T08:22:00Z</time>
      </trkpt>
      <trkpt lat="47.09166" lon="6.13543">
        <ele>338.8</ele>
        <time>2022-10-02T08:22:01Z</time>
      </trkpt>
      <trkpt lat="47.09164" lon="6.1354">
        <ele>340.4</ele>
        <time>2022-10-02T08:22:02Z</time>
      </trkpt>
      <trkpt lat="47.09161" lon="6.13537">
        <ele>341.6</ele>
        <time>2022-10-02T08:22:03Z</time>
      </trkpt>
      <trkpt lat="47.09157" lon="6.13534">
        <ele>342.6</ele>
        <time>2022-10-02T08:22:05Z</time>
      </trkpt>
      <trkpt lat="47.09156" lon="6.13531">
        <ele>343.2</ele>
        <time>2022-10-02T08:22:07Z</time>
      </trkpt>
      <trkpt lat="47.09152" lon="6.13527">
        <ele>344.2</ele>
        <time>2022-10-02T08:22:09Z</time>
      </trkpt>
      <trkpt lat="47.09146" lon="6.13522">
        <ele>345.4</ele>
        <time>2022-10-02T08:22:11Z</time>
      </trkpt>
      <trkpt lat="47.0914" lon="6.13516">
        <ele>346.2</ele>
        <time>2022-10-02T08:22:13Z</time>
      </trkpt>
      <trkpt lat="47.09128" lon="6.13501">
        <ele>345.6</ele>
        <time>2022-10-02T08:22:19Z</time>
      </trkpt>
      <trkpt lat="47.09122" lon="6.13493">
        <ele>346.6</ele>
        <time>2022-10-02T08:22:22Z</time>
      </trkpt>
      <trkpt lat="47.0912" lon="6.13485">
        <ele>347.8</ele>
        <time>2022-10-02T08:22:25Z</time>
      </trkpt>
      <trkpt lat="47.09118" lon="6.13481">
        <ele>348.4</ele>
        <time>2022-10-02T08:22:26Z</time>
      </trkpt>
      <trkpt lat="47.0911" lon="6.13459">
        <ele>352.8</ele>
        <time>2022-10-02T08:22:42Z</time>
      </trkpt>
      <trkpt lat="47.09109" lon="6.13454">
        <ele>352.8</ele>
        <time>2022-10-02T08:22:44Z</time>
      </trkpt>
      <trkpt lat="47.09104" lon="6.13437">
        <ele>351.8</ele>
        <time>2022-10-02T08:22:52Z</time>
      </trkpt>
      <trkpt lat="47.09094" lon="6.13416">
        <ele>352.4</ele>
        <time>2022-10-02T08:23:00Z</time>
      </trkpt>
      <trkpt lat="47.09088" lon="6.13408">
        <ele>352.8</ele>
        <time>2022-10-02T08:23:04Z</time>
      </trkpt>
      <trkpt lat="47.09084" lon="6.13404">
        <ele>353</ele>
        <time>2022-10-02T08:23:06Z</time>
      </trkpt>
      <trkpt lat="47.09072" lon="6.13389">
        <ele>352.8</ele>
        <time>2022-10-02T08:23:13Z</time>
      </trkpt>
      <trkpt lat="47.0906" lon="6.13375">
        <ele>353.8</ele>
        <time>2022-10-02T08:23:19Z</time>
      </trkpt>
      <trkpt lat="47.09047" lon="6.13359">
        <ele>355</ele>
        <time>2022-10-02T08:23:26Z</time>
      </trkpt>
      <trkpt lat="47.09041" lon="6.13349">
        <ele>356</ele>
        <time>2022-10-02T08:23:30Z</time>
      </trkpt>
      <trkpt lat="47.09036" lon="6.13339">
        <ele>357.2</ele>
        <time>2022-10-02T08:23:33Z</time>
      </trkpt>
      <trkpt lat="47.09021" lon="6.13322">
        <ele>357.8</ele>
        <time>2022-10-02T08:23:41Z</time>
      </trkpt>
      <trkpt lat="47.09009" lon="6.13302">
        <ele>358.2</ele>
        <time>2022-10-02T08:23:49Z</time>
      </trkpt>
      <trkpt lat="47.09008" lon="6.13299">
        <ele>358.2</ele>
        <time>2022-10-02T08:23:50Z</time>
      </trkpt>
      <trkpt lat="47.08999" lon="6.13281">
        <ele>359</ele>
        <time>2022-10-02T08:23:56Z</time>
      </trkpt>
      <trkpt lat="47.08997" lon="6.13276">
        <ele>359.4</ele>
        <time>2022-10-02T08:23:58Z</time>
      </trkpt>
      <trkpt lat="47.08991" lon="6.13265">
        <ele>360.6</ele>
        <time>2022-10-02T08:24:01Z</time>
      </trkpt>
      <trkpt lat="47.08986" lon="6.13258">
        <ele>361.2</ele>
        <time>2022-10-02T08:24:03Z</time>
      </trkpt>
      <trkpt lat="47.08983" lon="6.1325">
        <ele>361.6</ele>
        <time>2022-10-02T08:24:05Z</time>
      </trkpt>
      <trkpt lat="47.08974" lon="6.13234">
        <ele>362.2</ele>
        <time>2022-10-02T08:24:10Z</time>
      </trkpt>
      <trkpt lat="47.08972" lon="6.1323">
        <ele>362.8</ele>
        <time>2022-10-02T08:24:11Z</time>
      </trkpt>
      <trkpt lat="47.08971" lon="6.13222">
        <ele>363.8</ele>
        <time>2022-10-02T08:24:15Z</time>
      </trkpt>
      <trkpt lat="47.08973" lon="6.13224">
        <ele>363.8</ele>
        <time>2022-10-02T08:24:17Z</time>
      </trkpt>
      <trkpt lat="47.08978" lon="6.13229">
        <ele>364.4</ele>
        <time>2022-10-02T08:24:19Z</time>
      </trkpt>
      <trkpt lat="47.08982" lon="6.13235">
        <ele>364.8</ele>
        <time>2022-10-02T08:24:21Z</time>
      </trkpt>
      <trkpt lat="47.08995" lon="6.13246">
        <ele>365.6</ele>
        <time>2022-10-02T08:24:26Z</time>
      </trkpt>
      <trkpt lat="47.08998" lon="6.13248">
        <ele>366</ele>
        <time>2022-10-02T08:24:27Z</time>
      </trkpt>
      <trkpt lat="47.09006" lon="6.13255">
        <ele>367.4</ele>
        <time>2022-10-02T08:24:30Z</time>
      </trkpt>
      <trkpt lat="47.09014" lon="6.13262">
        <ele>368.8</ele>
        <time>2022-10-02T08:24:33Z</time>
      </trkpt>
      <trkpt lat="47.0902" lon="6.13267">
        <ele>369.8</ele>
        <time>2022-10-02T08:24:35Z</time>
      </trkpt>
      <trkpt lat="47.09033" lon="6.13279">
        <ele>371</ele>
        <time>2022-10-02T08:24:40Z</time>
      </trkpt>
      <trkpt lat="47.09043" lon="6.13289">
        <ele>371.8</ele>
        <time>2022-10-02T08:24:43Z</time>
      </trkpt>
      <trkpt lat="47.09046" lon="6.13292">
        <ele>372</ele>
        <time>2022-10-02T08:24:44Z</time>
      </trkpt>
      <trkpt lat="47.09074" lon="6.13322">
        <ele>372.8</ele>
        <time>2022-10-02T08:24:53Z</time>
      </trkpt>
      <trkpt lat="47.09081" lon="6.13328">
        <ele>373</ele>
        <time>2022-10-02T08:24:55Z</time>
      </trkpt>
      <trkpt lat="47.09108" lon="6.13348">
        <ele>373.2</ele>
        <time>2022-10-02T08:25:02Z</time>
      </trkpt>
      <trkpt lat="47.09124" lon="6.13366">
        <ele>374.2</ele>
        <time>2022-10-02T08:25:07Z</time>
      </trkpt>
      <trkpt lat="47.09151" lon="6.13397">
        <ele>374.8</ele>
        <time>2022-10-02T08:25:15Z</time>
      </trkpt>
      <trkpt lat="47.09154" lon="6.13399">
        <ele>375</ele>
        <time>2022-10-02T08:25:16Z</time>
      </trkpt>
      <trkpt lat="47.09171" lon="6.13409">
        <ele>375.4</ele>
        <time>2022-10-02T08:25:20Z</time>
      </trkpt>
      <trkpt lat="47.09175" lon="6.13411">
        <ele>375.6</ele>
        <time>2022-10-02T08:25:21Z</time>
      </trkpt>
      <trkpt lat="47.09196" lon="6.13426">
        <ele>376.4</ele>
        <time>2022-10-02T08:25:26Z</time>
      </trkpt>
      <trkpt lat="47.09204" lon="6.13434">
        <ele>376.4</ele>
        <time>2022-10-02T08:25:28Z</time>
      </trkpt>
      <trkpt lat="47.09213" lon="6.13442">
        <ele>376.2</ele>
        <time>2022-10-02T08:25:30Z</time>
      </trkpt>
      <trkpt lat="47.09229" lon="6.13454">
        <ele>375.6</ele>
        <time>2022-10-02T08:25:33Z</time>
      </trkpt>
      <trkpt lat="47.09242" lon="6.1346">
        <ele>375.2</ele>
        <time>2022-10-02T08:25:35Z</time>
      </trkpt>
      <trkpt lat="47.0927" lon="6.13473">
        <ele>374.8</ele>
        <time>2022-10-02T08:25:40Z</time>
      </trkpt>
      <trkpt lat="47.09311" lon="6.13487">
        <ele>375.6</ele>
        <time>2022-10-02T08:25:48Z</time>
      </trkpt>
      <trkpt lat="47.09345" lon="6.13497">
        <ele>376.2</ele>
        <time>2022-10-02T08:25:55Z</time>
      </trkpt>
      <trkpt lat="47.09349" lon="6.13498">
        <ele>376.4</ele>
        <time>2022-10-02T08:25:56Z</time>
      </trkpt>
      <trkpt lat="47.09365" lon="6.13503">
        <ele>376.4</ele>
        <time>2022-10-02T08:25:59Z</time>
      </trkpt>
      <trkpt lat="47.09372" lon="6.13502">
        <ele>376.2</ele>
        <time>2022-10-02T08:26:00Z</time>
      </trkpt>
      <trkpt lat="47.09395" lon="6.13501">
        <ele>375.2</ele>
        <time>2022-10-02T08:26:03Z</time>
      </trkpt>
      <trkpt lat="47.09411" lon="6.135">
        <ele>374.8</ele>
        <time>2022-10-02T08:26:05Z</time>
      </trkpt>
      <trkpt lat="47.09435" lon="6.135">
        <ele>374.2</ele>
        <time>2022-10-02T08:26:08Z</time>
      </trkpt>
      <trkpt lat="47.09469" lon="6.13505">
        <ele>373.4</ele>
        <time>2022-10-02T08:26:12Z</time>
      </trkpt>
      <trkpt lat="47.09477" lon="6.13508">
        <ele>373.2</ele>
        <time>2022-10-02T08:26:13Z</time>
      </trkpt>
      <trkpt lat="47.09485" lon="6.1351">
        <ele>373</ele>
        <time>2022-10-02T08:26:14Z</time>
      </trkpt>
      <trkpt lat="47.09501" lon="6.13511">
        <ele>372.8</ele>
        <time>2022-10-02T08:26:16Z</time>
      </trkpt>
      <trkpt lat="47.0951" lon="6.13509">
        <ele>372.6</ele>
        <time>2022-10-02T08:26:17Z</time>
      </trkpt>
      <trkpt lat="47.09536" lon="6.1351">
        <ele>371.8</ele>
        <time>2022-10-02T08:26:20Z</time>
      </trkpt>
      <trkpt lat="47.09591" lon="6.13521">
        <ele>370.6</ele>
        <time>2022-10-02T08:26:26Z</time>
      </trkpt>
      <trkpt lat="47.096" lon="6.13526">
        <ele>370</ele>
        <time>2022-10-02T08:26:27Z</time>
      </trkpt>
      <trkpt lat="47.09609" lon="6.1353">
        <ele>369.4</ele>
        <time>2022-10-02T08:26:28Z</time>
      </trkpt>
      <trkpt lat="47.09618" lon="6.13534">
        <ele>369</ele>
        <time>2022-10-02T08:26:29Z</time>
      </trkpt>
      <trkpt lat="47.09634" lon="6.13539">
        <ele>368.2</ele>
        <time>2022-10-02T08:26:31Z</time>
      </trkpt>
      <trkpt lat="47.09648" lon="6.13541">
        <ele>367.8</ele>
        <time>2022-10-02T08:26:33Z</time>
      </trkpt>
      <trkpt lat="47.09676" lon="6.13538">
        <ele>367.4</ele>
        <time>2022-10-02T08:26:38Z</time>
      </trkpt>
      <trkpt lat="47.09687" lon="6.13538">
        <ele>367.2</ele>
        <time>2022-10-02T08:26:40Z</time>
      </trkpt>
      <trkpt lat="47.09712" lon="6.13541">
        <ele>365.8</ele>
        <time>2022-10-02T08:26:44Z</time>
      </trkpt>
      <trkpt lat="47.09732" lon="6.13544">
        <ele>364.6</ele>
        <time>2022-10-02T08:26:47Z</time>
      </trkpt>
      <trkpt lat="47.09754" lon="6.13548">
        <ele>363.4</ele>
        <time>2022-10-02T08:26:50Z</time>
      </trkpt>
      <trkpt lat="47.09769" lon="6.1355">
        <ele>362.2</ele>
        <time>2022-10-02T08:26:52Z</time>
      </trkpt>
      <trkpt lat="47.098" lon="6.13552">
        <ele>361</ele>
        <time>2022-10-02T08:26:56Z</time>
      </trkpt>
      <trkpt lat="47.09822" lon="6.13554">
        <ele>360.2</ele>
        <time>2022-10-02T08:26:59Z</time>
      </trkpt>
      <trkpt lat="47.09829" lon="6.13555">
        <ele>360</ele>
        <time>2022-10-02T08:27:00Z</time>
      </trkpt>
      <trkpt lat="47.09862" lon="6.13563">
        <ele>359.2</ele>
        <time>2022-10-02T08:27:05Z</time>
      </trkpt>
      <trkpt lat="47.0987" lon="6.13564">
        <ele>358.8</ele>
        <time>2022-10-02T08:27:06Z</time>
      </trkpt>
      <trkpt lat="47.09892" lon="6.13566">
        <ele>357.2</ele>
        <time>2022-10-02T08:27:09Z</time>
      </trkpt>
      <trkpt lat="47.09904" lon="6.13566">
        <ele>356.6</ele>
        <time>2022-10-02T08:27:11Z</time>
      </trkpt>
      <trkpt lat="47.09913" lon="6.13559">
        <ele>356.2</ele>
        <time>2022-10-02T08:27:14Z</time>
      </trkpt>
      <trkpt lat="47.0991" lon="6.13551">
        <ele>356.4</ele>
        <time>2022-10-02T08:27:17Z</time>
      </trkpt>
      <trkpt lat="47.099" lon="6.13532">
        <ele>357</ele>
        <time>2022-10-02T08:27:21Z</time>
      </trkpt>
      <trkpt lat="47.09886" lon="6.13507">
        <ele>358</ele>
        <time>2022-10-02T08:27:27Z</time>
      </trkpt>
      <trkpt lat="47.09884" lon="6.13503">
        <ele>358.4</ele>
        <time>2022-10-02T08:27:28Z</time>
      </trkpt>
      <trkpt lat="47.09877" lon="6.13492">
        <ele>359.4</ele>
        <time>2022-10-02T08:27:31Z</time>
      </trkpt>
      <trkpt lat="47.09875" lon="6.13488">
        <ele>359.8</ele>
        <time>2022-10-02T08:27:32Z</time>
      </trkpt>
      <trkpt lat="47.09866" lon="6.13477">
        <ele>360.6</ele>
        <time>2022-10-02T08:27:35Z</time>
      </trkpt>
      <trkpt lat="47.09855" lon="6.1347">
        <ele>361.4</ele>
        <time>2022-10-02T08:27:38Z</time>
      </trkpt>
      <trkpt lat="47.09848" lon="6.13466">
        <ele>361.6</ele>
        <time>2022-10-02T08:27:40Z</time>
      </trkpt>
      <trkpt lat="47.09827" lon="6.13457">
        <ele>362.6</ele>
        <time>2022-10-02T08:27:46Z</time>
      </trkpt>
      <trkpt lat="47.09823" lon="6.13456">
        <ele>362.8</ele>
        <time>2022-10-02T08:27:47Z</time>
      </trkpt>
      <trkpt lat="47.09809" lon="6.13448">
        <ele>363.8</ele>
        <time>2022-10-02T08:27:51Z</time>
      </trkpt>
      <trkpt lat="47.09799" lon="6.13443">
        <ele>364.2</ele>
        <time>2022-10-02T08:27:54Z</time>
      </trkpt>
      <trkpt lat="47.09774" lon="6.13429">
        <ele>364.8</ele>
        <time>2022-10-02T08:28:01Z</time>
      </trkpt>
      <trkpt lat="47.09771" lon="6.13428">
        <ele>365</ele>
        <time>2022-10-02T08:28:02Z</time>
      </trkpt>
      <trkpt lat="47.09749" lon="6.13418">
        <ele>365</ele>
        <time>2022-10-02T08:28:08Z</time>
      </trkpt>
      <trkpt lat="47.09736" lon="6.13407">
        <ele>365.6</ele>
        <time>2022-10-02T08:28:13Z</time>
      </trkpt>
      <trkpt lat="47.09735" lon="6.13403">
        <ele>365.6</ele>
        <time>2022-10-02T08:28:14Z</time>
      </trkpt>
      <trkpt lat="47.0974" lon="6.13387">
        <ele>365.8</ele>
        <time>2022-10-02T08:28:18Z</time>
      </trkpt>
      <trkpt lat="47.09744" lon="6.13379">
        <ele>365.6</ele>
        <time>2022-10-02T08:28:20Z</time>
      </trkpt>
      <trkpt lat="47.09755" lon="6.13358">
        <ele>365.6</ele>
        <time>2022-10-02T08:28:24Z</time>
      </trkpt>
      <trkpt lat="47.09773" lon="6.13329">
        <ele>365.4</ele>
        <time>2022-10-02T08:28:30Z</time>
      </trkpt>
      <trkpt lat="47.09775" lon="6.13324">
        <ele>365.4</ele>
        <time>2022-10-02T08:28:31Z</time>
      </trkpt>
      <trkpt lat="47.09798" lon="6.13275">
        <ele>364.4</ele>
        <time>2022-10-02T08:28:40Z</time>
      </trkpt>
      <trkpt lat="47.0981" lon="6.13254">
        <ele>363.8</ele>
        <time>2022-10-02T08:28:44Z</time>
      </trkpt>
      <trkpt lat="47.09812" lon="6.1325">
        <ele>364</ele>
        <time>2022-10-02T08:28:45Z</time>
      </trkpt>
      <trkpt lat="47.09824" lon="6.13226">
        <ele>364.8</ele>
        <time>2022-10-02T08:28:51Z</time>
      </trkpt>
      <trkpt lat="47.0983" lon="6.13216">
        <ele>366</ele>
        <time>2022-10-02T08:28:54Z</time>
      </trkpt>
      <trkpt lat="47.09839" lon="6.132">
        <ele>367</ele>
        <time>2022-10-02T08:28:58Z</time>
      </trkpt>
      <trkpt lat="47.09844" lon="6.1319">
        <ele>366.8</ele>
        <time>2022-10-02T08:29:00Z</time>
      </trkpt>
      <trkpt lat="47.09853" lon="6.13171">
        <ele>366.2</ele>
        <time>2022-10-02T08:29:04Z</time>
      </trkpt>
      <trkpt lat="47.09868" lon="6.13139">
        <ele>366</ele>
        <time>2022-10-02T08:29:10Z</time>
      </trkpt>
      <trkpt lat="47.0988" lon="6.13104">
        <ele>365.4</ele>
        <time>2022-10-02T08:29:17Z</time>
      </trkpt>
      <trkpt lat="47.09878" lon="6.13096">
        <ele>365.6</ele>
        <time>2022-10-02T08:29:19Z</time>
      </trkpt>
      <trkpt lat="47.09876" lon="6.13093">
        <ele>365.6</ele>
        <time>2022-10-02T08:29:20Z</time>
      </trkpt>
      <trkpt lat="47.09866" lon="6.13087">
        <ele>365.2</ele>
        <time>2022-10-02T08:29:23Z</time>
      </trkpt>
      <trkpt lat="47.09859" lon="6.13083">
        <ele>364.8</ele>
        <time>2022-10-02T08:29:25Z</time>
      </trkpt>
      <trkpt lat="47.09832" lon="6.13067">
        <ele>364.8</ele>
        <time>2022-10-02T08:29:33Z</time>
      </trkpt>
      <trkpt lat="47.09827" lon="6.13062">
        <ele>365.2</ele>
        <time>2022-10-02T08:29:37Z</time>
      </trkpt>
      <trkpt lat="47.09823" lon="6.13065">
        <ele>366.2</ele>
        <time>2022-10-02T08:29:46Z</time>
      </trkpt>
      <trkpt lat="47.09822" lon="6.13066">
        <ele>366.4</ele>
        <time>2022-10-02T08:29:47Z</time>
      </trkpt>
      <trkpt lat="47.09821" lon="6.1307">
        <ele>367</ele>
        <time>2022-10-02T08:29:49Z</time>
      </trkpt>
      <trkpt lat="47.09818" lon="6.13074">
        <ele>367.8</ele>
        <time>2022-10-02T08:29:51Z</time>
      </trkpt>
      <trkpt lat="47.09816" lon="6.13076">
        <ele>368.4</ele>
        <time>2022-10-02T08:29:52Z</time>
      </trkpt>
      <trkpt lat="47.0981" lon="6.13087">
        <ele>369.6</ele>
        <time>2022-10-02T08:29:56Z</time>
      </trkpt>
      <trkpt lat="47.09807" lon="6.13094">
        <ele>370</ele>
        <time>2022-10-02T08:29:58Z</time>
      </trkpt>
      <trkpt lat="47.09806" lon="6.13102">
        <ele>370.6</ele>
        <time>2022-10-02T08:30:00Z</time>
      </trkpt>
      <trkpt lat="47.09802" lon="6.13116">
        <ele>371.8</ele>
        <time>2022-10-02T08:30:04Z</time>
      </trkpt>
      <trkpt lat="47.09798" lon="6.13127">
        <ele>372.8</ele>
        <time>2022-10-02T08:30:08Z</time>
      </trkpt>
      <trkpt lat="47.09795" lon="6.13135">
        <ele>374</ele>
        <time>2022-10-02T08:30:11Z</time>
      </trkpt>
      <trkpt lat="47.09795" lon="6.13138">
        <ele>374.4</ele>
        <time>2022-10-02T08:30:12Z</time>
      </trkpt>
      <trkpt lat="47.09792" lon="6.13143">
        <ele>375</ele>
        <time>2022-10-02T08:30:14Z</time>
      </trkpt>
      <trkpt lat="47.09785" lon="6.13155">
        <ele>375.8</ele>
        <time>2022-10-02T08:30:19Z</time>
      </trkpt>
      <trkpt lat="47.09783" lon="6.1316">
        <ele>376.2</ele>
        <time>2022-10-02T08:30:21Z</time>
      </trkpt>
      <trkpt lat="47.09779" lon="6.13167">
        <ele>377.2</ele>
        <time>2022-10-02T08:30:24Z</time>
      </trkpt>
      <trkpt lat="47.09775" lon="6.13171">
        <ele>377.8</ele>
        <time>2022-10-02T08:30:26Z</time>
      </trkpt>
      <trkpt lat="47.09771" lon="6.13173">
        <ele>378.2</ele>
        <time>2022-10-02T08:30:28Z</time>
      </trkpt>
      <trkpt lat="47.09766" lon="6.13174">
        <ele>379.4</ele>
        <time>2022-10-02T08:30:31Z</time>
      </trkpt>
      <trkpt lat="47.09764" lon="6.13173">
        <ele>379.8</ele>
        <time>2022-10-02T08:30:32Z</time>
      </trkpt>
      <trkpt lat="47.09759" lon="6.13167">
        <ele>380.6</ele>
        <time>2022-10-02T08:30:35Z</time>
      </trkpt>
      <trkpt lat="47.09758" lon="6.13163">
        <ele>380.8</ele>
        <time>2022-10-02T08:30:36Z</time>
      </trkpt>
      <trkpt lat="47.09757" lon="6.13158">
        <ele>381.2</ele>
        <time>2022-10-02T08:30:38Z</time>
      </trkpt>
      <trkpt lat="47.09756" lon="6.13148">
        <ele>381</ele>
        <time>2022-10-02T08:30:41Z</time>
      </trkpt>
      <trkpt lat="47.09755" lon="6.13138">
        <ele>381.8</ele>
        <time>2022-10-02T08:30:44Z</time>
      </trkpt>
      <trkpt lat="47.09754" lon="6.13128">
        <ele>383</ele>
        <time>2022-10-02T08:30:47Z</time>
      </trkpt>
      <trkpt lat="47.09754" lon="6.13125">
        <ele>383</ele>
        <time>2022-10-02T08:30:48Z</time>
      </trkpt>
      <trkpt lat="47.09752" lon="6.13103">
        <ele>384</ele>
        <time>2022-10-02T08:30:55Z</time>
      </trkpt>
      <trkpt lat="47.0975" lon="6.13081">
        <ele>384.4</ele>
        <time>2022-10-02T08:31:01Z</time>
      </trkpt>
      <trkpt lat="47.09747" lon="6.13061">
        <ele>384.4</ele>
        <time>2022-10-02T08:31:07Z</time>
      </trkpt>
      <trkpt lat="47.0974" lon="6.13039">
        <ele>384.4</ele>
        <time>2022-10-02T08:31:13Z</time>
      </trkpt>
      <trkpt lat="47.09735" lon="6.13022">
        <ele>385</ele>
        <time>2022-10-02T08:31:18Z</time>
      </trkpt>
      <trkpt lat="47.09735" lon="6.13019">
        <ele>384.8</ele>
        <time>2022-10-02T08:31:19Z</time>
      </trkpt>
      <trkpt lat="47.09731" lon="6.12999">
        <ele>384.4</ele>
        <time>2022-10-02T08:31:26Z</time>
      </trkpt>
      <trkpt lat="47.09727" lon="6.12978">
        <ele>384.2</ele>
        <time>2022-10-02T08:31:33Z</time>
      </trkpt>
      <trkpt lat="47.09722" lon="6.12955">
        <ele>386</ele>
        <time>2022-10-02T08:31:40Z</time>
      </trkpt>
      <trkpt lat="47.09721" lon="6.12952">
        <ele>386.2</ele>
        <time>2022-10-02T08:31:41Z</time>
      </trkpt>
      <trkpt lat="47.09715" lon="6.12938">
        <ele>387.2</ele>
        <time>2022-10-02T08:31:46Z</time>
      </trkpt>
      <trkpt lat="47.09715" lon="6.12936">
        <ele>387.6</ele>
        <time>2022-10-02T08:31:47Z</time>
      </trkpt>
      <trkpt lat="47.09712" lon="6.12928">
        <ele>388.8</ele>
        <time>2022-10-02T08:31:50Z</time>
      </trkpt>
      <trkpt lat="47.09708" lon="6.12913">
        <ele>390</ele>
        <time>2022-10-02T08:31:55Z</time>
      </trkpt>
      <trkpt lat="47.09705" lon="6.12904">
        <ele>391.4</ele>
        <time>2022-10-02T08:31:58Z</time>
      </trkpt>
      <trkpt lat="47.09701" lon="6.12895">
        <ele>392.6</ele>
        <time>2022-10-02T08:32:01Z</time>
      </trkpt>
      <trkpt lat="47.097" lon="6.12893">
        <ele>393</ele>
        <time>2022-10-02T08:32:02Z</time>
      </trkpt>
      <trkpt lat="47.09693" lon="6.12874">
        <ele>393.8</ele>
        <time>2022-10-02T08:32:09Z</time>
      </trkpt>
      <trkpt lat="47.09692" lon="6.12872">
        <ele>393.8</ele>
        <time>2022-10-02T08:32:10Z</time>
      </trkpt>
      <trkpt lat="47.09689" lon="6.12859">
        <ele>394.8</ele>
        <time>2022-10-02T08:32:15Z</time>
      </trkpt>
      <trkpt lat="47.09687" lon="6.12851">
        <ele>394.6</ele>
        <time>2022-10-02T08:32:18Z</time>
      </trkpt>
      <trkpt lat="47.09677" lon="6.12833">
        <ele>394.8</ele>
        <time>2022-10-02T08:32:26Z</time>
      </trkpt>
      <trkpt lat="47.0967" lon="6.12815">
        <ele>394.6</ele>
        <time>2022-10-02T08:32:33Z</time>
      </trkpt>
      <trkpt lat="47.09666" lon="6.12805">
        <ele>395.8</ele>
        <time>2022-10-02T08:32:39Z</time>
      </trkpt>
      <trkpt lat="47.09665" lon="6.12803">
        <ele>395.8</ele>
        <time>2022-10-02T08:32:40Z</time>
      </trkpt>
      <trkpt lat="47.09661" lon="6.12802">
        <ele>397</ele>
        <time>2022-10-02T08:32:43Z</time>
      </trkpt>
      <trkpt lat="47.09659" lon="6.12802">
        <ele>398</ele>
        <time>2022-10-02T08:32:45Z</time>
      </trkpt>
      <trkpt lat="47.09671" lon="6.12837">
        <ele>426.8</ele>
        <time>2022-10-02T09:29:57Z</time>
      </trkpt>
      <trkpt lat="47.0967" lon="6.12842">
        <ele>427</ele>
        <time>2022-10-02T09:29:59Z</time>
      </trkpt>
      <trkpt lat="47.09668" lon="6.12868">
        <ele>427.8</ele>
        <time>2022-10-02T09:30:07Z</time>
      </trkpt>
      <trkpt lat="47.09668" lon="6.12891">
        <ele>428.2</ele>
        <time>2022-10-02T09:30:14Z</time>
      </trkpt>
      <trkpt lat="47.09668" lon="6.12899">
        <ele>428.8</ele>
        <time>2022-10-02T09:30:17Z</time>
      </trkpt>
      <trkpt lat="47.09668" lon="6.1291">
        <ele>429.2</ele>
        <time>2022-10-02T09:30:20Z</time>
      </trkpt>
      <trkpt lat="47.09671" lon="6.1293">
        <ele>430</ele>
        <time>2022-10-02T09:30:25Z</time>
      </trkpt>
      <trkpt lat="47.09673" lon="6.12941">
        <ele>430.6</ele>
        <time>2022-10-02T09:30:28Z</time>
      </trkpt>
      <trkpt lat="47.09673" lon="6.12949">
        <ele>431.2</ele>
        <time>2022-10-02T09:30:30Z</time>
      </trkpt>
      <trkpt lat="47.09675" lon="6.12974">
        <ele>432</ele>
        <time>2022-10-02T09:30:36Z</time>
      </trkpt>
      <trkpt lat="47.09675" lon="6.12983">
        <ele>432.4</ele>
        <time>2022-10-02T09:30:38Z</time>
      </trkpt>
      <trkpt lat="47.09673" lon="6.13008">
        <ele>432</ele>
        <time>2022-10-02T09:30:44Z</time>
      </trkpt>
      <trkpt lat="47.0967" lon="6.13029">
        <ele>432.8</ele>
        <time>2022-10-02T09:30:50Z</time>
      </trkpt>
      <trkpt lat="47.09666" lon="6.13046">
        <ele>433.4</ele>
        <time>2022-10-02T09:30:55Z</time>
      </trkpt>
      <trkpt lat="47.09664" lon="6.13049">
        <ele>433.8</ele>
        <time>2022-10-02T09:30:56Z</time>
      </trkpt>
      <trkpt lat="47.09658" lon="6.13072">
        <ele>433</ele>
        <time>2022-10-02T09:31:04Z</time>
      </trkpt>
      <trkpt lat="47.09653" lon="6.13069">
        <ele>433.2</ele>
        <time>2022-10-02T09:31:09Z</time>
      </trkpt>
      <trkpt lat="47.09653" lon="6.13067">
        <ele>433.6</ele>
        <time>2022-10-02T09:31:10Z</time>
      </trkpt>
      <trkpt lat="47.09652" lon="6.13063">
        <ele>434.4</ele>
        <time>2022-10-02T09:31:12Z</time>
      </trkpt>
      <trkpt lat="47.09651" lon="6.13052">
        <ele>434.8</ele>
        <time>2022-10-02T09:31:18Z</time>
      </trkpt>
      <trkpt lat="47.0965" lon="6.1303">
        <ele>434.4</ele>
        <time>2022-10-02T09:31:28Z</time>
      </trkpt>
      <trkpt lat="47.09649" lon="6.13015">
        <ele>433.4</ele>
        <time>2022-10-02T09:31:35Z</time>
      </trkpt>
      <trkpt lat="47.09648" lon="6.12999">
        <ele>432.2</ele>
        <time>2022-10-02T09:31:42Z</time>
      </trkpt>
      <trkpt lat="47.09644" lon="6.12982">
        <ele>432</ele>
        <time>2022-10-02T09:31:48Z</time>
      </trkpt>
      <trkpt lat="47.09637" lon="6.12967">
        <ele>432.8</ele>
        <time>2022-10-02T09:31:55Z</time>
      </trkpt>
      <trkpt lat="47.09633" lon="6.12953">
        <ele>432.8</ele>
        <time>2022-10-02T09:32:02Z</time>
      </trkpt>
      <trkpt lat="47.09631" lon="6.12947">
        <ele>433.2</ele>
        <time>2022-10-02T09:32:05Z</time>
      </trkpt>
      <trkpt lat="47.09628" lon="6.12941">
        <ele>433.6</ele>
        <time>2022-10-02T09:32:08Z</time>
      </trkpt>
      <trkpt lat="47.09622" lon="6.12927">
        <ele>434.2</ele>
        <time>2022-10-02T09:32:14Z</time>
      </trkpt>
      <trkpt lat="47.09616" lon="6.12911">
        <ele>435.4</ele>
        <time>2022-10-02T09:32:22Z</time>
      </trkpt>
      <trkpt lat="47.09614" lon="6.12905">
        <ele>436.6</ele>
        <time>2022-10-02T09:32:25Z</time>
      </trkpt>
      <trkpt lat="47.0961" lon="6.12893">
        <ele>438.2</ele>
        <time>2022-10-02T09:32:31Z</time>
      </trkpt>
      <trkpt lat="47.09609" lon="6.1289">
        <ele>438.4</ele>
        <time>2022-10-02T09:32:32Z</time>
      </trkpt>
      <trkpt lat="47.09607" lon="6.1288">
        <ele>439.6</ele>
        <time>2022-10-02T09:32:37Z</time>
      </trkpt>
      <trkpt lat="47.09605" lon="6.12875">
        <ele>440.6</ele>
        <time>2022-10-02T09:32:39Z</time>
      </trkpt>
      <trkpt lat="47.09603" lon="6.1287">
        <ele>441.6</ele>
        <time>2022-10-02T09:32:41Z</time>
      </trkpt>
      <trkpt lat="47.096" lon="6.12859">
        <ele>442.8</ele>
        <time>2022-10-02T09:32:46Z</time>
      </trkpt>
      <trkpt lat="47.09587" lon="6.12818">
        <ele>453.2</ele>
        <time>2022-10-02T09:33:26Z</time>
      </trkpt>
      <trkpt lat="47.09585" lon="6.12808">
        <ele>453.8</ele>
        <time>2022-10-02T09:33:30Z</time>
      </trkpt>
      <trkpt lat="47.09583" lon="6.12798">
        <ele>454.2</ele>
        <time>2022-10-02T09:33:34Z</time>
      </trkpt>
      <trkpt lat="47.09579" lon="6.12791">
        <ele>454.8</ele>
        <time>2022-10-02T09:33:37Z</time>
      </trkpt>
      <trkpt lat="47.09574" lon="6.12783">
        <ele>455.4</ele>
        <time>2022-10-02T09:33:41Z</time>
      </trkpt>
      <trkpt lat="47.0957" lon="6.12777">
        <ele>456</ele>
        <time>2022-10-02T09:33:44Z</time>
      </trkpt>
      <trkpt lat="47.09563" lon="6.12761">
        <ele>456</ele>
        <time>2022-10-02T09:33:51Z</time>
      </trkpt>
      <trkpt lat="47.09556" lon="6.12743">
        <ele>455.8</ele>
        <time>2022-10-02T09:33:58Z</time>
      </trkpt>
      <trkpt lat="47.0955" lon="6.12724">
        <ele>457.2</ele>
        <time>2022-10-02T09:34:06Z</time>
      </trkpt>
      <trkpt lat="47.09545" lon="6.12715">
        <ele>457.8</ele>
        <time>2022-10-02T09:34:10Z</time>
      </trkpt>
      <trkpt lat="47.09541" lon="6.12709">
        <ele>458.4</ele>
        <time>2022-10-02T09:34:14Z</time>
      </trkpt>
      <trkpt lat="47.09537" lon="6.12703">
        <ele>459.8</ele>
        <time>2022-10-02T09:34:17Z</time>
      </trkpt>
      <trkpt lat="47.09535" lon="6.12698">
        <ele>460.8</ele>
        <time>2022-10-02T09:34:19Z</time>
      </trkpt>
      <trkpt lat="47.0953" lon="6.1269">
        <ele>461.8</ele>
        <time>2022-10-02T09:34:23Z</time>
      </trkpt>
      <trkpt lat="47.09527" lon="6.12685">
        <ele>462.6</ele>
        <time>2022-10-02T09:34:25Z</time>
      </trkpt>
      <trkpt lat="47.09526" lon="6.12683">
        <ele>463</ele>
        <time>2022-10-02T09:34:26Z</time>
      </trkpt>
      <trkpt lat="47.09523" lon="6.12676">
        <ele>464.2</ele>
        <time>2022-10-02T09:34:30Z</time>
      </trkpt>
      <trkpt lat="47.09521" lon="6.12671">
        <ele>464</ele>
        <time>2022-10-02T09:34:32Z</time>
      </trkpt>
      <trkpt lat="47.09517" lon="6.12661">
        <ele>465.4</ele>
        <time>2022-10-02T09:34:37Z</time>
      </trkpt>
      <trkpt lat="47.09514" lon="6.12656">
        <ele>466.4</ele>
        <time>2022-10-02T09:34:40Z</time>
      </trkpt>
      <trkpt lat="47.09514" lon="6.12655">
        <ele>466.6</ele>
        <time>2022-10-02T09:34:41Z</time>
      </trkpt>
      <trkpt lat="47.09512" lon="6.12651">
        <ele>467.8</ele>
        <time>2022-10-02T09:34:43Z</time>
      </trkpt>
      <trkpt lat="47.09508" lon="6.12638">
        <ele>472.6</ele>
        <time>2022-10-02T09:34:51Z</time>
      </trkpt>
      <trkpt lat="47.09507" lon="6.12637">
        <ele>472.8</ele>
        <time>2022-10-02T09:34:52Z</time>
      </trkpt>
      <trkpt lat="47.09506" lon="6.12634">
        <ele>473.8</ele>
        <time>2022-10-02T09:34:54Z</time>
      </trkpt>
      <trkpt lat="47.09495" lon="6.12615">
        <ele>476.2</ele>
        <time>2022-10-02T09:35:06Z</time>
      </trkpt>
      <trkpt lat="47.09486" lon="6.12598">
        <ele>476.2</ele>
        <time>2022-10-02T09:35:14Z</time>
      </trkpt>
      <trkpt lat="47.0948" lon="6.12579">
        <ele>478.4</ele>
        <time>2022-10-02T09:35:24Z</time>
      </trkpt>
      <trkpt lat="47.09489" lon="6.12366">
        <ele>498.4</ele>
        <time>2022-10-02T09:37:21Z</time>
      </trkpt>
      <trkpt lat="47.09488" lon="6.12355">
        <ele>498.2</ele>
        <time>2022-10-02T09:37:26Z</time>
      </trkpt>
      <trkpt lat="47.09485" lon="6.12338">
        <ele>499.6</ele>
        <time>2022-10-02T09:37:34Z</time>
      </trkpt>
      <trkpt lat="47.09484" lon="6.12334">
        <ele>500</ele>
        <time>2022-10-02T09:37:36Z</time>
      </trkpt>
      <trkpt lat="47.09482" lon="6.12321">
        <ele>500.8</ele>
        <time>2022-10-02T09:37:41Z</time>
      </trkpt>
      <trkpt lat="47.09482" lon="6.12319">
        <ele>501</ele>
        <time>2022-10-02T09:37:42Z</time>
      </trkpt>
      <trkpt lat="47.09482" lon="6.12313">
        <ele>501.8</ele>
        <time>2022-10-02T09:37:45Z</time>
      </trkpt>
      <trkpt lat="47.09481" lon="6.12302">
        <ele>502.4</ele>
        <time>2022-10-02T09:37:49Z</time>
      </trkpt>
      <trkpt lat="47.09468" lon="6.12255">
        <ele>506.2</ele>
        <time>2022-10-02T09:38:10Z</time>
      </trkpt>
      <trkpt lat="47.09467" lon="6.12253">
        <ele>506.2</ele>
        <time>2022-10-02T09:38:11Z</time>
      </trkpt>
      <trkpt lat="47.09459" lon="6.12238">
        <ele>506</ele>
        <time>2022-10-02T09:38:18Z</time>
      </trkpt>
      <trkpt lat="47.0945" lon="6.12231">
        <ele>506.8</ele>
        <time>2022-10-02T09:38:24Z</time>
      </trkpt>
      <trkpt lat="47.09448" lon="6.1223">
        <ele>507.8</ele>
        <time>2022-10-02T09:38:26Z</time>
      </trkpt>
      <trkpt lat="47.09441" lon="6.12227">
        <ele>508.8</ele>
        <time>2022-10-02T09:38:30Z</time>
      </trkpt>
      <trkpt lat="47.09438" lon="6.12226">
        <ele>509.2</ele>
        <time>2022-10-02T09:38:32Z</time>
      </trkpt>
      <trkpt lat="47.0941" lon="6.12217">
        <ele>512.4</ele>
        <time>2022-10-02T09:38:49Z</time>
      </trkpt>
      <trkpt lat="47.09404" lon="6.12216">
        <ele>512.8</ele>
        <time>2022-10-02T09:38:52Z</time>
      </trkpt>
      <trkpt lat="47.09394" lon="6.12216">
        <ele>513.6</ele>
        <time>2022-10-02T09:38:58Z</time>
      </trkpt>
      <trkpt lat="47.09391" lon="6.12215">
        <ele>514.2</ele>
        <time>2022-10-02T09:39:00Z</time>
      </trkpt>
      <trkpt lat="47.09386" lon="6.12214">
        <ele>514.6</ele>
        <time>2022-10-02T09:39:03Z</time>
      </trkpt>
      <trkpt lat="47.09381" lon="6.12216">
        <ele>516</ele>
        <time>2022-10-02T09:39:06Z</time>
      </trkpt>
      <trkpt lat="47.09378" lon="6.12217">
        <ele>517.2</ele>
        <time>2022-10-02T09:39:08Z</time>
      </trkpt>
      <trkpt lat="47.09376" lon="6.12217">
        <ele>518.2</ele>
        <time>2022-10-02T09:39:10Z</time>
      </trkpt>
      <trkpt lat="47.09371" lon="6.12218">
        <ele>519.4</ele>
        <time>2022-10-02T09:39:13Z</time>
      </trkpt>
      <trkpt lat="47.09365" lon="6.1222">
        <ele>520.2</ele>
        <time>2022-10-02T09:39:16Z</time>
      </trkpt>
      <trkpt lat="47.09363" lon="6.12221">
        <ele>520.6</ele>
        <time>2022-10-02T09:39:17Z</time>
      </trkpt>
      <trkpt lat="47.09358" lon="6.12222">
        <ele>521.8</ele>
        <time>2022-10-02T09:39:20Z</time>
      </trkpt>
      <trkpt lat="47.09355" lon="6.12223">
        <ele>522.2</ele>
        <time>2022-10-02T09:39:22Z</time>
      </trkpt>
      <trkpt lat="47.0935" lon="6.12225">
        <ele>523</ele>
        <time>2022-10-02T09:39:25Z</time>
      </trkpt>
      <trkpt lat="47.09347" lon="6.12226">
        <ele>524.2</ele>
        <time>2022-10-02T09:39:27Z</time>
      </trkpt>
      <trkpt lat="47.09343" lon="6.12227">
        <ele>525.2</ele>
        <time>2022-10-02T09:39:29Z</time>
      </trkpt>
      <trkpt lat="47.09337" lon="6.1223">
        <ele>526.2</ele>
        <time>2022-10-02T09:39:33Z</time>
      </trkpt>
      <trkpt lat="47.09334" lon="6.12231">
        <ele>526.8</ele>
        <time>2022-10-02T09:39:35Z</time>
      </trkpt>
      <trkpt lat="47.09332" lon="6.12233">
        <ele>527.4</ele>
        <time>2022-10-02T09:39:36Z</time>
      </trkpt>
      <trkpt lat="47.09324" lon="6.12236">
        <ele>528.6</ele>
        <time>2022-10-02T09:39:39Z</time>
      </trkpt>
      <trkpt lat="47.09319" lon="6.1224">
        <ele>529.2</ele>
        <time>2022-10-02T09:39:42Z</time>
      </trkpt>
      <trkpt lat="47.09308" lon="6.12252">
        <ele>530</ele>
        <time>2022-10-02T09:39:49Z</time>
      </trkpt>
      <trkpt lat="47.09306" lon="6.12254">
        <ele>530.2</ele>
        <time>2022-10-02T09:39:50Z</time>
      </trkpt>
      <trkpt lat="47.09292" lon="6.12272">
        <ele>530.2</ele>
        <time>2022-10-02T09:39:59Z</time>
      </trkpt>
      <trkpt lat="47.09276" lon="6.12283">
        <ele>530.8</ele>
        <time>2022-10-02T09:40:07Z</time>
      </trkpt>
      <trkpt lat="47.09271" lon="6.12284">
        <ele>531.2</ele>
        <time>2022-10-02T09:40:09Z</time>
      </trkpt>
      <trkpt lat="47.09264" lon="6.12286">
        <ele>532.4</ele>
        <time>2022-10-02T09:40:12Z</time>
      </trkpt>
      <trkpt lat="47.09259" lon="6.12289">
        <ele>533.6</ele>
        <time>2022-10-02T09:40:14Z</time>
      </trkpt>
      <trkpt lat="47.09251" lon="6.12291">
        <ele>534.8</ele>
        <time>2022-10-02T09:40:17Z</time>
      </trkpt>
      <trkpt lat="47.0924" lon="6.12292">
        <ele>536.2</ele>
        <time>2022-10-02T09:40:21Z</time>
      </trkpt>
      <trkpt lat="47.09237" lon="6.12293">
        <ele>536.8</ele>
        <time>2022-10-02T09:40:22Z</time>
      </trkpt>
      <trkpt lat="47.09231" lon="6.12294">
        <ele>537.6</ele>
        <time>2022-10-02T09:40:24Z</time>
      </trkpt>
      <trkpt lat="47.09218" lon="6.12297">
        <ele>538.8</ele>
        <time>2022-10-02T09:40:29Z</time>
      </trkpt>
      <trkpt lat="47.09213" lon="6.12298">
        <ele>539.4</ele>
        <time>2022-10-02T09:40:31Z</time>
      </trkpt>
      <trkpt lat="47.09208" lon="6.12299">
        <ele>540</ele>
        <time>2022-10-02T09:40:33Z</time>
      </trkpt>
      <trkpt lat="47.09199" lon="6.123">
        <ele>541</ele>
        <time>2022-10-02T09:40:37Z</time>
      </trkpt>
      <trkpt lat="47.09194" lon="6.12301">
        <ele>541.4</ele>
        <time>2022-10-02T09:40:39Z</time>
      </trkpt>
      <trkpt lat="47.09184" lon="6.12303">
        <ele>542.2</ele>
        <time>2022-10-02T09:40:43Z</time>
      </trkpt>
      <trkpt lat="47.09177" lon="6.12305">
        <ele>543.2</ele>
        <time>2022-10-02T09:40:46Z</time>
      </trkpt>
      <trkpt lat="47.09171" lon="6.12307">
        <ele>544</ele>
        <time>2022-10-02T09:40:49Z</time>
      </trkpt>
      <trkpt lat="47.09164" lon="6.12309">
        <ele>544.4</ele>
        <time>2022-10-02T09:40:52Z</time>
      </trkpt>
      <trkpt lat="47.09158" lon="6.1231">
        <ele>545.6</ele>
        <time>2022-10-02T09:40:55Z</time>
      </trkpt>
      <trkpt lat="47.09151" lon="6.12311">
        <ele>547.2</ele>
        <time>2022-10-02T09:40:58Z</time>
      </trkpt>
      <trkpt lat="47.09141" lon="6.12313">
        <ele>548.2</ele>
        <time>2022-10-02T09:41:02Z</time>
      </trkpt>
      <trkpt lat="47.09138" lon="6.12313">
        <ele>548.4</ele>
        <time>2022-10-02T09:41:03Z</time>
      </trkpt>
      <trkpt lat="47.09131" lon="6.12313">
        <ele>549.4</ele>
        <time>2022-10-02T09:41:06Z</time>
      </trkpt>
      <trkpt lat="47.09121" lon="6.12315">
        <ele>550.4</ele>
        <time>2022-10-02T09:41:11Z</time>
      </trkpt>
      <trkpt lat="47.09112" lon="6.12311">
        <ele>551.4</ele>
        <time>2022-10-02T09:41:16Z</time>
      </trkpt>
      <trkpt lat="47.0911" lon="6.12309">
        <ele>551.6</ele>
        <time>2022-10-02T09:41:17Z</time>
      </trkpt>
      <trkpt lat="47.09095" lon="6.12289">
        <ele>552</ele>
        <time>2022-10-02T09:41:23Z</time>
      </trkpt>
      <trkpt lat="47.09083" lon="6.12271">
        <ele>552</ele>
        <time>2022-10-02T09:41:29Z</time>
      </trkpt>
      <trkpt lat="47.09069" lon="6.12248">
        <ele>551.2</ele>
        <time>2022-10-02T09:41:36Z</time>
      </trkpt>
      <trkpt lat="47.09052" lon="6.12229">
        <ele>550.8</ele>
        <time>2022-10-02T09:41:41Z</time>
      </trkpt>
      <trkpt lat="47.0904" lon="6.12221">
        <ele>550.4</ele>
        <time>2022-10-02T09:41:44Z</time>
      </trkpt>
      <trkpt lat="47.09022" lon="6.12213">
        <ele>549.8</ele>
        <time>2022-10-02T09:41:48Z</time>
      </trkpt>
      <trkpt lat="47.08997" lon="6.12199">
        <ele>549.4</ele>
        <time>2022-10-02T09:41:54Z</time>
      </trkpt>
      <trkpt lat="47.08988" lon="6.12194">
        <ele>549.4</ele>
        <time>2022-10-02T09:41:56Z</time>
      </trkpt>
      <trkpt lat="47.08976" lon="6.12183">
        <ele>549.6</ele>
        <time>2022-10-02T09:41:59Z</time>
      </trkpt>
      <trkpt lat="47.08966" lon="6.12168">
        <ele>549.2</ele>
        <time>2022-10-02T09:42:02Z</time>
      </trkpt>
      <trkpt lat="47.08945" lon="6.12129">
        <ele>550</ele>
        <time>2022-10-02T09:42:10Z</time>
      </trkpt>
      <trkpt lat="47.08937" lon="6.12117">
        <ele>550.6</ele>
        <time>2022-10-02T09:42:13Z</time>
      </trkpt>
      <trkpt lat="47.08927" lon="6.12099">
        <ele>551.6</ele>
        <time>2022-10-02T09:42:17Z</time>
      </trkpt>
      <trkpt lat="47.08917" lon="6.12081">
        <ele>552.6</ele>
        <time>2022-10-02T09:42:21Z</time>
      </trkpt>
      <trkpt lat="47.08906" lon="6.12063">
        <ele>553.6</ele>
        <time>2022-10-02T09:42:25Z</time>
      </trkpt>
      <trkpt lat="47.08901" lon="6.12055">
        <ele>553.8</ele>
        <time>2022-10-02T09:42:27Z</time>
      </trkpt>
      <trkpt lat="47.0889" lon="6.12038">
        <ele>554.6</ele>
        <time>2022-10-02T09:42:31Z</time>
      </trkpt>
      <trkpt lat="47.08875" lon="6.12022">
        <ele>556</ele>
        <time>2022-10-02T09:42:36Z</time>
      </trkpt>
      <trkpt lat="47.08873" lon="6.1202">
        <ele>556.2</ele>
        <time>2022-10-02T09:42:37Z</time>
      </trkpt>
      <trkpt lat="47.08869" lon="6.12013">
        <ele>556.8</ele>
        <time>2022-10-02T09:43:51Z</time>
      </trkpt>
      <trkpt lat="47.08869" lon="6.12012">
        <ele>557.2</ele>
        <time>2022-10-02T09:43:52Z</time>
      </trkpt>
      <trkpt lat="47.08863" lon="6.12006">
        <ele>557.2</ele>
        <time>2022-10-02T09:43:55Z</time>
      </trkpt>
      <trkpt lat="47.0886" lon="6.12003">
        <ele>557.4</ele>
        <time>2022-10-02T09:43:56Z</time>
      </trkpt>
      <trkpt lat="47.08849" lon="6.11997">
        <ele>558.6</ele>
        <time>2022-10-02T09:43:59Z</time>
      </trkpt>
      <trkpt lat="47.08838" lon="6.11988">
        <ele>559.6</ele>
        <time>2022-10-02T09:44:02Z</time>
      </trkpt>
      <trkpt lat="47.08834" lon="6.11986">
        <ele>560</ele>
        <time>2022-10-02T09:44:03Z</time>
      </trkpt>
      <trkpt lat="47.08818" lon="6.11973">
        <ele>561.2</ele>
        <time>2022-10-02T09:44:07Z</time>
      </trkpt>
      <trkpt lat="47.08805" lon="6.11963">
        <ele>561.8</ele>
        <time>2022-10-02T09:44:10Z</time>
      </trkpt>
      <trkpt lat="47.08772" lon="6.11937">
        <ele>561.2</ele>
        <time>2022-10-02T09:44:18Z</time>
      </trkpt>
      <trkpt lat="47.08761" lon="6.11926">
        <ele>559.8</ele>
        <time>2022-10-02T09:44:21Z</time>
      </trkpt>
      <trkpt lat="47.08744" lon="6.11909">
        <ele>558.6</ele>
        <time>2022-10-02T09:44:25Z</time>
      </trkpt>
      <trkpt lat="47.0874" lon="6.11905">
        <ele>558.4</ele>
        <time>2022-10-02T09:44:26Z</time>
      </trkpt>
      <trkpt lat="47.08722" lon="6.11888">
        <ele>557.4</ele>
        <time>2022-10-02T09:44:30Z</time>
      </trkpt>
      <trkpt lat="47.087" lon="6.11869">
        <ele>557</ele>
        <time>2022-10-02T09:44:35Z</time>
      </trkpt>
      <trkpt lat="47.08683" lon="6.11856">
        <ele>556.4</ele>
        <time>2022-10-02T09:44:39Z</time>
      </trkpt>
      <trkpt lat="47.08665" lon="6.11845">
        <ele>556.2</ele>
        <time>2022-10-02T09:44:43Z</time>
      </trkpt>
      <trkpt lat="47.0863" lon="6.11819">
        <ele>555.6</ele>
        <time>2022-10-02T09:44:51Z</time>
      </trkpt>
      <trkpt lat="47.08598" lon="6.11788">
        <ele>555.6</ele>
        <time>2022-10-02T09:44:59Z</time>
      </trkpt>
      <trkpt lat="47.08561" lon="6.11751">
        <ele>556</ele>
        <time>2022-10-02T09:45:09Z</time>
      </trkpt>
      <trkpt lat="47.08535" lon="6.11725">
        <ele>557</ele>
        <time>2022-10-02T09:45:16Z</time>
      </trkpt>
      <trkpt lat="47.08531" lon="6.11722">
        <ele>557.2</ele>
        <time>2022-10-02T09:45:17Z</time>
      </trkpt>
      <trkpt lat="47.08524" lon="6.11715">
        <ele>557.4</ele>
        <time>2022-10-02T09:45:19Z</time>
      </trkpt>
      <trkpt lat="47.08509" lon="6.117">
        <ele>558.2</ele>
        <time>2022-10-02T09:45:23Z</time>
      </trkpt>
      <trkpt lat="47.08502" lon="6.11693">
        <ele>558.6</ele>
        <time>2022-10-02T09:45:25Z</time>
      </trkpt>
      <trkpt lat="47.08485" lon="6.11675">
        <ele>559.4</ele>
        <time>2022-10-02T09:45:30Z</time>
      </trkpt>
      <trkpt lat="47.08474" lon="6.11665">
        <ele>559.8</ele>
        <time>2022-10-02T09:45:33Z</time>
      </trkpt>
      <trkpt lat="47.08456" lon="6.11647">
        <ele>560.8</ele>
        <time>2022-10-02T09:45:38Z</time>
      </trkpt>
      <trkpt lat="47.08453" lon="6.11643">
        <ele>561</ele>
        <time>2022-10-02T09:45:39Z</time>
      </trkpt>
      <trkpt lat="47.08438" lon="6.11623">
        <ele>561</ele>
        <time>2022-10-02T09:45:44Z</time>
      </trkpt>
      <trkpt lat="47.08419" lon="6.11586">
        <ele>561.6</ele>
        <time>2022-10-02T09:45:51Z</time>
      </trkpt>
      <trkpt lat="47.08403" lon="6.11538">
        <ele>561.2</ele>
        <time>2022-10-02T09:45:59Z</time>
      </trkpt>
      <trkpt lat="47.0839" lon="6.11488">
        <ele>560.8</ele>
        <time>2022-10-02T09:46:07Z</time>
      </trkpt>
      <trkpt lat="47.08379" lon="6.11446">
        <ele>560.8</ele>
        <time>2022-10-02T09:46:14Z</time>
      </trkpt>
      <trkpt lat="47.08375" lon="6.11435">
        <ele>561.2</ele>
        <time>2022-10-02T09:46:16Z</time>
      </trkpt>
      <trkpt lat="47.08366" lon="6.11412">
        <ele>562</ele>
        <time>2022-10-02T09:46:20Z</time>
      </trkpt>
      <trkpt lat="47.08351" lon="6.11385">
        <ele>562</ele>
        <time>2022-10-02T09:46:25Z</time>
      </trkpt>
      <trkpt lat="47.08347" lon="6.11381">
        <ele>562</ele>
        <time>2022-10-02T09:46:26Z</time>
      </trkpt>
      <trkpt lat="47.08332" lon="6.11378">
        <ele>561.6</ele>
        <time>2022-10-02T09:46:30Z</time>
      </trkpt>
      <trkpt lat="47.08319" lon="6.11386">
        <ele>560.8</ele>
        <time>2022-10-02T09:46:35Z</time>
      </trkpt>
      <trkpt lat="47.08313" lon="6.114">
        <ele>560.2</ele>
        <time>2022-10-02T09:46:39Z</time>
      </trkpt>
      <trkpt lat="47.08314" lon="6.11418">
        <ele>559.8</ele>
        <time>2022-10-02T09:46:43Z</time>
      </trkpt>
      <trkpt lat="47.08314" lon="6.11421">
        <ele>560</ele>
        <time>2022-10-02T09:46:44Z</time>
      </trkpt>
      <trkpt lat="47.08317" lon="6.11433">
        <ele>560.4</ele>
        <time>2022-10-02T09:46:48Z</time>
      </trkpt>
      <trkpt lat="47.08317" lon="6.11434">
        <ele>560.4</ele>
        <time>2022-10-02T09:46:49Z</time>
      </trkpt>
      <trkpt lat="47.08316" lon="6.11434">
        <ele>560.4</ele>
        <time>2022-10-02T09:46:50Z</time>
      </trkpt>
      <trkpt lat="47.08315" lon="6.1144">
        <ele>560.4</ele>
        <time>2022-10-02T09:46:54Z</time>
      </trkpt>
      <trkpt lat="47.08314" lon="6.11442">
        <ele>560.4</ele>
        <time>2022-10-02T09:46:56Z</time>
      </trkpt>
      <trkpt lat="47.08321" lon="6.11428">
        <ele>562</ele>
        <time>2022-10-02T09:53:31Z</time>
      </trkpt>
      <trkpt lat="47.0832" lon="6.11422">
        <ele>562</ele>
        <time>2022-10-02T09:53:33Z</time>
      </trkpt>
      <trkpt lat="47.08318" lon="6.11409">
        <ele>562.2</ele>
        <time>2022-10-02T09:53:36Z</time>
      </trkpt>
      <trkpt lat="47.08315" lon="6.11398">
        <ele>560.8</ele>
        <time>2022-10-02T09:53:39Z</time>
      </trkpt>
      <trkpt lat="47.08313" lon="6.11392">
        <ele>559.2</ele>
        <time>2022-10-02T09:53:41Z</time>
      </trkpt>
      <trkpt lat="47.08309" lon="6.11388">
        <ele>558</ele>
        <time>2022-10-02T09:53:43Z</time>
      </trkpt>
      <trkpt lat="47.08306" lon="6.11388">
        <ele>557.6</ele>
        <time>2022-10-02T09:53:44Z</time>
      </trkpt>
      <trkpt lat="47.08298" lon="6.1139">
        <ele>556.8</ele>
        <time>2022-10-02T09:53:46Z</time>
      </trkpt>
      <trkpt lat="47.0829" lon="6.11393">
        <ele>556</ele>
        <time>2022-10-02T09:53:48Z</time>
      </trkpt>
      <trkpt lat="47.08285" lon="6.11395">
        <ele>555.6</ele>
        <time>2022-10-02T09:53:49Z</time>
      </trkpt>
      <trkpt lat="47.08269" lon="6.11401">
        <ele>554.4</ele>
        <time>2022-10-02T09:53:52Z</time>
      </trkpt>
      <trkpt lat="47.08257" lon="6.11406">
        <ele>553.8</ele>
        <time>2022-10-02T09:53:54Z</time>
      </trkpt>
      <trkpt lat="47.08252" lon="6.11408">
        <ele>553.4</ele>
        <time>2022-10-02T09:53:55Z</time>
      </trkpt>
      <trkpt lat="47.08229" lon="6.1142">
        <ele>552</ele>
        <time>2022-10-02T09:53:59Z</time>
      </trkpt>
      <trkpt lat="47.08226" lon="6.11427">
        <ele>551.8</ele>
        <time>2022-10-02T09:54:00Z</time>
      </trkpt>
      <trkpt lat="47.08217" lon="6.11447">
        <ele>551.6</ele>
        <time>2022-10-02T09:54:03Z</time>
      </trkpt>
      <trkpt lat="47.08214" lon="6.11453">
        <ele>551.6</ele>
        <time>2022-10-02T09:54:04Z</time>
      </trkpt>
      <trkpt lat="47.08185" lon="6.11486">
        <ele>552.4</ele>
        <time>2022-10-02T09:54:11Z</time>
      </trkpt>
      <trkpt lat="47.08168" lon="6.11502">
        <ele>553.2</ele>
        <time>2022-10-02T09:54:15Z</time>
      </trkpt>
      <trkpt lat="47.08161" lon="6.11509">
        <ele>554</ele>
        <time>2022-10-02T09:54:17Z</time>
      </trkpt>
      <trkpt lat="47.08157" lon="6.11513">
        <ele>554.4</ele>
        <time>2022-10-02T09:54:18Z</time>
      </trkpt>
      <trkpt lat="47.08153" lon="6.11516">
        <ele>554.6</ele>
        <time>2022-10-02T09:54:19Z</time>
      </trkpt>
      <trkpt lat="47.0814" lon="6.1152">
        <ele>555</ele>
        <time>2022-10-02T09:54:22Z</time>
      </trkpt>
      <trkpt lat="47.08136" lon="6.1152">
        <ele>555.2</ele>
        <time>2022-10-02T09:54:23Z</time>
      </trkpt>
      <trkpt lat="47.08127" lon="6.1152">
        <ele>555.4</ele>
        <time>2022-10-02T09:54:25Z</time>
      </trkpt>
      <trkpt lat="47.08122" lon="6.11519">
        <ele>555.6</ele>
        <time>2022-10-02T09:54:26Z</time>
      </trkpt>
      <trkpt lat="47.08114" lon="6.11516">
        <ele>555.8</ele>
        <time>2022-10-02T09:54:28Z</time>
      </trkpt>
      <trkpt lat="47.08109" lon="6.11514">
        <ele>555.8</ele>
        <time>2022-10-02T09:54:29Z</time>
      </trkpt>
      <trkpt lat="47.08081" lon="6.11497">
        <ele>556.2</ele>
        <time>2022-10-02T09:54:36Z</time>
      </trkpt>
      <trkpt lat="47.08073" lon="6.11492">
        <ele>556.6</ele>
        <time>2022-10-02T09:54:38Z</time>
      </trkpt>
      <trkpt lat="47.08046" lon="6.11473">
        <ele>556.8</ele>
        <time>2022-10-02T09:54:45Z</time>
      </trkpt>
      <trkpt lat="47.08013" lon="6.11454">
        <ele>556.8</ele>
        <time>2022-10-02T09:54:53Z</time>
      </trkpt>
      <trkpt lat="47.07989" lon="6.11445">
        <ele>557</ele>
        <time>2022-10-02T09:54:59Z</time>
      </trkpt>
      <trkpt lat="47.07968" lon="6.11436">
        <ele>557.6</ele>
        <time>2022-10-02T09:55:05Z</time>
      </trkpt>
      <trkpt lat="47.07962" lon="6.11432">
        <ele>557.8</ele>
        <time>2022-10-02T09:55:07Z</time>
      </trkpt>
      <trkpt lat="47.07946" lon="6.11413">
        <ele>558</ele>
        <time>2022-10-02T09:55:12Z</time>
      </trkpt>
      <trkpt lat="47.07923" lon="6.11386">
        <ele>558.2</ele>
        <time>2022-10-02T09:55:19Z</time>
      </trkpt>
      <trkpt lat="47.07914" lon="6.11375">
        <ele>558.8</ele>
        <time>2022-10-02T09:55:22Z</time>
      </trkpt>
      <trkpt lat="47.07902" lon="6.11359">
        <ele>559.2</ele>
        <time>2022-10-02T09:55:26Z</time>
      </trkpt>
      <trkpt lat="47.07879" lon="6.11322">
        <ele>559.4</ele>
        <time>2022-10-02T09:55:34Z</time>
      </trkpt>
      <trkpt lat="47.07859" lon="6.11292">
        <ele>559</ele>
        <time>2022-10-02T09:55:41Z</time>
      </trkpt>
      <trkpt lat="47.07839" lon="6.11275">
        <ele>559.6</ele>
        <time>2022-10-02T09:55:47Z</time>
      </trkpt>
      <trkpt lat="47.07833" lon="6.11271">
        <ele>559.8</ele>
        <time>2022-10-02T09:55:49Z</time>
      </trkpt>
      <trkpt lat="47.0782" lon="6.11268">
        <ele>559.8</ele>
        <time>2022-10-02T09:55:53Z</time>
      </trkpt>
      <trkpt lat="47.07806" lon="6.11268">
        <ele>559.8</ele>
        <time>2022-10-02T09:55:58Z</time>
      </trkpt>
      <trkpt lat="47.07786" lon="6.11268">
        <ele>559.8</ele>
        <time>2022-10-02T09:56:04Z</time>
      </trkpt>
      <trkpt lat="47.07768" lon="6.1126">
        <ele>559.8</ele>
        <time>2022-10-02T09:56:09Z</time>
      </trkpt>
      <trkpt lat="47.07754" lon="6.11239">
        <ele>560.2</ele>
        <time>2022-10-02T09:56:14Z</time>
      </trkpt>
      <trkpt lat="47.07743" lon="6.11228">
        <ele>561</ele>
        <time>2022-10-02T09:56:17Z</time>
      </trkpt>
      <trkpt lat="47.07735" lon="6.11222">
        <ele>561.2</ele>
        <time>2022-10-02T09:56:19Z</time>
      </trkpt>
      <trkpt lat="47.07722" lon="6.11212">
        <ele>561.6</ele>
        <time>2022-10-02T09:56:22Z</time>
      </trkpt>
      <trkpt lat="47.07709" lon="6.11202">
        <ele>561.6</ele>
        <time>2022-10-02T09:56:25Z</time>
      </trkpt>
      <trkpt lat="47.07691" lon="6.11193">
        <ele>561.6</ele>
        <time>2022-10-02T09:56:29Z</time>
      </trkpt>
      <trkpt lat="47.07687" lon="6.11189">
        <ele>561.8</ele>
        <time>2022-10-02T09:56:30Z</time>
      </trkpt>
      <trkpt lat="47.07679" lon="6.11182">
        <ele>562</ele>
        <time>2022-10-02T09:56:32Z</time>
      </trkpt>
      <trkpt lat="47.07666" lon="6.11176">
        <ele>561.8</ele>
        <time>2022-10-02T09:56:35Z</time>
      </trkpt>
      <trkpt lat="47.07648" lon="6.11169">
        <ele>561.2</ele>
        <time>2022-10-02T09:56:39Z</time>
      </trkpt>
      <trkpt lat="47.07643" lon="6.11166">
        <ele>561</ele>
        <time>2022-10-02T09:56:40Z</time>
      </trkpt>
      <trkpt lat="47.07638" lon="6.11163">
        <ele>561</ele>
        <time>2022-10-02T09:56:41Z</time>
      </trkpt>
      <trkpt lat="47.07611" lon="6.11141">
        <ele>560.6</ele>
        <time>2022-10-02T09:56:47Z</time>
      </trkpt>
      <trkpt lat="47.07592" lon="6.11131">
        <ele>560.6</ele>
        <time>2022-10-02T09:56:51Z</time>
      </trkpt>
      <trkpt lat="47.07583" lon="6.1113">
        <ele>561</ele>
        <time>2022-10-02T09:56:53Z</time>
      </trkpt>
      <trkpt lat="47.07556" lon="6.11132">
        <ele>561.6</ele>
        <time>2022-10-02T09:56:59Z</time>
      </trkpt>
      <trkpt lat="47.07536" lon="6.11133">
        <ele>562</ele>
        <time>2022-10-02T09:57:03Z</time>
      </trkpt>
      <trkpt lat="47.0753" lon="6.11132">
        <ele>562.4</ele>
        <time>2022-10-02T09:57:04Z</time>
      </trkpt>
      <trkpt lat="47.07514" lon="6.1113">
        <ele>563</ele>
        <time>2022-10-02T09:57:07Z</time>
      </trkpt>
      <trkpt lat="47.07509" lon="6.11129">
        <ele>563.2</ele>
        <time>2022-10-02T09:57:08Z</time>
      </trkpt>
      <trkpt lat="47.07499" lon="6.1113">
        <ele>563.2</ele>
        <time>2022-10-02T09:57:10Z</time>
      </trkpt>
      <trkpt lat="47.07468" lon="6.11127">
        <ele>563</ele>
        <time>2022-10-02T09:57:16Z</time>
      </trkpt>
      <trkpt lat="47.07453" lon="6.11124">
        <ele>563</ele>
        <time>2022-10-02T09:57:19Z</time>
      </trkpt>
      <trkpt lat="47.07443" lon="6.11122">
        <ele>563</ele>
        <time>2022-10-02T09:57:21Z</time>
      </trkpt>
      <trkpt lat="47.0741" lon="6.11112">
        <ele>562.4</ele>
        <time>2022-10-02T09:57:28Z</time>
      </trkpt>
      <trkpt lat="47.07405" lon="6.1111">
        <ele>562.4</ele>
        <time>2022-10-02T09:57:29Z</time>
      </trkpt>
      <trkpt lat="47.07397" lon="6.11109">
        <ele>561.8</ele>
        <time>2022-10-02T09:57:31Z</time>
      </trkpt>
      <trkpt lat="47.07389" lon="6.11108">
        <ele>561.4</ele>
        <time>2022-10-02T09:57:33Z</time>
      </trkpt>
      <trkpt lat="47.07376" lon="6.11106">
        <ele>560.8</ele>
        <time>2022-10-02T09:57:36Z</time>
      </trkpt>
      <trkpt lat="47.07362" lon="6.11107">
        <ele>560.2</ele>
        <time>2022-10-02T09:57:39Z</time>
      </trkpt>
      <trkpt lat="47.07346" lon="6.11106">
        <ele>560</ele>
        <time>2022-10-02T09:57:42Z</time>
      </trkpt>
      <trkpt lat="47.07336" lon="6.11109">
        <ele>560</ele>
        <time>2022-10-02T09:57:44Z</time>
      </trkpt>
      <trkpt lat="47.07304" lon="6.11124">
        <ele>561.4</ele>
        <time>2022-10-02T09:57:51Z</time>
      </trkpt>
      <trkpt lat="47.07287" lon="6.11131">
        <ele>561.6</ele>
        <time>2022-10-02T09:57:56Z</time>
      </trkpt>
      <trkpt lat="47.07275" lon="6.11131">
        <ele>562.2</ele>
        <time>2022-10-02T09:57:59Z</time>
      </trkpt>
      <trkpt lat="47.07261" lon="6.1113">
        <ele>563.6</ele>
        <time>2022-10-02T09:58:02Z</time>
      </trkpt>
      <trkpt lat="47.07245" lon="6.11129">
        <ele>564.6</ele>
        <time>2022-10-02T09:58:06Z</time>
      </trkpt>
      <trkpt lat="47.07242" lon="6.11127">
        <ele>565.2</ele>
        <time>2022-10-02T09:58:07Z</time>
      </trkpt>
      <trkpt lat="47.07225" lon="6.11117">
        <ele>565.2</ele>
        <time>2022-10-02T09:58:11Z</time>
      </trkpt>
      <trkpt lat="47.07202" lon="6.11102">
        <ele>566</ele>
        <time>2022-10-02T09:58:16Z</time>
      </trkpt>
      <trkpt lat="47.07192" lon="6.11096">
        <ele>566.2</ele>
        <time>2022-10-02T09:58:18Z</time>
      </trkpt>
      <trkpt lat="47.07169" lon="6.11083">
        <ele>566.2</ele>
        <time>2022-10-02T09:58:24Z</time>
      </trkpt>
      <trkpt lat="47.07158" lon="6.11079">
        <ele>567.2</ele>
        <time>2022-10-02T09:58:27Z</time>
      </trkpt>
      <trkpt lat="47.07147" lon="6.11073">
        <ele>567.8</ele>
        <time>2022-10-02T09:58:30Z</time>
      </trkpt>
      <trkpt lat="47.07136" lon="6.11065">
        <ele>568.4</ele>
        <time>2022-10-02T09:58:33Z</time>
      </trkpt>
      <trkpt lat="47.07124" lon="6.11059">
        <ele>569.4</ele>
        <time>2022-10-02T09:58:36Z</time>
      </trkpt>
      <trkpt lat="47.0712" lon="6.11058">
        <ele>569.6</ele>
        <time>2022-10-02T09:58:37Z</time>
      </trkpt>
      <trkpt lat="47.071" lon="6.11052">
        <ele>570</ele>
        <time>2022-10-02T09:58:42Z</time>
      </trkpt>
      <trkpt lat="47.07092" lon="6.1105">
        <ele>570.6</ele>
        <time>2022-10-02T09:58:44Z</time>
      </trkpt>
      <trkpt lat="47.07081" lon="6.11048">
        <ele>571.8</ele>
        <time>2022-10-02T09:58:47Z</time>
      </trkpt>
      <trkpt lat="47.0706" lon="6.11038">
        <ele>572.2</ele>
        <time>2022-10-02T09:58:52Z</time>
      </trkpt>
      <trkpt lat="47.07041" lon="6.11037">
        <ele>571.8</ele>
        <time>2022-10-02T09:58:56Z</time>
      </trkpt>
      <trkpt lat="47.07037" lon="6.11035">
        <ele>571.8</ele>
        <time>2022-10-02T09:58:57Z</time>
      </trkpt>
      <trkpt lat="47.07024" lon="6.11027">
        <ele>571.6</ele>
        <time>2022-10-02T09:59:00Z</time>
      </trkpt>
      <trkpt lat="47.07017" lon="6.11023">
        <ele>571.4</ele>
        <time>2022-10-02T09:59:02Z</time>
      </trkpt>
      <trkpt lat="47.07" lon="6.11019">
        <ele>570.6</ele>
        <time>2022-10-02T09:59:06Z</time>
      </trkpt>
      <trkpt lat="47.06995" lon="6.11019">
        <ele>570.4</ele>
        <time>2022-10-02T09:59:07Z</time>
      </trkpt>
      <trkpt lat="47.06976" lon="6.11015">
        <ele>569.6</ele>
        <time>2022-10-02T09:59:11Z</time>
      </trkpt>
      <trkpt lat="47.06971" lon="6.11014">
        <ele>569.4</ele>
        <time>2022-10-02T09:59:12Z</time>
      </trkpt>
      <trkpt lat="47.06962" lon="6.11011">
        <ele>569.2</ele>
        <time>2022-10-02T09:59:14Z</time>
      </trkpt>
      <trkpt lat="47.06951" lon="6.11006">
        <ele>568.6</ele>
        <time>2022-10-02T09:59:17Z</time>
      </trkpt>
      <trkpt lat="47.06948" lon="6.11002">
        <ele>568.4</ele>
        <time>2022-10-02T09:59:18Z</time>
      </trkpt>
      <trkpt lat="47.06938" lon="6.11">
        <ele>567.8</ele>
        <time>2022-10-02T09:59:21Z</time>
      </trkpt>
      <trkpt lat="47.06937" lon="6.11002">
        <ele>568.2</ele>
        <time>2022-10-02T09:59:22Z</time>
      </trkpt>
      <trkpt lat="47.06935" lon="6.1101">
        <ele>568.8</ele>
        <time>2022-10-02T09:59:25Z</time>
      </trkpt>
      <trkpt lat="47.06935" lon="6.11018">
        <ele>569.4</ele>
        <time>2022-10-02T09:59:28Z</time>
      </trkpt>
      <trkpt lat="47.06937" lon="6.11024">
        <ele>569.6</ele>
        <time>2022-10-02T09:59:30Z</time>
      </trkpt>
      <trkpt lat="47.06934" lon="6.11061">
        <ele>570.4</ele>
        <time>2022-10-02T09:59:48Z</time>
      </trkpt>
      <trkpt lat="47.06934" lon="6.11064">
        <ele>570.4</ele>
        <time>2022-10-02T09:59:49Z</time>
      </trkpt>
      <trkpt lat="47.06933" lon="6.1107">
        <ele>570.4</ele>
        <time>2022-10-02T09:59:51Z</time>
      </trkpt>
      <trkpt lat="47.06932" lon="6.11081">
        <ele>570.8</ele>
        <time>2022-10-02T09:59:54Z</time>
      </trkpt>
      <trkpt lat="47.0693" lon="6.11101">
        <ele>571.4</ele>
        <time>2022-10-02T10:00:00Z</time>
      </trkpt>
      <trkpt lat="47.06929" lon="6.11105">
        <ele>571.4</ele>
        <time>2022-10-02T10:00:01Z</time>
      </trkpt>
      <trkpt lat="47.0693" lon="6.11108">
        <ele>571.8</ele>
        <time>2022-10-02T10:00:02Z</time>
      </trkpt>
      <trkpt lat="47.06931" lon="6.11116">
        <ele>572.2</ele>
        <time>2022-10-02T10:00:05Z</time>
      </trkpt>
      <trkpt lat="47.0693" lon="6.11136">
        <ele>572.6</ele>
        <time>2022-10-02T10:00:12Z</time>
      </trkpt>
      <trkpt lat="47.06928" lon="6.11153">
        <ele>573.8</ele>
        <time>2022-10-02T10:00:17Z</time>
      </trkpt>
      <trkpt lat="47.06927" lon="6.1116">
        <ele>574.2</ele>
        <time>2022-10-02T10:00:19Z</time>
      </trkpt>
      <trkpt lat="47.06923" lon="6.11177">
        <ele>575.4</ele>
        <time>2022-10-02T10:00:25Z</time>
      </trkpt>
      <trkpt lat="47.06921" lon="6.11185">
        <ele>575.2</ele>
        <time>2022-10-02T10:00:27Z</time>
      </trkpt>
      <trkpt lat="47.06922" lon="6.11192">
        <ele>574.8</ele>
        <time>2022-10-02T10:00:29Z</time>
      </trkpt>
      <trkpt lat="47.06921" lon="6.11202">
        <ele>574.4</ele>
        <time>2022-10-02T10:00:32Z</time>
      </trkpt>
      <trkpt lat="47.06917" lon="6.11213">
        <ele>575.4</ele>
        <time>2022-10-02T10:00:36Z</time>
      </trkpt>
      <trkpt lat="47.06914" lon="6.11222">
        <ele>575.8</ele>
        <time>2022-10-02T10:00:39Z</time>
      </trkpt>
      <trkpt lat="47.06913" lon="6.11227">
        <ele>576.2</ele>
        <time>2022-10-02T10:00:41Z</time>
      </trkpt>
      <trkpt lat="47.06913" lon="6.11233">
        <ele>576.6</ele>
        <time>2022-10-02T10:00:43Z</time>
      </trkpt>
      <trkpt lat="47.06914" lon="6.11236">
        <ele>576.8</ele>
        <time>2022-10-02T10:00:44Z</time>
      </trkpt>
      <trkpt lat="47.06918" lon="6.11242">
        <ele>577.2</ele>
        <time>2022-10-02T10:00:46Z</time>
      </trkpt>
      <trkpt lat="47.06921" lon="6.11254">
        <ele>577.8</ele>
        <time>2022-10-02T10:00:50Z</time>
      </trkpt>
      <trkpt lat="47.06922" lon="6.11258">
        <ele>578.4</ele>
        <time>2022-10-02T10:00:52Z</time>
      </trkpt>
      <trkpt lat="47.06925" lon="6.11272">
        <ele>579.4</ele>
        <time>2022-10-02T10:00:56Z</time>
      </trkpt>
      <trkpt lat="47.06925" lon="6.11276">
        <ele>579.6</ele>
        <time>2022-10-02T10:00:57Z</time>
      </trkpt>
      <trkpt lat="47.06922" lon="6.113">
        <ele>579.2</ele>
        <time>2022-10-02T10:01:03Z</time>
      </trkpt>
      <trkpt lat="47.06923" lon="6.11322">
        <ele>579</ele>
        <time>2022-10-02T10:01:09Z</time>
      </trkpt>
      <trkpt lat="47.06924" lon="6.11333">
        <ele>578.4</ele>
        <time>2022-10-02T10:01:12Z</time>
      </trkpt>
      <trkpt lat="47.06923" lon="6.11345">
        <ele>578</ele>
        <time>2022-10-02T10:01:15Z</time>
      </trkpt>
      <trkpt lat="47.06923" lon="6.11365">
        <ele>577.2</ele>
        <time>2022-10-02T10:01:19Z</time>
      </trkpt>
      <trkpt lat="47.06924" lon="6.11374">
        <ele>576.8</ele>
        <time>2022-10-02T10:01:21Z</time>
      </trkpt>
      <trkpt lat="47.06924" lon="6.11386">
        <ele>576.2</ele>
        <time>2022-10-02T10:01:23Z</time>
      </trkpt>
      <trkpt lat="47.06923" lon="6.11416">
        <ele>575.4</ele>
        <time>2022-10-02T10:01:27Z</time>
      </trkpt>
      <trkpt lat="47.06917" lon="6.1143">
        <ele>575.6</ele>
        <time>2022-10-02T10:01:29Z</time>
      </trkpt>
      <trkpt lat="47.06913" lon="6.11435">
        <ele>575.6</ele>
        <time>2022-10-02T10:01:30Z</time>
      </trkpt>
      <trkpt lat="47.06903" lon="6.11448">
        <ele>575</ele>
        <time>2022-10-02T10:01:33Z</time>
      </trkpt>
      <trkpt lat="47.06888" lon="6.11468">
        <ele>574.6</ele>
        <time>2022-10-02T10:01:37Z</time>
      </trkpt>
      <trkpt lat="47.06875" lon="6.11491">
        <ele>574.4</ele>
        <time>2022-10-02T10:01:42Z</time>
      </trkpt>
      <trkpt lat="47.06862" lon="6.1151">
        <ele>574.4</ele>
        <time>2022-10-02T10:01:48Z</time>
      </trkpt>
      <trkpt lat="47.06843" lon="6.1152">
        <ele>574.4</ele>
        <time>2022-10-02T10:01:53Z</time>
      </trkpt>
      <trkpt lat="47.06814" lon="6.11519">
        <ele>574.2</ele>
        <time>2022-10-02T10:02:00Z</time>
      </trkpt>
      <trkpt lat="47.0679" lon="6.11506">
        <ele>573.8</ele>
        <time>2022-10-02T10:02:06Z</time>
      </trkpt>
      <trkpt lat="47.06786" lon="6.11503">
        <ele>573.6</ele>
        <time>2022-10-02T10:02:07Z</time>
      </trkpt>
      <trkpt lat="47.06761" lon="6.11488">
        <ele>573.8</ele>
        <time>2022-10-02T10:02:12Z</time>
      </trkpt>
      <trkpt lat="47.06739" lon="6.11487">
        <ele>573</ele>
        <time>2022-10-02T10:02:16Z</time>
      </trkpt>
      <trkpt lat="47.06728" lon="6.11487">
        <ele>572.6</ele>
        <time>2022-10-02T10:02:18Z</time>
      </trkpt>
      <trkpt lat="47.06718" lon="6.11488">
        <ele>572</ele>
        <time>2022-10-02T10:02:20Z</time>
      </trkpt>
      <trkpt lat="47.06708" lon="6.11487">
        <ele>571.6</ele>
        <time>2022-10-02T10:02:22Z</time>
      </trkpt>
      <trkpt lat="47.06679" lon="6.11488">
        <ele>570.4</ele>
        <time>2022-10-02T10:02:27Z</time>
      </trkpt>
      <trkpt lat="47.06674" lon="6.1149">
        <ele>570.2</ele>
        <time>2022-10-02T10:02:28Z</time>
      </trkpt>
      <trkpt lat="47.06656" lon="6.11502">
        <ele>569</ele>
        <time>2022-10-02T10:02:32Z</time>
      </trkpt>
      <trkpt lat="47.06646" lon="6.11512">
        <ele>568</ele>
        <time>2022-10-02T10:02:34Z</time>
      </trkpt>
      <trkpt lat="47.06633" lon="6.11526">
        <ele>566.8</ele>
        <time>2022-10-02T10:02:37Z</time>
      </trkpt>
      <trkpt lat="47.06629" lon="6.1153">
        <ele>566.2</ele>
        <time>2022-10-02T10:02:38Z</time>
      </trkpt>
      <trkpt lat="47.06621" lon="6.11539">
        <ele>565.6</ele>
        <time>2022-10-02T10:02:40Z</time>
      </trkpt>
      <trkpt lat="47.06604" lon="6.11554">
        <ele>564.4</ele>
        <time>2022-10-02T10:02:44Z</time>
      </trkpt>
      <trkpt lat="47.06588" lon="6.11572">
        <ele>563</ele>
        <time>2022-10-02T10:02:48Z</time>
      </trkpt>
      <trkpt lat="47.0658" lon="6.11583">
        <ele>562</ele>
        <time>2022-10-02T10:02:50Z</time>
      </trkpt>
      <trkpt lat="47.06576" lon="6.1159">
        <ele>561.6</ele>
        <time>2022-10-02T10:02:51Z</time>
      </trkpt>
      <trkpt lat="47.06566" lon="6.1161">
        <ele>560.4</ele>
        <time>2022-10-02T10:02:55Z</time>
      </trkpt>
      <trkpt lat="47.0656" lon="6.11626">
        <ele>558.8</ele>
        <time>2022-10-02T10:02:58Z</time>
      </trkpt>
      <trkpt lat="47.06555" lon="6.11636">
        <ele>557.4</ele>
        <time>2022-10-02T10:03:00Z</time>
      </trkpt>
      <trkpt lat="47.06552" lon="6.11641">
        <ele>556.6</ele>
        <time>2022-10-02T10:03:01Z</time>
      </trkpt>
      <trkpt lat="47.0655" lon="6.11646">
        <ele>555.8</ele>
        <time>2022-10-02T10:03:02Z</time>
      </trkpt>
      <trkpt lat="47.06548" lon="6.11652">
        <ele>554.8</ele>
        <time>2022-10-02T10:03:03Z</time>
      </trkpt>
      <trkpt lat="47.06544" lon="6.11664">
        <ele>552.8</ele>
        <time>2022-10-02T10:03:05Z</time>
      </trkpt>
      <trkpt lat="47.06542" lon="6.11669">
        <ele>551.8</ele>
        <time>2022-10-02T10:03:06Z</time>
      </trkpt>
      <trkpt lat="47.06539" lon="6.11673">
        <ele>550.8</ele>
        <time>2022-10-02T10:03:07Z</time>
      </trkpt>
      <trkpt lat="47.06536" lon="6.11676">
        <ele>550</ele>
        <time>2022-10-02T10:03:08Z</time>
      </trkpt>
      <trkpt lat="47.06533" lon="6.11678">
        <ele>549</ele>
        <time>2022-10-02T10:03:09Z</time>
      </trkpt>
      <trkpt lat="47.0653" lon="6.11679">
        <ele>548.6</ele>
        <time>2022-10-02T10:03:10Z</time>
      </trkpt>
      <trkpt lat="47.06526" lon="6.11674">
        <ele>547.4</ele>
        <time>2022-10-02T10:03:12Z</time>
      </trkpt>
      <trkpt lat="47.06525" lon="6.11669">
        <ele>546.8</ele>
        <time>2022-10-02T10:03:13Z</time>
      </trkpt>
      <trkpt lat="47.06525" lon="6.11665">
        <ele>546</ele>
        <time>2022-10-02T10:03:14Z</time>
      </trkpt>
      <trkpt lat="47.06524" lon="6.1166">
        <ele>545.2</ele>
        <time>2022-10-02T10:03:15Z</time>
      </trkpt>
      <trkpt lat="47.06525" lon="6.11653">
        <ele>544.4</ele>
        <time>2022-10-02T10:03:16Z</time>
      </trkpt>
      <trkpt lat="47.06526" lon="6.11638">
        <ele>543</ele>
        <time>2022-10-02T10:03:18Z</time>
      </trkpt>
      <trkpt lat="47.06527" lon="6.11622">
        <ele>541.6</ele>
        <time>2022-10-02T10:03:20Z</time>
      </trkpt>
      <trkpt lat="47.06529" lon="6.11607">
        <ele>540.2</ele>
        <time>2022-10-02T10:03:22Z</time>
      </trkpt>
      <trkpt lat="47.06529" lon="6.11601">
        <ele>539.6</ele>
        <time>2022-10-02T10:03:23Z</time>
      </trkpt>
      <trkpt lat="47.06528" lon="6.11594">
        <ele>538.6</ele>
        <time>2022-10-02T10:03:24Z</time>
      </trkpt>
      <trkpt lat="47.06524" lon="6.11581">
        <ele>537.4</ele>
        <time>2022-10-02T10:03:26Z</time>
      </trkpt>
      <trkpt lat="47.06519" lon="6.11569">
        <ele>536</ele>
        <time>2022-10-02T10:03:28Z</time>
      </trkpt>
      <trkpt lat="47.06515" lon="6.11563">
        <ele>535.2</ele>
        <time>2022-10-02T10:03:29Z</time>
      </trkpt>
      <trkpt lat="47.06511" lon="6.11557">
        <ele>534.6</ele>
        <time>2022-10-02T10:03:30Z</time>
      </trkpt>
      <trkpt lat="47.06502" lon="6.11547">
        <ele>533.6</ele>
        <time>2022-10-02T10:03:32Z</time>
      </trkpt>
      <trkpt lat="47.06487" lon="6.11535">
        <ele>532.6</ele>
        <time>2022-10-02T10:03:35Z</time>
      </trkpt>
      <trkpt lat="47.06477" lon="6.11528">
        <ele>532</ele>
        <time>2022-10-02T10:03:37Z</time>
      </trkpt>
      <trkpt lat="47.06437" lon="6.11501">
        <ele>531.8</ele>
        <time>2022-10-02T10:03:44Z</time>
      </trkpt>
      <trkpt lat="47.06415" lon="6.1149">
        <ele>532.4</ele>
        <time>2022-10-02T10:03:49Z</time>
      </trkpt>
      <trkpt lat="47.06398" lon="6.1148">
        <ele>533.4</ele>
        <time>2022-10-02T10:03:55Z</time>
      </trkpt>
      <trkpt lat="47.06395" lon="6.11478">
        <ele>533.6</ele>
        <time>2022-10-02T10:03:56Z</time>
      </trkpt>
      <trkpt lat="47.06388" lon="6.11474">
        <ele>534.8</ele>
        <time>2022-10-02T10:03:59Z</time>
      </trkpt>
      <trkpt lat="47.06384" lon="6.11474">
        <ele>536</ele>
        <time>2022-10-02T10:04:01Z</time>
      </trkpt>
      <trkpt lat="47.0638" lon="6.11473">
        <ele>537.2</ele>
        <time>2022-10-02T10:04:03Z</time>
      </trkpt>
      <trkpt lat="47.06377" lon="6.11473">
        <ele>538.4</ele>
        <time>2022-10-02T10:04:05Z</time>
      </trkpt>
      <trkpt lat="47.06373" lon="6.11474">
        <ele>539.4</ele>
        <time>2022-10-02T10:04:07Z</time>
      </trkpt>
      <trkpt lat="47.0637" lon="6.11474">
        <ele>539.8</ele>
        <time>2022-10-02T10:04:08Z</time>
      </trkpt>
      <trkpt lat="47.06361" lon="6.11474">
        <ele>541</ele>
        <time>2022-10-02T10:04:13Z</time>
      </trkpt>
      <trkpt lat="47.06359" lon="6.11473">
        <ele>541.4</ele>
        <time>2022-10-02T10:04:14Z</time>
      </trkpt>
      <trkpt lat="47.06353" lon="6.11462">
        <ele>542.2</ele>
        <time>2022-10-02T10:04:20Z</time>
      </trkpt>
      <trkpt lat="47.06353" lon="6.1146">
        <ele>542.4</ele>
        <time>2022-10-02T10:04:21Z</time>
      </trkpt>
      <trkpt lat="47.0635" lon="6.11449">
        <ele>543</ele>
        <time>2022-10-02T10:04:26Z</time>
      </trkpt>
      <trkpt lat="47.06349" lon="6.11447">
        <ele>543.2</ele>
        <time>2022-10-02T10:04:27Z</time>
      </trkpt>
      <trkpt lat="47.06347" lon="6.11441">
        <ele>544.6</ele>
        <time>2022-10-02T10:04:30Z</time>
      </trkpt>
      <trkpt lat="47.06345" lon="6.11437">
        <ele>545.8</ele>
        <time>2022-10-02T10:04:32Z</time>
      </trkpt>
      <trkpt lat="47.06343" lon="6.11433">
        <ele>546.4</ele>
        <time>2022-10-02T10:04:34Z</time>
      </trkpt>
      <trkpt lat="47.06341" lon="6.11429">
        <ele>547</ele>
        <time>2022-10-02T10:04:36Z</time>
      </trkpt>
      <trkpt lat="47.06339" lon="6.11423">
        <ele>548.4</ele>
        <time>2022-10-02T10:04:39Z</time>
      </trkpt>
      <trkpt lat="47.06338" lon="6.1142">
        <ele>548.8</ele>
        <time>2022-10-02T10:04:40Z</time>
      </trkpt>
      <trkpt lat="47.06337" lon="6.11416">
        <ele>550</ele>
        <time>2022-10-02T10:04:42Z</time>
      </trkpt>
      <trkpt lat="47.06334" lon="6.1141">
        <ele>551</ele>
        <time>2022-10-02T10:04:45Z</time>
      </trkpt>
      <trkpt lat="47.06332" lon="6.11407">
        <ele>551.8</ele>
        <time>2022-10-02T10:04:47Z</time>
      </trkpt>
      <trkpt lat="47.06331" lon="6.11405">
        <ele>552.4</ele>
        <time>2022-10-02T10:04:48Z</time>
      </trkpt>
      <trkpt lat="47.06329" lon="6.114">
        <ele>554</ele>
        <time>2022-10-02T10:04:50Z</time>
      </trkpt>
      <trkpt lat="47.06328" lon="6.11395">
        <ele>555.4</ele>
        <time>2022-10-02T10:04:52Z</time>
      </trkpt>
      <trkpt lat="47.06328" lon="6.11388">
        <ele>556.6</ele>
        <time>2022-10-02T10:04:54Z</time>
      </trkpt>
      <trkpt lat="47.06329" lon="6.11379">
        <ele>557.6</ele>
        <time>2022-10-02T10:04:57Z</time>
      </trkpt>
      <trkpt lat="47.06329" lon="6.11366">
        <ele>559</ele>
        <time>2022-10-02T10:05:02Z</time>
      </trkpt>
      <trkpt lat="47.06329" lon="6.11363">
        <ele>559.2</ele>
        <time>2022-10-02T10:05:03Z</time>
      </trkpt>
      <trkpt lat="47.06329" lon="6.11358">
        <ele>560.4</ele>
        <time>2022-10-02T10:05:05Z</time>
      </trkpt>
      <trkpt lat="47.0633" lon="6.11352">
        <ele>561.6</ele>
        <time>2022-10-02T10:05:07Z</time>
      </trkpt>
      <trkpt lat="47.06331" lon="6.11344">
        <ele>562.6</ele>
        <time>2022-10-02T10:05:10Z</time>
      </trkpt>
      <trkpt lat="47.06332" lon="6.11335">
        <ele>563.8</ele>
        <time>2022-10-02T10:05:13Z</time>
      </trkpt>
      <trkpt lat="47.06332" lon="6.11326">
        <ele>565</ele>
        <time>2022-10-02T10:05:16Z</time>
      </trkpt>
      <trkpt lat="47.06332" lon="6.1132">
        <ele>565.4</ele>
        <time>2022-10-02T10:05:18Z</time>
      </trkpt>
      <trkpt lat="47.06334" lon="6.11304">
        <ele>566</ele>
        <time>2022-10-02T10:05:23Z</time>
      </trkpt>
      <trkpt lat="47.06334" lon="6.11295">
        <ele>566.6</ele>
        <time>2022-10-02T10:05:26Z</time>
      </trkpt>
      <trkpt lat="47.06336" lon="6.11279">
        <ele>567.2</ele>
        <time>2022-10-02T10:05:32Z</time>
      </trkpt>
      <trkpt lat="47.06336" lon="6.11276">
        <ele>567.6</ele>
        <time>2022-10-02T10:05:33Z</time>
      </trkpt>
      <trkpt lat="47.06339" lon="6.11267">
        <ele>568.4</ele>
        <time>2022-10-02T10:05:36Z</time>
      </trkpt>
      <trkpt lat="47.06342" lon="6.11253">
        <ele>569</ele>
        <time>2022-10-02T10:05:40Z</time>
      </trkpt>
      <trkpt lat="47.06345" lon="6.11242">
        <ele>569.4</ele>
        <time>2022-10-02T10:05:43Z</time>
      </trkpt>
      <trkpt lat="47.06349" lon="6.11228">
        <ele>570.6</ele>
        <time>2022-10-02T10:05:47Z</time>
      </trkpt>
      <trkpt lat="47.0635" lon="6.11221">
        <ele>571.2</ele>
        <time>2022-10-02T10:05:49Z</time>
      </trkpt>
      <trkpt lat="47.06353" lon="6.11214">
        <ele>571.6</ele>
        <time>2022-10-02T10:05:51Z</time>
      </trkpt>
      <trkpt lat="47.06363" lon="6.11197">
        <ele>572.4</ele>
        <time>2022-10-02T10:05:57Z</time>
      </trkpt>
      <trkpt lat="47.06365" lon="6.11195">
        <ele>572.8</ele>
        <time>2022-10-02T10:05:58Z</time>
      </trkpt>
      <trkpt lat="47.06374" lon="6.11184">
        <ele>574</ele>
        <time>2022-10-02T10:06:02Z</time>
      </trkpt>
      <trkpt lat="47.06381" lon="6.11175">
        <ele>574.2</ele>
        <time>2022-10-02T10:06:05Z</time>
      </trkpt>
      <trkpt lat="47.06398" lon="6.11155">
        <ele>574</ele>
        <time>2022-10-02T10:06:12Z</time>
      </trkpt>
      <trkpt lat="47.06423" lon="6.11136">
        <ele>574.8</ele>
        <time>2022-10-02T10:06:19Z</time>
      </trkpt>
      <trkpt lat="47.0643" lon="6.11131">
        <ele>575</ele>
        <time>2022-10-02T10:06:21Z</time>
      </trkpt>
      <trkpt lat="47.06449" lon="6.1112">
        <ele>574.6</ele>
        <time>2022-10-02T10:06:25Z</time>
      </trkpt>
      <trkpt lat="47.06465" lon="6.11111">
        <ele>574</ele>
        <time>2022-10-02T10:06:28Z</time>
      </trkpt>
      <trkpt lat="47.06483" lon="6.11099">
        <ele>573.2</ele>
        <time>2022-10-02T10:06:31Z</time>
      </trkpt>
      <trkpt lat="47.06494" lon="6.11089">
        <ele>572.6</ele>
        <time>2022-10-02T10:06:33Z</time>
      </trkpt>
      <trkpt lat="47.0651" lon="6.11071">
        <ele>571.6</ele>
        <time>2022-10-02T10:06:36Z</time>
      </trkpt>
      <trkpt lat="47.06516" lon="6.11063">
        <ele>571.2</ele>
        <time>2022-10-02T10:06:37Z</time>
      </trkpt>
      <trkpt lat="47.06522" lon="6.11056">
        <ele>570.6</ele>
        <time>2022-10-02T10:06:38Z</time>
      </trkpt>
      <trkpt lat="47.06538" lon="6.11032">
        <ele>569</ele>
        <time>2022-10-02T10:06:41Z</time>
      </trkpt>
      <trkpt lat="47.06548" lon="6.11015">
        <ele>568</ele>
        <time>2022-10-02T10:06:43Z</time>
      </trkpt>
      <trkpt lat="47.06553" lon="6.11007">
        <ele>567.6</ele>
        <time>2022-10-02T10:06:44Z</time>
      </trkpt>
      <trkpt lat="47.06563" lon="6.10992">
        <ele>566.6</ele>
        <time>2022-10-02T10:06:46Z</time>
      </trkpt>
      <trkpt lat="47.06576" lon="6.10969">
        <ele>565.4</ele>
        <time>2022-10-02T10:06:49Z</time>
      </trkpt>
      <trkpt lat="47.06583" lon="6.10952">
        <ele>564.6</ele>
        <time>2022-10-02T10:06:51Z</time>
      </trkpt>
      <trkpt lat="47.06586" lon="6.10943">
        <ele>564.2</ele>
        <time>2022-10-02T10:06:52Z</time>
      </trkpt>
      <trkpt lat="47.06591" lon="6.10921">
        <ele>563.2</ele>
        <time>2022-10-02T10:06:55Z</time>
      </trkpt>
      <trkpt lat="47.06591" lon="6.10918">
        <ele>562.8</ele>
        <time>2022-10-02T10:06:56Z</time>
      </trkpt>
      <trkpt lat="47.06583" lon="6.10906">
        <ele>561.8</ele>
        <time>2022-10-02T10:07:00Z</time>
      </trkpt>
      <trkpt lat="47.0658" lon="6.10904">
        <ele>561.6</ele>
        <time>2022-10-02T10:07:01Z</time>
      </trkpt>
      <trkpt lat="47.06566" lon="6.10888">
        <ele>561.2</ele>
        <time>2022-10-02T10:07:07Z</time>
      </trkpt>
      <trkpt lat="47.06551" lon="6.10864">
        <ele>561</ele>
        <time>2022-10-02T10:07:14Z</time>
      </trkpt>
      <trkpt lat="47.0655" lon="6.1086">
        <ele>560.8</ele>
        <time>2022-10-02T10:07:15Z</time>
      </trkpt>
      <trkpt lat="47.06538" lon="6.10841">
        <ele>560.8</ele>
        <time>2022-10-02T10:07:20Z</time>
      </trkpt>
      <trkpt lat="47.0652" lon="6.10821">
        <ele>560.4</ele>
        <time>2022-10-02T10:07:26Z</time>
      </trkpt>
      <trkpt lat="47.06503" lon="6.10803">
        <ele>561.8</ele>
        <time>2022-10-02T10:07:32Z</time>
      </trkpt>
      <trkpt lat="47.06501" lon="6.10802">
        <ele>562.2</ele>
        <time>2022-10-02T10:07:33Z</time>
      </trkpt>
      <trkpt lat="47.06492" lon="6.10796">
        <ele>563</ele>
        <time>2022-10-02T10:07:36Z</time>
      </trkpt>
      <trkpt lat="47.06484" lon="6.10789">
        <ele>564.2</ele>
        <time>2022-10-02T10:07:39Z</time>
      </trkpt>
      <trkpt lat="47.06482" lon="6.10786">
        <ele>564.6</ele>
        <time>2022-10-02T10:07:40Z</time>
      </trkpt>
      <trkpt lat="47.06478" lon="6.10781">
        <ele>565.4</ele>
        <time>2022-10-02T10:07:42Z</time>
      </trkpt>
      <trkpt lat="47.06474" lon="6.1077">
        <ele>566.8</ele>
        <time>2022-10-02T10:07:45Z</time>
      </trkpt>
      <trkpt lat="47.06473" lon="6.10766">
        <ele>567.2</ele>
        <time>2022-10-02T10:07:46Z</time>
      </trkpt>
      <trkpt lat="47.06472" lon="6.10759">
        <ele>568</ele>
        <time>2022-10-02T10:07:48Z</time>
      </trkpt>
      <trkpt lat="47.06466" lon="6.10746">
        <ele>568.8</ele>
        <time>2022-10-02T10:07:52Z</time>
      </trkpt>
      <trkpt lat="47.06465" lon="6.10743">
        <ele>569.2</ele>
        <time>2022-10-02T10:07:53Z</time>
      </trkpt>
      <trkpt lat="47.06459" lon="6.10734">
        <ele>570.6</ele>
        <time>2022-10-02T10:07:56Z</time>
      </trkpt>
      <trkpt lat="47.06454" lon="6.10728">
        <ele>571.6</ele>
        <time>2022-10-02T10:07:58Z</time>
      </trkpt>
      <trkpt lat="47.0645" lon="6.10722">
        <ele>572.8</ele>
        <time>2022-10-02T10:08:00Z</time>
      </trkpt>
      <trkpt lat="47.06447" lon="6.10715">
        <ele>574.2</ele>
        <time>2022-10-02T10:08:02Z</time>
      </trkpt>
      <trkpt lat="47.06445" lon="6.10707">
        <ele>575.6</ele>
        <time>2022-10-02T10:08:04Z</time>
      </trkpt>
      <trkpt lat="47.06444" lon="6.10704">
        <ele>576.2</ele>
        <time>2022-10-02T10:08:05Z</time>
      </trkpt>
      <trkpt lat="47.06443" lon="6.10696">
        <ele>576.6</ele>
        <time>2022-10-02T10:08:08Z</time>
      </trkpt>
      <trkpt lat="47.06443" lon="6.10693">
        <ele>576.6</ele>
        <time>2022-10-02T10:08:09Z</time>
      </trkpt>
      <trkpt lat="47.06443" lon="6.10688">
        <ele>577</ele>
        <time>2022-10-02T10:08:11Z</time>
      </trkpt>
      <trkpt lat="47.06443" lon="6.10682">
        <ele>577.4</ele>
        <time>2022-10-02T10:08:13Z</time>
      </trkpt>
      <trkpt lat="47.06443" lon="6.10671">
        <ele>577.4</ele>
        <time>2022-10-02T10:08:17Z</time>
      </trkpt>
      <trkpt lat="47.06434" lon="6.10655">
        <ele>576.6</ele>
        <time>2022-10-02T10:08:22Z</time>
      </trkpt>
      <trkpt lat="47.06427" lon="6.10649">
        <ele>576.4</ele>
        <time>2022-10-02T10:08:26Z</time>
      </trkpt>
      <trkpt lat="47.06424" lon="6.10646">
        <ele>576.6</ele>
        <time>2022-10-02T10:08:28Z</time>
      </trkpt>
      <trkpt lat="47.06422" lon="6.10647">
        <ele>576.6</ele>
        <time>2022-10-02T10:08:30Z</time>
      </trkpt>
      <trkpt lat="47.06418" lon="6.10649">
        <ele>576.4</ele>
        <time>2022-10-02T10:08:33Z</time>
      </trkpt>
      <trkpt lat="47.06415" lon="6.10649">
        <ele>576.4</ele>
        <time>2022-10-02T10:08:35Z</time>
      </trkpt>
      <trkpt lat="47.06409" lon="6.10648">
        <ele>576.4</ele>
        <time>2022-10-02T10:08:38Z</time>
      </trkpt>
      <trkpt lat="47.06398" lon="6.10642">
        <ele>576.4</ele>
        <time>2022-10-02T10:08:43Z</time>
      </trkpt>
      <trkpt lat="47.06392" lon="6.10639">
        <ele>577.2</ele>
        <time>2022-10-02T10:08:46Z</time>
      </trkpt>
      <trkpt lat="47.06386" lon="6.10635">
        <ele>577.8</ele>
        <time>2022-10-02T10:08:49Z</time>
      </trkpt>
      <trkpt lat="47.06383" lon="6.10634">
        <ele>578.4</ele>
        <time>2022-10-02T10:08:51Z</time>
      </trkpt>
      <trkpt lat="47.06381" lon="6.10634">
        <ele>579</ele>
        <time>2022-10-02T10:08:52Z</time>
      </trkpt>
      <trkpt lat="47.06374" lon="6.10632">
        <ele>579.8</ele>
        <time>2022-10-02T10:08:56Z</time>
      </trkpt>
      <trkpt lat="47.06373" lon="6.10631">
        <ele>580.2</ele>
        <time>2022-10-02T10:08:57Z</time>
      </trkpt>
      <trkpt lat="47.06369" lon="6.10627">
        <ele>581.4</ele>
        <time>2022-10-02T10:09:00Z</time>
      </trkpt>
      <trkpt lat="47.06366" lon="6.10623">
        <ele>582.2</ele>
        <time>2022-10-02T10:09:03Z</time>
      </trkpt>
      <trkpt lat="47.06361" lon="6.10622">
        <ele>582.6</ele>
        <time>2022-10-02T10:09:06Z</time>
      </trkpt>
      <trkpt lat="47.06359" lon="6.10622">
        <ele>582.8</ele>
        <time>2022-10-02T10:09:08Z</time>
      </trkpt>
      <trkpt lat="47.06358" lon="6.10621">
        <ele>583</ele>
        <time>2022-10-02T10:09:09Z</time>
      </trkpt>
      <trkpt lat="47.06355" lon="6.10619">
        <ele>583.6</ele>
        <time>2022-10-02T10:09:11Z</time>
      </trkpt>
      <trkpt lat="47.0635" lon="6.10615">
        <ele>584.6</ele>
        <time>2022-10-02T10:09:17Z</time>
      </trkpt>
      <trkpt lat="47.06349" lon="6.10615">
        <ele>584.8</ele>
        <time>2022-10-02T10:09:18Z</time>
      </trkpt>
      <trkpt lat="47.06344" lon="6.10608">
        <ele>585.6</ele>
        <time>2022-10-02T10:09:27Z</time>
      </trkpt>
      <trkpt lat="47.06343" lon="6.1059">
        <ele>584.8</ele>
        <time>2022-10-02T10:09:34Z</time>
      </trkpt>
      <trkpt lat="47.06343" lon="6.10586">
        <ele>583.8</ele>
        <time>2022-10-02T10:09:35Z</time>
      </trkpt>
      <trkpt lat="47.06347" lon="6.10575">
        <ele>582.4</ele>
        <time>2022-10-02T10:09:39Z</time>
      </trkpt>
      <trkpt lat="47.06349" lon="6.10571">
        <ele>581.4</ele>
        <time>2022-10-02T10:09:40Z</time>
      </trkpt>
      <trkpt lat="47.06351" lon="6.10567">
        <ele>580.2</ele>
        <time>2022-10-02T10:09:41Z</time>
      </trkpt>
      <trkpt lat="47.06353" lon="6.10561">
        <ele>579</ele>
        <time>2022-10-02T10:09:43Z</time>
      </trkpt>
      <trkpt lat="47.06358" lon="6.10555">
        <ele>577.6</ele>
        <time>2022-10-02T10:09:45Z</time>
      </trkpt>
      <trkpt lat="47.0636" lon="6.10553">
        <ele>577.2</ele>
        <time>2022-10-02T10:09:46Z</time>
      </trkpt>
      <trkpt lat="47.06368" lon="6.10548">
        <ele>576.4</ele>
        <time>2022-10-02T10:09:49Z</time>
      </trkpt>
      <trkpt lat="47.06377" lon="6.10543">
        <ele>575.6</ele>
        <time>2022-10-02T10:09:52Z</time>
      </trkpt>
      <trkpt lat="47.06386" lon="6.10536">
        <ele>575.4</ele>
        <time>2022-10-02T10:09:55Z</time>
      </trkpt>
      <trkpt lat="47.06393" lon="6.10524">
        <ele>575</ele>
        <time>2022-10-02T10:09:58Z</time>
      </trkpt>
      <trkpt lat="47.06397" lon="6.10512">
        <ele>574.2</ele>
        <time>2022-10-02T10:10:01Z</time>
      </trkpt>
      <trkpt lat="47.06406" lon="6.10494">
        <ele>572.8</ele>
        <time>2022-10-02T10:10:05Z</time>
      </trkpt>
      <trkpt lat="47.06408" lon="6.10489">
        <ele>572.6</ele>
        <time>2022-10-02T10:10:06Z</time>
      </trkpt>
      <trkpt lat="47.06415" lon="6.10475">
        <ele>571.4</ele>
        <time>2022-10-02T10:10:09Z</time>
      </trkpt>
      <trkpt lat="47.06421" lon="6.1046">
        <ele>570.6</ele>
        <time>2022-10-02T10:10:13Z</time>
      </trkpt>
      <trkpt lat="47.06421" lon="6.10456">
        <ele>570.2</ele>
        <time>2022-10-02T10:10:14Z</time>
      </trkpt>
      <trkpt lat="47.0642" lon="6.10453">
        <ele>569.8</ele>
        <time>2022-10-02T10:10:15Z</time>
      </trkpt>
      <trkpt lat="47.06417" lon="6.10442">
        <ele>569.2</ele>
        <time>2022-10-02T10:10:18Z</time>
      </trkpt>
      <trkpt lat="47.06413" lon="6.10431">
        <ele>567.8</ele>
        <time>2022-10-02T10:10:21Z</time>
      </trkpt>
      <trkpt lat="47.06405" lon="6.10416">
        <ele>567.2</ele>
        <time>2022-10-02T10:10:25Z</time>
      </trkpt>
      <trkpt lat="47.064" lon="6.10408">
        <ele>566.6</ele>
        <time>2022-10-02T10:10:28Z</time>
      </trkpt>
      <trkpt lat="47.06393" lon="6.10392">
        <ele>566.2</ele>
        <time>2022-10-02T10:10:32Z</time>
      </trkpt>
      <trkpt lat="47.06382" lon="6.10379">
        <ele>565.8</ele>
        <time>2022-10-02T10:10:37Z</time>
      </trkpt>
      <trkpt lat="47.06378" lon="6.10373">
        <ele>565.6</ele>
        <time>2022-10-02T10:10:39Z</time>
      </trkpt>
      <trkpt lat="47.06373" lon="6.10362">
        <ele>565.4</ele>
        <time>2022-10-02T10:10:42Z</time>
      </trkpt>
      <trkpt lat="47.0636" lon="6.10344">
        <ele>565.8</ele>
        <time>2022-10-02T10:10:47Z</time>
      </trkpt>
      <trkpt lat="47.06343" lon="6.10323">
        <ele>565.4</ele>
        <time>2022-10-02T10:10:52Z</time>
      </trkpt>
      <trkpt lat="47.06323" lon="6.10303">
        <ele>565.8</ele>
        <time>2022-10-02T10:10:58Z</time>
      </trkpt>
      <trkpt lat="47.06317" lon="6.10297">
        <ele>566.6</ele>
        <time>2022-10-02T10:11:00Z</time>
      </trkpt>
      <trkpt lat="47.06302" lon="6.1028">
        <ele>567.8</ele>
        <time>2022-10-02T10:11:04Z</time>
      </trkpt>
      <trkpt lat="47.06289" lon="6.10264">
        <ele>569</ele>
        <time>2022-10-02T10:11:08Z</time>
      </trkpt>
      <trkpt lat="47.06283" lon="6.10253">
        <ele>569.2</ele>
        <time>2022-10-02T10:11:11Z</time>
      </trkpt>
      <trkpt lat="47.0628" lon="6.10225">
        <ele>568.8</ele>
        <time>2022-10-02T10:11:17Z</time>
      </trkpt>
      <trkpt lat="47.06266" lon="6.10197">
        <ele>568</ele>
        <time>2022-10-02T10:11:22Z</time>
      </trkpt>
      <trkpt lat="47.06262" lon="6.10192">
        <ele>567.8</ele>
        <time>2022-10-02T10:11:23Z</time>
      </trkpt>
      <trkpt lat="47.06245" lon="6.10162">
        <ele>568.2</ele>
        <time>2022-10-02T10:11:29Z</time>
      </trkpt>
      <trkpt lat="47.06233" lon="6.10152">
        <ele>568</ele>
        <time>2022-10-02T10:11:33Z</time>
      </trkpt>
      <trkpt lat="47.06216" lon="6.10136">
        <ele>568.4</ele>
        <time>2022-10-02T10:11:38Z</time>
      </trkpt>
      <trkpt lat="47.06193" lon="6.10106">
        <ele>568.2</ele>
        <time>2022-10-02T10:11:44Z</time>
      </trkpt>
      <trkpt lat="47.06189" lon="6.10102">
        <ele>568.2</ele>
        <time>2022-10-02T10:11:45Z</time>
      </trkpt>
      <trkpt lat="47.06174" lon="6.10084">
        <ele>568.4</ele>
        <time>2022-10-02T10:11:50Z</time>
      </trkpt>
      <trkpt lat="47.06169" lon="6.10077">
        <ele>568.8</ele>
        <time>2022-10-02T10:11:52Z</time>
      </trkpt>
      <trkpt lat="47.06159" lon="6.1006">
        <ele>569.6</ele>
        <time>2022-10-02T10:11:56Z</time>
      </trkpt>
      <trkpt lat="47.06152" lon="6.10044">
        <ele>570.2</ele>
        <time>2022-10-02T10:11:59Z</time>
      </trkpt>
      <trkpt lat="47.06144" lon="6.10023">
        <ele>570.6</ele>
        <time>2022-10-02T10:12:03Z</time>
      </trkpt>
      <trkpt lat="47.06125" lon="6.09982">
        <ele>570.4</ele>
        <time>2022-10-02T10:12:11Z</time>
      </trkpt>
      <trkpt lat="47.0611" lon="6.09956">
        <ele>571.2</ele>
        <time>2022-10-02T10:12:16Z</time>
      </trkpt>
      <trkpt lat="47.06101" lon="6.09943">
        <ele>571.6</ele>
        <time>2022-10-02T10:12:19Z</time>
      </trkpt>
      <trkpt lat="47.06075" lon="6.09902">
        <ele>571.4</ele>
        <time>2022-10-02T10:12:28Z</time>
      </trkpt>
      <trkpt lat="47.06061" lon="6.0987">
        <ele>571</ele>
        <time>2022-10-02T10:12:35Z</time>
      </trkpt>
      <trkpt lat="47.06047" lon="6.09847">
        <ele>570.4</ele>
        <time>2022-10-02T10:12:41Z</time>
      </trkpt>
      <trkpt lat="47.06036" lon="6.0985">
        <ele>571.2</ele>
        <time>2022-10-02T10:12:45Z</time>
      </trkpt>
      <trkpt lat="47.06018" lon="6.09866">
        <ele>572</ele>
        <time>2022-10-02T10:12:53Z</time>
      </trkpt>
      <trkpt lat="47.06013" lon="6.09871">
        <ele>572.4</ele>
        <time>2022-10-02T10:12:55Z</time>
      </trkpt>
      <trkpt lat="47.05992" lon="6.09882">
        <ele>573.6</ele>
        <time>2022-10-02T10:13:02Z</time>
      </trkpt>
      <trkpt lat="47.05967" lon="6.099">
        <ele>573.2</ele>
        <time>2022-10-02T10:13:09Z</time>
      </trkpt>
      <trkpt lat="47.0595" lon="6.09915">
        <ele>572.4</ele>
        <time>2022-10-02T10:13:13Z</time>
      </trkpt>
      <trkpt lat="47.0594" lon="6.09923">
        <ele>571.6</ele>
        <time>2022-10-02T10:13:15Z</time>
      </trkpt>
      <trkpt lat="47.05929" lon="6.09932">
        <ele>571.2</ele>
        <time>2022-10-02T10:13:17Z</time>
      </trkpt>
      <trkpt lat="47.05902" lon="6.09952">
        <ele>570.4</ele>
        <time>2022-10-02T10:13:22Z</time>
      </trkpt>
      <trkpt lat="47.05887" lon="6.09961">
        <ele>570</ele>
        <time>2022-10-02T10:13:25Z</time>
      </trkpt>
      <trkpt lat="47.05856" lon="6.09978">
        <ele>569</ele>
        <time>2022-10-02T10:13:31Z</time>
      </trkpt>
      <trkpt lat="47.05821" lon="6.09992">
        <ele>568.6</ele>
        <time>2022-10-02T10:13:38Z</time>
      </trkpt>
      <trkpt lat="47.05803" lon="6.09998">
        <ele>569.2</ele>
        <time>2022-10-02T10:13:43Z</time>
      </trkpt>
      <trkpt lat="47.05783" lon="6.10004">
        <ele>570</ele>
        <time>2022-10-02T10:13:49Z</time>
      </trkpt>
      <trkpt lat="47.05779" lon="6.10005">
        <ele>570</ele>
        <time>2022-10-02T10:13:50Z</time>
      </trkpt>
      <trkpt lat="47.0576" lon="6.10012">
        <ele>570.8</ele>
        <time>2022-10-02T10:13:55Z</time>
      </trkpt>
      <trkpt lat="47.05757" lon="6.10013">
        <ele>571.2</ele>
        <time>2022-10-02T10:13:56Z</time>
      </trkpt>
      <trkpt lat="47.0575" lon="6.10014">
        <ele>572.8</ele>
        <time>2022-10-02T10:13:58Z</time>
      </trkpt>
      <trkpt lat="47.05742" lon="6.10016">
        <ele>574</ele>
        <time>2022-10-02T10:14:01Z</time>
      </trkpt>
      <trkpt lat="47.05736" lon="6.10017">
        <ele>575</ele>
        <time>2022-10-02T10:14:04Z</time>
      </trkpt>
      <trkpt lat="47.05727" lon="6.10019">
        <ele>575.6</ele>
        <time>2022-10-02T10:14:08Z</time>
      </trkpt>
      <trkpt lat="47.05722" lon="6.1002">
        <ele>576</ele>
        <time>2022-10-02T10:14:10Z</time>
      </trkpt>
      <trkpt lat="47.05708" lon="6.10024">
        <ele>576</ele>
        <time>2022-10-02T10:14:16Z</time>
      </trkpt>
      <trkpt lat="47.05688" lon="6.10029">
        <ele>576</ele>
        <time>2022-10-02T10:14:25Z</time>
      </trkpt>
      <trkpt lat="47.05676" lon="6.10031">
        <ele>576.6</ele>
        <time>2022-10-02T10:14:32Z</time>
      </trkpt>
      <trkpt lat="47.05662" lon="6.10037">
        <ele>576.2</ele>
        <time>2022-10-02T10:14:39Z</time>
      </trkpt>
      <trkpt lat="47.0565" lon="6.10044">
        <ele>577</ele>
        <time>2022-10-02T10:14:45Z</time>
      </trkpt>
      <trkpt lat="47.05648" lon="6.10045">
        <ele>577.2</ele>
        <time>2022-10-02T10:14:46Z</time>
      </trkpt>
      <trkpt lat="47.05639" lon="6.10054">
        <ele>577.6</ele>
        <time>2022-10-02T10:14:50Z</time>
      </trkpt>
      <trkpt lat="47.05636" lon="6.10057">
        <ele>577.6</ele>
        <time>2022-10-02T10:14:51Z</time>
      </trkpt>
      <trkpt lat="47.05624" lon="6.10067">
        <ele>578</ele>
        <time>2022-10-02T10:14:56Z</time>
      </trkpt>
      <trkpt lat="47.05615" lon="6.10081">
        <ele>578.2</ele>
        <time>2022-10-02T10:15:00Z</time>
      </trkpt>
      <trkpt lat="47.05608" lon="6.10093">
        <ele>578.6</ele>
        <time>2022-10-02T10:15:03Z</time>
      </trkpt>
      <trkpt lat="47.05593" lon="6.10117">
        <ele>579.4</ele>
        <time>2022-10-02T10:15:09Z</time>
      </trkpt>
      <trkpt lat="47.0559" lon="6.10121">
        <ele>579.6</ele>
        <time>2022-10-02T10:15:10Z</time>
      </trkpt>
      <trkpt lat="47.05582" lon="6.10131">
        <ele>580.4</ele>
        <time>2022-10-02T10:15:13Z</time>
      </trkpt>
      <trkpt lat="47.05573" lon="6.10143">
        <ele>581.4</ele>
        <time>2022-10-02T10:15:16Z</time>
      </trkpt>
      <trkpt lat="47.0557" lon="6.10146">
        <ele>581.6</ele>
        <time>2022-10-02T10:15:17Z</time>
      </trkpt>
      <trkpt lat="47.05559" lon="6.10159">
        <ele>582.4</ele>
        <time>2022-10-02T10:15:22Z</time>
      </trkpt>
      <trkpt lat="47.05558" lon="6.10163">
        <ele>582.6</ele>
        <time>2022-10-02T10:15:24Z</time>
      </trkpt>
      <trkpt lat="47.05558" lon="6.10161">
        <ele>582.6</ele>
        <time>2022-10-02T10:15:31Z</time>
      </trkpt>
      <trkpt lat="47.05564" lon="6.10151">
        <ele>582</ele>
        <time>2022-10-02T10:15:35Z</time>
      </trkpt>
      <trkpt lat="47.05566" lon="6.10148">
        <ele>581.8</ele>
        <time>2022-10-02T10:15:36Z</time>
      </trkpt>
      <trkpt lat="47.05568" lon="6.10145">
        <ele>581.4</ele>
        <time>2022-10-02T10:15:37Z</time>
      </trkpt>
      <trkpt lat="47.05581" lon="6.10131">
        <ele>581</ele>
        <time>2022-10-02T10:15:41Z</time>
      </trkpt>
      <trkpt lat="47.05596" lon="6.10114">
        <ele>580.4</ele>
        <time>2022-10-02T10:15:45Z</time>
      </trkpt>
      <trkpt lat="47.05607" lon="6.10099">
        <ele>579.6</ele>
        <time>2022-10-02T10:15:48Z</time>
      </trkpt>
      <trkpt lat="47.05612" lon="6.10089">
        <ele>579.2</ele>
        <time>2022-10-02T10:15:50Z</time>
      </trkpt>
      <trkpt lat="47.05613" lon="6.10081">
        <ele>578.8</ele>
        <time>2022-10-02T10:15:52Z</time>
      </trkpt>
      <trkpt lat="47.05608" lon="6.10071">
        <ele>578.2</ele>
        <time>2022-10-02T10:15:55Z</time>
      </trkpt>
      <trkpt lat="47.05606" lon="6.10067">
        <ele>577.8</ele>
        <time>2022-10-02T10:15:56Z</time>
      </trkpt>
      <trkpt lat="47.05593" lon="6.10056">
        <ele>577</ele>
        <time>2022-10-02T10:16:00Z</time>
      </trkpt>
      <trkpt lat="47.05589" lon="6.10055">
        <ele>576.8</ele>
        <time>2022-10-02T10:16:01Z</time>
      </trkpt>
      <trkpt lat="47.05573" lon="6.10053">
        <ele>575.8</ele>
        <time>2022-10-02T10:16:05Z</time>
      </trkpt>
      <trkpt lat="47.05569" lon="6.10053">
        <ele>575.6</ele>
        <time>2022-10-02T10:16:06Z</time>
      </trkpt>
      <trkpt lat="47.05552" lon="6.1005">
        <ele>575</ele>
        <time>2022-10-02T10:16:11Z</time>
      </trkpt>
      <trkpt lat="47.05547" lon="6.1005">
        <ele>574.8</ele>
        <time>2022-10-02T10:16:13Z</time>
      </trkpt>
      <trkpt lat="47.05531" lon="6.10047">
        <ele>574.4</ele>
        <time>2022-10-02T10:16:18Z</time>
      </trkpt>
      <trkpt lat="47.05514" lon="6.10048">
        <ele>573.8</ele>
        <time>2022-10-02T10:16:24Z</time>
      </trkpt>
      <trkpt lat="47.05508" lon="6.1005">
        <ele>573.4</ele>
        <time>2022-10-02T10:16:26Z</time>
      </trkpt>
      <trkpt lat="47.05501" lon="6.10053">
        <ele>572.8</ele>
        <time>2022-10-02T10:16:28Z</time>
      </trkpt>
      <trkpt lat="47.05491" lon="6.1006">
        <ele>571.6</ele>
        <time>2022-10-02T10:16:32Z</time>
      </trkpt>
      <trkpt lat="47.0548" lon="6.1006">
        <ele>570.4</ele>
        <time>2022-10-02T10:16:36Z</time>
      </trkpt>
      <trkpt lat="47.05478" lon="6.10058">
        <ele>570</ele>
        <time>2022-10-02T10:16:37Z</time>
      </trkpt>
      <trkpt lat="47.05473" lon="6.10048">
        <ele>569.4</ele>
        <time>2022-10-02T10:16:40Z</time>
      </trkpt>
      <trkpt lat="47.05472" lon="6.1004">
        <ele>568.8</ele>
        <time>2022-10-02T10:16:42Z</time>
      </trkpt>
      <trkpt lat="47.05473" lon="6.10035">
        <ele>568.4</ele>
        <time>2022-10-02T10:16:43Z</time>
      </trkpt>
      <trkpt lat="47.05474" lon="6.10026">
        <ele>567.2</ele>
        <time>2022-10-02T10:16:45Z</time>
      </trkpt>
      <trkpt lat="47.05474" lon="6.10018">
        <ele>566</ele>
        <time>2022-10-02T10:16:47Z</time>
      </trkpt>
      <trkpt lat="47.05473" lon="6.10011">
        <ele>564.8</ele>
        <time>2022-10-02T10:16:49Z</time>
      </trkpt>
      <trkpt lat="47.05471" lon="6.10006">
        <ele>563.8</ele>
        <time>2022-10-02T10:16:51Z</time>
      </trkpt>
      <trkpt lat="47.05469" lon="6.10004">
        <ele>563.4</ele>
        <time>2022-10-02T10:16:52Z</time>
      </trkpt>
      <trkpt lat="47.05467" lon="6.10003">
        <ele>563.2</ele>
        <time>2022-10-02T10:16:53Z</time>
      </trkpt>
      <trkpt lat="47.05464" lon="6.10001">
        <ele>562.8</ele>
        <time>2022-10-02T10:16:54Z</time>
      </trkpt>
      <trkpt lat="47.05457" lon="6.09997">
        <ele>562.4</ele>
        <time>2022-10-02T10:16:56Z</time>
      </trkpt>
      <trkpt lat="47.05451" lon="6.09993">
        <ele>561.6</ele>
        <time>2022-10-02T10:16:58Z</time>
      </trkpt>
      <trkpt lat="47.05447" lon="6.0999">
        <ele>561.4</ele>
        <time>2022-10-02T10:16:59Z</time>
      </trkpt>
      <trkpt lat="47.0544" lon="6.09987">
        <ele>560.4</ele>
        <time>2022-10-02T10:17:01Z</time>
      </trkpt>
      <trkpt lat="47.05428" lon="6.09985">
        <ele>560</ele>
        <time>2022-10-02T10:17:04Z</time>
      </trkpt>
      <trkpt lat="47.05403" lon="6.09986">
        <ele>559.4</ele>
        <time>2022-10-02T10:17:10Z</time>
      </trkpt>
      <trkpt lat="47.05399" lon="6.09985">
        <ele>558.8</ele>
        <time>2022-10-02T10:17:11Z</time>
      </trkpt>
      <trkpt lat="47.05396" lon="6.09983">
        <ele>558.2</ele>
        <time>2022-10-02T10:17:12Z</time>
      </trkpt>
      <trkpt lat="47.05386" lon="6.09975">
        <ele>557</ele>
        <time>2022-10-02T10:17:15Z</time>
      </trkpt>
      <trkpt lat="47.05382" lon="6.09973">
        <ele>556.6</ele>
        <time>2022-10-02T10:17:16Z</time>
      </trkpt>
      <trkpt lat="47.05376" lon="6.09968">
        <ele>556</ele>
        <time>2022-10-02T10:17:18Z</time>
      </trkpt>
      <trkpt lat="47.05374" lon="6.09965">
        <ele>555.6</ele>
        <time>2022-10-02T10:17:19Z</time>
      </trkpt>
      <trkpt lat="47.05372" lon="6.09961">
        <ele>555.8</ele>
        <time>2022-10-02T10:17:20Z</time>
      </trkpt>
      <trkpt lat="47.05366" lon="6.09942">
        <ele>554.8</ele>
        <time>2022-10-02T10:17:24Z</time>
      </trkpt>
      <trkpt lat="47.05365" lon="6.09935">
        <ele>554.6</ele>
        <time>2022-10-02T10:17:25Z</time>
      </trkpt>
      <trkpt lat="47.05362" lon="6.09927">
        <ele>553.8</ele>
        <time>2022-10-02T10:17:26Z</time>
      </trkpt>
      <trkpt lat="47.05353" lon="6.09896">
        <ele>553.2</ele>
        <time>2022-10-02T10:17:30Z</time>
      </trkpt>
      <trkpt lat="47.05346" lon="6.09871">
        <ele>552.4</ele>
        <time>2022-10-02T10:17:33Z</time>
      </trkpt>
      <trkpt lat="47.0534" lon="6.09848">
        <ele>551</ele>
        <time>2022-10-02T10:17:36Z</time>
      </trkpt>
      <trkpt lat="47.05333" lon="6.09822">
        <ele>549.4</ele>
        <time>2022-10-02T10:17:39Z</time>
      </trkpt>
      <trkpt lat="47.05328" lon="6.09805">
        <ele>548.2</ele>
        <time>2022-10-02T10:17:41Z</time>
      </trkpt>
      <trkpt lat="47.05326" lon="6.09797">
        <ele>547.8</ele>
        <time>2022-10-02T10:17:42Z</time>
      </trkpt>
      <trkpt lat="47.05322" lon="6.0978">
        <ele>546.6</ele>
        <time>2022-10-02T10:17:44Z</time>
      </trkpt>
      <trkpt lat="47.05319" lon="6.09763">
        <ele>545.2</ele>
        <time>2022-10-02T10:17:47Z</time>
      </trkpt>
      <trkpt lat="47.05317" lon="6.09752">
        <ele>544</ele>
        <time>2022-10-02T10:17:49Z</time>
      </trkpt>
      <trkpt lat="47.05315" lon="6.09745">
        <ele>543</ele>
        <time>2022-10-02T10:17:50Z</time>
      </trkpt>
      <trkpt lat="47.05313" lon="6.09738">
        <ele>542.4</ele>
        <time>2022-10-02T10:17:51Z</time>
      </trkpt>
      <trkpt lat="47.05307" lon="6.09721">
        <ele>541.2</ele>
        <time>2022-10-02T10:17:54Z</time>
      </trkpt>
      <trkpt lat="47.05298" lon="6.09685">
        <ele>545.2</ele>
        <time>2022-10-02T10:18:17Z</time>
      </trkpt>
      <trkpt lat="47.05297" lon="6.09682">
        <ele>545.2</ele>
        <time>2022-10-02T10:18:18Z</time>
      </trkpt>
      <trkpt lat="47.05293" lon="6.09664">
        <ele>546.4</ele>
        <time>2022-10-02T10:18:23Z</time>
      </trkpt>
      <trkpt lat="47.05291" lon="6.09658">
        <ele>547</ele>
        <time>2022-10-02T10:18:25Z</time>
      </trkpt>
      <trkpt lat="47.0529" lon="6.09655">
        <ele>547.4</ele>
        <time>2022-10-02T10:18:26Z</time>
      </trkpt>
      <trkpt lat="47.05287" lon="6.09637">
        <ele>548.6</ele>
        <time>2022-10-02T10:18:30Z</time>
      </trkpt>
      <trkpt lat="47.05283" lon="6.09616">
        <ele>550</ele>
        <time>2022-10-02T10:18:34Z</time>
      </trkpt>
      <trkpt lat="47.05279" lon="6.09598">
        <ele>551</ele>
        <time>2022-10-02T10:18:37Z</time>
      </trkpt>
      <trkpt lat="47.05278" lon="6.09592">
        <ele>551.2</ele>
        <time>2022-10-02T10:18:38Z</time>
      </trkpt>
      <trkpt lat="47.05271" lon="6.09562">
        <ele>551.6</ele>
        <time>2022-10-02T10:18:43Z</time>
      </trkpt>
      <trkpt lat="47.05262" lon="6.09518">
        <ele>552</ele>
        <time>2022-10-02T10:18:50Z</time>
      </trkpt>
      <trkpt lat="47.0525" lon="6.09473">
        <ele>551.6</ele>
        <time>2022-10-02T10:18:56Z</time>
      </trkpt>
      <trkpt lat="47.05241" lon="6.0943">
        <ele>550.8</ele>
        <time>2022-10-02T10:19:02Z</time>
      </trkpt>
      <trkpt lat="47.05234" lon="6.09404">
        <ele>550</ele>
        <time>2022-10-02T10:19:05Z</time>
      </trkpt>
      <trkpt lat="47.05231" lon="6.09388">
        <ele>549.8</ele>
        <time>2022-10-02T10:19:07Z</time>
      </trkpt>
      <trkpt lat="47.05221" lon="6.09345">
        <ele>549</ele>
        <time>2022-10-02T10:19:13Z</time>
      </trkpt>
      <trkpt lat="47.05211" lon="6.09308">
        <ele>548.2</ele>
        <time>2022-10-02T10:19:19Z</time>
      </trkpt>
      <trkpt lat="47.05203" lon="6.09306">
        <ele>548.4</ele>
        <time>2022-10-02T10:19:22Z</time>
      </trkpt>
      <trkpt lat="47.052" lon="6.09306">
        <ele>548.4</ele>
        <time>2022-10-02T10:19:23Z</time>
      </trkpt>
      <trkpt lat="47.05184" lon="6.09311">
        <ele>548</ele>
        <time>2022-10-02T10:19:29Z</time>
      </trkpt>
      <trkpt lat="47.05162" lon="6.09321">
        <ele>548.6</ele>
        <time>2022-10-02T10:19:36Z</time>
      </trkpt>
      <trkpt lat="47.0516" lon="6.09323">
        <ele>549</ele>
        <time>2022-10-02T10:19:37Z</time>
      </trkpt>
      <trkpt lat="47.05151" lon="6.09335">
        <ele>550</ele>
        <time>2022-10-02T10:19:41Z</time>
      </trkpt>
      <trkpt lat="47.05141" lon="6.09346">
        <ele>551.4</ele>
        <time>2022-10-02T10:19:45Z</time>
      </trkpt>
      <trkpt lat="47.05135" lon="6.09351">
        <ele>552.2</ele>
        <time>2022-10-02T10:19:47Z</time>
      </trkpt>
      <trkpt lat="47.05128" lon="6.09359">
        <ele>552.6</ele>
        <time>2022-10-02T10:19:50Z</time>
      </trkpt>
      <trkpt lat="47.05121" lon="6.09369">
        <ele>552.8</ele>
        <time>2022-10-02T10:19:53Z</time>
      </trkpt>
      <trkpt lat="47.05111" lon="6.09385">
        <ele>553.6</ele>
        <time>2022-10-02T10:19:58Z</time>
      </trkpt>
      <trkpt lat="47.05105" lon="6.09391">
        <ele>553.8</ele>
        <time>2022-10-02T10:20:00Z</time>
      </trkpt>
      <trkpt lat="47.05091" lon="6.09411">
        <ele>554.6</ele>
        <time>2022-10-02T10:20:06Z</time>
      </trkpt>
      <trkpt lat="47.05089" lon="6.09414">
        <ele>555</ele>
        <time>2022-10-02T10:20:07Z</time>
      </trkpt>
      <trkpt lat="47.05084" lon="6.0942">
        <ele>556.6</ele>
        <time>2022-10-02T10:20:08Z</time>
      </trkpt>
      <trkpt lat="47.0508" lon="6.09424">
        <ele>558</ele>
        <time>2022-10-02T10:20:09Z</time>
      </trkpt>
      <trkpt lat="47.05072" lon="6.09433">
        <ele>558.6</ele>
        <time>2022-10-02T10:20:12Z</time>
      </trkpt>
      <trkpt lat="47.05068" lon="6.09436">
        <ele>559.2</ele>
        <time>2022-10-02T10:20:13Z</time>
      </trkpt>
      <trkpt lat="47.05065" lon="6.09439">
        <ele>560.2</ele>
        <time>2022-10-02T10:20:14Z</time>
      </trkpt>
      <trkpt lat="47.0506" lon="6.09443">
        <ele>561.6</ele>
        <time>2022-10-02T10:20:15Z</time>
      </trkpt>
      <trkpt lat="47.05057" lon="6.09447">
        <ele>562.6</ele>
        <time>2022-10-02T10:20:16Z</time>
      </trkpt>
      <trkpt lat="47.05052" lon="6.09452">
        <ele>564</ele>
        <time>2022-10-02T10:20:18Z</time>
      </trkpt>
      <trkpt lat="47.0505" lon="6.09455">
        <ele>564.4</ele>
        <time>2022-10-02T10:20:19Z</time>
      </trkpt>
      <trkpt lat="47.05043" lon="6.0946">
        <ele>565</ele>
        <time>2022-10-02T10:20:21Z</time>
      </trkpt>
      <trkpt lat="47.05028" lon="6.0947">
        <ele>566</ele>
        <time>2022-10-02T10:20:25Z</time>
      </trkpt>
      <trkpt lat="47.05021" lon="6.09472">
        <ele>566.2</ele>
        <time>2022-10-02T10:20:27Z</time>
      </trkpt>
      <trkpt lat="47.05009" lon="6.09473">
        <ele>566.8</ele>
        <time>2022-10-02T10:20:30Z</time>
      </trkpt>
      <trkpt lat="47.05003" lon="6.09476">
        <ele>567.4</ele>
        <time>2022-10-02T10:20:32Z</time>
      </trkpt>
      <trkpt lat="47.04998" lon="6.0948">
        <ele>567.8</ele>
        <time>2022-10-02T10:20:34Z</time>
      </trkpt>
      <trkpt lat="47.04992" lon="6.09486">
        <ele>568.4</ele>
        <time>2022-10-02T10:20:36Z</time>
      </trkpt>
      <trkpt lat="47.04985" lon="6.09498">
        <ele>569.6</ele>
        <time>2022-10-02T10:20:40Z</time>
      </trkpt>
      <trkpt lat="47.0498" lon="6.09504">
        <ele>570.4</ele>
        <time>2022-10-02T10:20:42Z</time>
      </trkpt>
      <trkpt lat="47.04978" lon="6.09507">
        <ele>570.8</ele>
        <time>2022-10-02T10:20:43Z</time>
      </trkpt>
      <trkpt lat="47.04969" lon="6.09519">
        <ele>572</ele>
        <time>2022-10-02T10:20:47Z</time>
      </trkpt>
      <trkpt lat="47.04964" lon="6.09525">
        <ele>572.6</ele>
        <time>2022-10-02T10:20:49Z</time>
      </trkpt>
      <trkpt lat="47.04959" lon="6.0953">
        <ele>573</ele>
        <time>2022-10-02T10:20:51Z</time>
      </trkpt>
      <trkpt lat="47.04947" lon="6.09546">
        <ele>573.8</ele>
        <time>2022-10-02T10:20:56Z</time>
      </trkpt>
      <trkpt lat="47.04939" lon="6.09563">
        <ele>574.2</ele>
        <time>2022-10-02T10:21:00Z</time>
      </trkpt>
      <trkpt lat="47.04935" lon="6.09577">
        <ele>574.6</ele>
        <time>2022-10-02T10:21:03Z</time>
      </trkpt>
      <trkpt lat="47.0493" lon="6.09588">
        <ele>575.2</ele>
        <time>2022-10-02T10:21:06Z</time>
      </trkpt>
      <trkpt lat="47.04919" lon="6.09615">
        <ele>576.2</ele>
        <time>2022-10-02T10:21:13Z</time>
      </trkpt>
      <trkpt lat="47.04918" lon="6.09619">
        <ele>576.4</ele>
        <time>2022-10-02T10:21:14Z</time>
      </trkpt>
      <trkpt lat="47.04909" lon="6.09639">
        <ele>577.8</ele>
        <time>2022-10-02T10:21:19Z</time>
      </trkpt>
      <trkpt lat="47.04903" lon="6.09648">
        <ele>578.8</ele>
        <time>2022-10-02T10:21:22Z</time>
      </trkpt>
      <trkpt lat="47.049" lon="6.09652">
        <ele>579</ele>
        <time>2022-10-02T10:21:23Z</time>
      </trkpt>
      <trkpt lat="47.04892" lon="6.09666">
        <ele>580.2</ele>
        <time>2022-10-02T10:21:27Z</time>
      </trkpt>
      <trkpt lat="47.04889" lon="6.0967">
        <ele>580.4</ele>
        <time>2022-10-02T10:21:28Z</time>
      </trkpt>
      <trkpt lat="47.04877" lon="6.09692">
        <ele>580.8</ele>
        <time>2022-10-02T10:21:34Z</time>
      </trkpt>
      <trkpt lat="47.04874" lon="6.097">
        <ele>581.2</ele>
        <time>2022-10-02T10:21:36Z</time>
      </trkpt>
      <trkpt lat="47.04866" lon="6.09718">
        <ele>582</ele>
        <time>2022-10-02T10:21:41Z</time>
      </trkpt>
      <trkpt lat="47.04862" lon="6.09727">
        <ele>582.2</ele>
        <time>2022-10-02T10:21:43Z</time>
      </trkpt>
      <trkpt lat="47.04856" lon="6.09742">
        <ele>582.8</ele>
        <time>2022-10-02T10:21:47Z</time>
      </trkpt>
      <trkpt lat="47.04851" lon="6.09755">
        <ele>583.4</ele>
        <time>2022-10-02T10:21:51Z</time>
      </trkpt>
      <trkpt lat="47.04845" lon="6.09771">
        <ele>583.8</ele>
        <time>2022-10-02T10:21:55Z</time>
      </trkpt>
      <trkpt lat="47.04843" lon="6.09775">
        <ele>584</ele>
        <time>2022-10-02T10:21:56Z</time>
      </trkpt>
      <trkpt lat="47.04839" lon="6.09785">
        <ele>584.8</ele>
        <time>2022-10-02T10:21:59Z</time>
      </trkpt>
      <trkpt lat="47.04838" lon="6.09788">
        <ele>585.2</ele>
        <time>2022-10-02T10:22:00Z</time>
      </trkpt>
      <trkpt lat="47.04835" lon="6.09797">
        <ele>586</ele>
        <time>2022-10-02T10:22:02Z</time>
      </trkpt>
      <trkpt lat="47.04831" lon="6.0982">
        <ele>586.4</ele>
        <time>2022-10-02T10:22:07Z</time>
      </trkpt>
      <trkpt lat="47.04831" lon="6.09844">
        <ele>586.6</ele>
        <time>2022-10-02T10:22:13Z</time>
      </trkpt>
      <trkpt lat="47.04829" lon="6.0987">
        <ele>587</ele>
        <time>2022-10-02T10:22:20Z</time>
      </trkpt>
      <trkpt lat="47.04829" lon="6.09874">
        <ele>587.2</ele>
        <time>2022-10-02T10:22:21Z</time>
      </trkpt>
      <trkpt lat="47.04827" lon="6.09901">
        <ele>586.8</ele>
        <time>2022-10-02T10:22:27Z</time>
      </trkpt>
      <trkpt lat="47.04825" lon="6.09926">
        <ele>586.4</ele>
        <time>2022-10-02T10:22:33Z</time>
      </trkpt>
      <trkpt lat="47.04825" lon="6.0993">
        <ele>586.2</ele>
        <time>2022-10-02T10:22:34Z</time>
      </trkpt>
      <trkpt lat="47.04824" lon="6.09948">
        <ele>585.6</ele>
        <time>2022-10-02T10:22:39Z</time>
      </trkpt>
      <trkpt lat="47.04825" lon="6.09977">
        <ele>585.2</ele>
        <time>2022-10-02T10:22:47Z</time>
      </trkpt>
      <trkpt lat="47.04826" lon="6.10007">
        <ele>584.6</ele>
        <time>2022-10-02T10:22:55Z</time>
      </trkpt>
      <trkpt lat="47.04827" lon="6.10023">
        <ele>584</ele>
        <time>2022-10-02T10:22:59Z</time>
      </trkpt>
      <trkpt lat="47.04827" lon="6.10038">
        <ele>583.2</ele>
        <time>2022-10-02T10:23:02Z</time>
      </trkpt>
      <trkpt lat="47.04826" lon="6.10051">
        <ele>583</ele>
        <time>2022-10-02T10:23:05Z</time>
      </trkpt>
      <trkpt lat="47.04821" lon="6.1007">
        <ele>582.8</ele>
        <time>2022-10-02T10:23:10Z</time>
      </trkpt>
      <trkpt lat="47.04812" lon="6.10098">
        <ele>583.4</ele>
        <time>2022-10-02T10:23:18Z</time>
      </trkpt>
      <trkpt lat="47.04801" lon="6.10117">
        <ele>584</ele>
        <time>2022-10-02T10:23:25Z</time>
      </trkpt>
      <trkpt lat="47.0479" lon="6.10132">
        <ele>585.4</ele>
        <time>2022-10-02T10:23:31Z</time>
      </trkpt>
      <trkpt lat="47.04781" lon="6.10142">
        <ele>586.4</ele>
        <time>2022-10-02T10:23:35Z</time>
      </trkpt>
      <trkpt lat="47.04774" lon="6.10147">
        <ele>587.2</ele>
        <time>2022-10-02T10:23:38Z</time>
      </trkpt>
      <trkpt lat="47.0477" lon="6.10151">
        <ele>587.6</ele>
        <time>2022-10-02T10:23:40Z</time>
      </trkpt>
      <trkpt lat="47.04761" lon="6.10157">
        <ele>588.6</ele>
        <time>2022-10-02T10:23:44Z</time>
      </trkpt>
      <trkpt lat="47.04759" lon="6.10159">
        <ele>589</ele>
        <time>2022-10-02T10:23:45Z</time>
      </trkpt>
      <trkpt lat="47.04756" lon="6.10162">
        <ele>589.6</ele>
        <time>2022-10-02T10:23:47Z</time>
      </trkpt>
      <trkpt lat="47.0475" lon="6.10166">
        <ele>590.6</ele>
        <time>2022-10-02T10:23:50Z</time>
      </trkpt>
      <trkpt lat="47.04747" lon="6.10168">
        <ele>591.2</ele>
        <time>2022-10-02T10:23:51Z</time>
      </trkpt>
      <trkpt lat="47.04735" lon="6.10181">
        <ele>591.4</ele>
        <time>2022-10-02T10:23:57Z</time>
      </trkpt>
      <trkpt lat="47.04726" lon="6.10194">
        <ele>591</ele>
        <time>2022-10-02T10:24:02Z</time>
      </trkpt>
      <trkpt lat="47.04716" lon="6.1021">
        <ele>591.8</ele>
        <time>2022-10-02T10:24:08Z</time>
      </trkpt>
      <trkpt lat="47.04715" lon="6.10213">
        <ele>592</ele>
        <time>2022-10-02T10:24:09Z</time>
      </trkpt>
      <trkpt lat="47.04708" lon="6.10227">
        <ele>593</ele>
        <time>2022-10-02T10:24:15Z</time>
      </trkpt>
      <trkpt lat="47.04706" lon="6.10231">
        <ele>593.6</ele>
        <time>2022-10-02T10:24:17Z</time>
      </trkpt>
      <trkpt lat="47.04701" lon="6.10245">
        <ele>593.8</ele>
        <time>2022-10-02T10:24:24Z</time>
      </trkpt>
      <trkpt lat="47.047" lon="6.10249">
        <ele>594</ele>
        <time>2022-10-02T10:24:26Z</time>
      </trkpt>
      <trkpt lat="47.04698" lon="6.10256">
        <ele>594.2</ele>
        <time>2022-10-02T10:24:30Z</time>
      </trkpt>
      <trkpt lat="47.04694" lon="6.10269">
        <ele>595.2</ele>
        <time>2022-10-02T10:24:37Z</time>
      </trkpt>
      <trkpt lat="47.04692" lon="6.10284">
        <ele>595.4</ele>
        <time>2022-10-02T10:24:44Z</time>
      </trkpt>
      <trkpt lat="47.0469" lon="6.10298">
        <ele>596.2</ele>
        <time>2022-10-02T10:24:49Z</time>
      </trkpt>
      <trkpt lat="47.04689" lon="6.10304">
        <ele>596.6</ele>
        <time>2022-10-02T10:24:51Z</time>
      </trkpt>
      <trkpt lat="47.04687" lon="6.10317">
        <ele>597.4</ele>
        <time>2022-10-02T10:24:55Z</time>
      </trkpt>
      <trkpt lat="47.04683" lon="6.10328">
        <ele>598</ele>
        <time>2022-10-02T10:24:59Z</time>
      </trkpt>
      <trkpt lat="47.04681" lon="6.10333">
        <ele>598.4</ele>
        <time>2022-10-02T10:25:01Z</time>
      </trkpt>
      <trkpt lat="47.04674" lon="6.10352">
        <ele>599.4</ele>
        <time>2022-10-02T10:25:08Z</time>
      </trkpt>
      <trkpt lat="47.04674" lon="6.10355">
        <ele>599.8</ele>
        <time>2022-10-02T10:25:09Z</time>
      </trkpt>
      <trkpt lat="47.0467" lon="6.10365">
        <ele>600.4</ele>
        <time>2022-10-02T10:25:14Z</time>
      </trkpt>
      <trkpt lat="47.04667" lon="6.10378">
        <ele>600.8</ele>
        <time>2022-10-02T10:25:20Z</time>
      </trkpt>
      <trkpt lat="47.04666" lon="6.10385">
        <ele>601.8</ele>
        <time>2022-10-02T10:25:23Z</time>
      </trkpt>
      <trkpt lat="47.04664" lon="6.10394">
        <ele>602.2</ele>
        <time>2022-10-02T10:25:28Z</time>
      </trkpt>
      <trkpt lat="47.04655" lon="6.10415">
        <ele>601.6</ele>
        <time>2022-10-02T10:25:36Z</time>
      </trkpt>
      <trkpt lat="47.04642" lon="6.10441">
        <ele>601.4</ele>
        <time>2022-10-02T10:25:46Z</time>
      </trkpt>
      <trkpt lat="47.04633" lon="6.10461">
        <ele>601.8</ele>
        <time>2022-10-02T10:25:54Z</time>
      </trkpt>
      <trkpt lat="47.04621" lon="6.10483">
        <ele>602.2</ele>
        <time>2022-10-02T10:26:03Z</time>
      </trkpt>
      <trkpt lat="47.04606" lon="6.10505">
        <ele>602.4</ele>
        <time>2022-10-02T10:26:12Z</time>
      </trkpt>
      <trkpt lat="47.04591" lon="6.1052">
        <ele>602.8</ele>
        <time>2022-10-02T10:26:19Z</time>
      </trkpt>
      <trkpt lat="47.04572" lon="6.10537">
        <ele>603</ele>
        <time>2022-10-02T10:26:27Z</time>
      </trkpt>
      <trkpt lat="47.04567" lon="6.10541">
        <ele>603</ele>
        <time>2022-10-02T10:26:29Z</time>
      </trkpt>
      <trkpt lat="47.04547" lon="6.10557">
        <ele>603.2</ele>
        <time>2022-10-02T10:26:37Z</time>
      </trkpt>
      <trkpt lat="47.04526" lon="6.10578">
        <ele>603.2</ele>
        <time>2022-10-02T10:26:46Z</time>
      </trkpt>
      <trkpt lat="47.04508" lon="6.106">
        <ele>603.4</ele>
        <time>2022-10-02T10:26:53Z</time>
      </trkpt>
      <trkpt lat="47.04485" lon="6.10628">
        <ele>603.2</ele>
        <time>2022-10-02T10:27:01Z</time>
      </trkpt>
      <trkpt lat="47.04462" lon="6.1065">
        <ele>603.2</ele>
        <time>2022-10-02T10:27:08Z</time>
      </trkpt>
      <trkpt lat="47.04436" lon="6.10663">
        <ele>602.8</ele>
        <time>2022-10-02T10:27:15Z</time>
      </trkpt>
      <trkpt lat="47.04407" lon="6.10667">
        <ele>602.4</ele>
        <time>2022-10-02T10:27:22Z</time>
      </trkpt>
      <trkpt lat="47.04372" lon="6.10667">
        <ele>602.8</ele>
        <time>2022-10-02T10:27:32Z</time>
      </trkpt>
      <trkpt lat="47.04344" lon="6.10667">
        <ele>603.6</ele>
        <time>2022-10-02T10:27:40Z</time>
      </trkpt>
      <trkpt lat="47.04324" lon="6.10665">
        <ele>603.8</ele>
        <time>2022-10-02T10:27:47Z</time>
      </trkpt>
      <trkpt lat="47.04317" lon="6.10666">
        <ele>604</ele>
        <time>2022-10-02T10:27:49Z</time>
      </trkpt>
      <trkpt lat="47.043" lon="6.10665">
        <ele>604.2</ele>
        <time>2022-10-02T10:27:55Z</time>
      </trkpt>
      <trkpt lat="47.04288" lon="6.10664">
        <ele>605</ele>
        <time>2022-10-02T10:27:59Z</time>
      </trkpt>
      <trkpt lat="47.04272" lon="6.10662">
        <ele>605.4</ele>
        <time>2022-10-02T10:28:05Z</time>
      </trkpt>
      <trkpt lat="47.04258" lon="6.10659">
        <ele>606</ele>
        <time>2022-10-02T10:28:10Z</time>
      </trkpt>
      <trkpt lat="47.04249" lon="6.10659">
        <ele>606.2</ele>
        <time>2022-10-02T10:28:14Z</time>
      </trkpt>
      <trkpt lat="47.04244" lon="6.10658">
        <ele>606.2</ele>
        <time>2022-10-02T10:28:19Z</time>
      </trkpt>
      <trkpt lat="47.04232" lon="6.10658">
        <ele>606.8</ele>
        <time>2022-10-02T10:28:25Z</time>
      </trkpt>
      <trkpt lat="47.04218" lon="6.1066">
        <ele>607</ele>
        <time>2022-10-02T10:28:32Z</time>
      </trkpt>
      <trkpt lat="47.04216" lon="6.10661">
        <ele>607.2</ele>
        <time>2022-10-02T10:28:33Z</time>
      </trkpt>
      <trkpt lat="47.04196" lon="6.10663">
        <ele>607.2</ele>
        <time>2022-10-02T10:28:40Z</time>
      </trkpt>
      <trkpt lat="47.04186" lon="6.10664">
        <ele>607.6</ele>
        <time>2022-10-02T10:28:57Z</time>
      </trkpt>
      <trkpt lat="47.0418" lon="6.10665">
        <ele>607.6</ele>
        <time>2022-10-02T10:29:00Z</time>
      </trkpt>
      <trkpt lat="47.04163" lon="6.10668">
        <ele>607.4</ele>
        <time>2022-10-02T10:29:05Z</time>
      </trkpt>
      <trkpt lat="47.04134" lon="6.10672">
        <ele>607</ele>
        <time>2022-10-02T10:29:12Z</time>
      </trkpt>
      <trkpt lat="47.0411" lon="6.10675">
        <ele>606.8</ele>
        <time>2022-10-02T10:29:19Z</time>
      </trkpt>
      <trkpt lat="47.04081" lon="6.10678">
        <ele>606.4</ele>
        <time>2022-10-02T10:29:25Z</time>
      </trkpt>
      <trkpt lat="47.04076" lon="6.10678">
        <ele>606.2</ele>
        <time>2022-10-02T10:29:26Z</time>
      </trkpt>
      <trkpt lat="47.04028" lon="6.10685">
        <ele>605.4</ele>
        <time>2022-10-02T10:29:35Z</time>
      </trkpt>
      <trkpt lat="47.04023" lon="6.10687">
        <ele>605.2</ele>
        <time>2022-10-02T10:29:36Z</time>
      </trkpt>
      <trkpt lat="47.04018" lon="6.1069">
        <ele>605.2</ele>
        <time>2022-10-02T10:29:37Z</time>
      </trkpt>
      <trkpt lat="47.04003" lon="6.10698">
        <ele>605.2</ele>
        <time>2022-10-02T10:29:40Z</time>
      </trkpt>
      <trkpt lat="47.03971" lon="6.10715">
        <ele>605.2</ele>
        <time>2022-10-02T10:29:47Z</time>
      </trkpt>
      <trkpt lat="47.03931" lon="6.10736">
        <ele>605.6</ele>
        <time>2022-10-02T10:29:56Z</time>
      </trkpt>
      <trkpt lat="47.03909" lon="6.10749">
        <ele>606.2</ele>
        <time>2022-10-02T10:30:02Z</time>
      </trkpt>
      <trkpt lat="47.03903" lon="6.10751">
        <ele>606.2</ele>
        <time>2022-10-02T10:30:05Z</time>
      </trkpt>
      <trkpt lat="47.039" lon="6.10748">
        <ele>606</ele>
        <time>2022-10-02T10:30:07Z</time>
      </trkpt>
      <trkpt lat="47.039" lon="6.10736">
        <ele>605.8</ele>
        <time>2022-10-02T10:30:11Z</time>
      </trkpt>
      <trkpt lat="47.039" lon="6.10733">
        <ele>605.8</ele>
        <time>2022-10-02T10:30:12Z</time>
      </trkpt>
      <trkpt lat="47.03901" lon="6.10723">
        <ele>605.6</ele>
        <time>2022-10-02T10:30:41Z</time>
      </trkpt>
      <trkpt lat="47.03902" lon="6.10701">
        <ele>605.8</ele>
        <time>2022-10-02T10:30:47Z</time>
      </trkpt>
      <trkpt lat="47.03906" lon="6.10671">
        <ele>604.4</ele>
        <time>2022-10-02T10:30:53Z</time>
      </trkpt>
      <trkpt lat="47.03906" lon="6.10666">
        <ele>604.2</ele>
        <time>2022-10-02T10:30:54Z</time>
      </trkpt>
      <trkpt lat="47.03905" lon="6.10634">
        <ele>603.4</ele>
        <time>2022-10-02T10:31:00Z</time>
      </trkpt>
      <trkpt lat="47.03904" lon="6.1063">
        <ele>603.2</ele>
        <time>2022-10-02T10:31:01Z</time>
      </trkpt>
      <trkpt lat="47.03893" lon="6.10603">
        <ele>603.2</ele>
        <time>2022-10-02T10:31:07Z</time>
      </trkpt>
      <trkpt lat="47.03889" lon="6.10594">
        <ele>604.2</ele>
        <time>2022-10-02T10:31:09Z</time>
      </trkpt>
      <trkpt lat="47.03888" lon="6.10578">
        <ele>605</ele>
        <time>2022-10-02T10:31:13Z</time>
      </trkpt>
      <trkpt lat="47.03889" lon="6.10569">
        <ele>605.2</ele>
        <time>2022-10-02T10:31:15Z</time>
      </trkpt>
      <trkpt lat="47.03891" lon="6.10542">
        <ele>605.6</ele>
        <time>2022-10-02T10:31:20Z</time>
      </trkpt>
      <trkpt lat="47.0389" lon="6.10532">
        <ele>606.2</ele>
        <time>2022-10-02T10:31:22Z</time>
      </trkpt>
      <trkpt lat="47.03887" lon="6.10506">
        <ele>606.6</ele>
        <time>2022-10-02T10:31:27Z</time>
      </trkpt>
      <trkpt lat="47.03882" lon="6.10481">
        <ele>606.8</ele>
        <time>2022-10-02T10:31:32Z</time>
      </trkpt>
      <trkpt lat="47.03882" lon="6.10439">
        <ele>607</ele>
        <time>2022-10-02T10:31:40Z</time>
      </trkpt>
      <trkpt lat="47.03877" lon="6.10407">
        <ele>607</ele>
        <time>2022-10-02T10:31:47Z</time>
      </trkpt>
      <trkpt lat="47.03871" lon="6.10383">
        <ele>606.8</ele>
        <time>2022-10-02T10:31:53Z</time>
      </trkpt>
      <trkpt lat="47.03872" lon="6.10356">
        <ele>607.2</ele>
        <time>2022-10-02T10:31:58Z</time>
      </trkpt>
      <trkpt lat="47.03873" lon="6.10333">
        <ele>607.4</ele>
        <time>2022-10-02T10:32:02Z</time>
      </trkpt>
      <trkpt lat="47.03874" lon="6.10321">
        <ele>607.8</ele>
        <time>2022-10-02T10:32:04Z</time>
      </trkpt>
      <trkpt lat="47.03881" lon="6.10293">
        <ele>608.4</ele>
        <time>2022-10-02T10:32:26Z</time>
      </trkpt>
      <trkpt lat="47.03882" lon="6.10282">
        <ele>608.2</ele>
        <time>2022-10-02T10:32:29Z</time>
      </trkpt>
      <trkpt lat="47.03886" lon="6.10262">
        <ele>607</ele>
        <time>2022-10-02T10:32:34Z</time>
      </trkpt>
      <trkpt lat="47.03887" lon="6.10258">
        <ele>606.8</ele>
        <time>2022-10-02T10:32:35Z</time>
      </trkpt>
      <trkpt lat="47.03886" lon="6.10252">
        <ele>606.4</ele>
        <time>2022-10-02T10:32:36Z</time>
      </trkpt>
      <trkpt lat="47.03881" lon="6.10238">
        <ele>606.2</ele>
        <time>2022-10-02T10:32:39Z</time>
      </trkpt>
      <trkpt lat="47.03877" lon="6.10215">
        <ele>605</ele>
        <time>2022-10-02T10:32:44Z</time>
      </trkpt>
      <trkpt lat="47.03877" lon="6.10211">
        <ele>604.6</ele>
        <time>2022-10-02T10:32:45Z</time>
      </trkpt>
      <trkpt lat="47.03876" lon="6.10207">
        <ele>604</ele>
        <time>2022-10-02T10:32:46Z</time>
      </trkpt>
      <trkpt lat="47.03874" lon="6.10199">
        <ele>602.8</ele>
        <time>2022-10-02T10:32:48Z</time>
      </trkpt>
      <trkpt lat="47.03872" lon="6.10197">
        <ele>602.6</ele>
        <time>2022-10-02T10:32:49Z</time>
      </trkpt>
      <trkpt lat="47.03867" lon="6.1019">
        <ele>601.4</ele>
        <time>2022-10-02T10:32:52Z</time>
      </trkpt>
      <trkpt lat="47.03863" lon="6.10184">
        <ele>600.2</ele>
        <time>2022-10-02T10:32:54Z</time>
      </trkpt>
      <trkpt lat="47.03861" lon="6.1018">
        <ele>599.2</ele>
        <time>2022-10-02T10:32:56Z</time>
      </trkpt>
      <trkpt lat="47.0383" lon="6.10144">
        <ele>598.4</ele>
        <time>2022-10-02T10:33:22Z</time>
      </trkpt>
      <trkpt lat="47.03829" lon="6.10144">
        <ele>598.4</ele>
        <time>2022-10-02T10:33:23Z</time>
      </trkpt>
      <trkpt lat="47.03822" lon="6.10142">
        <ele>598</ele>
        <time>2022-10-02T10:33:29Z</time>
      </trkpt>
      <trkpt lat="47.03819" lon="6.10141">
        <ele>598</ele>
        <time>2022-10-02T10:33:31Z</time>
      </trkpt>
      <trkpt lat="47.03801" lon="6.10037">
        <ele>608.4</ele>
        <time>2022-10-02T10:34:30Z</time>
      </trkpt>
      <trkpt lat="47.03801" lon="6.10034">
        <ele>608.4</ele>
        <time>2022-10-02T10:34:31Z</time>
      </trkpt>
      <trkpt lat="47.03801" lon="6.10023">
        <ele>608.4</ele>
        <time>2022-10-02T10:34:35Z</time>
      </trkpt>
      <trkpt lat="47.03801" lon="6.10014">
        <ele>608.2</ele>
        <time>2022-10-02T10:34:39Z</time>
      </trkpt>
      <trkpt lat="47.03802" lon="6.09992">
        <ele>608.6</ele>
        <time>2022-10-02T10:34:46Z</time>
      </trkpt>
      <trkpt lat="47.038" lon="6.09975">
        <ele>609</ele>
        <time>2022-10-02T10:34:52Z</time>
      </trkpt>
      <trkpt lat="47.03796" lon="6.09959">
        <ele>608.8</ele>
        <time>2022-10-02T10:35:00Z</time>
      </trkpt>
      <trkpt lat="47.03792" lon="6.0994">
        <ele>608</ele>
        <time>2022-10-02T10:35:07Z</time>
      </trkpt>
      <trkpt lat="47.03791" lon="6.09931">
        <ele>607.4</ele>
        <time>2022-10-02T10:35:10Z</time>
      </trkpt>
      <trkpt lat="47.03793" lon="6.099">
        <ele>610.4</ele>
        <time>2022-10-02T10:35:26Z</time>
      </trkpt>
      <trkpt lat="47.03791" lon="6.09885">
        <ele>611.2</ele>
        <time>2022-10-02T10:35:31Z</time>
      </trkpt>
      <trkpt lat="47.0379" lon="6.09883">
        <ele>611.2</ele>
        <time>2022-10-02T10:35:32Z</time>
      </trkpt>
      <trkpt lat="47.03789" lon="6.0988">
        <ele>611.4</ele>
        <time>2022-10-02T10:35:33Z</time>
      </trkpt>
      <trkpt lat="47.03784" lon="6.09862">
        <ele>611.4</ele>
        <time>2022-10-02T10:35:39Z</time>
      </trkpt>
      <trkpt lat="47.0378" lon="6.09835">
        <ele>610.4</ele>
        <time>2022-10-02T10:35:45Z</time>
      </trkpt>
      <trkpt lat="47.0378" lon="6.0983">
        <ele>610.4</ele>
        <time>2022-10-02T10:35:46Z</time>
      </trkpt>
      <trkpt lat="47.03781" lon="6.09802">
        <ele>609.2</ele>
        <time>2022-10-02T10:35:52Z</time>
      </trkpt>
      <trkpt lat="47.0378" lon="6.09793">
        <ele>608.8</ele>
        <time>2022-10-02T10:35:54Z</time>
      </trkpt>
      <trkpt lat="47.03781" lon="6.09782">
        <ele>608</ele>
        <time>2022-10-02T10:35:56Z</time>
      </trkpt>
      <trkpt lat="47.0378" lon="6.09767">
        <ele>606.6</ele>
        <time>2022-10-02T10:35:59Z</time>
      </trkpt>
      <trkpt lat="47.03779" lon="6.09762">
        <ele>606.2</ele>
        <time>2022-10-02T10:36:00Z</time>
      </trkpt>
      <trkpt lat="47.03779" lon="6.09756">
        <ele>605.6</ele>
        <time>2022-10-02T10:36:01Z</time>
      </trkpt>
      <trkpt lat="47.03778" lon="6.09738">
        <ele>604</ele>
        <time>2022-10-02T10:36:04Z</time>
      </trkpt>
      <trkpt lat="47.03778" lon="6.09726">
        <ele>603</ele>
        <time>2022-10-02T10:36:06Z</time>
      </trkpt>
      <trkpt lat="47.03777" lon="6.0972">
        <ele>602.4</ele>
        <time>2022-10-02T10:36:07Z</time>
      </trkpt>
      <trkpt lat="47.03775" lon="6.09706">
        <ele>601.6</ele>
        <time>2022-10-02T10:36:09Z</time>
      </trkpt>
      <trkpt lat="47.03774" lon="6.09693">
        <ele>600.4</ele>
        <time>2022-10-02T10:36:11Z</time>
      </trkpt>
      <trkpt lat="47.03772" lon="6.09678">
        <ele>599.2</ele>
        <time>2022-10-02T10:36:13Z</time>
      </trkpt>
      <trkpt lat="47.0377" lon="6.09666">
        <ele>597.6</ele>
        <time>2022-10-02T10:36:15Z</time>
      </trkpt>
      <trkpt lat="47.03768" lon="6.09654">
        <ele>596.2</ele>
        <time>2022-10-02T10:36:17Z</time>
      </trkpt>
      <trkpt lat="47.03766" lon="6.09643">
        <ele>595.2</ele>
        <time>2022-10-02T10:36:19Z</time>
      </trkpt>
      <trkpt lat="47.03765" lon="6.09635">
        <ele>593.8</ele>
        <time>2022-10-02T10:36:21Z</time>
      </trkpt>
      <trkpt lat="47.03764" lon="6.09611">
        <ele>594.2</ele>
        <time>2022-10-02T10:36:26Z</time>
      </trkpt>
      <trkpt lat="47.03763" lon="6.09603">
        <ele>594.8</ele>
        <time>2022-10-02T10:36:28Z</time>
      </trkpt>
      <trkpt lat="47.03761" lon="6.09573">
        <ele>597.8</ele>
        <time>2022-10-02T10:36:40Z</time>
      </trkpt>
      <trkpt lat="47.03759" lon="6.0956">
        <ele>596.6</ele>
        <time>2022-10-02T10:36:43Z</time>
      </trkpt>
      <trkpt lat="47.03758" lon="6.09547">
        <ele>594.8</ele>
        <time>2022-10-02T10:36:46Z</time>
      </trkpt>
      <trkpt lat="47.03758" lon="6.09544">
        <ele>593.6</ele>
        <time>2022-10-02T10:36:47Z</time>
      </trkpt>
      <trkpt lat="47.0376" lon="6.09533">
        <ele>592.2</ele>
        <time>2022-10-02T10:36:50Z</time>
      </trkpt>
      <trkpt lat="47.03766" lon="6.09527">
        <ele>597</ele>
        <time>2022-10-02T10:38:32Z</time>
      </trkpt>
      <trkpt lat="47.0377" lon="6.09531">
        <ele>598.6</ele>
        <time>2022-10-02T10:38:34Z</time>
      </trkpt>
      <trkpt lat="47.03773" lon="6.09533">
        <ele>599.2</ele>
        <time>2022-10-02T10:38:35Z</time>
      </trkpt>
      <trkpt lat="47.0379" lon="6.0955">
        <ele>599.6</ele>
        <time>2022-10-02T10:38:41Z</time>
      </trkpt>
      <trkpt lat="47.03809" lon="6.09574">
        <ele>600</ele>
        <time>2022-10-02T10:38:48Z</time>
      </trkpt>
      <trkpt lat="47.03831" lon="6.09603">
        <ele>600.4</ele>
        <time>2022-10-02T10:38:54Z</time>
      </trkpt>
      <trkpt lat="47.03838" lon="6.09614">
        <ele>600.8</ele>
        <time>2022-10-02T10:38:56Z</time>
      </trkpt>
      <trkpt lat="47.03851" lon="6.09634">
        <ele>601.4</ele>
        <time>2022-10-02T10:39:00Z</time>
      </trkpt>
      <trkpt lat="47.03857" lon="6.09644">
        <ele>602</ele>
        <time>2022-10-02T10:39:02Z</time>
      </trkpt>
      <trkpt lat="47.03872" lon="6.09665">
        <ele>603.6</ele>
        <time>2022-10-02T10:39:07Z</time>
      </trkpt>
      <trkpt lat="47.03896" lon="6.0969">
        <ele>604.8</ele>
        <time>2022-10-02T10:39:14Z</time>
      </trkpt>
      <trkpt lat="47.0392" lon="6.09695">
        <ele>605.4</ele>
        <time>2022-10-02T10:39:20Z</time>
      </trkpt>
      <trkpt lat="47.03951" lon="6.09693">
        <ele>604.8</ele>
        <time>2022-10-02T10:39:27Z</time>
      </trkpt>
      <trkpt lat="47.03985" lon="6.09694">
        <ele>604.2</ele>
        <time>2022-10-02T10:39:33Z</time>
      </trkpt>
      <trkpt lat="47.03991" lon="6.09694">
        <ele>603.8</ele>
        <time>2022-10-02T10:39:34Z</time>
      </trkpt>
      <trkpt lat="47.03997" lon="6.09695">
        <ele>603.6</ele>
        <time>2022-10-02T10:39:35Z</time>
      </trkpt>
      <trkpt lat="47.04014" lon="6.09695">
        <ele>602.4</ele>
        <time>2022-10-02T10:39:38Z</time>
      </trkpt>
      <trkpt lat="47.04029" lon="6.09694">
        <ele>600.8</ele>
        <time>2022-10-02T10:39:41Z</time>
      </trkpt>
      <trkpt lat="47.04041" lon="6.09694">
        <ele>599.8</ele>
        <time>2022-10-02T10:39:43Z</time>
      </trkpt>
      <trkpt lat="47.04053" lon="6.09694">
        <ele>598.6</ele>
        <time>2022-10-02T10:39:45Z</time>
      </trkpt>
      <trkpt lat="47.04065" lon="6.09695">
        <ele>597.4</ele>
        <time>2022-10-02T10:39:47Z</time>
      </trkpt>
      <trkpt lat="47.04078" lon="6.09695">
        <ele>596</ele>
        <time>2022-10-02T10:39:49Z</time>
      </trkpt>
      <trkpt lat="47.04092" lon="6.09696">
        <ele>594.8</ele>
        <time>2022-10-02T10:39:51Z</time>
      </trkpt>
      <trkpt lat="47.04107" lon="6.09698">
        <ele>593.4</ele>
        <time>2022-10-02T10:39:53Z</time>
      </trkpt>
      <trkpt lat="47.04114" lon="6.097">
        <ele>593</ele>
        <time>2022-10-02T10:39:54Z</time>
      </trkpt>
      <trkpt lat="47.04122" lon="6.09701">
        <ele>592.2</ele>
        <time>2022-10-02T10:39:55Z</time>
      </trkpt>
      <trkpt lat="47.04143" lon="6.09706">
        <ele>591.2</ele>
        <time>2022-10-02T10:39:58Z</time>
      </trkpt>
      <trkpt lat="47.04156" lon="6.09708">
        <ele>590.8</ele>
        <time>2022-10-02T10:40:00Z</time>
      </trkpt>
      <trkpt lat="47.04179" lon="6.09707">
        <ele>589.8</ele>
        <time>2022-10-02T10:40:03Z</time>
      </trkpt>
      <trkpt lat="47.04202" lon="6.09709">
        <ele>588.8</ele>
        <time>2022-10-02T10:40:06Z</time>
      </trkpt>
      <trkpt lat="47.04226" lon="6.09712">
        <ele>587.8</ele>
        <time>2022-10-02T10:40:09Z</time>
      </trkpt>
      <trkpt lat="47.04248" lon="6.0971">
        <ele>586.8</ele>
        <time>2022-10-02T10:40:12Z</time>
      </trkpt>
      <trkpt lat="47.04272" lon="6.09707">
        <ele>585.4</ele>
        <time>2022-10-02T10:40:15Z</time>
      </trkpt>
      <trkpt lat="47.04289" lon="6.09704">
        <ele>584.4</ele>
        <time>2022-10-02T10:40:17Z</time>
      </trkpt>
      <trkpt lat="47.04305" lon="6.09701">
        <ele>583.2</ele>
        <time>2022-10-02T10:40:19Z</time>
      </trkpt>
      <trkpt lat="47.04327" lon="6.09697">
        <ele>581.6</ele>
        <time>2022-10-02T10:40:22Z</time>
      </trkpt>
      <trkpt lat="47.04337" lon="6.09693">
        <ele>580.8</ele>
        <time>2022-10-02T10:40:24Z</time>
      </trkpt>
      <trkpt lat="47.04341" lon="6.09692">
        <ele>580.4</ele>
        <time>2022-10-02T10:40:25Z</time>
      </trkpt>
      <trkpt lat="47.04351" lon="6.09687">
        <ele>579.4</ele>
        <time>2022-10-02T10:40:28Z</time>
      </trkpt>
      <trkpt lat="47.04354" lon="6.09683">
        <ele>578.6</ele>
        <time>2022-10-02T10:40:30Z</time>
      </trkpt>
      <trkpt lat="47.04355" lon="6.09678">
        <ele>578.2</ele>
        <time>2022-10-02T10:40:32Z</time>
      </trkpt>
      <trkpt lat="47.04351" lon="6.09666">
        <ele>577.2</ele>
        <time>2022-10-02T10:40:37Z</time>
      </trkpt>
      <trkpt lat="47.0435" lon="6.09659">
        <ele>576.8</ele>
        <time>2022-10-02T10:40:39Z</time>
      </trkpt>
      <trkpt lat="47.0435" lon="6.09642">
        <ele>576</ele>
        <time>2022-10-02T10:40:44Z</time>
      </trkpt>
      <trkpt lat="47.04351" lon="6.09633">
        <ele>575.2</ele>
        <time>2022-10-02T10:40:47Z</time>
      </trkpt>
      <trkpt lat="47.0435" lon="6.09626">
        <ele>574.8</ele>
        <time>2022-10-02T10:40:49Z</time>
      </trkpt>
      <trkpt lat="47.04348" lon="6.09595">
        <ele>568.8</ele>
        <time>2022-10-02T10:41:02Z</time>
      </trkpt>
      <trkpt lat="47.04348" lon="6.09592">
        <ele>568.2</ele>
        <time>2022-10-02T10:41:03Z</time>
      </trkpt>
      <trkpt lat="47.04346" lon="6.09585">
        <ele>567.6</ele>
        <time>2022-10-02T10:41:05Z</time>
      </trkpt>
      <trkpt lat="47.04345" lon="6.09574">
        <ele>566.6</ele>
        <time>2022-10-02T10:41:08Z</time>
      </trkpt>
      <trkpt lat="47.04345" lon="6.09568">
        <ele>565.8</ele>
        <time>2022-10-02T10:41:10Z</time>
      </trkpt>
      <trkpt lat="47.04345" lon="6.09565">
        <ele>565.4</ele>
        <time>2022-10-02T10:41:11Z</time>
      </trkpt>
      <trkpt lat="47.04344" lon="6.09551">
        <ele>564.4</ele>
        <time>2022-10-02T10:41:15Z</time>
      </trkpt>
      <trkpt lat="47.04344" lon="6.09542">
        <ele>564.4</ele>
        <time>2022-10-02T10:41:17Z</time>
      </trkpt>
      <trkpt lat="47.04344" lon="6.09527">
        <ele>563.4</ele>
        <time>2022-10-02T10:41:20Z</time>
      </trkpt>
      <trkpt lat="47.04344" lon="6.09518">
        <ele>561.4</ele>
        <time>2022-10-02T10:41:22Z</time>
      </trkpt>
      <trkpt lat="47.04343" lon="6.09513">
        <ele>560.4</ele>
        <time>2022-10-02T10:41:23Z</time>
      </trkpt>
      <trkpt lat="47.04341" lon="6.09477">
        <ele>559</ele>
        <time>2022-10-02T10:41:28Z</time>
      </trkpt>
      <trkpt lat="47.04341" lon="6.09471">
        <ele>558</ele>
        <time>2022-10-02T10:41:29Z</time>
      </trkpt>
      <trkpt lat="47.04341" lon="6.09463">
        <ele>556.4</ele>
        <time>2022-10-02T10:41:31Z</time>
      </trkpt>
      <trkpt lat="47.0434" lon="6.09448">
        <ele>555</ele>
        <time>2022-10-02T10:41:34Z</time>
      </trkpt>
      <trkpt lat="47.04339" lon="6.09439">
        <ele>553</ele>
        <time>2022-10-02T10:41:36Z</time>
      </trkpt>
      <trkpt lat="47.04338" lon="6.09429">
        <ele>551.6</ele>
        <time>2022-10-02T10:41:38Z</time>
      </trkpt>
      <trkpt lat="47.04336" lon="6.09413">
        <ele>552</ele>
        <time>2022-10-02T10:41:41Z</time>
      </trkpt>
      <trkpt lat="47.04334" lon="6.09395">
        <ele>549.8</ele>
        <time>2022-10-02T10:41:45Z</time>
      </trkpt>
      <trkpt lat="47.04332" lon="6.09382">
        <ele>548.6</ele>
        <time>2022-10-02T10:41:48Z</time>
      </trkpt>
      <trkpt lat="47.04329" lon="6.09355">
        <ele>549.4</ele>
        <time>2022-10-02T10:41:54Z</time>
      </trkpt>
      <trkpt lat="47.04335" lon="6.0927">
        <ele>545</ele>
        <time>2022-10-02T10:43:00Z</time>
      </trkpt>
      <trkpt lat="47.04339" lon="6.09268">
        <ele>545.2</ele>
        <time>2022-10-02T10:43:02Z</time>
      </trkpt>
      <trkpt lat="47.04361" lon="6.09261">
        <ele>543.6</ele>
        <time>2022-10-02T10:43:08Z</time>
      </trkpt>
      <trkpt lat="47.04374" lon="6.0926">
        <ele>542.6</ele>
        <time>2022-10-02T10:43:12Z</time>
      </trkpt>
      <trkpt lat="47.04379" lon="6.09258">
        <ele>542</ele>
        <time>2022-10-02T10:43:14Z</time>
      </trkpt>
      <trkpt lat="47.04385" lon="6.09258">
        <ele>541.6</ele>
        <time>2022-10-02T10:43:16Z</time>
      </trkpt>
      <trkpt lat="47.04398" lon="6.09253">
        <ele>540.4</ele>
        <time>2022-10-02T10:43:20Z</time>
      </trkpt>
      <trkpt lat="47.04405" lon="6.09251">
        <ele>539.4</ele>
        <time>2022-10-02T10:43:22Z</time>
      </trkpt>
      <trkpt lat="47.04413" lon="6.0925">
        <ele>538.4</ele>
        <time>2022-10-02T10:43:24Z</time>
      </trkpt>
      <trkpt lat="47.04416" lon="6.09249">
        <ele>537.8</ele>
        <time>2022-10-02T10:43:25Z</time>
      </trkpt>
      <trkpt lat="47.04419" lon="6.09248">
        <ele>537.2</ele>
        <time>2022-10-02T10:43:26Z</time>
      </trkpt>
      <trkpt lat="47.04423" lon="6.09246">
        <ele>536.2</ele>
        <time>2022-10-02T10:43:28Z</time>
      </trkpt>
      <trkpt lat="47.0443" lon="6.09246">
        <ele>535.2</ele>
        <time>2022-10-02T10:43:30Z</time>
      </trkpt>
      <trkpt lat="47.04437" lon="6.09249">
        <ele>534</ele>
        <time>2022-10-02T10:43:32Z</time>
      </trkpt>
      <trkpt lat="47.04444" lon="6.09251">
        <ele>532.8</ele>
        <time>2022-10-02T10:43:34Z</time>
      </trkpt>
      <trkpt lat="47.04448" lon="6.09252">
        <ele>532.4</ele>
        <time>2022-10-02T10:43:35Z</time>
      </trkpt>
      <trkpt lat="47.04452" lon="6.09253">
        <ele>531.8</ele>
        <time>2022-10-02T10:43:36Z</time>
      </trkpt>
      <trkpt lat="47.0446" lon="6.09252">
        <ele>530.6</ele>
        <time>2022-10-02T10:43:38Z</time>
      </trkpt>
      <trkpt lat="47.04469" lon="6.09249">
        <ele>529.6</ele>
        <time>2022-10-02T10:43:40Z</time>
      </trkpt>
      <trkpt lat="47.04479" lon="6.09247">
        <ele>528.2</ele>
        <time>2022-10-02T10:43:42Z</time>
      </trkpt>
      <trkpt lat="47.04483" lon="6.09247">
        <ele>527.6</ele>
        <time>2022-10-02T10:43:43Z</time>
      </trkpt>
      <trkpt lat="47.04488" lon="6.09247">
        <ele>526.8</ele>
        <time>2022-10-02T10:43:44Z</time>
      </trkpt>
      <trkpt lat="47.04496" lon="6.09247">
        <ele>525.2</ele>
        <time>2022-10-02T10:43:46Z</time>
      </trkpt>
      <trkpt lat="47.04501" lon="6.09246">
        <ele>524.6</ele>
        <time>2022-10-02T10:43:47Z</time>
      </trkpt>
      <trkpt lat="47.04505" lon="6.09246">
        <ele>524</ele>
        <time>2022-10-02T10:43:48Z</time>
      </trkpt>
      <trkpt lat="47.04514" lon="6.09246">
        <ele>522.8</ele>
        <time>2022-10-02T10:43:50Z</time>
      </trkpt>
      <trkpt lat="47.04523" lon="6.09244">
        <ele>521.6</ele>
        <time>2022-10-02T10:43:52Z</time>
      </trkpt>
      <trkpt lat="47.04527" lon="6.09243">
        <ele>521</ele>
        <time>2022-10-02T10:43:53Z</time>
      </trkpt>
      <trkpt lat="47.04531" lon="6.09242">
        <ele>520.6</ele>
        <time>2022-10-02T10:43:54Z</time>
      </trkpt>
      <trkpt lat="47.04542" lon="6.09237">
        <ele>519.4</ele>
        <time>2022-10-02T10:43:57Z</time>
      </trkpt>
      <trkpt lat="47.04548" lon="6.09233">
        <ele>518.6</ele>
        <time>2022-10-02T10:43:59Z</time>
      </trkpt>
      <trkpt lat="47.0455" lon="6.09232">
        <ele>518.4</ele>
        <time>2022-10-02T10:44:00Z</time>
      </trkpt>
      <trkpt lat="47.04562" lon="6.09219">
        <ele>518.4</ele>
        <time>2022-10-02T10:44:18Z</time>
      </trkpt>
      <trkpt lat="47.04578" lon="6.09212">
        <ele>517.8</ele>
        <time>2022-10-02T10:44:25Z</time>
      </trkpt>
      <trkpt lat="47.04597" lon="6.09201">
        <ele>518.8</ele>
        <time>2022-10-02T10:44:32Z</time>
      </trkpt>
      <trkpt lat="47.046" lon="6.09199">
        <ele>519.6</ele>
        <time>2022-10-02T10:44:33Z</time>
      </trkpt>
      <trkpt lat="47.04609" lon="6.09195">
        <ele>521.4</ele>
        <time>2022-10-02T10:44:35Z</time>
      </trkpt>
      <trkpt lat="47.04613" lon="6.09192">
        <ele>522.6</ele>
        <time>2022-10-02T10:44:36Z</time>
      </trkpt>
      <trkpt lat="47.04617" lon="6.0919">
        <ele>523.8</ele>
        <time>2022-10-02T10:44:37Z</time>
      </trkpt>
      <trkpt lat="47.0462" lon="6.09189">
        <ele>525.6</ele>
        <time>2022-10-02T10:44:39Z</time>
      </trkpt>
      <trkpt lat="47.04624" lon="6.09187">
        <ele>527.4</ele>
        <time>2022-10-02T10:44:40Z</time>
      </trkpt>
      <trkpt lat="47.0463" lon="6.09183">
        <ele>529</ele>
        <time>2022-10-02T10:44:42Z</time>
      </trkpt>
      <trkpt lat="47.04639" lon="6.09178">
        <ele>530.8</ele>
        <time>2022-10-02T10:44:45Z</time>
      </trkpt>
      <trkpt lat="47.04674" lon="6.09155">
        <ele>546.8</ele>
        <time>2022-10-02T10:45:10Z</time>
      </trkpt>
      <trkpt lat="47.04686" lon="6.09147">
        <ele>547.8</ele>
        <time>2022-10-02T10:45:15Z</time>
      </trkpt>
      <trkpt lat="47.0469" lon="6.09143">
        <ele>548.2</ele>
        <time>2022-10-02T10:45:18Z</time>
      </trkpt>
      <trkpt lat="47.04694" lon="6.09141">
        <ele>549</ele>
        <time>2022-10-02T10:45:21Z</time>
      </trkpt>
      <trkpt lat="47.0477" lon="6.09073">
        <ele>565.4</ele>
        <time>2022-10-02T10:46:54Z</time>
      </trkpt>
      <trkpt lat="47.04778" lon="6.09068">
        <ele>565</ele>
        <time>2022-10-02T10:46:58Z</time>
      </trkpt>
      <trkpt lat="47.04774" lon="6.09015">
        <ele>566</ele>
        <time>2022-10-02T10:47:22Z</time>
      </trkpt>
      <trkpt lat="47.04774" lon="6.09008">
        <ele>566</ele>
        <time>2022-10-02T10:47:24Z</time>
      </trkpt>
      <trkpt lat="47.04772" lon="6.0898">
        <ele>564.2</ele>
        <time>2022-10-02T10:47:33Z</time>
      </trkpt>
      <trkpt lat="47.0477" lon="6.08978">
        <ele>564.2</ele>
        <time>2022-10-02T10:47:34Z</time>
      </trkpt>
      <trkpt lat="47.04766" lon="6.08967">
        <ele>563.4</ele>
        <time>2022-10-02T10:47:37Z</time>
      </trkpt>
      <trkpt lat="47.04765" lon="6.08963">
        <ele>562.8</ele>
        <time>2022-10-02T10:47:38Z</time>
      </trkpt>
      <trkpt lat="47.04756" lon="6.08934">
        <ele>562.4</ele>
        <time>2022-10-02T10:47:45Z</time>
      </trkpt>
      <trkpt lat="47.04752" lon="6.08905">
        <ele>562.6</ele>
        <time>2022-10-02T10:47:51Z</time>
      </trkpt>
      <trkpt lat="47.04756" lon="6.08898">
        <ele>562.4</ele>
        <time>2022-10-02T10:47:55Z</time>
      </trkpt>
      <trkpt lat="47.04757" lon="6.08896">
        <ele>562.6</ele>
        <time>2022-10-02T10:47:56Z</time>
      </trkpt>
      <trkpt lat="47.0476" lon="6.08887">
        <ele>563</ele>
        <time>2022-10-02T10:48:00Z</time>
      </trkpt>
      <trkpt lat="47.04765" lon="6.08875">
        <ele>563</ele>
        <time>2022-10-02T10:48:02Z</time>
      </trkpt>
      <trkpt lat="47.04771" lon="6.08855">
        <ele>561.8</ele>
        <time>2022-10-02T10:48:06Z</time>
      </trkpt>
      <trkpt lat="47.04774" lon="6.08841">
        <ele>560.6</ele>
        <time>2022-10-02T10:48:08Z</time>
      </trkpt>
      <trkpt lat="47.04776" lon="6.08835">
        <ele>560</ele>
        <time>2022-10-02T10:48:09Z</time>
      </trkpt>
      <trkpt lat="47.04779" lon="6.0883">
        <ele>559.2</ele>
        <time>2022-10-02T10:48:10Z</time>
      </trkpt>
      <trkpt lat="47.04782" lon="6.08825">
        <ele>558.2</ele>
        <time>2022-10-02T10:48:11Z</time>
      </trkpt>
      <trkpt lat="47.04789" lon="6.08819">
        <ele>557.2</ele>
        <time>2022-10-02T10:48:12Z</time>
      </trkpt>
      <trkpt lat="47.04794" lon="6.08813">
        <ele>556.4</ele>
        <time>2022-10-02T10:48:13Z</time>
      </trkpt>
      <trkpt lat="47.04797" lon="6.08806">
        <ele>555.8</ele>
        <time>2022-10-02T10:48:14Z</time>
      </trkpt>
      <trkpt lat="47.04803" lon="6.08795">
        <ele>554.6</ele>
        <time>2022-10-02T10:48:16Z</time>
      </trkpt>
      <trkpt lat="47.04808" lon="6.0879">
        <ele>554</ele>
        <time>2022-10-02T10:48:17Z</time>
      </trkpt>
      <trkpt lat="47.04811" lon="6.08786">
        <ele>553.6</ele>
        <time>2022-10-02T10:48:18Z</time>
      </trkpt>
      <trkpt lat="47.04818" lon="6.08777">
        <ele>552.2</ele>
        <time>2022-10-02T10:48:20Z</time>
      </trkpt>
      <trkpt lat="47.04821" lon="6.08768">
        <ele>551.4</ele>
        <time>2022-10-02T10:48:22Z</time>
      </trkpt>
      <trkpt lat="47.04823" lon="6.08764">
        <ele>550.8</ele>
        <time>2022-10-02T10:48:23Z</time>
      </trkpt>
      <trkpt lat="47.0483" lon="6.08751">
        <ele>551.8</ele>
        <time>2022-10-02T10:48:27Z</time>
      </trkpt>
      <trkpt lat="47.04833" lon="6.08749">
        <ele>552</ele>
        <time>2022-10-02T10:48:28Z</time>
      </trkpt>
      <trkpt lat="47.04847" lon="6.08729">
        <ele>551.2</ele>
        <time>2022-10-02T10:48:36Z</time>
      </trkpt>
      <trkpt lat="47.04849" lon="6.08727">
        <ele>550.8</ele>
        <time>2022-10-02T10:48:37Z</time>
      </trkpt>
      <trkpt lat="47.0485" lon="6.08725">
        <ele>550.6</ele>
        <time>2022-10-02T10:48:38Z</time>
      </trkpt>
      <trkpt lat="47.04845" lon="6.08711">
        <ele>557</ele>
        <time>2022-10-02T10:52:08Z</time>
      </trkpt>
      <trkpt lat="47.04832" lon="6.08708">
        <ele>557.8</ele>
        <time>2022-10-02T10:52:15Z</time>
      </trkpt>
      <trkpt lat="47.04825" lon="6.08703">
        <ele>558.2</ele>
        <time>2022-10-02T10:52:19Z</time>
      </trkpt>
      <trkpt lat="47.04822" lon="6.08698">
        <ele>558.6</ele>
        <time>2022-10-02T10:52:21Z</time>
      </trkpt>
      <trkpt lat="47.04815" lon="6.08693">
        <ele>559.2</ele>
        <time>2022-10-02T10:52:24Z</time>
      </trkpt>
      <trkpt lat="47.0481" lon="6.0869">
        <ele>559.8</ele>
        <time>2022-10-02T10:52:26Z</time>
      </trkpt>
      <trkpt lat="47.04803" lon="6.08682">
        <ele>560.4</ele>
        <time>2022-10-02T10:52:30Z</time>
      </trkpt>
      <trkpt lat="47.048" lon="6.08677">
        <ele>560.8</ele>
        <time>2022-10-02T10:52:32Z</time>
      </trkpt>
      <trkpt lat="47.04789" lon="6.08666">
        <ele>561</ele>
        <time>2022-10-02T10:52:38Z</time>
      </trkpt>
      <trkpt lat="47.04783" lon="6.08663">
        <ele>561.6</ele>
        <time>2022-10-02T10:52:40Z</time>
      </trkpt>
      <trkpt lat="47.0478" lon="6.0866">
        <ele>561.6</ele>
        <time>2022-10-02T10:52:42Z</time>
      </trkpt>
      <trkpt lat="47.04778" lon="6.08656">
        <ele>561.4</ele>
        <time>2022-10-02T10:52:44Z</time>
      </trkpt>
      <trkpt lat="47.04773" lon="6.0865">
        <ele>560.4</ele>
        <time>2022-10-02T10:52:47Z</time>
      </trkpt>
      <trkpt lat="47.04769" lon="6.08645">
        <ele>560.2</ele>
        <time>2022-10-02T10:52:50Z</time>
      </trkpt>
      <trkpt lat="47.04758" lon="6.08633">
        <ele>561</ele>
        <time>2022-10-02T10:52:57Z</time>
      </trkpt>
      <trkpt lat="47.04753" lon="6.08628">
        <ele>561.6</ele>
        <time>2022-10-02T10:53:00Z</time>
      </trkpt>
      <trkpt lat="47.04744" lon="6.08622">
        <ele>562</ele>
        <time>2022-10-02T10:53:05Z</time>
      </trkpt>
      <trkpt lat="47.0473" lon="6.08612">
        <ele>562.6</ele>
        <time>2022-10-02T10:53:12Z</time>
      </trkpt>
      <trkpt lat="47.04728" lon="6.08611">
        <ele>563</ele>
        <time>2022-10-02T10:53:13Z</time>
      </trkpt>
      <trkpt lat="47.0472" lon="6.08606">
        <ele>564.2</ele>
        <time>2022-10-02T10:53:17Z</time>
      </trkpt>
      <trkpt lat="47.04716" lon="6.08603">
        <ele>564.6</ele>
        <time>2022-10-02T10:53:19Z</time>
      </trkpt>
      <trkpt lat="47.0471" lon="6.08598">
        <ele>565.4</ele>
        <time>2022-10-02T10:53:22Z</time>
      </trkpt>
      <trkpt lat="47.04702" lon="6.08589">
        <ele>566.4</ele>
        <time>2022-10-02T10:53:27Z</time>
      </trkpt>
      <trkpt lat="47.04691" lon="6.08575">
        <ele>567.2</ele>
        <time>2022-10-02T10:53:33Z</time>
      </trkpt>
      <trkpt lat="47.04687" lon="6.08571">
        <ele>568.2</ele>
        <time>2022-10-02T10:53:35Z</time>
      </trkpt>
      <trkpt lat="47.04677" lon="6.08564">
        <ele>568.8</ele>
        <time>2022-10-02T10:53:41Z</time>
      </trkpt>
      <trkpt lat="47.04673" lon="6.08563">
        <ele>569.2</ele>
        <time>2022-10-02T10:53:43Z</time>
      </trkpt>
      <trkpt lat="47.04664" lon="6.08556">
        <ele>569.8</ele>
        <time>2022-10-02T10:53:47Z</time>
      </trkpt>
      <trkpt lat="47.04661" lon="6.08553">
        <ele>570.2</ele>
        <time>2022-10-02T10:53:49Z</time>
      </trkpt>
      <trkpt lat="47.04656" lon="6.08552">
        <ele>570.6</ele>
        <time>2022-10-02T10:53:52Z</time>
      </trkpt>
      <trkpt lat="47.04642" lon="6.08553">
        <ele>571.2</ele>
        <time>2022-10-02T10:53:59Z</time>
      </trkpt>
      <trkpt lat="47.04637" lon="6.08556">
        <ele>571.2</ele>
        <time>2022-10-02T10:54:02Z</time>
      </trkpt>
      <trkpt lat="47.04632" lon="6.0856">
        <ele>571</ele>
        <time>2022-10-02T10:54:06Z</time>
      </trkpt>
      <trkpt lat="47.04619" lon="6.08566">
        <ele>570.8</ele>
        <time>2022-10-02T10:54:14Z</time>
      </trkpt>
      <trkpt lat="47.04618" lon="6.08566">
        <ele>570.8</ele>
        <time>2022-10-02T10:54:15Z</time>
      </trkpt>
      <trkpt lat="47.04609" lon="6.08563">
        <ele>571.4</ele>
        <time>2022-10-02T10:54:20Z</time>
      </trkpt>
      <trkpt lat="47.04595" lon="6.08554">
        <ele>571.8</ele>
        <time>2022-10-02T10:54:28Z</time>
      </trkpt>
      <trkpt lat="47.04589" lon="6.0855">
        <ele>572.4</ele>
        <time>2022-10-02T10:54:31Z</time>
      </trkpt>
      <trkpt lat="47.0458" lon="6.08541">
        <ele>572.6</ele>
        <time>2022-10-02T10:54:36Z</time>
      </trkpt>
      <trkpt lat="47.04565" lon="6.08532">
        <ele>573</ele>
        <time>2022-10-02T10:54:43Z</time>
      </trkpt>
      <trkpt lat="47.04552" lon="6.08528">
        <ele>572.8</ele>
        <time>2022-10-02T10:54:49Z</time>
      </trkpt>
      <trkpt lat="47.04536" lon="6.08522">
        <ele>573.6</ele>
        <time>2022-10-02T10:54:55Z</time>
      </trkpt>
      <trkpt lat="47.04533" lon="6.08521">
        <ele>573.6</ele>
        <time>2022-10-02T10:54:56Z</time>
      </trkpt>
      <trkpt lat="47.04515" lon="6.08512">
        <ele>573</ele>
        <time>2022-10-02T10:55:03Z</time>
      </trkpt>
      <trkpt lat="47.04505" lon="6.08504">
        <ele>572.4</ele>
        <time>2022-10-02T10:55:06Z</time>
      </trkpt>
      <trkpt lat="47.04495" lon="6.08498">
        <ele>572.4</ele>
        <time>2022-10-02T10:55:10Z</time>
      </trkpt>
      <trkpt lat="47.04477" lon="6.08497">
        <ele>572.4</ele>
        <time>2022-10-02T10:55:16Z</time>
      </trkpt>
      <trkpt lat="47.0446" lon="6.08496">
        <ele>571.8</ele>
        <time>2022-10-02T10:55:22Z</time>
      </trkpt>
      <trkpt lat="47.04453" lon="6.08496">
        <ele>571.2</ele>
        <time>2022-10-02T10:55:24Z</time>
      </trkpt>
      <trkpt lat="47.04444" lon="6.08494">
        <ele>571.2</ele>
        <time>2022-10-02T10:55:27Z</time>
      </trkpt>
      <trkpt lat="47.04422" lon="6.08484">
        <ele>571</ele>
        <time>2022-10-02T10:55:33Z</time>
      </trkpt>
      <trkpt lat="47.04406" lon="6.08483">
        <ele>571</ele>
        <time>2022-10-02T10:55:38Z</time>
      </trkpt>
      <trkpt lat="47.04386" lon="6.08489">
        <ele>570.4</ele>
        <time>2022-10-02T10:55:44Z</time>
      </trkpt>
      <trkpt lat="47.04383" lon="6.0849">
        <ele>570.2</ele>
        <time>2022-10-02T10:55:45Z</time>
      </trkpt>
      <trkpt lat="47.04366" lon="6.08494">
        <ele>569.2</ele>
        <time>2022-10-02T10:55:50Z</time>
      </trkpt>
      <trkpt lat="47.04363" lon="6.08495">
        <ele>569</ele>
        <time>2022-10-02T10:55:51Z</time>
      </trkpt>
      <trkpt lat="47.04353" lon="6.08503">
        <ele>569</ele>
        <time>2022-10-02T10:55:55Z</time>
      </trkpt>
      <trkpt lat="47.04336" lon="6.08509">
        <ele>569.4</ele>
        <time>2022-10-02T10:56:01Z</time>
      </trkpt>
      <trkpt lat="47.04318" lon="6.08516">
        <ele>568.6</ele>
        <time>2022-10-02T10:56:08Z</time>
      </trkpt>
      <trkpt lat="47.04297" lon="6.0853">
        <ele>568.4</ele>
        <time>2022-10-02T10:56:15Z</time>
      </trkpt>
      <trkpt lat="47.04276" lon="6.08542">
        <ele>568.8</ele>
        <time>2022-10-02T10:56:22Z</time>
      </trkpt>
      <trkpt lat="47.04269" lon="6.08543">
        <ele>569</ele>
        <time>2022-10-02T10:56:25Z</time>
      </trkpt>
      <trkpt lat="47.04265" lon="6.08546">
        <ele>569</ele>
        <time>2022-10-02T10:56:27Z</time>
      </trkpt>
      <trkpt lat="47.04252" lon="6.08555">
        <ele>568.6</ele>
        <time>2022-10-02T10:56:33Z</time>
      </trkpt>
      <trkpt lat="47.0424" lon="6.08565">
        <ele>568.8</ele>
        <time>2022-10-02T10:56:39Z</time>
      </trkpt>
      <trkpt lat="47.04224" lon="6.08573">
        <ele>569</ele>
        <time>2022-10-02T10:56:47Z</time>
      </trkpt>
      <trkpt lat="47.04214" lon="6.08582">
        <ele>569.4</ele>
        <time>2022-10-02T10:56:54Z</time>
      </trkpt>
      <trkpt lat="47.04202" lon="6.08592">
        <ele>570.6</ele>
        <time>2022-10-02T10:57:05Z</time>
      </trkpt>
      <trkpt lat="47.04197" lon="6.08591">
        <ele>571</ele>
        <time>2022-10-02T10:57:07Z</time>
      </trkpt>
      <trkpt lat="47.04191" lon="6.08592">
        <ele>571.8</ele>
        <time>2022-10-02T10:57:10Z</time>
      </trkpt>
      <trkpt lat="47.0418" lon="6.08605">
        <ele>573</ele>
        <time>2022-10-02T10:57:21Z</time>
      </trkpt>
      <trkpt lat="47.0418" lon="6.08607">
        <ele>573.4</ele>
        <time>2022-10-02T10:57:22Z</time>
      </trkpt>
      <trkpt lat="47.04183" lon="6.08695">
        <ele>588</ele>
        <time>2022-10-02T10:59:11Z</time>
      </trkpt>
      <trkpt lat="47.04183" lon="6.08697">
        <ele>588.4</ele>
        <time>2022-10-02T10:59:12Z</time>
      </trkpt>
      <trkpt lat="47.04184" lon="6.08706">
        <ele>589</ele>
        <time>2022-10-02T10:59:15Z</time>
      </trkpt>
      <trkpt lat="47.04185" lon="6.08715">
        <ele>589.4</ele>
        <time>2022-10-02T10:59:18Z</time>
      </trkpt>
      <trkpt lat="47.04183" lon="6.08728">
        <ele>590.4</ele>
        <time>2022-10-02T10:59:23Z</time>
      </trkpt>
      <trkpt lat="47.04179" lon="6.08733">
        <ele>591</ele>
        <time>2022-10-02T10:59:27Z</time>
      </trkpt>
      <trkpt lat="47.04178" lon="6.08733">
        <ele>591.4</ele>
        <time>2022-10-02T10:59:28Z</time>
      </trkpt>
      <trkpt lat="47.04167" lon="6.08729">
        <ele>592.2</ele>
        <time>2022-10-02T10:59:34Z</time>
      </trkpt>
      <trkpt lat="47.04163" lon="6.08727">
        <ele>592.4</ele>
        <time>2022-10-02T10:59:36Z</time>
      </trkpt>
      <trkpt lat="47.04153" lon="6.08723">
        <ele>593.4</ele>
        <time>2022-10-02T10:59:42Z</time>
      </trkpt>
      <trkpt lat="47.04151" lon="6.08722">
        <ele>593.4</ele>
        <time>2022-10-02T10:59:43Z</time>
      </trkpt>
      <trkpt lat="47.04143" lon="6.08718">
        <ele>594.8</ele>
        <time>2022-10-02T10:59:47Z</time>
      </trkpt>
      <trkpt lat="47.04139" lon="6.08717">
        <ele>595.6</ele>
        <time>2022-10-02T10:59:49Z</time>
      </trkpt>
      <trkpt lat="47.04136" lon="6.08716">
        <ele>595.8</ele>
        <time>2022-10-02T10:59:50Z</time>
      </trkpt>
      <trkpt lat="47.04129" lon="6.08714">
        <ele>597</ele>
        <time>2022-10-02T10:59:53Z</time>
      </trkpt>
      <trkpt lat="47.04122" lon="6.08712">
        <ele>597.4</ele>
        <time>2022-10-02T10:59:56Z</time>
      </trkpt>
      <trkpt lat="47.04118" lon="6.08711">
        <ele>598</ele>
        <time>2022-10-02T10:59:58Z</time>
      </trkpt>
      <trkpt lat="47.04109" lon="6.08707">
        <ele>598.4</ele>
        <time>2022-10-02T11:00:03Z</time>
      </trkpt>
      <trkpt lat="47.04098" lon="6.08707">
        <ele>598.6</ele>
        <time>2022-10-02T11:00:09Z</time>
      </trkpt>
      <trkpt lat="47.04089" lon="6.08706">
        <ele>599.8</ele>
        <time>2022-10-02T11:00:15Z</time>
      </trkpt>
      <trkpt lat="47.04088" lon="6.08705">
        <ele>600.2</ele>
        <time>2022-10-02T11:00:16Z</time>
      </trkpt>
      <trkpt lat="47.04047" lon="6.08703">
        <ele>605.2</ele>
        <time>2022-10-02T11:00:55Z</time>
      </trkpt>
      <trkpt lat="47.04039" lon="6.08702">
        <ele>605</ele>
        <time>2022-10-02T11:01:00Z</time>
      </trkpt>
      <trkpt lat="47.03995" lon="6.08702">
        <ele>611.4</ele>
        <time>2022-10-02T11:01:32Z</time>
      </trkpt>
      <trkpt lat="47.03991" lon="6.08702">
        <ele>612</ele>
        <time>2022-10-02T11:01:34Z</time>
      </trkpt>
      <trkpt lat="47.03985" lon="6.08703">
        <ele>612.6</ele>
        <time>2022-10-02T11:01:37Z</time>
      </trkpt>
      <trkpt lat="47.03971" lon="6.08704">
        <ele>612.8</ele>
        <time>2022-10-02T11:01:44Z</time>
      </trkpt>
      <trkpt lat="47.03955" lon="6.08706">
        <ele>612.2</ele>
        <time>2022-10-02T11:01:51Z</time>
      </trkpt>
      <trkpt lat="47.03943" lon="6.08706">
        <ele>611.4</ele>
        <time>2022-10-02T11:01:57Z</time>
      </trkpt>
      <trkpt lat="47.03937" lon="6.08708">
        <ele>610.8</ele>
        <time>2022-10-02T11:02:00Z</time>
      </trkpt>
      <trkpt lat="47.03934" lon="6.08708">
        <ele>610</ele>
        <time>2022-10-02T11:02:01Z</time>
      </trkpt>
      <trkpt lat="47.03928" lon="6.08708">
        <ele>609</ele>
        <time>2022-10-02T11:02:03Z</time>
      </trkpt>
      <trkpt lat="47.0392" lon="6.08709">
        <ele>608</ele>
        <time>2022-10-02T11:02:06Z</time>
      </trkpt>
      <trkpt lat="47.03914" lon="6.08711">
        <ele>607</ele>
        <time>2022-10-02T11:02:09Z</time>
      </trkpt>
      <trkpt lat="47.03911" lon="6.08711">
        <ele>606.8</ele>
        <time>2022-10-02T11:02:10Z</time>
      </trkpt>
      <trkpt lat="47.03904" lon="6.08711">
        <ele>605.8</ele>
        <time>2022-10-02T11:02:13Z</time>
      </trkpt>
      <trkpt lat="47.03901" lon="6.08711">
        <ele>605.4</ele>
        <time>2022-10-02T11:02:15Z</time>
      </trkpt>
      <trkpt lat="47.03898" lon="6.08712">
        <ele>604.8</ele>
        <time>2022-10-02T11:02:17Z</time>
      </trkpt>
      <trkpt lat="47.03891" lon="6.08712">
        <ele>605.2</ele>
        <time>2022-10-02T11:02:21Z</time>
      </trkpt>
      <trkpt lat="47.03877" lon="6.08715">
        <ele>604.8</ele>
        <time>2022-10-02T11:02:28Z</time>
      </trkpt>
      <trkpt lat="47.03861" lon="6.08719">
        <ele>603.2</ele>
        <time>2022-10-02T11:02:38Z</time>
      </trkpt>
      <trkpt lat="47.03859" lon="6.0872">
        <ele>603.4</ele>
        <time>2022-10-02T11:02:39Z</time>
      </trkpt>
      <trkpt lat="47.03845" lon="6.08723">
        <ele>602.2</ele>
        <time>2022-10-02T11:02:47Z</time>
      </trkpt>
      <trkpt lat="47.03834" lon="6.08725">
        <ele>601</ele>
        <time>2022-10-02T11:02:54Z</time>
      </trkpt>
      <trkpt lat="47.03827" lon="6.08726">
        <ele>601.2</ele>
        <time>2022-10-02T11:02:57Z</time>
      </trkpt>
      <trkpt lat="47.03814" lon="6.08725">
        <ele>602.2</ele>
        <time>2022-10-02T11:03:04Z</time>
      </trkpt>
      <trkpt lat="47.03782" lon="6.08729">
        <ele>606.6</ele>
        <time>2022-10-02T11:03:25Z</time>
      </trkpt>
      <trkpt lat="47.03777" lon="6.0873">
        <ele>607.6</ele>
        <time>2022-10-02T11:03:29Z</time>
      </trkpt>
      <trkpt lat="47.03773" lon="6.08732">
        <ele>608.2</ele>
        <time>2022-10-02T11:03:31Z</time>
      </trkpt>
      <trkpt lat="47.03768" lon="6.08734">
        <ele>609</ele>
        <time>2022-10-02T11:03:34Z</time>
      </trkpt>
      <trkpt lat="47.03758" lon="6.08735">
        <ele>609.2</ele>
        <time>2022-10-02T11:03:39Z</time>
      </trkpt>
      <trkpt lat="47.03749" lon="6.08736">
        <ele>610.2</ele>
        <time>2022-10-02T11:03:44Z</time>
      </trkpt>
      <trkpt lat="47.03745" lon="6.08737">
        <ele>610.6</ele>
        <time>2022-10-02T11:03:46Z</time>
      </trkpt>
      <trkpt lat="47.03738" lon="6.08737">
        <ele>611.4</ele>
        <time>2022-10-02T11:03:50Z</time>
      </trkpt>
      <trkpt lat="47.03733" lon="6.08738">
        <ele>611.4</ele>
        <time>2022-10-02T11:03:53Z</time>
      </trkpt>
      <trkpt lat="47.0372" lon="6.08746">
        <ele>611.4</ele>
        <time>2022-10-02T11:04:01Z</time>
      </trkpt>
      <trkpt lat="47.03701" lon="6.0876">
        <ele>612.8</ele>
        <time>2022-10-02T11:04:13Z</time>
      </trkpt>
      <trkpt lat="47.03698" lon="6.08762">
        <ele>612.6</ele>
        <time>2022-10-02T11:04:15Z</time>
      </trkpt>
      <trkpt lat="47.03687" lon="6.08768">
        <ele>612.8</ele>
        <time>2022-10-02T11:04:21Z</time>
      </trkpt>
      <trkpt lat="47.03678" lon="6.08776">
        <ele>612.2</ele>
        <time>2022-10-02T11:04:27Z</time>
      </trkpt>
      <trkpt lat="47.03667" lon="6.08782">
        <ele>612.6</ele>
        <time>2022-10-02T11:04:35Z</time>
      </trkpt>
      <trkpt lat="47.03658" lon="6.08792">
        <ele>613.4</ele>
        <time>2022-10-02T11:04:42Z</time>
      </trkpt>
      <trkpt lat="47.03647" lon="6.088">
        <ele>613.6</ele>
        <time>2022-10-02T11:04:49Z</time>
      </trkpt>
      <trkpt lat="47.03642" lon="6.08805">
        <ele>613.8</ele>
        <time>2022-10-02T11:04:52Z</time>
      </trkpt>
      <trkpt lat="47.03634" lon="6.08811">
        <ele>614.4</ele>
        <time>2022-10-02T11:04:57Z</time>
      </trkpt>
      <trkpt lat="47.03624" lon="6.08819">
        <ele>614.8</ele>
        <time>2022-10-02T11:05:04Z</time>
      </trkpt>
      <trkpt lat="47.03611" lon="6.08828">
        <ele>615</ele>
        <time>2022-10-02T11:05:12Z</time>
      </trkpt>
      <trkpt lat="47.03595" lon="6.08841">
        <ele>613.6</ele>
        <time>2022-10-02T11:05:20Z</time>
      </trkpt>
      <trkpt lat="47.03579" lon="6.08853">
        <ele>612.6</ele>
        <time>2022-10-02T11:05:27Z</time>
      </trkpt>
      <trkpt lat="47.03571" lon="6.08859">
        <ele>612.6</ele>
        <time>2022-10-02T11:05:30Z</time>
      </trkpt>
      <trkpt lat="47.0356" lon="6.08864">
        <ele>612.4</ele>
        <time>2022-10-02T11:05:34Z</time>
      </trkpt>
      <trkpt lat="47.03552" lon="6.08877">
        <ele>612.2</ele>
        <time>2022-10-02T11:05:39Z</time>
      </trkpt>
      <trkpt lat="47.03552" lon="6.08881">
        <ele>612.2</ele>
        <time>2022-10-02T11:05:40Z</time>
      </trkpt>
      <trkpt lat="47.03555" lon="6.08889">
        <ele>611.4</ele>
        <time>2022-10-02T11:05:43Z</time>
      </trkpt>
      <trkpt lat="47.03561" lon="6.08897">
        <ele>610.8</ele>
        <time>2022-10-02T11:05:47Z</time>
      </trkpt>
      <trkpt lat="47.03564" lon="6.08901">
        <ele>610.2</ele>
        <time>2022-10-02T11:05:49Z</time>
      </trkpt>
      <trkpt lat="47.03565" lon="6.08902">
        <ele>610</ele>
        <time>2022-10-02T11:05:50Z</time>
      </trkpt>
      <trkpt lat="47.03574" lon="6.08915">
        <ele>611.2</ele>
        <time>2022-10-02T11:05:59Z</time>
      </trkpt>
      <trkpt lat="47.03577" lon="6.08922">
        <ele>611.4</ele>
        <time>2022-10-02T11:06:03Z</time>
      </trkpt>
      <trkpt lat="47.03579" lon="6.08927">
        <ele>612</ele>
        <time>2022-10-02T11:06:05Z</time>
      </trkpt>
      <trkpt lat="47.0358" lon="6.08932">
        <ele>612.4</ele>
        <time>2022-10-02T11:06:07Z</time>
      </trkpt>
      <trkpt lat="47.03581" lon="6.08937">
        <ele>612.8</ele>
        <time>2022-10-02T11:06:09Z</time>
      </trkpt>
      <trkpt lat="47.03583" lon="6.08945">
        <ele>613.4</ele>
        <time>2022-10-02T11:06:12Z</time>
      </trkpt>
      <trkpt lat="47.03584" lon="6.08947">
        <ele>613.6</ele>
        <time>2022-10-02T11:06:13Z</time>
      </trkpt>
      <trkpt lat="47.03587" lon="6.0897">
        <ele>614.2</ele>
        <time>2022-10-02T11:06:21Z</time>
      </trkpt>
      <trkpt lat="47.03588" lon="6.08975">
        <ele>613.8</ele>
        <time>2022-10-02T11:06:23Z</time>
      </trkpt>
      <trkpt lat="47.0359" lon="6.08985">
        <ele>613.4</ele>
        <time>2022-10-02T11:06:27Z</time>
      </trkpt>
      <trkpt lat="47.03592" lon="6.09006">
        <ele>610.8</ele>
        <time>2022-10-02T11:07:56Z</time>
      </trkpt>
      <trkpt lat="47.03592" lon="6.09009">
        <ele>611</ele>
        <time>2022-10-02T11:07:57Z</time>
      </trkpt>
      <trkpt lat="47.03597" lon="6.09027">
        <ele>609.6</ele>
        <time>2022-10-02T11:08:03Z</time>
      </trkpt>
      <trkpt lat="47.03599" lon="6.09039">
        <ele>608.6</ele>
        <time>2022-10-02T11:08:06Z</time>
      </trkpt>
      <trkpt lat="47.03602" lon="6.09056">
        <ele>608</ele>
        <time>2022-10-02T11:08:10Z</time>
      </trkpt>
      <trkpt lat="47.03608" lon="6.09097">
        <ele>608</ele>
        <time>2022-10-02T11:08:19Z</time>
      </trkpt>
      <trkpt lat="47.03615" lon="6.09143">
        <ele>608.2</ele>
        <time>2022-10-02T11:08:28Z</time>
      </trkpt>
      <trkpt lat="47.03618" lon="6.0918">
        <ele>608.2</ele>
        <time>2022-10-02T11:08:34Z</time>
      </trkpt>
      <trkpt lat="47.0362" lon="6.09216">
        <ele>607.6</ele>
        <time>2022-10-02T11:08:39Z</time>
      </trkpt>
      <trkpt lat="47.03621" lon="6.09224">
        <ele>607.4</ele>
        <time>2022-10-02T11:08:40Z</time>
      </trkpt>
      <trkpt lat="47.0362" lon="6.09265">
        <ele>606.4</ele>
        <time>2022-10-02T11:08:45Z</time>
      </trkpt>
      <trkpt lat="47.0362" lon="6.09283">
        <ele>605.8</ele>
        <time>2022-10-02T11:08:47Z</time>
      </trkpt>
      <trkpt lat="47.03621" lon="6.093">
        <ele>605.4</ele>
        <time>2022-10-02T11:08:49Z</time>
      </trkpt>
      <trkpt lat="47.03622" lon="6.09318">
        <ele>605.2</ele>
        <time>2022-10-02T11:08:51Z</time>
      </trkpt>
      <trkpt lat="47.03628" lon="6.09355">
        <ele>604.6</ele>
        <time>2022-10-02T11:08:56Z</time>
      </trkpt>
      <trkpt lat="47.0363" lon="6.0937">
        <ele>604.4</ele>
        <time>2022-10-02T11:08:59Z</time>
      </trkpt>
      <trkpt lat="47.03629" lon="6.09374">
        <ele>604.2</ele>
        <time>2022-10-02T11:09:00Z</time>
      </trkpt>
      <trkpt lat="47.03628" lon="6.09385">
        <ele>604</ele>
        <time>2022-10-02T11:09:03Z</time>
      </trkpt>
      <trkpt lat="47.03628" lon="6.09393">
        <ele>603.6</ele>
        <time>2022-10-02T11:09:05Z</time>
      </trkpt>
      <trkpt lat="47.03628" lon="6.09402">
        <ele>603</ele>
        <time>2022-10-02T11:09:07Z</time>
      </trkpt>
      <trkpt lat="47.03629" lon="6.09416">
        <ele>602.4</ele>
        <time>2022-10-02T11:09:10Z</time>
      </trkpt>
      <trkpt lat="47.0363" lon="6.09439">
        <ele>602.8</ele>
        <time>2022-10-02T11:09:16Z</time>
      </trkpt>
      <trkpt lat="47.03628" lon="6.09462">
        <ele>603.2</ele>
        <time>2022-10-02T11:09:22Z</time>
      </trkpt>
      <trkpt lat="47.0363" lon="6.09467">
        <ele>603.6</ele>
        <time>2022-10-02T11:09:24Z</time>
      </trkpt>
      <trkpt lat="47.03632" lon="6.0948">
        <ele>604</ele>
        <time>2022-10-02T11:09:28Z</time>
      </trkpt>
      <trkpt lat="47.03631" lon="6.09484">
        <ele>604.2</ele>
        <time>2022-10-02T11:09:29Z</time>
      </trkpt>
      <trkpt lat="47.03635" lon="6.09507">
        <ele>605.2</ele>
        <time>2022-10-02T11:09:35Z</time>
      </trkpt>
      <trkpt lat="47.03635" lon="6.09515">
        <ele>605.4</ele>
        <time>2022-10-02T11:09:37Z</time>
      </trkpt>
      <trkpt lat="47.03637" lon="6.09533">
        <ele>605.2</ele>
        <time>2022-10-02T11:09:42Z</time>
      </trkpt>
      <trkpt lat="47.03644" lon="6.09583">
        <ele>608.6</ele>
        <time>2022-10-02T11:09:56Z</time>
      </trkpt>
      <trkpt lat="47.03644" lon="6.09587">
        <ele>609</ele>
        <time>2022-10-02T11:09:57Z</time>
      </trkpt>
      <trkpt lat="47.03645" lon="6.09609">
        <ele>610.8</ele>
        <time>2022-10-02T11:10:03Z</time>
      </trkpt>
      <trkpt lat="47.03646" lon="6.09613">
        <ele>612</ele>
        <time>2022-10-02T11:10:04Z</time>
      </trkpt>
      <trkpt lat="47.03646" lon="6.09617">
        <ele>613.2</ele>
        <time>2022-10-02T11:10:05Z</time>
      </trkpt>
      <trkpt lat="47.03647" lon="6.09623">
        <ele>614.4</ele>
        <time>2022-10-02T11:10:07Z</time>
      </trkpt>
      <trkpt lat="47.03647" lon="6.09634">
        <ele>616.2</ele>
        <time>2022-10-02T11:10:10Z</time>
      </trkpt>
      <trkpt lat="47.03648" lon="6.0964">
        <ele>617.4</ele>
        <time>2022-10-02T11:10:12Z</time>
      </trkpt>
      <trkpt lat="47.0365" lon="6.0965">
        <ele>618.6</ele>
        <time>2022-10-02T11:10:15Z</time>
      </trkpt>
      <trkpt lat="47.03652" lon="6.09668">
        <ele>618.6</ele>
        <time>2022-10-02T11:10:19Z</time>
      </trkpt>
      <trkpt lat="47.03652" lon="6.09679">
        <ele>617.6</ele>
        <time>2022-10-02T11:10:22Z</time>
      </trkpt>
      <trkpt lat="47.03651" lon="6.09695">
        <ele>617.2</ele>
        <time>2022-10-02T11:10:26Z</time>
      </trkpt>
      <trkpt lat="47.03651" lon="6.0972">
        <ele>616.8</ele>
        <time>2022-10-02T11:10:32Z</time>
      </trkpt>
      <trkpt lat="47.03652" lon="6.09737">
        <ele>616.2</ele>
        <time>2022-10-02T11:10:36Z</time>
      </trkpt>
      <trkpt lat="47.03652" lon="6.0975">
        <ele>615.8</ele>
        <time>2022-10-02T11:10:39Z</time>
      </trkpt>
      <trkpt lat="47.03653" lon="6.09764">
        <ele>615</ele>
        <time>2022-10-02T11:10:42Z</time>
      </trkpt>
      <trkpt lat="47.03656" lon="6.09776">
        <ele>614.8</ele>
        <time>2022-10-02T11:10:45Z</time>
      </trkpt>
      <trkpt lat="47.03661" lon="6.09806">
        <ele>615</ele>
        <time>2022-10-02T11:10:53Z</time>
      </trkpt>
      <trkpt lat="47.03664" lon="6.09828">
        <ele>614.6</ele>
        <time>2022-10-02T11:10:59Z</time>
      </trkpt>
      <trkpt lat="47.03666" lon="6.09857">
        <ele>614.4</ele>
        <time>2022-10-02T11:11:06Z</time>
      </trkpt>
      <trkpt lat="47.03667" lon="6.09878">
        <ele>613.6</ele>
        <time>2022-10-02T11:11:10Z</time>
      </trkpt>
      <trkpt lat="47.03669" lon="6.09889">
        <ele>613</ele>
        <time>2022-10-02T11:11:12Z</time>
      </trkpt>
      <trkpt lat="47.03671" lon="6.09923">
        <ele>612.6</ele>
        <time>2022-10-02T11:11:18Z</time>
      </trkpt>
      <trkpt lat="47.03671" lon="6.09929">
        <ele>612.6</ele>
        <time>2022-10-02T11:11:19Z</time>
      </trkpt>
      <trkpt lat="47.03674" lon="6.09967">
        <ele>611.6</ele>
        <time>2022-10-02T11:11:25Z</time>
      </trkpt>
      <trkpt lat="47.03675" lon="6.09974">
        <ele>611</ele>
        <time>2022-10-02T11:11:26Z</time>
      </trkpt>
      <trkpt lat="47.03677" lon="6.09989">
        <ele>610.2</ele>
        <time>2022-10-02T11:11:28Z</time>
      </trkpt>
      <trkpt lat="47.03679" lon="6.10013">
        <ele>609.2</ele>
        <time>2022-10-02T11:11:31Z</time>
      </trkpt>
      <trkpt lat="47.0368" lon="6.10021">
        <ele>609</ele>
        <time>2022-10-02T11:11:32Z</time>
      </trkpt>
      <trkpt lat="47.03684" lon="6.10048">
        <ele>607.8</ele>
        <time>2022-10-02T11:11:35Z</time>
      </trkpt>
      <trkpt lat="47.03686" lon="6.10057">
        <ele>607.4</ele>
        <time>2022-10-02T11:11:36Z</time>
      </trkpt>
      <trkpt lat="47.0369" lon="6.10072">
        <ele>606.4</ele>
        <time>2022-10-02T11:11:38Z</time>
      </trkpt>
      <trkpt lat="47.03691" lon="6.1008">
        <ele>606</ele>
        <time>2022-10-02T11:11:39Z</time>
      </trkpt>
      <trkpt lat="47.03692" lon="6.10093">
        <ele>605.2</ele>
        <time>2022-10-02T11:11:41Z</time>
      </trkpt>
      <trkpt lat="47.03692" lon="6.10098">
        <ele>604.8</ele>
        <time>2022-10-02T11:11:42Z</time>
      </trkpt>
      <trkpt lat="47.03694" lon="6.10108">
        <ele>604</ele>
        <time>2022-10-02T11:11:44Z</time>
      </trkpt>
      <trkpt lat="47.03697" lon="6.10121">
        <ele>603</ele>
        <time>2022-10-02T11:11:47Z</time>
      </trkpt>
      <trkpt lat="47.03698" lon="6.10131">
        <ele>602</ele>
        <time>2022-10-02T11:11:50Z</time>
      </trkpt>
      <trkpt lat="47.03696" lon="6.10135">
        <ele>601.6</ele>
        <time>2022-10-02T11:11:52Z</time>
      </trkpt>
      <trkpt lat="47.03695" lon="6.10135">
        <ele>601.4</ele>
        <time>2022-10-02T11:11:53Z</time>
      </trkpt>
      <trkpt lat="47.03691" lon="6.10133">
        <ele>600.8</ele>
        <time>2022-10-02T11:11:55Z</time>
      </trkpt>
      <trkpt lat="47.03688" lon="6.10132">
        <ele>600.8</ele>
        <time>2022-10-02T11:11:56Z</time>
      </trkpt>
      <trkpt lat="47.03669" lon="6.10126">
        <ele>601.4</ele>
        <time>2022-10-02T11:12:03Z</time>
      </trkpt>
      <trkpt lat="47.03663" lon="6.10125">
        <ele>602</ele>
        <time>2022-10-02T11:12:05Z</time>
      </trkpt>
      <trkpt lat="47.03651" lon="6.10123">
        <ele>602.6</ele>
        <time>2022-10-02T11:12:11Z</time>
      </trkpt>
      <trkpt lat="47.03644" lon="6.10121">
        <ele>603.2</ele>
        <time>2022-10-02T11:12:14Z</time>
      </trkpt>
      <trkpt lat="47.03633" lon="6.10119">
        <ele>604</ele>
        <time>2022-10-02T11:12:19Z</time>
      </trkpt>
      <trkpt lat="47.03631" lon="6.10121">
        <ele>604.2</ele>
        <time>2022-10-02T11:12:20Z</time>
      </trkpt>
      <trkpt lat="47.03627" lon="6.10131">
        <ele>604.6</ele>
        <time>2022-10-02T11:12:23Z</time>
      </trkpt>
      <trkpt lat="47.03624" lon="6.1014">
        <ele>604.8</ele>
        <time>2022-10-02T11:12:25Z</time>
      </trkpt>
      <trkpt lat="47.03617" lon="6.10155">
        <ele>604.2</ele>
        <time>2022-10-02T11:12:29Z</time>
      </trkpt>
      <trkpt lat="47.03615" lon="6.10157">
        <ele>604</ele>
        <time>2022-10-02T11:12:30Z</time>
      </trkpt>
      <trkpt lat="47.03605" lon="6.10152">
        <ele>604.4</ele>
        <time>2022-10-02T11:12:34Z</time>
      </trkpt>
      <trkpt lat="47.03598" lon="6.10144">
        <ele>605.2</ele>
        <time>2022-10-02T11:12:38Z</time>
      </trkpt>
      <trkpt lat="47.03596" lon="6.10139">
        <ele>605.6</ele>
        <time>2022-10-02T11:12:40Z</time>
      </trkpt>
      <trkpt lat="47.03584" lon="6.10116">
        <ele>606.6</ele>
        <time>2022-10-02T11:12:49Z</time>
      </trkpt>
      <trkpt lat="47.03583" lon="6.10114">
        <ele>606.8</ele>
        <time>2022-10-02T11:12:50Z</time>
      </trkpt>
      <trkpt lat="47.03572" lon="6.10092">
        <ele>606.6</ele>
        <time>2022-10-02T11:12:58Z</time>
      </trkpt>
      <trkpt lat="47.03566" lon="6.10081">
        <ele>607.6</ele>
        <time>2022-10-02T11:13:03Z</time>
      </trkpt>
      <trkpt lat="47.03559" lon="6.10073">
        <ele>608.2</ele>
        <time>2022-10-02T11:13:07Z</time>
      </trkpt>
      <trkpt lat="47.03548" lon="6.10062">
        <ele>608.4</ele>
        <time>2022-10-02T11:13:14Z</time>
      </trkpt>
      <trkpt lat="47.03546" lon="6.10062">
        <ele>608.4</ele>
        <time>2022-10-02T11:13:15Z</time>
      </trkpt>
      <trkpt lat="47.03543" lon="6.10067">
        <ele>608.4</ele>
        <time>2022-10-02T11:13:17Z</time>
      </trkpt>
      <trkpt lat="47.03542" lon="6.10074">
        <ele>608.4</ele>
        <time>2022-10-02T11:13:19Z</time>
      </trkpt>
      <trkpt lat="47.0354" lon="6.10082">
        <ele>608.6</ele>
        <time>2022-10-02T11:13:21Z</time>
      </trkpt>
      <trkpt lat="47.03537" lon="6.10094">
        <ele>609</ele>
        <time>2022-10-02T11:13:24Z</time>
      </trkpt>
      <trkpt lat="47.03532" lon="6.10111">
        <ele>609.6</ele>
        <time>2022-10-02T11:13:29Z</time>
      </trkpt>
      <trkpt lat="47.03529" lon="6.10121">
        <ele>610</ele>
        <time>2022-10-02T11:13:32Z</time>
      </trkpt>
      <trkpt lat="47.03522" lon="6.10146">
        <ele>610.6</ele>
        <time>2022-10-02T11:13:40Z</time>
      </trkpt>
      <trkpt lat="47.03521" lon="6.10153">
        <ele>610.8</ele>
        <time>2022-10-02T11:13:42Z</time>
      </trkpt>
      <trkpt lat="47.03517" lon="6.10165">
        <ele>610.8</ele>
        <time>2022-10-02T11:13:46Z</time>
      </trkpt>
      <trkpt lat="47.03513" lon="6.10182">
        <ele>611.4</ele>
        <time>2022-10-02T11:13:52Z</time>
      </trkpt>
      <trkpt lat="47.03511" lon="6.1019">
        <ele>611.8</ele>
        <time>2022-10-02T11:13:55Z</time>
      </trkpt>
      <trkpt lat="47.03509" lon="6.10202">
        <ele>612.6</ele>
        <time>2022-10-02T11:14:00Z</time>
      </trkpt>
      <trkpt lat="47.03508" lon="6.10204">
        <ele>612.8</ele>
        <time>2022-10-02T11:14:01Z</time>
      </trkpt>
      <trkpt lat="47.03506" lon="6.10215">
        <ele>614</ele>
        <time>2022-10-02T11:14:05Z</time>
      </trkpt>
      <trkpt lat="47.03505" lon="6.10217">
        <ele>614</ele>
        <time>2022-10-02T11:14:06Z</time>
      </trkpt>
      <trkpt lat="47.03499" lon="6.10238">
        <ele>615</ele>
        <time>2022-10-02T11:14:14Z</time>
      </trkpt>
      <trkpt lat="47.03498" lon="6.10243">
        <ele>615.2</ele>
        <time>2022-10-02T11:14:16Z</time>
      </trkpt>
      <trkpt lat="47.03495" lon="6.10257">
        <ele>615.8</ele>
        <time>2022-10-02T11:14:22Z</time>
      </trkpt>
      <trkpt lat="47.03494" lon="6.10262">
        <ele>616</ele>
        <time>2022-10-02T11:14:24Z</time>
      </trkpt>
      <trkpt lat="47.03492" lon="6.10271">
        <ele>616.8</ele>
        <time>2022-10-02T11:14:28Z</time>
      </trkpt>
      <trkpt lat="47.03489" lon="6.10281">
        <ele>617</ele>
        <time>2022-10-02T11:14:34Z</time>
      </trkpt>
      <trkpt lat="47.03487" lon="6.10287">
        <ele>617.6</ele>
        <time>2022-10-02T11:14:38Z</time>
      </trkpt>
      <trkpt lat="47.03483" lon="6.1029">
        <ele>617.6</ele>
        <time>2022-10-02T11:14:41Z</time>
      </trkpt>
      <trkpt lat="47.03482" lon="6.10291">
        <ele>617.6</ele>
        <time>2022-10-02T11:14:42Z</time>
      </trkpt>
      <trkpt lat="47.03477" lon="6.10294">
        <ele>618.2</ele>
        <time>2022-10-02T11:14:47Z</time>
      </trkpt>
      <trkpt lat="47.03476" lon="6.10295">
        <ele>618.4</ele>
        <time>2022-10-02T11:14:48Z</time>
      </trkpt>
      <trkpt lat="47.03474" lon="6.10295">
        <ele>618.6</ele>
        <time>2022-10-02T11:14:49Z</time>
      </trkpt>
      <trkpt lat="47.0346" lon="6.103">
        <ele>618.6</ele>
        <time>2022-10-02T11:14:57Z</time>
      </trkpt>
      <trkpt lat="47.03449" lon="6.10305">
        <ele>618.8</ele>
        <time>2022-10-02T11:15:04Z</time>
      </trkpt>
      <trkpt lat="47.03441" lon="6.1031">
        <ele>619.2</ele>
        <time>2022-10-02T11:15:10Z</time>
      </trkpt>
      <trkpt lat="47.0344" lon="6.10312">
        <ele>619.2</ele>
        <time>2022-10-02T11:15:12Z</time>
      </trkpt>
      <trkpt lat="47.03437" lon="6.10319">
        <ele>619.2</ele>
        <time>2022-10-02T11:15:16Z</time>
      </trkpt>
      <trkpt lat="47.03436" lon="6.10325">
        <ele>619</ele>
        <time>2022-10-02T11:15:18Z</time>
      </trkpt>
      <trkpt lat="47.03435" lon="6.10334">
        <ele>619</ele>
        <time>2022-10-02T11:15:20Z</time>
      </trkpt>
      <trkpt lat="47.03433" lon="6.10367">
        <ele>618.2</ele>
        <time>2022-10-02T11:15:25Z</time>
      </trkpt>
      <trkpt lat="47.03431" lon="6.10391">
        <ele>617.4</ele>
        <time>2022-10-02T11:15:28Z</time>
      </trkpt>
      <trkpt lat="47.0343" lon="6.104">
        <ele>617.2</ele>
        <time>2022-10-02T11:15:29Z</time>
      </trkpt>
      <trkpt lat="47.03429" lon="6.1041">
        <ele>617</ele>
        <time>2022-10-02T11:15:30Z</time>
      </trkpt>
      <trkpt lat="47.03428" lon="6.10439">
        <ele>616</ele>
        <time>2022-10-02T11:15:33Z</time>
      </trkpt>
      <trkpt lat="47.03426" lon="6.10461">
        <ele>615.2</ele>
        <time>2022-10-02T11:15:35Z</time>
      </trkpt>
      <trkpt lat="47.03425" lon="6.10472">
        <ele>614.8</ele>
        <time>2022-10-02T11:15:36Z</time>
      </trkpt>
      <trkpt lat="47.03423" lon="6.10506">
        <ele>613.4</ele>
        <time>2022-10-02T11:15:39Z</time>
      </trkpt>
      <trkpt lat="47.03421" lon="6.10541">
        <ele>612.4</ele>
        <time>2022-10-02T11:15:42Z</time>
      </trkpt>
      <trkpt lat="47.03419" lon="6.10577">
        <ele>611.4</ele>
        <time>2022-10-02T11:15:45Z</time>
      </trkpt>
      <trkpt lat="47.03416" lon="6.10614">
        <ele>610</ele>
        <time>2022-10-02T11:15:48Z</time>
      </trkpt>
      <trkpt lat="47.03415" lon="6.10626">
        <ele>609.6</ele>
        <time>2022-10-02T11:15:49Z</time>
      </trkpt>
      <trkpt lat="47.03414" lon="6.10651">
        <ele>608.6</ele>
        <time>2022-10-02T11:15:51Z</time>
      </trkpt>
      <trkpt lat="47.03413" lon="6.10676">
        <ele>607.6</ele>
        <time>2022-10-02T11:15:53Z</time>
      </trkpt>
      <trkpt lat="47.03412" lon="6.10699">
        <ele>606.4</ele>
        <time>2022-10-02T11:15:55Z</time>
      </trkpt>
      <trkpt lat="47.03411" lon="6.10711">
        <ele>605.8</ele>
        <time>2022-10-02T11:15:56Z</time>
      </trkpt>
      <trkpt lat="47.0341" lon="6.10721">
        <ele>605.2</ele>
        <time>2022-10-02T11:15:57Z</time>
      </trkpt>
      <trkpt lat="47.03409" lon="6.10741">
        <ele>604</ele>
        <time>2022-10-02T11:15:59Z</time>
      </trkpt>
      <trkpt lat="47.03408" lon="6.1075">
        <ele>603.6</ele>
        <time>2022-10-02T11:16:00Z</time>
      </trkpt>
      <trkpt lat="47.03407" lon="6.10759">
        <ele>603</ele>
        <time>2022-10-02T11:16:01Z</time>
      </trkpt>
      <trkpt lat="47.03407" lon="6.10766">
        <ele>602.8</ele>
        <time>2022-10-02T11:16:02Z</time>
      </trkpt>
      <trkpt lat="47.03411" lon="6.10779">
        <ele>602.2</ele>
        <time>2022-10-02T11:16:04Z</time>
      </trkpt>
      <trkpt lat="47.03421" lon="6.10784">
        <ele>601.6</ele>
        <time>2022-10-02T11:16:06Z</time>
      </trkpt>
      <trkpt lat="47.03427" lon="6.10784">
        <ele>601.4</ele>
        <time>2022-10-02T11:16:07Z</time>
      </trkpt>
      <trkpt lat="47.03437" lon="6.10782">
        <ele>601</ele>
        <time>2022-10-02T11:16:09Z</time>
      </trkpt>
      <trkpt lat="47.03459" lon="6.10782">
        <ele>600.8</ele>
        <time>2022-10-02T11:16:13Z</time>
      </trkpt>
      <trkpt lat="47.03498" lon="6.10781">
        <ele>601</ele>
        <time>2022-10-02T11:16:21Z</time>
      </trkpt>
      <trkpt lat="47.03517" lon="6.10781">
        <ele>601.6</ele>
        <time>2022-10-02T11:16:27Z</time>
      </trkpt>
      <trkpt lat="47.03522" lon="6.10782">
        <ele>601.6</ele>
        <time>2022-10-02T11:16:28Z</time>
      </trkpt>
      <trkpt lat="47.0355" lon="6.10781">
        <ele>602.6</ele>
        <time>2022-10-02T11:16:34Z</time>
      </trkpt>
      <trkpt lat="47.03559" lon="6.10781">
        <ele>603</ele>
        <time>2022-10-02T11:16:36Z</time>
      </trkpt>
      <trkpt lat="47.03581" lon="6.1078">
        <ele>603.8</ele>
        <time>2022-10-02T11:16:41Z</time>
      </trkpt>
      <trkpt lat="47.03593" lon="6.1078">
        <ele>604.2</ele>
        <time>2022-10-02T11:16:44Z</time>
      </trkpt>
      <trkpt lat="47.0361" lon="6.1078">
        <ele>604.8</ele>
        <time>2022-10-02T11:16:48Z</time>
      </trkpt>
      <trkpt lat="47.03624" lon="6.10779">
        <ele>605.4</ele>
        <time>2022-10-02T11:16:51Z</time>
      </trkpt>
      <trkpt lat="47.03628" lon="6.10779">
        <ele>605.4</ele>
        <time>2022-10-02T11:16:52Z</time>
      </trkpt>
      <trkpt lat="47.03638" lon="6.10779">
        <ele>606</ele>
        <time>2022-10-02T11:16:54Z</time>
      </trkpt>
      <trkpt lat="47.0367" lon="6.10778">
        <ele>607</ele>
        <time>2022-10-02T11:17:01Z</time>
      </trkpt>
      <trkpt lat="47.03679" lon="6.10778">
        <ele>607.4</ele>
        <time>2022-10-02T11:17:03Z</time>
      </trkpt>
      <trkpt lat="47.03712" lon="6.10777">
        <ele>608</ele>
        <time>2022-10-02T11:17:10Z</time>
      </trkpt>
      <trkpt lat="47.03717" lon="6.10777">
        <ele>608.2</ele>
        <time>2022-10-02T11:17:11Z</time>
      </trkpt>
      <trkpt lat="47.03748" lon="6.10777">
        <ele>608.8</ele>
        <time>2022-10-02T11:17:18Z</time>
      </trkpt>
      <trkpt lat="47.03791" lon="6.10777">
        <ele>609</ele>
        <time>2022-10-02T11:17:27Z</time>
      </trkpt>
      <trkpt lat="47.03795" lon="6.10776">
        <ele>609</ele>
        <time>2022-10-02T11:17:28Z</time>
      </trkpt>
      <trkpt lat="47.03807" lon="6.10776">
        <ele>609.2</ele>
        <time>2022-10-02T11:17:31Z</time>
      </trkpt>
      <trkpt lat="47.03824" lon="6.10775">
        <ele>609</ele>
        <time>2022-10-02T11:17:35Z</time>
      </trkpt>
      <trkpt lat="47.03862" lon="6.10773">
        <ele>608</ele>
        <time>2022-10-02T11:17:43Z</time>
      </trkpt>
      <trkpt lat="47.03882" lon="6.10765">
        <ele>607.6</ele>
        <time>2022-10-02T11:17:47Z</time>
      </trkpt>
      <trkpt lat="47.03892" lon="6.10759">
        <ele>607.4</ele>
        <time>2022-10-02T11:17:49Z</time>
      </trkpt>
      <trkpt lat="47.03917" lon="6.10745">
        <ele>607</ele>
        <time>2022-10-02T11:17:54Z</time>
      </trkpt>
      <trkpt lat="47.03933" lon="6.10737">
        <ele>606.8</ele>
        <time>2022-10-02T11:17:57Z</time>
      </trkpt>
      <trkpt lat="47.03965" lon="6.10719">
        <ele>607</ele>
        <time>2022-10-02T11:18:04Z</time>
      </trkpt>
      <trkpt lat="47.04001" lon="6.10699">
        <ele>606.2</ele>
        <time>2022-10-02T11:18:11Z</time>
      </trkpt>
      <trkpt lat="47.04013" lon="6.10693">
        <ele>606</ele>
        <time>2022-10-02T11:18:13Z</time>
      </trkpt>
      <trkpt lat="47.0404" lon="6.10683">
        <ele>605.4</ele>
        <time>2022-10-02T11:18:18Z</time>
      </trkpt>
      <trkpt lat="47.04069" lon="6.1068">
        <ele>605.4</ele>
        <time>2022-10-02T11:18:24Z</time>
      </trkpt>
      <trkpt lat="47.04119" lon="6.10674">
        <ele>606.2</ele>
        <time>2022-10-02T11:18:34Z</time>
      </trkpt>
      <trkpt lat="47.04164" lon="6.10668">
        <ele>606.8</ele>
        <time>2022-10-02T11:18:43Z</time>
      </trkpt>
      <trkpt lat="47.04178" lon="6.10666">
        <ele>607</ele>
        <time>2022-10-02T11:18:46Z</time>
      </trkpt>
      <trkpt lat="47.04198" lon="6.10664">
        <ele>607</ele>
        <time>2022-10-02T11:18:50Z</time>
      </trkpt>
      <trkpt lat="47.04217" lon="6.10661">
        <ele>607.2</ele>
        <time>2022-10-02T11:18:55Z</time>
      </trkpt>
      <trkpt lat="47.04246" lon="6.10658">
        <ele>606.8</ele>
        <time>2022-10-02T11:19:01Z</time>
      </trkpt>
      <trkpt lat="47.04276" lon="6.1066">
        <ele>605.8</ele>
        <time>2022-10-02T11:19:06Z</time>
      </trkpt>
      <trkpt lat="47.04282" lon="6.10661">
        <ele>605.6</ele>
        <time>2022-10-02T11:19:07Z</time>
      </trkpt>
      <trkpt lat="47.04314" lon="6.10666">
        <ele>604.6</ele>
        <time>2022-10-02T11:19:12Z</time>
      </trkpt>
      <trkpt lat="47.04334" lon="6.10667">
        <ele>603.8</ele>
        <time>2022-10-02T11:19:15Z</time>
      </trkpt>
      <trkpt lat="47.04351" lon="6.10668">
        <ele>603.4</ele>
        <time>2022-10-02T11:19:18Z</time>
      </trkpt>
      <trkpt lat="47.04361" lon="6.10668">
        <ele>603.4</ele>
        <time>2022-10-02T11:19:20Z</time>
      </trkpt>
      <trkpt lat="47.04372" lon="6.10672">
        <ele>602.6</ele>
        <time>2022-10-02T11:19:23Z</time>
      </trkpt>
      <trkpt lat="47.04374" lon="6.10677">
        <ele>602.4</ele>
        <time>2022-10-02T11:19:24Z</time>
      </trkpt>
      <trkpt lat="47.04374" lon="6.10695">
        <ele>602</ele>
        <time>2022-10-02T11:19:27Z</time>
      </trkpt>
      <trkpt lat="47.04374" lon="6.10702">
        <ele>601.8</ele>
        <time>2022-10-02T11:19:28Z</time>
      </trkpt>
      <trkpt lat="47.04374" lon="6.10721">
        <ele>601.4</ele>
        <time>2022-10-02T11:19:31Z</time>
      </trkpt>
      <trkpt lat="47.04372" lon="6.10726">
        <ele>601.2</ele>
        <time>2022-10-02T11:19:32Z</time>
      </trkpt>
      <trkpt lat="47.04371" lon="6.10737">
        <ele>600.8</ele>
        <time>2022-10-02T11:19:34Z</time>
      </trkpt>
      <trkpt lat="47.04368" lon="6.10748">
        <ele>600.4</ele>
        <time>2022-10-02T11:19:36Z</time>
      </trkpt>
      <trkpt lat="47.04366" lon="6.10754">
        <ele>600</ele>
        <time>2022-10-02T11:19:37Z</time>
      </trkpt>
      <trkpt lat="47.04359" lon="6.10765">
        <ele>599.6</ele>
        <time>2022-10-02T11:19:39Z</time>
      </trkpt>
      <trkpt lat="47.04347" lon="6.10779">
        <ele>599</ele>
        <time>2022-10-02T11:19:42Z</time>
      </trkpt>
      <trkpt lat="47.04337" lon="6.10788">
        <ele>598.4</ele>
        <time>2022-10-02T11:19:44Z</time>
      </trkpt>
      <trkpt lat="47.04333" lon="6.10794">
        <ele>598.2</ele>
        <time>2022-10-02T11:19:45Z</time>
      </trkpt>
      <trkpt lat="47.04329" lon="6.108">
        <ele>597.8</ele>
        <time>2022-10-02T11:19:46Z</time>
      </trkpt>
      <trkpt lat="47.04315" lon="6.10814">
        <ele>597.2</ele>
        <time>2022-10-02T11:19:49Z</time>
      </trkpt>
      <trkpt lat="47.0431" lon="6.10819">
        <ele>596.8</ele>
        <time>2022-10-02T11:19:50Z</time>
      </trkpt>
      <trkpt lat="47.04286" lon="6.10846">
        <ele>595.6</ele>
        <time>2022-10-02T11:19:55Z</time>
      </trkpt>
      <trkpt lat="47.04281" lon="6.10851">
        <ele>595.4</ele>
        <time>2022-10-02T11:19:56Z</time>
      </trkpt>
      <trkpt lat="47.04268" lon="6.10865">
        <ele>594.6</ele>
        <time>2022-10-02T11:19:59Z</time>
      </trkpt>
      <trkpt lat="47.04246" lon="6.10888">
        <ele>594.2</ele>
        <time>2022-10-02T11:20:04Z</time>
      </trkpt>
      <trkpt lat="47.04225" lon="6.10911">
        <ele>593.6</ele>
        <time>2022-10-02T11:20:09Z</time>
      </trkpt>
      <trkpt lat="47.0422" lon="6.10916">
        <ele>593.4</ele>
        <time>2022-10-02T11:20:10Z</time>
      </trkpt>
      <trkpt lat="47.04215" lon="6.1092">
        <ele>593.2</ele>
        <time>2022-10-02T11:20:11Z</time>
      </trkpt>
      <trkpt lat="47.04197" lon="6.10936">
        <ele>592.6</ele>
        <time>2022-10-02T11:20:15Z</time>
      </trkpt>
      <trkpt lat="47.04189" lon="6.10943">
        <ele>592.4</ele>
        <time>2022-10-02T11:20:17Z</time>
      </trkpt>
      <trkpt lat="47.04171" lon="6.10961">
        <ele>591.2</ele>
        <time>2022-10-02T11:20:22Z</time>
      </trkpt>
      <trkpt lat="47.04163" lon="6.10968">
        <ele>591</ele>
        <time>2022-10-02T11:20:24Z</time>
      </trkpt>
      <trkpt lat="47.04156" lon="6.10977">
        <ele>590.6</ele>
        <time>2022-10-02T11:20:26Z</time>
      </trkpt>
      <trkpt lat="47.04149" lon="6.10987">
        <ele>590.2</ele>
        <time>2022-10-02T11:20:28Z</time>
      </trkpt>
      <trkpt lat="47.04141" lon="6.10997">
        <ele>589.6</ele>
        <time>2022-10-02T11:20:30Z</time>
      </trkpt>
      <trkpt lat="47.04132" lon="6.11007">
        <ele>588.8</ele>
        <time>2022-10-02T11:20:32Z</time>
      </trkpt>
      <trkpt lat="47.04117" lon="6.11024">
        <ele>587.8</ele>
        <time>2022-10-02T11:20:35Z</time>
      </trkpt>
      <trkpt lat="47.04112" lon="6.1103">
        <ele>587.4</ele>
        <time>2022-10-02T11:20:36Z</time>
      </trkpt>
      <trkpt lat="47.04096" lon="6.11047">
        <ele>586.8</ele>
        <time>2022-10-02T11:20:39Z</time>
      </trkpt>
      <trkpt lat="47.04074" lon="6.1107">
        <ele>585.4</ele>
        <time>2022-10-02T11:20:43Z</time>
      </trkpt>
      <trkpt lat="47.04064" lon="6.1108">
        <ele>584.8</ele>
        <time>2022-10-02T11:20:45Z</time>
      </trkpt>
      <trkpt lat="47.04053" lon="6.1109">
        <ele>584.2</ele>
        <time>2022-10-02T11:20:47Z</time>
      </trkpt>
      <trkpt lat="47.04042" lon="6.11098">
        <ele>583.8</ele>
        <time>2022-10-02T11:20:49Z</time>
      </trkpt>
      <trkpt lat="47.0403" lon="6.11102">
        <ele>583.4</ele>
        <time>2022-10-02T11:20:51Z</time>
      </trkpt>
      <trkpt lat="47.04025" lon="6.11103">
        <ele>583.2</ele>
        <time>2022-10-02T11:20:52Z</time>
      </trkpt>
      <trkpt lat="47.03998" lon="6.11108">
        <ele>582.4</ele>
        <time>2022-10-02T11:20:57Z</time>
      </trkpt>
      <trkpt lat="47.03987" lon="6.11108">
        <ele>582.2</ele>
        <time>2022-10-02T11:20:59Z</time>
      </trkpt>
      <trkpt lat="47.03957" lon="6.11109">
        <ele>581</ele>
        <time>2022-10-02T11:21:05Z</time>
      </trkpt>
      <trkpt lat="47.03932" lon="6.11111">
        <ele>580</ele>
        <time>2022-10-02T11:21:11Z</time>
      </trkpt>
      <trkpt lat="47.03928" lon="6.11113">
        <ele>579.8</ele>
        <time>2022-10-02T11:21:12Z</time>
      </trkpt>
      <trkpt lat="47.03897" lon="6.11124">
        <ele>578.8</ele>
        <time>2022-10-02T11:21:20Z</time>
      </trkpt>
      <trkpt lat="47.03881" lon="6.1113">
        <ele>578.8</ele>
        <time>2022-10-02T11:21:24Z</time>
      </trkpt>
      <trkpt lat="47.03872" lon="6.11132">
        <ele>579</ele>
        <time>2022-10-02T11:21:26Z</time>
      </trkpt>
      <trkpt lat="47.03863" lon="6.11136">
        <ele>578.6</ele>
        <time>2022-10-02T11:21:28Z</time>
      </trkpt>
      <trkpt lat="47.03853" lon="6.11146">
        <ele>578.4</ele>
        <time>2022-10-02T11:21:30Z</time>
      </trkpt>
      <trkpt lat="47.03846" lon="6.11171">
        <ele>578</ele>
        <time>2022-10-02T11:21:33Z</time>
      </trkpt>
      <trkpt lat="47.0385" lon="6.11189">
        <ele>578</ele>
        <time>2022-10-02T11:21:36Z</time>
      </trkpt>
      <trkpt lat="47.03863" lon="6.11207">
        <ele>577.8</ele>
        <time>2022-10-02T11:21:40Z</time>
      </trkpt>
      <trkpt lat="47.03867" lon="6.11211">
        <ele>577.8</ele>
        <time>2022-10-02T11:21:41Z</time>
      </trkpt>
      <trkpt lat="47.03884" lon="6.11222">
        <ele>577.2</ele>
        <time>2022-10-02T11:21:46Z</time>
      </trkpt>
      <trkpt lat="47.03898" lon="6.11225">
        <ele>576.8</ele>
        <time>2022-10-02T11:21:52Z</time>
      </trkpt>
      <trkpt lat="47.03912" lon="6.11229">
        <ele>576.6</ele>
        <time>2022-10-02T11:22:00Z</time>
      </trkpt>
      <trkpt lat="47.03939" lon="6.11236">
        <ele>576.4</ele>
        <time>2022-10-02T11:22:18Z</time>
      </trkpt>
      <trkpt lat="47.03947" lon="6.11238">
        <ele>577</ele>
        <time>2022-10-02T11:22:22Z</time>
      </trkpt>
      <trkpt lat="47.03974" lon="6.11243">
        <ele>579.4</ele>
        <time>2022-10-02T11:22:40Z</time>
      </trkpt>
      <trkpt lat="47.03977" lon="6.11244">
        <ele>579.6</ele>
        <time>2022-10-02T11:22:41Z</time>
      </trkpt>
      <trkpt lat="47.03985" lon="6.11243">
        <ele>580.8</ele>
        <time>2022-10-02T11:22:44Z</time>
      </trkpt>
      <trkpt lat="47.03992" lon="6.11242">
        <ele>582</ele>
        <time>2022-10-02T11:22:47Z</time>
      </trkpt>
      <trkpt lat="47.03996" lon="6.11243">
        <ele>582.6</ele>
        <time>2022-10-02T11:22:49Z</time>
      </trkpt>
      <trkpt lat="47.04" lon="6.11243">
        <ele>583.2</ele>
        <time>2022-10-02T11:22:51Z</time>
      </trkpt>
      <trkpt lat="47.04008" lon="6.11243">
        <ele>584.4</ele>
        <time>2022-10-02T11:22:55Z</time>
      </trkpt>
      <trkpt lat="47.04011" lon="6.11244">
        <ele>584.8</ele>
        <time>2022-10-02T11:22:57Z</time>
      </trkpt>
      <trkpt lat="47.04022" lon="6.11247">
        <ele>585.6</ele>
        <time>2022-10-02T11:23:03Z</time>
      </trkpt>
      <trkpt lat="47.04024" lon="6.11248">
        <ele>585.6</ele>
        <time>2022-10-02T11:23:04Z</time>
      </trkpt>
      <trkpt lat="47.04045" lon="6.11255">
        <ele>586.6</ele>
        <time>2022-10-02T11:23:14Z</time>
      </trkpt>
      <trkpt lat="47.04054" lon="6.11259">
        <ele>587</ele>
        <time>2022-10-02T11:23:19Z</time>
      </trkpt>
      <trkpt lat="47.04071" lon="6.11264">
        <ele>587.4</ele>
        <time>2022-10-02T11:23:27Z</time>
      </trkpt>
      <trkpt lat="47.04072" lon="6.11265">
        <ele>587.6</ele>
        <time>2022-10-02T11:23:28Z</time>
      </trkpt>
      <trkpt lat="47.04083" lon="6.11269">
        <ele>588.8</ele>
        <time>2022-10-02T11:23:34Z</time>
      </trkpt>
      <trkpt lat="47.04085" lon="6.1127">
        <ele>589</ele>
        <time>2022-10-02T11:23:35Z</time>
      </trkpt>
      <trkpt lat="47.04092" lon="6.11273">
        <ele>589.8</ele>
        <time>2022-10-02T11:23:38Z</time>
      </trkpt>
      <trkpt lat="47.04097" lon="6.11275">
        <ele>590.4</ele>
        <time>2022-10-02T11:23:41Z</time>
      </trkpt>
      <trkpt lat="47.04102" lon="6.11277">
        <ele>591.2</ele>
        <time>2022-10-02T11:23:44Z</time>
      </trkpt>
      <trkpt lat="47.04108" lon="6.1128">
        <ele>592.4</ele>
        <time>2022-10-02T11:23:47Z</time>
      </trkpt>
      <trkpt lat="47.04112" lon="6.11282">
        <ele>593.2</ele>
        <time>2022-10-02T11:23:49Z</time>
      </trkpt>
      <trkpt lat="47.04113" lon="6.11283">
        <ele>593.6</ele>
        <time>2022-10-02T11:23:50Z</time>
      </trkpt>
      <trkpt lat="47.04118" lon="6.11286">
        <ele>595</ele>
        <time>2022-10-02T11:23:53Z</time>
      </trkpt>
      <trkpt lat="47.04125" lon="6.11289">
        <ele>596.2</ele>
        <time>2022-10-02T11:23:57Z</time>
      </trkpt>
      <trkpt lat="47.04131" lon="6.11292">
        <ele>596.8</ele>
        <time>2022-10-02T11:24:00Z</time>
      </trkpt>
      <trkpt lat="47.04136" lon="6.11295">
        <ele>597.4</ele>
        <time>2022-10-02T11:24:03Z</time>
      </trkpt>
      <trkpt lat="47.04145" lon="6.113">
        <ele>597.6</ele>
        <time>2022-10-02T11:24:08Z</time>
      </trkpt>
      <trkpt lat="47.04156" lon="6.11305">
        <ele>598.4</ele>
        <time>2022-10-02T11:24:14Z</time>
      </trkpt>
      <trkpt lat="47.04158" lon="6.11307">
        <ele>598.6</ele>
        <time>2022-10-02T11:24:15Z</time>
      </trkpt>
      <trkpt lat="47.04165" lon="6.11318">
        <ele>599.4</ele>
        <time>2022-10-02T11:24:20Z</time>
      </trkpt>
      <trkpt lat="47.04165" lon="6.11321">
        <ele>599.6</ele>
        <time>2022-10-02T11:24:21Z</time>
      </trkpt>
      <trkpt lat="47.04165" lon="6.11326">
        <ele>599.8</ele>
        <time>2022-10-02T11:24:23Z</time>
      </trkpt>
      <trkpt lat="47.04161" lon="6.1133">
        <ele>600</ele>
        <time>2022-10-02T11:24:25Z</time>
      </trkpt>
      <trkpt lat="47.04157" lon="6.11332">
        <ele>600.6</ele>
        <time>2022-10-02T11:24:27Z</time>
      </trkpt>
      <trkpt lat="47.04148" lon="6.11336">
        <ele>601</ele>
        <time>2022-10-02T11:24:31Z</time>
      </trkpt>
      <trkpt lat="47.04146" lon="6.11337">
        <ele>601.2</ele>
        <time>2022-10-02T11:24:32Z</time>
      </trkpt>
      <trkpt lat="47.04132" lon="6.11343">
        <ele>601.2</ele>
        <time>2022-10-02T11:24:39Z</time>
      </trkpt>
      <trkpt lat="47.04121" lon="6.11348">
        <ele>601.8</ele>
        <time>2022-10-02T11:24:44Z</time>
      </trkpt>
      <trkpt lat="47.04112" lon="6.11353">
        <ele>602.6</ele>
        <time>2022-10-02T11:24:49Z</time>
      </trkpt>
      <trkpt lat="47.04107" lon="6.11356">
        <ele>602.8</ele>
        <time>2022-10-02T11:24:52Z</time>
      </trkpt>
      <trkpt lat="47.04092" lon="6.11366">
        <ele>603.6</ele>
        <time>2022-10-02T11:25:00Z</time>
      </trkpt>
      <trkpt lat="47.04087" lon="6.11371">
        <ele>604</ele>
        <time>2022-10-02T11:25:03Z</time>
      </trkpt>
      <trkpt lat="47.04078" lon="6.11383">
        <ele>605</ele>
        <time>2022-10-02T11:25:09Z</time>
      </trkpt>
      <trkpt lat="47.04072" lon="6.11391">
        <ele>606</ele>
        <time>2022-10-02T11:25:23Z</time>
      </trkpt>
      <trkpt lat="47.04072" lon="6.11393">
        <ele>606.2</ele>
        <time>2022-10-02T11:25:24Z</time>
      </trkpt>
      <trkpt lat="47.04071" lon="6.11395">
        <ele>606.2</ele>
        <time>2022-10-02T11:25:25Z</time>
      </trkpt>
      <trkpt lat="47.04065" lon="6.11413">
        <ele>606.8</ele>
        <time>2022-10-02T11:25:31Z</time>
      </trkpt>
      <trkpt lat="47.04062" lon="6.11425">
        <ele>607.4</ele>
        <time>2022-10-02T11:25:34Z</time>
      </trkpt>
      <trkpt lat="47.04055" lon="6.11453">
        <ele>608.2</ele>
        <time>2022-10-02T11:25:41Z</time>
      </trkpt>
      <trkpt lat="47.04053" lon="6.11462">
        <ele>608.8</ele>
        <time>2022-10-02T11:25:43Z</time>
      </trkpt>
      <trkpt lat="47.04046" lon="6.11494">
        <ele>609.4</ele>
        <time>2022-10-02T11:25:50Z</time>
      </trkpt>
      <trkpt lat="47.04042" lon="6.11505">
        <ele>609.8</ele>
        <time>2022-10-02T11:25:53Z</time>
      </trkpt>
      <trkpt lat="47.0404" lon="6.11515">
        <ele>610.2</ele>
        <time>2022-10-02T11:25:55Z</time>
      </trkpt>
      <trkpt lat="47.04034" lon="6.11545">
        <ele>610.8</ele>
        <time>2022-10-02T11:26:01Z</time>
      </trkpt>
      <trkpt lat="47.04032" lon="6.1155">
        <ele>610.8</ele>
        <time>2022-10-02T11:26:02Z</time>
      </trkpt>
      <trkpt lat="47.04028" lon="6.11569">
        <ele>611.4</ele>
        <time>2022-10-02T11:26:07Z</time>
      </trkpt>
      <trkpt lat="47.04021" lon="6.11589">
        <ele>611.4</ele>
        <time>2022-10-02T11:26:12Z</time>
      </trkpt>
      <trkpt lat="47.04014" lon="6.11612">
        <ele>612</ele>
        <time>2022-10-02T11:26:17Z</time>
      </trkpt>
      <trkpt lat="47.0401" lon="6.11624">
        <ele>612.2</ele>
        <time>2022-10-02T11:26:20Z</time>
      </trkpt>
      <trkpt lat="47.03999" lon="6.11641">
        <ele>612</ele>
        <time>2022-10-02T11:26:25Z</time>
      </trkpt>
      <trkpt lat="47.03983" lon="6.1166">
        <ele>612.4</ele>
        <time>2022-10-02T11:26:31Z</time>
      </trkpt>
      <trkpt lat="47.0397" lon="6.11675">
        <ele>612</ele>
        <time>2022-10-02T11:26:35Z</time>
      </trkpt>
      <trkpt lat="47.03963" lon="6.11683">
        <ele>611.8</ele>
        <time>2022-10-02T11:26:37Z</time>
      </trkpt>
      <trkpt lat="47.0395" lon="6.11695">
        <ele>611.4</ele>
        <time>2022-10-02T11:26:40Z</time>
      </trkpt>
      <trkpt lat="47.03939" lon="6.11702">
        <ele>611</ele>
        <time>2022-10-02T11:26:42Z</time>
      </trkpt>
      <trkpt lat="47.03934" lon="6.11705">
        <ele>610.8</ele>
        <time>2022-10-02T11:26:43Z</time>
      </trkpt>
      <trkpt lat="47.03922" lon="6.1171">
        <ele>609.8</ele>
        <time>2022-10-02T11:26:45Z</time>
      </trkpt>
      <trkpt lat="47.03916" lon="6.11711">
        <ele>609.4</ele>
        <time>2022-10-02T11:26:46Z</time>
      </trkpt>
      <trkpt lat="47.03903" lon="6.11715">
        <ele>608.6</ele>
        <time>2022-10-02T11:26:48Z</time>
      </trkpt>
      <trkpt lat="47.03896" lon="6.11716">
        <ele>608</ele>
        <time>2022-10-02T11:26:49Z</time>
      </trkpt>
      <trkpt lat="47.03881" lon="6.11718">
        <ele>607</ele>
        <time>2022-10-02T11:26:51Z</time>
      </trkpt>
      <trkpt lat="47.03866" lon="6.1172">
        <ele>606</ele>
        <time>2022-10-02T11:26:53Z</time>
      </trkpt>
      <trkpt lat="47.03859" lon="6.11721">
        <ele>605.4</ele>
        <time>2022-10-02T11:26:54Z</time>
      </trkpt>
      <trkpt lat="47.03851" lon="6.11721">
        <ele>604.6</ele>
        <time>2022-10-02T11:26:55Z</time>
      </trkpt>
      <trkpt lat="47.03835" lon="6.11723">
        <ele>603</ele>
        <time>2022-10-02T11:26:57Z</time>
      </trkpt>
      <trkpt lat="47.03818" lon="6.11728">
        <ele>601.6</ele>
        <time>2022-10-02T11:26:59Z</time>
      </trkpt>
      <trkpt lat="47.03803" lon="6.11744">
        <ele>600</ele>
        <time>2022-10-02T11:27:01Z</time>
      </trkpt>
      <trkpt lat="47.03797" lon="6.11754">
        <ele>599.2</ele>
        <time>2022-10-02T11:27:02Z</time>
      </trkpt>
      <trkpt lat="47.03792" lon="6.11765">
        <ele>598.6</ele>
        <time>2022-10-02T11:27:03Z</time>
      </trkpt>
      <trkpt lat="47.03786" lon="6.11776">
        <ele>598</ele>
        <time>2022-10-02T11:27:04Z</time>
      </trkpt>
      <trkpt lat="47.03777" lon="6.11797">
        <ele>597.2</ele>
        <time>2022-10-02T11:27:06Z</time>
      </trkpt>
      <trkpt lat="47.03757" lon="6.11837">
        <ele>596.6</ele>
        <time>2022-10-02T11:27:11Z</time>
      </trkpt>
      <trkpt lat="47.03746" lon="6.11863">
        <ele>597.8</ele>
        <time>2022-10-02T11:27:16Z</time>
      </trkpt>
      <trkpt lat="47.03743" lon="6.11872">
        <ele>598.4</ele>
        <time>2022-10-02T11:27:18Z</time>
      </trkpt>
      <trkpt lat="47.0374" lon="6.11881">
        <ele>598.8</ele>
        <time>2022-10-02T11:27:21Z</time>
      </trkpt>
      <trkpt lat="47.03739" lon="6.11888">
        <ele>599.4</ele>
        <time>2022-10-02T11:27:24Z</time>
      </trkpt>
      <trkpt lat="47.03739" lon="6.11897">
        <ele>599.6</ele>
        <time>2022-10-02T11:27:27Z</time>
      </trkpt>
      <trkpt lat="47.03746" lon="6.11918">
        <ele>600</ele>
        <time>2022-10-02T11:27:34Z</time>
      </trkpt>
      <trkpt lat="47.0375" lon="6.11927">
        <ele>600.4</ele>
        <time>2022-10-02T11:27:38Z</time>
      </trkpt>
      <trkpt lat="47.03754" lon="6.11934">
        <ele>600.8</ele>
        <time>2022-10-02T11:27:41Z</time>
      </trkpt>
      <trkpt lat="47.03757" lon="6.11938">
        <ele>601.4</ele>
        <time>2022-10-02T11:27:43Z</time>
      </trkpt>
      <trkpt lat="47.03764" lon="6.11947">
        <ele>602.4</ele>
        <time>2022-10-02T11:27:47Z</time>
      </trkpt>
      <trkpt lat="47.03767" lon="6.11952">
        <ele>603</ele>
        <time>2022-10-02T11:27:49Z</time>
      </trkpt>
      <trkpt lat="47.03772" lon="6.1196">
        <ele>603.6</ele>
        <time>2022-10-02T11:27:53Z</time>
      </trkpt>
      <trkpt lat="47.03777" lon="6.11968">
        <ele>604.6</ele>
        <time>2022-10-02T11:27:57Z</time>
      </trkpt>
      <trkpt lat="47.03779" lon="6.1197">
        <ele>604.8</ele>
        <time>2022-10-02T11:27:58Z</time>
      </trkpt>
      <trkpt lat="47.03784" lon="6.11979">
        <ele>605.8</ele>
        <time>2022-10-02T11:28:02Z</time>
      </trkpt>
      <trkpt lat="47.03789" lon="6.11986">
        <ele>606.2</ele>
        <time>2022-10-02T11:28:05Z</time>
      </trkpt>
      <trkpt lat="47.03799" lon="6.12004">
        <ele>607</ele>
        <time>2022-10-02T11:28:13Z</time>
      </trkpt>
      <trkpt lat="47.03803" lon="6.12012">
        <ele>608.4</ele>
        <time>2022-10-02T11:28:16Z</time>
      </trkpt>
      <trkpt lat="47.03808" lon="6.12022">
        <ele>609.8</ele>
        <time>2022-10-02T11:28:20Z</time>
      </trkpt>
      <trkpt lat="47.03811" lon="6.12027">
        <ele>610</ele>
        <time>2022-10-02T11:28:22Z</time>
      </trkpt>
      <trkpt lat="47.0382" lon="6.12049">
        <ele>610.4</ele>
        <time>2022-10-02T11:28:30Z</time>
      </trkpt>
      <trkpt lat="47.03822" lon="6.12054">
        <ele>611</ele>
        <time>2022-10-02T11:28:32Z</time>
      </trkpt>
      <trkpt lat="47.03826" lon="6.12066">
        <ele>612</ele>
        <time>2022-10-02T11:28:36Z</time>
      </trkpt>
      <trkpt lat="47.03829" lon="6.12081">
        <ele>612.8</ele>
        <time>2022-10-02T11:28:41Z</time>
      </trkpt>
      <trkpt lat="47.0383" lon="6.12087">
        <ele>613.2</ele>
        <time>2022-10-02T11:28:43Z</time>
      </trkpt>
      <trkpt lat="47.03831" lon="6.12097">
        <ele>614.4</ele>
        <time>2022-10-02T11:28:47Z</time>
      </trkpt>
      <trkpt lat="47.03831" lon="6.121">
        <ele>614.4</ele>
        <time>2022-10-02T11:28:48Z</time>
      </trkpt>
      <trkpt lat="47.03829" lon="6.12111">
        <ele>615.4</ele>
        <time>2022-10-02T11:28:52Z</time>
      </trkpt>
      <trkpt lat="47.03827" lon="6.12122">
        <ele>616.6</ele>
        <time>2022-10-02T11:28:56Z</time>
      </trkpt>
      <trkpt lat="47.03821" lon="6.12138">
        <ele>617.8</ele>
        <time>2022-10-02T11:29:03Z</time>
      </trkpt>
      <trkpt lat="47.03819" lon="6.12143">
        <ele>618.2</ele>
        <time>2022-10-02T11:29:05Z</time>
      </trkpt>
      <trkpt lat="47.03816" lon="6.12151">
        <ele>618.8</ele>
        <time>2022-10-02T11:29:08Z</time>
      </trkpt>
      <trkpt lat="47.03811" lon="6.12163">
        <ele>619.2</ele>
        <time>2022-10-02T11:29:13Z</time>
      </trkpt>
      <trkpt lat="47.03807" lon="6.12172">
        <ele>619.8</ele>
        <time>2022-10-02T11:29:17Z</time>
      </trkpt>
      <trkpt lat="47.03803" lon="6.12181">
        <ele>620.6</ele>
        <time>2022-10-02T11:29:21Z</time>
      </trkpt>
      <trkpt lat="47.03801" lon="6.12187">
        <ele>621</ele>
        <time>2022-10-02T11:29:23Z</time>
      </trkpt>
      <trkpt lat="47.03796" lon="6.12205">
        <ele>621.2</ele>
        <time>2022-10-02T11:29:29Z</time>
      </trkpt>
      <trkpt lat="47.03791" lon="6.12214">
        <ele>622</ele>
        <time>2022-10-02T11:29:32Z</time>
      </trkpt>
      <trkpt lat="47.03784" lon="6.12228">
        <ele>622.8</ele>
        <time>2022-10-02T11:29:37Z</time>
      </trkpt>
      <trkpt lat="47.03778" lon="6.12243">
        <ele>623</ele>
        <time>2022-10-02T11:29:42Z</time>
      </trkpt>
      <trkpt lat="47.03779" lon="6.12249">
        <ele>623.2</ele>
        <time>2022-10-02T11:29:44Z</time>
      </trkpt>
      <trkpt lat="47.0378" lon="6.12258">
        <ele>623.6</ele>
        <time>2022-10-02T11:29:49Z</time>
      </trkpt>
      <trkpt lat="47.03783" lon="6.12254">
        <ele>624.2</ele>
        <time>2022-10-02T11:29:52Z</time>
      </trkpt>
      <trkpt lat="47.03781" lon="6.12256">
        <ele>624.6</ele>
        <time>2022-10-02T11:29:56Z</time>
      </trkpt>
      <trkpt lat="47.03782" lon="6.12258">
        <ele>624.4</ele>
        <time>2022-10-02T11:29:57Z</time>
      </trkpt>
      <trkpt lat="47.03788" lon="6.12268">
        <ele>624.8</ele>
        <time>2022-10-02T11:30:01Z</time>
      </trkpt>
      <trkpt lat="47.0379" lon="6.12271">
        <ele>624.8</ele>
        <time>2022-10-02T11:30:02Z</time>
      </trkpt>
      <trkpt lat="47.03805" lon="6.12291">
        <ele>625</ele>
        <time>2022-10-02T11:30:08Z</time>
      </trkpt>
      <trkpt lat="47.03817" lon="6.12314">
        <ele>625.4</ele>
        <time>2022-10-02T11:30:14Z</time>
      </trkpt>
      <trkpt lat="47.03824" lon="6.12326">
        <ele>626.4</ele>
        <time>2022-10-02T11:30:18Z</time>
      </trkpt>
      <trkpt lat="47.03826" lon="6.12328">
        <ele>626.4</ele>
        <time>2022-10-02T11:30:19Z</time>
      </trkpt>
      <trkpt lat="47.0384" lon="6.12354">
        <ele>626.4</ele>
        <time>2022-10-02T11:30:26Z</time>
      </trkpt>
      <trkpt lat="47.03849" lon="6.12373">
        <ele>625.8</ele>
        <time>2022-10-02T11:30:30Z</time>
      </trkpt>
      <trkpt lat="47.03858" lon="6.12387">
        <ele>625.6</ele>
        <time>2022-10-02T11:30:33Z</time>
      </trkpt>
      <trkpt lat="47.03864" lon="6.12396">
        <ele>625.4</ele>
        <time>2022-10-02T11:30:35Z</time>
      </trkpt>
      <trkpt lat="47.03887" lon="6.12424">
        <ele>624.8</ele>
        <time>2022-10-02T11:30:42Z</time>
      </trkpt>
      <trkpt lat="47.03905" lon="6.1244">
        <ele>624.4</ele>
        <time>2022-10-02T11:30:46Z</time>
      </trkpt>
      <trkpt lat="47.03915" lon="6.12447">
        <ele>624.2</ele>
        <time>2022-10-02T11:30:48Z</time>
      </trkpt>
      <trkpt lat="47.03939" lon="6.1247">
        <ele>623.8</ele>
        <time>2022-10-02T11:30:54Z</time>
      </trkpt>
      <trkpt lat="47.03951" lon="6.12491">
        <ele>624</ele>
        <time>2022-10-02T11:30:59Z</time>
      </trkpt>
      <trkpt lat="47.03965" lon="6.12517">
        <ele>624.4</ele>
        <time>2022-10-02T11:31:06Z</time>
      </trkpt>
      <trkpt lat="47.03979" lon="6.12544">
        <ele>624.4</ele>
        <time>2022-10-02T11:31:12Z</time>
      </trkpt>
      <trkpt lat="47.03994" lon="6.12575">
        <ele>624</ele>
        <time>2022-10-02T11:31:19Z</time>
      </trkpt>
      <trkpt lat="47.0401" lon="6.12613">
        <ele>623.4</ele>
        <time>2022-10-02T11:31:26Z</time>
      </trkpt>
      <trkpt lat="47.04013" lon="6.12619">
        <ele>623.2</ele>
        <time>2022-10-02T11:31:27Z</time>
      </trkpt>
      <trkpt lat="47.04024" lon="6.12638">
        <ele>622</ele>
        <time>2022-10-02T11:31:30Z</time>
      </trkpt>
      <trkpt lat="47.04029" lon="6.12644">
        <ele>621.4</ele>
        <time>2022-10-02T11:31:31Z</time>
      </trkpt>
      <trkpt lat="47.04034" lon="6.1265">
        <ele>620.8</ele>
        <time>2022-10-02T11:31:32Z</time>
      </trkpt>
      <trkpt lat="47.04046" lon="6.12658">
        <ele>619.2</ele>
        <time>2022-10-02T11:31:34Z</time>
      </trkpt>
      <trkpt lat="47.04056" lon="6.12666">
        <ele>617.8</ele>
        <time>2022-10-02T11:31:36Z</time>
      </trkpt>
      <trkpt lat="47.04065" lon="6.12677">
        <ele>616</ele>
        <time>2022-10-02T11:31:38Z</time>
      </trkpt>
      <trkpt lat="47.04073" lon="6.12693">
        <ele>614</ele>
        <time>2022-10-02T11:31:40Z</time>
      </trkpt>
      <trkpt lat="47.04076" lon="6.12702">
        <ele>613</ele>
        <time>2022-10-02T11:31:41Z</time>
      </trkpt>
      <trkpt lat="47.04079" lon="6.12711">
        <ele>612</ele>
        <time>2022-10-02T11:31:42Z</time>
      </trkpt>
      <trkpt lat="47.04082" lon="6.12719">
        <ele>611</ele>
        <time>2022-10-02T11:31:43Z</time>
      </trkpt>
      <trkpt lat="47.04087" lon="6.12727">
        <ele>610</ele>
        <time>2022-10-02T11:31:44Z</time>
      </trkpt>
      <trkpt lat="47.04092" lon="6.12734">
        <ele>609</ele>
        <time>2022-10-02T11:31:45Z</time>
      </trkpt>
      <trkpt lat="47.04098" lon="6.1274">
        <ele>608.2</ele>
        <time>2022-10-02T11:31:46Z</time>
      </trkpt>
      <trkpt lat="47.04112" lon="6.1275">
        <ele>606.4</ele>
        <time>2022-10-02T11:31:48Z</time>
      </trkpt>
      <trkpt lat="47.0412" lon="6.12755">
        <ele>605.4</ele>
        <time>2022-10-02T11:31:49Z</time>
      </trkpt>
      <trkpt lat="47.04137" lon="6.12765">
        <ele>603.2</ele>
        <time>2022-10-02T11:31:51Z</time>
      </trkpt>
      <trkpt lat="47.04153" lon="6.12773">
        <ele>601.4</ele>
        <time>2022-10-02T11:31:53Z</time>
      </trkpt>
      <trkpt lat="47.0416" lon="6.12777">
        <ele>600.4</ele>
        <time>2022-10-02T11:31:54Z</time>
      </trkpt>
      <trkpt lat="47.04167" lon="6.12782">
        <ele>599.8</ele>
        <time>2022-10-02T11:31:55Z</time>
      </trkpt>
      <trkpt lat="47.0418" lon="6.12789">
        <ele>598.2</ele>
        <time>2022-10-02T11:31:57Z</time>
      </trkpt>
      <trkpt lat="47.04191" lon="6.12798">
        <ele>596.6</ele>
        <time>2022-10-02T11:31:59Z</time>
      </trkpt>
      <trkpt lat="47.04202" lon="6.12808">
        <ele>595</ele>
        <time>2022-10-02T11:32:01Z</time>
      </trkpt>
      <trkpt lat="47.04213" lon="6.12816">
        <ele>593.2</ele>
        <time>2022-10-02T11:32:03Z</time>
      </trkpt>
      <trkpt lat="47.0422" lon="6.1282">
        <ele>592.2</ele>
        <time>2022-10-02T11:32:04Z</time>
      </trkpt>
      <trkpt lat="47.04226" lon="6.12824">
        <ele>591.4</ele>
        <time>2022-10-02T11:32:05Z</time>
      </trkpt>
      <trkpt lat="47.04239" lon="6.12831">
        <ele>589.8</ele>
        <time>2022-10-02T11:32:07Z</time>
      </trkpt>
      <trkpt lat="47.04251" lon="6.12837">
        <ele>588.6</ele>
        <time>2022-10-02T11:32:09Z</time>
      </trkpt>
      <trkpt lat="47.04263" lon="6.12842">
        <ele>587.4</ele>
        <time>2022-10-02T11:32:11Z</time>
      </trkpt>
      <trkpt lat="47.04275" lon="6.12844">
        <ele>586.2</ele>
        <time>2022-10-02T11:32:13Z</time>
      </trkpt>
      <trkpt lat="47.04287" lon="6.12847">
        <ele>585</ele>
        <time>2022-10-02T11:32:15Z</time>
      </trkpt>
      <trkpt lat="47.04303" lon="6.1285">
        <ele>583.6</ele>
        <time>2022-10-02T11:32:18Z</time>
      </trkpt>
      <trkpt lat="47.04314" lon="6.12851">
        <ele>582.6</ele>
        <time>2022-10-02T11:32:20Z</time>
      </trkpt>
      <trkpt lat="47.0432" lon="6.12851">
        <ele>582.2</ele>
        <time>2022-10-02T11:32:21Z</time>
      </trkpt>
      <trkpt lat="47.04331" lon="6.1285">
        <ele>581</ele>
        <time>2022-10-02T11:32:23Z</time>
      </trkpt>
      <trkpt lat="47.0434" lon="6.12849">
        <ele>580</ele>
        <time>2022-10-02T11:32:25Z</time>
      </trkpt>
      <trkpt lat="47.04345" lon="6.12848">
        <ele>579.6</ele>
        <time>2022-10-02T11:32:26Z</time>
      </trkpt>
      <trkpt lat="47.04353" lon="6.12848">
        <ele>578.8</ele>
        <time>2022-10-02T11:32:28Z</time>
      </trkpt>
      <trkpt lat="47.04358" lon="6.12849">
        <ele>578.4</ele>
        <time>2022-10-02T11:32:29Z</time>
      </trkpt>
      <trkpt lat="47.04367" lon="6.12853">
        <ele>577.8</ele>
        <time>2022-10-02T11:32:31Z</time>
      </trkpt>
      <trkpt lat="47.04371" lon="6.12855">
        <ele>577.4</ele>
        <time>2022-10-02T11:32:32Z</time>
      </trkpt>
      <trkpt lat="47.04387" lon="6.12862">
        <ele>576.4</ele>
        <time>2022-10-02T11:32:35Z</time>
      </trkpt>
      <trkpt lat="47.04399" lon="6.12866">
        <ele>575.6</ele>
        <time>2022-10-02T11:32:37Z</time>
      </trkpt>
      <trkpt lat="47.0441" lon="6.12869">
        <ele>575</ele>
        <time>2022-10-02T11:32:39Z</time>
      </trkpt>
      <trkpt lat="47.04425" lon="6.12875">
        <ele>574.2</ele>
        <time>2022-10-02T11:32:42Z</time>
      </trkpt>
      <trkpt lat="47.0443" lon="6.12877">
        <ele>574</ele>
        <time>2022-10-02T11:32:43Z</time>
      </trkpt>
      <trkpt lat="47.04447" lon="6.12885">
        <ele>572.8</ele>
        <time>2022-10-02T11:32:47Z</time>
      </trkpt>
      <trkpt lat="47.04452" lon="6.12888">
        <ele>572.6</ele>
        <time>2022-10-02T11:32:48Z</time>
      </trkpt>
      <trkpt lat="47.04462" lon="6.12891">
        <ele>572.6</ele>
        <time>2022-10-02T11:32:50Z</time>
      </trkpt>
      <trkpt lat="47.04478" lon="6.12894">
        <ele>572.8</ele>
        <time>2022-10-02T11:32:53Z</time>
      </trkpt>
      <trkpt lat="47.04507" lon="6.12901">
        <ele>572.8</ele>
        <time>2022-10-02T11:32:59Z</time>
      </trkpt>
      <trkpt lat="47.04528" lon="6.12914">
        <ele>572.4</ele>
        <time>2022-10-02T11:33:04Z</time>
      </trkpt>
      <trkpt lat="47.04548" lon="6.12925">
        <ele>571.8</ele>
        <time>2022-10-02T11:33:08Z</time>
      </trkpt>
      <trkpt lat="47.04559" lon="6.12927">
        <ele>571.4</ele>
        <time>2022-10-02T11:33:10Z</time>
      </trkpt>
      <trkpt lat="47.04589" lon="6.12926">
        <ele>570.6</ele>
        <time>2022-10-02T11:33:15Z</time>
      </trkpt>
      <trkpt lat="47.04607" lon="6.1292">
        <ele>569.6</ele>
        <time>2022-10-02T11:33:18Z</time>
      </trkpt>
      <trkpt lat="47.04633" lon="6.12909">
        <ele>568.6</ele>
        <time>2022-10-02T11:33:22Z</time>
      </trkpt>
      <trkpt lat="47.04639" lon="6.12906">
        <ele>568.4</ele>
        <time>2022-10-02T11:33:23Z</time>
      </trkpt>
      <trkpt lat="47.04667" lon="6.12893">
        <ele>567.6</ele>
        <time>2022-10-02T11:33:28Z</time>
      </trkpt>
      <trkpt lat="47.0468" lon="6.12889">
        <ele>567.2</ele>
        <time>2022-10-02T11:33:30Z</time>
      </trkpt>
      <trkpt lat="47.04703" lon="6.12881">
        <ele>566.6</ele>
        <time>2022-10-02T11:33:34Z</time>
      </trkpt>
      <trkpt lat="47.04719" lon="6.12877">
        <ele>566</ele>
        <time>2022-10-02T11:33:37Z</time>
      </trkpt>
      <trkpt lat="47.04728" lon="6.12875">
        <ele>565.6</ele>
        <time>2022-10-02T11:33:39Z</time>
      </trkpt>
      <trkpt lat="47.04739" lon="6.12873">
        <ele>564.8</ele>
        <time>2022-10-02T11:33:42Z</time>
      </trkpt>
      <trkpt lat="47.04743" lon="6.12875">
        <ele>564</ele>
        <time>2022-10-02T11:33:44Z</time>
      </trkpt>
      <trkpt lat="47.04744" lon="6.12877">
        <ele>563.6</ele>
        <time>2022-10-02T11:33:45Z</time>
      </trkpt>
      <trkpt lat="47.04748" lon="6.12885">
        <ele>562.4</ele>
        <time>2022-10-02T11:33:49Z</time>
      </trkpt>
      <trkpt lat="47.04751" lon="6.12891">
        <ele>561.2</ele>
        <time>2022-10-02T11:33:52Z</time>
      </trkpt>
      <trkpt lat="47.04752" lon="6.12897">
        <ele>560</ele>
        <time>2022-10-02T11:33:55Z</time>
      </trkpt>
      <trkpt lat="47.04753" lon="6.12902">
        <ele>559.2</ele>
        <time>2022-10-02T11:33:57Z</time>
      </trkpt>
      <trkpt lat="47.04754" lon="6.12904">
        <ele>558.8</ele>
        <time>2022-10-02T11:33:58Z</time>
      </trkpt>
      <trkpt lat="47.0476" lon="6.12918">
        <ele>558</ele>
        <time>2022-10-02T11:34:04Z</time>
      </trkpt>
      <trkpt lat="47.04761" lon="6.12919">
        <ele>557.6</ele>
        <time>2022-10-02T11:34:05Z</time>
      </trkpt>
      <trkpt lat="47.04764" lon="6.1292">
        <ele>557.2</ele>
        <time>2022-10-02T11:34:07Z</time>
      </trkpt>
      <trkpt lat="47.04769" lon="6.1292">
        <ele>557</ele>
        <time>2022-10-02T11:34:10Z</time>
      </trkpt>
      <trkpt lat="47.04773" lon="6.12919">
        <ele>556.6</ele>
        <time>2022-10-02T11:34:12Z</time>
      </trkpt>
      <trkpt lat="47.04782" lon="6.12915">
        <ele>555.6</ele>
        <time>2022-10-02T11:34:17Z</time>
      </trkpt>
      <trkpt lat="47.04783" lon="6.12914">
        <ele>555.2</ele>
        <time>2022-10-02T11:34:18Z</time>
      </trkpt>
      <trkpt lat="47.04788" lon="6.12912">
        <ele>554.2</ele>
        <time>2022-10-02T11:34:21Z</time>
      </trkpt>
      <trkpt lat="47.04792" lon="6.12911">
        <ele>553.8</ele>
        <time>2022-10-02T11:34:24Z</time>
      </trkpt>
      <trkpt lat="47.04796" lon="6.1291">
        <ele>553.2</ele>
        <time>2022-10-02T11:34:26Z</time>
      </trkpt>
      <trkpt lat="47.04804" lon="6.12908">
        <ele>553.8</ele>
        <time>2022-10-02T11:34:30Z</time>
      </trkpt>
      <trkpt lat="47.04806" lon="6.12908">
        <ele>554.4</ele>
        <time>2022-10-02T11:34:31Z</time>
      </trkpt>
      <trkpt lat="47.04813" lon="6.12907">
        <ele>556.2</ele>
        <time>2022-10-02T11:34:34Z</time>
      </trkpt>
      <trkpt lat="47.04817" lon="6.12907">
        <ele>557.4</ele>
        <time>2022-10-02T11:34:36Z</time>
      </trkpt>
      <trkpt lat="47.04818" lon="6.12907">
        <ele>558</ele>
        <time>2022-10-02T11:34:37Z</time>
      </trkpt>
      <trkpt lat="47.0482" lon="6.12907">
        <ele>558.4</ele>
        <time>2022-10-02T11:34:38Z</time>
      </trkpt>
      <trkpt lat="47.04823" lon="6.12907">
        <ele>560.2</ele>
        <time>2022-10-02T11:34:39Z</time>
      </trkpt>
      <trkpt lat="47.04825" lon="6.12906">
        <ele>561.2</ele>
        <time>2022-10-02T11:34:40Z</time>
      </trkpt>
      <trkpt lat="47.04835" lon="6.12904">
        <ele>566</ele>
        <time>2022-10-02T11:34:48Z</time>
      </trkpt>
      <trkpt lat="47.04838" lon="6.12904">
        <ele>566.2</ele>
        <time>2022-10-02T11:34:50Z</time>
      </trkpt>
      <trkpt lat="47.04884" lon="6.12943">
        <ele>585.4</ele>
        <time>2022-10-02T11:36:14Z</time>
      </trkpt>
      <trkpt lat="47.04879" lon="6.12946">
        <ele>585.8</ele>
        <time>2022-10-02T11:36:16Z</time>
      </trkpt>
      <trkpt lat="47.04862" lon="6.12956">
        <ele>586</ele>
        <time>2022-10-02T11:36:23Z</time>
      </trkpt>
      <trkpt lat="47.04857" lon="6.12957">
        <ele>586.4</ele>
        <time>2022-10-02T11:36:26Z</time>
      </trkpt>
      <trkpt lat="47.04848" lon="6.1296">
        <ele>586.8</ele>
        <time>2022-10-02T11:36:30Z</time>
      </trkpt>
      <trkpt lat="47.04829" lon="6.12968">
        <ele>586.6</ele>
        <time>2022-10-02T11:36:39Z</time>
      </trkpt>
      <trkpt lat="47.04862" lon="6.1296">
        <ele>582.4</ele>
        <time>2022-10-02T11:38:02Z</time>
      </trkpt>
      <trkpt lat="47.0486" lon="6.12962">
        <ele>581.6</ele>
        <time>2022-10-02T11:38:04Z</time>
      </trkpt>
      <trkpt lat="47.04858" lon="6.12963">
        <ele>581</ele>
        <time>2022-10-02T11:38:06Z</time>
      </trkpt>
      <trkpt lat="47.04851" lon="6.12965">
        <ele>579.8</ele>
        <time>2022-10-02T11:38:11Z</time>
      </trkpt>
      <trkpt lat="47.0485" lon="6.12966">
        <ele>579.6</ele>
        <time>2022-10-02T11:38:12Z</time>
      </trkpt>
      <trkpt lat="47.04843" lon="6.12969">
        <ele>578.6</ele>
        <time>2022-10-02T11:38:17Z</time>
      </trkpt>
      <trkpt lat="47.04839" lon="6.12972">
        <ele>578.2</ele>
        <time>2022-10-02T11:38:19Z</time>
      </trkpt>
      <trkpt lat="47.04835" lon="6.12974">
        <ele>577.6</ele>
        <time>2022-10-02T11:38:21Z</time>
      </trkpt>
      <trkpt lat="47.04826" lon="6.1298">
        <ele>577</ele>
        <time>2022-10-02T11:38:26Z</time>
      </trkpt>
      <trkpt lat="47.04817" lon="6.12991">
        <ele>578.2</ele>
        <time>2022-10-02T11:38:32Z</time>
      </trkpt>
      <trkpt lat="47.04813" lon="6.12995">
        <ele>578.8</ele>
        <time>2022-10-02T11:38:35Z</time>
      </trkpt>
      <trkpt lat="47.04811" lon="6.12999">
        <ele>579.8</ele>
        <time>2022-10-02T11:38:37Z</time>
      </trkpt>
      <trkpt lat="47.0481" lon="6.13">
        <ele>580.4</ele>
        <time>2022-10-02T11:38:38Z</time>
      </trkpt>
      <trkpt lat="47.04809" lon="6.13002">
        <ele>581</ele>
        <time>2022-10-02T11:38:39Z</time>
      </trkpt>
      <trkpt lat="47.04807" lon="6.13004">
        <ele>582</ele>
        <time>2022-10-02T11:38:41Z</time>
      </trkpt>
      <trkpt lat="47.04802" lon="6.13008">
        <ele>582.8</ele>
        <time>2022-10-02T11:38:45Z</time>
      </trkpt>
      <trkpt lat="47.04801" lon="6.13009">
        <ele>583</ele>
        <time>2022-10-02T11:38:46Z</time>
      </trkpt>
      <trkpt lat="47.04797" lon="6.13015">
        <ele>584</ele>
        <time>2022-10-02T11:38:50Z</time>
      </trkpt>
      <trkpt lat="47.04794" lon="6.13019">
        <ele>585</ele>
        <time>2022-10-02T11:38:53Z</time>
      </trkpt>
      <trkpt lat="47.04793" lon="6.1302">
        <ele>585.4</ele>
        <time>2022-10-02T11:38:54Z</time>
      </trkpt>
      <trkpt lat="47.04789" lon="6.13027">
        <ele>586.6</ele>
        <time>2022-10-02T11:38:58Z</time>
      </trkpt>
      <trkpt lat="47.04784" lon="6.13032">
        <ele>587.8</ele>
        <time>2022-10-02T11:39:02Z</time>
      </trkpt>
      <trkpt lat="47.04779" lon="6.13035">
        <ele>588.8</ele>
        <time>2022-10-02T11:39:06Z</time>
      </trkpt>
      <trkpt lat="47.04776" lon="6.13038">
        <ele>589.4</ele>
        <time>2022-10-02T11:39:09Z</time>
      </trkpt>
      <trkpt lat="47.04689" lon="6.13097">
        <ele>601.4</ele>
        <time>2022-10-02T11:40:04Z</time>
      </trkpt>
      <trkpt lat="47.04684" lon="6.13098">
        <ele>602</ele>
        <time>2022-10-02T11:40:06Z</time>
      </trkpt>
      <trkpt lat="47.04682" lon="6.13099">
        <ele>602.4</ele>
        <time>2022-10-02T11:40:07Z</time>
      </trkpt>
      <trkpt lat="47.04671" lon="6.13103">
        <ele>603.6</ele>
        <time>2022-10-02T11:40:12Z</time>
      </trkpt>
      <trkpt lat="47.04666" lon="6.13104">
        <ele>604.2</ele>
        <time>2022-10-02T11:40:14Z</time>
      </trkpt>
      <trkpt lat="47.04661" lon="6.13106">
        <ele>604.8</ele>
        <time>2022-10-02T11:40:16Z</time>
      </trkpt>
      <trkpt lat="47.04646" lon="6.13113">
        <ele>605.4</ele>
        <time>2022-10-02T11:40:22Z</time>
      </trkpt>
      <trkpt lat="47.04626" lon="6.13119">
        <ele>605.4</ele>
        <time>2022-10-02T11:40:31Z</time>
      </trkpt>
      <trkpt lat="47.04616" lon="6.1312">
        <ele>606</ele>
        <time>2022-10-02T11:40:35Z</time>
      </trkpt>
      <trkpt lat="47.0461" lon="6.13122">
        <ele>606.6</ele>
        <time>2022-10-02T11:40:38Z</time>
      </trkpt>
      <trkpt lat="47.04605" lon="6.13125">
        <ele>607.2</ele>
        <time>2022-10-02T11:40:40Z</time>
      </trkpt>
      <trkpt lat="47.04567" lon="6.13144">
        <ele>608.4</ele>
        <time>2022-10-02T11:40:58Z</time>
      </trkpt>
      <trkpt lat="47.04564" lon="6.13146">
        <ele>608.8</ele>
        <time>2022-10-02T11:40:59Z</time>
      </trkpt>
      <trkpt lat="47.04546" lon="6.13154">
        <ele>608.8</ele>
        <time>2022-10-02T11:41:07Z</time>
      </trkpt>
      <trkpt lat="47.04525" lon="6.13158">
        <ele>607.2</ele>
        <time>2022-10-02T11:41:14Z</time>
      </trkpt>
      <trkpt lat="47.04522" lon="6.13158">
        <ele>607.2</ele>
        <time>2022-10-02T11:41:15Z</time>
      </trkpt>
      <trkpt lat="47.04501" lon="6.13162">
        <ele>608</ele>
        <time>2022-10-02T11:41:23Z</time>
      </trkpt>
      <trkpt lat="47.04495" lon="6.13163">
        <ele>608.6</ele>
        <time>2022-10-02T11:41:25Z</time>
      </trkpt>
      <trkpt lat="47.04483" lon="6.13166">
        <ele>609.6</ele>
        <time>2022-10-02T11:41:29Z</time>
      </trkpt>
      <trkpt lat="47.04464" lon="6.13167">
        <ele>610.6</ele>
        <time>2022-10-02T11:41:34Z</time>
      </trkpt>
      <trkpt lat="47.04453" lon="6.13167">
        <ele>610.4</ele>
        <time>2022-10-02T11:41:37Z</time>
      </trkpt>
      <trkpt lat="47.04444" lon="6.13169">
        <ele>609.6</ele>
        <time>2022-10-02T11:41:39Z</time>
      </trkpt>
      <trkpt lat="47.04431" lon="6.13169">
        <ele>608.6</ele>
        <time>2022-10-02T11:41:43Z</time>
      </trkpt>
      <trkpt lat="47.04411" lon="6.13172">
        <ele>607.4</ele>
        <time>2022-10-02T11:41:48Z</time>
      </trkpt>
      <trkpt lat="47.04407" lon="6.13173">
        <ele>607.2</ele>
        <time>2022-10-02T11:41:49Z</time>
      </trkpt>
      <trkpt lat="47.04393" lon="6.13176">
        <ele>606.2</ele>
        <time>2022-10-02T11:41:53Z</time>
      </trkpt>
      <trkpt lat="47.04382" lon="6.13177">
        <ele>605.2</ele>
        <time>2022-10-02T11:41:56Z</time>
      </trkpt>
      <trkpt lat="47.04375" lon="6.13178">
        <ele>604.6</ele>
        <time>2022-10-02T11:41:58Z</time>
      </trkpt>
      <trkpt lat="47.04339" lon="6.13169">
        <ele>605.6</ele>
        <time>2022-10-02T11:42:06Z</time>
      </trkpt>
      <trkpt lat="47.04334" lon="6.13169">
        <ele>606.8</ele>
        <time>2022-10-02T11:42:07Z</time>
      </trkpt>
      <trkpt lat="47.04319" lon="6.13169">
        <ele>608.4</ele>
        <time>2022-10-02T11:42:11Z</time>
      </trkpt>
      <trkpt lat="47.04308" lon="6.1317">
        <ele>609.4</ele>
        <time>2022-10-02T11:42:14Z</time>
      </trkpt>
      <trkpt lat="47.04305" lon="6.13171">
        <ele>609.6</ele>
        <time>2022-10-02T11:42:15Z</time>
      </trkpt>
      <trkpt lat="47.04294" lon="6.13171">
        <ele>610.4</ele>
        <time>2022-10-02T11:42:18Z</time>
      </trkpt>
      <trkpt lat="47.04282" lon="6.13172">
        <ele>611.6</ele>
        <time>2022-10-02T11:42:21Z</time>
      </trkpt>
      <trkpt lat="47.04274" lon="6.13173">
        <ele>612.2</ele>
        <time>2022-10-02T11:42:23Z</time>
      </trkpt>
      <trkpt lat="47.0427" lon="6.13174">
        <ele>612.6</ele>
        <time>2022-10-02T11:42:24Z</time>
      </trkpt>
      <trkpt lat="47.04262" lon="6.13176">
        <ele>613.8</ele>
        <time>2022-10-02T11:42:26Z</time>
      </trkpt>
      <trkpt lat="47.04244" lon="6.1318">
        <ele>614.6</ele>
        <time>2022-10-02T11:42:31Z</time>
      </trkpt>
      <trkpt lat="47.0424" lon="6.13181">
        <ele>615</ele>
        <time>2022-10-02T11:42:32Z</time>
      </trkpt>
      <trkpt lat="47.04226" lon="6.13184">
        <ele>616</ele>
        <time>2022-10-02T11:42:36Z</time>
      </trkpt>
      <trkpt lat="47.04214" lon="6.13186">
        <ele>616.2</ele>
        <time>2022-10-02T11:42:39Z</time>
      </trkpt>
      <trkpt lat="47.042" lon="6.13188">
        <ele>617.2</ele>
        <time>2022-10-02T11:42:43Z</time>
      </trkpt>
      <trkpt lat="47.04191" lon="6.1319">
        <ele>618.4</ele>
        <time>2022-10-02T11:42:46Z</time>
      </trkpt>
      <trkpt lat="47.0418" lon="6.13193">
        <ele>619.4</ele>
        <time>2022-10-02T11:42:50Z</time>
      </trkpt>
      <trkpt lat="47.04169" lon="6.13195">
        <ele>620.2</ele>
        <time>2022-10-02T11:42:54Z</time>
      </trkpt>
      <trkpt lat="47.04166" lon="6.13196">
        <ele>620.6</ele>
        <time>2022-10-02T11:42:55Z</time>
      </trkpt>
      <trkpt lat="47.04149" lon="6.132">
        <ele>621.6</ele>
        <time>2022-10-02T11:43:01Z</time>
      </trkpt>
      <trkpt lat="47.04128" lon="6.13204">
        <ele>622.8</ele>
        <time>2022-10-02T11:43:09Z</time>
      </trkpt>
      <trkpt lat="47.04122" lon="6.13205">
        <ele>623</ele>
        <time>2022-10-02T11:43:11Z</time>
      </trkpt>
      <trkpt lat="47.04103" lon="6.13212">
        <ele>624</ele>
        <time>2022-10-02T11:43:18Z</time>
      </trkpt>
      <trkpt lat="47.04095" lon="6.13216">
        <ele>625</ele>
        <time>2022-10-02T11:43:21Z</time>
      </trkpt>
      <trkpt lat="47.04078" lon="6.13225">
        <ele>626.2</ele>
        <time>2022-10-02T11:43:28Z</time>
      </trkpt>
      <trkpt lat="47.04074" lon="6.13227">
        <ele>627</ele>
        <time>2022-10-02T11:43:30Z</time>
      </trkpt>
      <trkpt lat="47.04072" lon="6.13229">
        <ele>627.2</ele>
        <time>2022-10-02T11:43:31Z</time>
      </trkpt>
      <trkpt lat="47.04065" lon="6.13234">
        <ele>628.4</ele>
        <time>2022-10-02T11:43:35Z</time>
      </trkpt>
      <trkpt lat="47.04061" lon="6.13237">
        <ele>629</ele>
        <time>2022-10-02T11:43:37Z</time>
      </trkpt>
      <trkpt lat="47.04059" lon="6.13238">
        <ele>629.4</ele>
        <time>2022-10-02T11:43:38Z</time>
      </trkpt>
      <trkpt lat="47.0405" lon="6.13246">
        <ele>631.2</ele>
        <time>2022-10-02T11:43:42Z</time>
      </trkpt>
      <trkpt lat="47.04043" lon="6.13253">
        <ele>632</ele>
        <time>2022-10-02T11:43:45Z</time>
      </trkpt>
      <trkpt lat="47.04041" lon="6.13256">
        <ele>632.4</ele>
        <time>2022-10-02T11:43:46Z</time>
      </trkpt>
      <trkpt lat="47.04036" lon="6.13261">
        <ele>633.8</ele>
        <time>2022-10-02T11:43:48Z</time>
      </trkpt>
      <trkpt lat="47.04028" lon="6.1327">
        <ele>635</ele>
        <time>2022-10-02T11:43:51Z</time>
      </trkpt>
      <trkpt lat="47.0402" lon="6.13279">
        <ele>635.4</ele>
        <time>2022-10-02T11:43:54Z</time>
      </trkpt>
      <trkpt lat="47.04005" lon="6.13303">
        <ele>634</ele>
        <time>2022-10-02T11:44:00Z</time>
      </trkpt>
      <trkpt lat="47.04005" lon="6.13318">
        <ele>634.2</ele>
        <time>2022-10-02T11:44:05Z</time>
      </trkpt>
      <trkpt lat="47.04006" lon="6.13336">
        <ele>635</ele>
        <time>2022-10-02T11:44:11Z</time>
      </trkpt>
      <trkpt lat="47.04006" lon="6.13339">
        <ele>635.2</ele>
        <time>2022-10-02T11:44:12Z</time>
      </trkpt>
      <trkpt lat="47.04008" lon="6.13352">
        <ele>636.2</ele>
        <time>2022-10-02T11:44:16Z</time>
      </trkpt>
      <trkpt lat="47.04012" lon="6.13368">
        <ele>635.6</ele>
        <time>2022-10-02T11:44:21Z</time>
      </trkpt>
      <trkpt lat="47.04017" lon="6.13391">
        <ele>635.4</ele>
        <time>2022-10-02T11:44:28Z</time>
      </trkpt>
      <trkpt lat="47.04018" lon="6.13395">
        <ele>635.2</ele>
        <time>2022-10-02T11:44:29Z</time>
      </trkpt>
      <trkpt lat="47.04022" lon="6.13412">
        <ele>634</ele>
        <time>2022-10-02T11:44:34Z</time>
      </trkpt>
      <trkpt lat="47.04028" lon="6.13431">
        <ele>633.4</ele>
        <time>2022-10-02T11:44:41Z</time>
      </trkpt>
      <trkpt lat="47.0403" lon="6.13442">
        <ele>633</ele>
        <time>2022-10-02T11:44:44Z</time>
      </trkpt>
      <trkpt lat="47.04033" lon="6.13455">
        <ele>633.2</ele>
        <time>2022-10-02T11:44:47Z</time>
      </trkpt>
      <trkpt lat="47.04036" lon="6.13475">
        <ele>634</ele>
        <time>2022-10-02T11:44:52Z</time>
      </trkpt>
      <trkpt lat="47.04038" lon="6.13486">
        <ele>634.8</ele>
        <time>2022-10-02T11:44:55Z</time>
      </trkpt>
      <trkpt lat="47.0404" lon="6.13493">
        <ele>635.6</ele>
        <time>2022-10-02T11:44:57Z</time>
      </trkpt>
      <trkpt lat="47.04043" lon="6.13508">
        <ele>636.6</ele>
        <time>2022-10-02T11:45:01Z</time>
      </trkpt>
      <trkpt lat="47.04047" lon="6.13522">
        <ele>637.4</ele>
        <time>2022-10-02T11:45:05Z</time>
      </trkpt>
      <trkpt lat="47.04048" lon="6.13529">
        <ele>637.8</ele>
        <time>2022-10-02T11:45:07Z</time>
      </trkpt>
      <trkpt lat="47.0405" lon="6.13546">
        <ele>638.8</ele>
        <time>2022-10-02T11:45:12Z</time>
      </trkpt>
      <trkpt lat="47.04052" lon="6.13565">
        <ele>638.8</ele>
        <time>2022-10-02T11:45:18Z</time>
      </trkpt>
      <trkpt lat="47.04056" lon="6.13592">
        <ele>639.2</ele>
        <time>2022-10-02T11:45:26Z</time>
      </trkpt>
      <trkpt lat="47.04062" lon="6.13625">
        <ele>639.6</ele>
        <time>2022-10-02T11:45:34Z</time>
      </trkpt>
      <trkpt lat="47.04063" lon="6.1364">
        <ele>640</ele>
        <time>2022-10-02T11:45:38Z</time>
      </trkpt>
      <trkpt lat="47.04065" lon="6.13657">
        <ele>640.8</ele>
        <time>2022-10-02T11:45:42Z</time>
      </trkpt>
      <trkpt lat="47.04065" lon="6.13662">
        <ele>641</ele>
        <time>2022-10-02T11:45:43Z</time>
      </trkpt>
      <trkpt lat="47.04066" lon="6.13686">
        <ele>641.4</ele>
        <time>2022-10-02T11:45:48Z</time>
      </trkpt>
      <trkpt lat="47.04066" lon="6.13726">
        <ele>641.8</ele>
        <time>2022-10-02T11:45:55Z</time>
      </trkpt>
      <trkpt lat="47.04066" lon="6.13731">
        <ele>642</ele>
        <time>2022-10-02T11:45:56Z</time>
      </trkpt>
      <trkpt lat="47.04066" lon="6.13767">
        <ele>642.2</ele>
        <time>2022-10-02T11:46:03Z</time>
      </trkpt>
      <trkpt lat="47.04065" lon="6.13801">
        <ele>642.6</ele>
        <time>2022-10-02T11:46:10Z</time>
      </trkpt>
      <trkpt lat="47.04068" lon="6.1384">
        <ele>642.2</ele>
        <time>2022-10-02T11:46:17Z</time>
      </trkpt>
      <trkpt lat="47.04073" lon="6.13883">
        <ele>642</ele>
        <time>2022-10-02T11:46:24Z</time>
      </trkpt>
      <trkpt lat="47.04075" lon="6.13931">
        <ele>642.4</ele>
        <time>2022-10-02T11:46:31Z</time>
      </trkpt>
      <trkpt lat="47.04077" lon="6.1396">
        <ele>642.2</ele>
        <time>2022-10-02T11:46:35Z</time>
      </trkpt>
      <trkpt lat="47.04078" lon="6.13984">
        <ele>642</ele>
        <time>2022-10-02T11:46:38Z</time>
      </trkpt>
      <trkpt lat="47.04081" lon="6.1403">
        <ele>641</ele>
        <time>2022-10-02T11:46:43Z</time>
      </trkpt>
      <trkpt lat="47.04082" lon="6.1404">
        <ele>640.8</ele>
        <time>2022-10-02T11:46:44Z</time>
      </trkpt>
      <trkpt lat="47.04087" lon="6.14091">
        <ele>640.4</ele>
        <time>2022-10-02T11:46:50Z</time>
      </trkpt>
      <trkpt lat="47.0409" lon="6.14135">
        <ele>639.8</ele>
        <time>2022-10-02T11:46:55Z</time>
      </trkpt>
      <trkpt lat="47.04091" lon="6.1416">
        <ele>639.4</ele>
        <time>2022-10-02T11:46:58Z</time>
      </trkpt>
      <trkpt lat="47.04096" lon="6.1422">
        <ele>639.2</ele>
        <time>2022-10-02T11:47:05Z</time>
      </trkpt>
      <trkpt lat="47.04103" lon="6.1428">
        <ele>639.2</ele>
        <time>2022-10-02T11:47:13Z</time>
      </trkpt>
      <trkpt lat="47.04109" lon="6.14326">
        <ele>639</ele>
        <time>2022-10-02T11:47:20Z</time>
      </trkpt>
      <trkpt lat="47.04116" lon="6.14373">
        <ele>639</ele>
        <time>2022-10-02T11:47:26Z</time>
      </trkpt>
      <trkpt lat="47.04118" lon="6.14382">
        <ele>638.8</ele>
        <time>2022-10-02T11:47:27Z</time>
      </trkpt>
      <trkpt lat="47.04128" lon="6.14436">
        <ele>638.4</ele>
        <time>2022-10-02T11:47:33Z</time>
      </trkpt>
      <trkpt lat="47.04139" lon="6.14508">
        <ele>637.6</ele>
        <time>2022-10-02T11:47:40Z</time>
      </trkpt>
      <trkpt lat="47.0414" lon="6.14519">
        <ele>637.2</ele>
        <time>2022-10-02T11:47:41Z</time>
      </trkpt>
      <trkpt lat="47.04137" lon="6.1455">
        <ele>637</ele>
        <time>2022-10-02T11:47:44Z</time>
      </trkpt>
      <trkpt lat="47.04126" lon="6.14619">
        <ele>636.4</ele>
        <time>2022-10-02T11:47:51Z</time>
      </trkpt>
      <trkpt lat="47.04119" lon="6.14656">
        <ele>635.6</ele>
        <time>2022-10-02T11:47:55Z</time>
      </trkpt>
      <trkpt lat="47.04118" lon="6.14665">
        <ele>635.4</ele>
        <time>2022-10-02T11:47:56Z</time>
      </trkpt>
      <trkpt lat="47.04117" lon="6.14674">
        <ele>635.4</ele>
        <time>2022-10-02T11:47:57Z</time>
      </trkpt>
      <trkpt lat="47.04118" lon="6.14683">
        <ele>635.2</ele>
        <time>2022-10-02T11:47:58Z</time>
      </trkpt>
      <trkpt lat="47.0413" lon="6.14715">
        <ele>634.4</ele>
        <time>2022-10-02T11:48:02Z</time>
      </trkpt>
      <trkpt lat="47.04134" lon="6.14722">
        <ele>634.2</ele>
        <time>2022-10-02T11:48:03Z</time>
      </trkpt>
      <trkpt lat="47.04139" lon="6.14729">
        <ele>634</ele>
        <time>2022-10-02T11:48:04Z</time>
      </trkpt>
      <trkpt lat="47.04156" lon="6.14749">
        <ele>633.6</ele>
        <time>2022-10-02T11:48:07Z</time>
      </trkpt>
      <trkpt lat="47.04167" lon="6.14762">
        <ele>633.2</ele>
        <time>2022-10-02T11:48:09Z</time>
      </trkpt>
      <trkpt lat="47.04182" lon="6.14777">
        <ele>632.4</ele>
        <time>2022-10-02T11:48:12Z</time>
      </trkpt>
      <trkpt lat="47.04188" lon="6.14782">
        <ele>632</ele>
        <time>2022-10-02T11:48:13Z</time>
      </trkpt>
      <trkpt lat="47.04206" lon="6.14791">
        <ele>631.4</ele>
        <time>2022-10-02T11:48:16Z</time>
      </trkpt>
      <trkpt lat="47.04212" lon="6.14792">
        <ele>631.2</ele>
        <time>2022-10-02T11:48:17Z</time>
      </trkpt>
      <trkpt lat="47.04249" lon="6.14805">
        <ele>631.8</ele>
        <time>2022-10-02T11:48:23Z</time>
      </trkpt>
      <trkpt lat="47.04293" lon="6.14823">
        <ele>632.6</ele>
        <time>2022-10-02T11:48:31Z</time>
      </trkpt>
      <trkpt lat="47.04297" lon="6.14824">
        <ele>632.8</ele>
        <time>2022-10-02T11:48:32Z</time>
      </trkpt>
      <trkpt lat="47.04308" lon="6.14825">
        <ele>633</ele>
        <time>2022-10-02T11:48:35Z</time>
      </trkpt>
      <trkpt lat="47.04311" lon="6.14826">
        <ele>633.2</ele>
        <time>2022-10-02T11:48:36Z</time>
      </trkpt>
      <trkpt lat="47.04321" lon="6.14822">
        <ele>634</ele>
        <time>2022-10-02T11:48:40Z</time>
      </trkpt>
      <trkpt lat="47.04331" lon="6.1481">
        <ele>634</ele>
        <time>2022-10-02T11:48:46Z</time>
      </trkpt>
      <trkpt lat="47.04333" lon="6.14827">
        <ele>627.4</ele>
        <time>2022-10-02T11:56:04Z</time>
      </trkpt>
      <trkpt lat="47.04334" lon="6.1483">
        <ele>627.6</ele>
        <time>2022-10-02T11:56:05Z</time>
      </trkpt>
      <trkpt lat="47.04341" lon="6.14846">
        <ele>628.8</ele>
        <time>2022-10-02T11:56:11Z</time>
      </trkpt>
      <trkpt lat="47.04344" lon="6.14852">
        <ele>629.8</ele>
        <time>2022-10-02T11:56:13Z</time>
      </trkpt>
      <trkpt lat="47.04345" lon="6.14857">
        <ele>631</ele>
        <time>2022-10-02T11:56:15Z</time>
      </trkpt>
      <trkpt lat="47.04348" lon="6.14865">
        <ele>632.6</ele>
        <time>2022-10-02T11:56:17Z</time>
      </trkpt>
      <trkpt lat="47.04352" lon="6.14875">
        <ele>634.4</ele>
        <time>2022-10-02T11:56:19Z</time>
      </trkpt>
      <trkpt lat="47.04357" lon="6.14885">
        <ele>636</ele>
        <time>2022-10-02T11:56:21Z</time>
      </trkpt>
      <trkpt lat="47.04361" lon="6.14896">
        <ele>637.4</ele>
        <time>2022-10-02T11:56:23Z</time>
      </trkpt>
      <trkpt lat="47.04365" lon="6.14907">
        <ele>639.4</ele>
        <time>2022-10-02T11:56:25Z</time>
      </trkpt>
      <trkpt lat="47.04368" lon="6.14913">
        <ele>640.6</ele>
        <time>2022-10-02T11:56:26Z</time>
      </trkpt>
      <trkpt lat="47.0437" lon="6.14919">
        <ele>641.6</ele>
        <time>2022-10-02T11:56:27Z</time>
      </trkpt>
      <trkpt lat="47.04373" lon="6.14925">
        <ele>643</ele>
        <time>2022-10-02T11:56:28Z</time>
      </trkpt>
      <trkpt lat="47.04375" lon="6.14932">
        <ele>644.6</ele>
        <time>2022-10-02T11:56:29Z</time>
      </trkpt>
      <trkpt lat="47.04378" lon="6.14939">
        <ele>646</ele>
        <time>2022-10-02T11:56:30Z</time>
      </trkpt>
      <trkpt lat="47.04381" lon="6.14946">
        <ele>647.6</ele>
        <time>2022-10-02T11:56:31Z</time>
      </trkpt>
      <trkpt lat="47.04385" lon="6.14953">
        <ele>649</ele>
        <time>2022-10-02T11:56:32Z</time>
      </trkpt>
      <trkpt lat="47.04388" lon="6.14961">
        <ele>650.4</ele>
        <time>2022-10-02T11:56:33Z</time>
      </trkpt>
      <trkpt lat="47.04391" lon="6.14968">
        <ele>652</ele>
        <time>2022-10-02T11:56:34Z</time>
      </trkpt>
      <trkpt lat="47.04394" lon="6.14975">
        <ele>653.6</ele>
        <time>2022-10-02T11:56:35Z</time>
      </trkpt>
      <trkpt lat="47.04396" lon="6.14982">
        <ele>655.2</ele>
        <time>2022-10-02T11:56:36Z</time>
      </trkpt>
      <trkpt lat="47.04346" lon="6.1481">
        <ele>638</ele>
        <time>2022-10-02T12:03:11Z</time>
      </trkpt>
      <trkpt lat="47.04357" lon="6.14813">
        <ele>637.2</ele>
        <time>2022-10-02T12:03:15Z</time>
      </trkpt>
      <trkpt lat="47.04361" lon="6.14816">
        <ele>636.8</ele>
        <time>2022-10-02T12:03:16Z</time>
      </trkpt>
      <trkpt lat="47.04371" lon="6.1483">
        <ele>636</ele>
        <time>2022-10-02T12:03:19Z</time>
      </trkpt>
      <trkpt lat="47.04374" lon="6.14836">
        <ele>635.8</ele>
        <time>2022-10-02T12:03:20Z</time>
      </trkpt>
      <trkpt lat="47.04376" lon="6.14843">
        <ele>635.8</ele>
        <time>2022-10-02T12:03:21Z</time>
      </trkpt>
      <trkpt lat="47.04379" lon="6.14857">
        <ele>635.6</ele>
        <time>2022-10-02T12:03:23Z</time>
      </trkpt>
      <trkpt lat="47.04389" lon="6.14868">
        <ele>635.4</ele>
        <time>2022-10-02T12:03:26Z</time>
      </trkpt>
      <trkpt lat="47.04392" lon="6.1487">
        <ele>635.4</ele>
        <time>2022-10-02T12:03:27Z</time>
      </trkpt>
      <trkpt lat="47.04397" lon="6.1487">
        <ele>635.4</ele>
        <time>2022-10-02T12:03:29Z</time>
      </trkpt>
      <trkpt lat="47.04399" lon="6.14868">
        <ele>635.6</ele>
        <time>2022-10-02T12:03:30Z</time>
      </trkpt>
      <trkpt lat="47.04404" lon="6.14857">
        <ele>635.8</ele>
        <time>2022-10-02T12:03:34Z</time>
      </trkpt>
      <trkpt lat="47.04406" lon="6.14852">
        <ele>635.8</ele>
        <time>2022-10-02T12:03:36Z</time>
      </trkpt>
      <trkpt lat="47.04416" lon="6.14843">
        <ele>636.6</ele>
        <time>2022-10-02T12:03:42Z</time>
      </trkpt>
      <trkpt lat="47.04421" lon="6.14843">
        <ele>637</ele>
        <time>2022-10-02T12:03:44Z</time>
      </trkpt>
      <trkpt lat="47.04431" lon="6.14842">
        <ele>637.6</ele>
        <time>2022-10-02T12:03:47Z</time>
      </trkpt>
      <trkpt lat="47.0444" lon="6.14844">
        <ele>638.2</ele>
        <time>2022-10-02T12:03:50Z</time>
      </trkpt>
      <trkpt lat="47.04448" lon="6.14847">
        <ele>639</ele>
        <time>2022-10-02T12:03:53Z</time>
      </trkpt>
      <trkpt lat="47.04464" lon="6.14854">
        <ele>639.2</ele>
        <time>2022-10-02T12:04:00Z</time>
      </trkpt>
      <trkpt lat="47.04468" lon="6.14854">
        <ele>639.4</ele>
        <time>2022-10-02T12:04:02Z</time>
      </trkpt>
      <trkpt lat="47.04481" lon="6.14857">
        <ele>639.4</ele>
        <time>2022-10-02T12:04:08Z</time>
      </trkpt>
      <trkpt lat="47.04491" lon="6.14872">
        <ele>639.8</ele>
        <time>2022-10-02T12:04:13Z</time>
      </trkpt>
      <trkpt lat="47.04495" lon="6.14888">
        <ele>640</ele>
        <time>2022-10-02T12:04:18Z</time>
      </trkpt>
      <trkpt lat="47.04494" lon="6.14891">
        <ele>640.4</ele>
        <time>2022-10-02T12:04:20Z</time>
      </trkpt>
      <trkpt lat="47.04491" lon="6.14897">
        <ele>640.8</ele>
        <time>2022-10-02T12:04:25Z</time>
      </trkpt>
      <trkpt lat="47.04483" lon="6.1491">
        <ele>640.8</ele>
        <time>2022-10-02T12:04:30Z</time>
      </trkpt>
      <trkpt lat="47.04483" lon="6.14917">
        <ele>640.8</ele>
        <time>2022-10-02T12:04:32Z</time>
      </trkpt>
      <trkpt lat="47.04486" lon="6.14923">
        <ele>640.8</ele>
        <time>2022-10-02T12:04:34Z</time>
      </trkpt>
      <trkpt lat="47.04497" lon="6.14928">
        <ele>641.4</ele>
        <time>2022-10-02T12:04:38Z</time>
      </trkpt>
      <trkpt lat="47.045" lon="6.14929">
        <ele>641.2</ele>
        <time>2022-10-02T12:04:39Z</time>
      </trkpt>
      <trkpt lat="47.04507" lon="6.14933">
        <ele>641.4</ele>
        <time>2022-10-02T12:04:42Z</time>
      </trkpt>
      <trkpt lat="47.04513" lon="6.14936">
        <ele>641.6</ele>
        <time>2022-10-02T12:04:45Z</time>
      </trkpt>
      <trkpt lat="47.04523" lon="6.14942">
        <ele>641.8</ele>
        <time>2022-10-02T12:04:50Z</time>
      </trkpt>
      <trkpt lat="47.04545" lon="6.14956">
        <ele>642</ele>
        <time>2022-10-02T12:04:58Z</time>
      </trkpt>
      <trkpt lat="47.04562" lon="6.14967">
        <ele>641.8</ele>
        <time>2022-10-02T12:05:05Z</time>
      </trkpt>
      <trkpt lat="47.0457" lon="6.1497">
        <ele>642.4</ele>
        <time>2022-10-02T12:05:09Z</time>
      </trkpt>
      <trkpt lat="47.04577" lon="6.14973">
        <ele>643</ele>
        <time>2022-10-02T12:05:12Z</time>
      </trkpt>
      <trkpt lat="47.04599" lon="6.14982">
        <ele>643</ele>
        <time>2022-10-02T12:05:20Z</time>
      </trkpt>
      <trkpt lat="47.0462" lon="6.1499">
        <ele>643.2</ele>
        <time>2022-10-02T12:05:29Z</time>
      </trkpt>
      <trkpt lat="47.0463" lon="6.14993">
        <ele>643.6</ele>
        <time>2022-10-02T12:05:33Z</time>
      </trkpt>
      <trkpt lat="47.0464" lon="6.14998">
        <ele>644</ele>
        <time>2022-10-02T12:05:38Z</time>
      </trkpt>
      <trkpt lat="47.04645" lon="6.14999">
        <ele>644</ele>
        <time>2022-10-02T12:05:40Z</time>
      </trkpt>
      <trkpt lat="47.04655" lon="6.15002">
        <ele>644.4</ele>
        <time>2022-10-02T12:05:44Z</time>
      </trkpt>
      <trkpt lat="47.04664" lon="6.15006">
        <ele>644.6</ele>
        <time>2022-10-02T12:05:48Z</time>
      </trkpt>
      <trkpt lat="47.04666" lon="6.15007">
        <ele>644.8</ele>
        <time>2022-10-02T12:05:49Z</time>
      </trkpt>
      <trkpt lat="47.04673" lon="6.15013">
        <ele>645.8</ele>
        <time>2022-10-02T12:05:53Z</time>
      </trkpt>
      <trkpt lat="47.04676" lon="6.15017">
        <ele>646.4</ele>
        <time>2022-10-02T12:05:55Z</time>
      </trkpt>
      <trkpt lat="47.04685" lon="6.15028">
        <ele>647</ele>
        <time>2022-10-02T12:06:01Z</time>
      </trkpt>
      <trkpt lat="47.04688" lon="6.15032">
        <ele>647.6</ele>
        <time>2022-10-02T12:06:03Z</time>
      </trkpt>
      <trkpt lat="47.04693" lon="6.15039">
        <ele>648</ele>
        <time>2022-10-02T12:06:07Z</time>
      </trkpt>
      <trkpt lat="47.04698" lon="6.15047">
        <ele>648.6</ele>
        <time>2022-10-02T12:06:11Z</time>
      </trkpt>
      <trkpt lat="47.04703" lon="6.15055">
        <ele>649.2</ele>
        <time>2022-10-02T12:06:15Z</time>
      </trkpt>
      <trkpt lat="47.04708" lon="6.15062">
        <ele>649.4</ele>
        <time>2022-10-02T12:06:18Z</time>
      </trkpt>
      <trkpt lat="47.04718" lon="6.1508">
        <ele>650.2</ele>
        <time>2022-10-02T12:06:27Z</time>
      </trkpt>
      <trkpt lat="47.04721" lon="6.15082">
        <ele>650.4</ele>
        <time>2022-10-02T12:06:29Z</time>
      </trkpt>
      <trkpt lat="47.04724" lon="6.15087">
        <ele>650</ele>
        <time>2022-10-02T12:06:32Z</time>
      </trkpt>
      <trkpt lat="47.04725" lon="6.15089">
        <ele>650</ele>
        <time>2022-10-02T12:06:33Z</time>
      </trkpt>
      <trkpt lat="47.04733" lon="6.151">
        <ele>650.4</ele>
        <time>2022-10-02T12:06:40Z</time>
      </trkpt>
      <trkpt lat="47.0474" lon="6.15112">
        <ele>650.8</ele>
        <time>2022-10-02T12:06:47Z</time>
      </trkpt>
      <trkpt lat="47.04743" lon="6.15116">
        <ele>651.4</ele>
        <time>2022-10-02T12:06:49Z</time>
      </trkpt>
      <trkpt lat="47.04751" lon="6.1513">
        <ele>651.4</ele>
        <time>2022-10-02T12:06:55Z</time>
      </trkpt>
      <trkpt lat="47.04759" lon="6.15141">
        <ele>652.4</ele>
        <time>2022-10-02T12:07:01Z</time>
      </trkpt>
      <trkpt lat="47.0476" lon="6.15143">
        <ele>652.4</ele>
        <time>2022-10-02T12:07:02Z</time>
      </trkpt>
      <trkpt lat="47.04771" lon="6.1516">
        <ele>653.6</ele>
        <time>2022-10-02T12:07:11Z</time>
      </trkpt>
      <trkpt lat="47.04783" lon="6.15176">
        <ele>654.6</ele>
        <time>2022-10-02T12:07:19Z</time>
      </trkpt>
      <trkpt lat="47.04794" lon="6.15192">
        <ele>655.4</ele>
        <time>2022-10-02T12:07:26Z</time>
      </trkpt>
      <trkpt lat="47.04799" lon="6.15199">
        <ele>655.8</ele>
        <time>2022-10-02T12:07:29Z</time>
      </trkpt>
      <trkpt lat="47.04806" lon="6.15209">
        <ele>656.8</ele>
        <time>2022-10-02T12:07:33Z</time>
      </trkpt>
      <trkpt lat="47.04808" lon="6.15211">
        <ele>656.8</ele>
        <time>2022-10-02T12:07:34Z</time>
      </trkpt>
      <trkpt lat="47.04821" lon="6.15234">
        <ele>657.8</ele>
        <time>2022-10-02T12:07:42Z</time>
      </trkpt>
      <trkpt lat="47.04834" lon="6.15246">
        <ele>657.6</ele>
        <time>2022-10-02T12:07:48Z</time>
      </trkpt>
      <trkpt lat="47.04849" lon="6.15259">
        <ele>658.4</ele>
        <time>2022-10-02T12:07:54Z</time>
      </trkpt>
      <trkpt lat="47.0487" lon="6.15277">
        <ele>658.6</ele>
        <time>2022-10-02T12:08:01Z</time>
      </trkpt>
      <trkpt lat="47.04876" lon="6.15284">
        <ele>658.8</ele>
        <time>2022-10-02T12:08:03Z</time>
      </trkpt>
      <trkpt lat="47.04889" lon="6.15303">
        <ele>659</ele>
        <time>2022-10-02T12:08:08Z</time>
      </trkpt>
      <trkpt lat="47.04903" lon="6.15334">
        <ele>658.8</ele>
        <time>2022-10-02T12:08:15Z</time>
      </trkpt>
      <trkpt lat="47.04915" lon="6.15364">
        <ele>658.2</ele>
        <time>2022-10-02T12:08:23Z</time>
      </trkpt>
      <trkpt lat="47.04925" lon="6.15386">
        <ele>659.4</ele>
        <time>2022-10-02T12:08:30Z</time>
      </trkpt>
      <trkpt lat="47.04931" lon="6.15399">
        <ele>660</ele>
        <time>2022-10-02T12:08:34Z</time>
      </trkpt>
      <trkpt lat="47.04937" lon="6.15411">
        <ele>660.2</ele>
        <time>2022-10-02T12:08:38Z</time>
      </trkpt>
      <trkpt lat="47.04947" lon="6.15428">
        <ele>660.4</ele>
        <time>2022-10-02T12:08:43Z</time>
      </trkpt>
      <trkpt lat="47.04959" lon="6.15448">
        <ele>661</ele>
        <time>2022-10-02T12:08:49Z</time>
      </trkpt>
      <trkpt lat="47.04967" lon="6.15474">
        <ele>661.4</ele>
        <time>2022-10-02T12:08:55Z</time>
      </trkpt>
      <trkpt lat="47.0497" lon="6.15491">
        <ele>662</ele>
        <time>2022-10-02T12:08:59Z</time>
      </trkpt>
      <trkpt lat="47.0497" lon="6.155">
        <ele>662.4</ele>
        <time>2022-10-02T12:09:01Z</time>
      </trkpt>
      <trkpt lat="47.04971" lon="6.15529">
        <ele>662.4</ele>
        <time>2022-10-02T12:09:08Z</time>
      </trkpt>
      <trkpt lat="47.04975" lon="6.15552">
        <ele>662.8</ele>
        <time>2022-10-02T12:09:15Z</time>
      </trkpt>
      <trkpt lat="47.04986" lon="6.1558">
        <ele>662.6</ele>
        <time>2022-10-02T12:09:22Z</time>
      </trkpt>
      <trkpt lat="47.05004" lon="6.15606">
        <ele>662.4</ele>
        <time>2022-10-02T12:09:29Z</time>
      </trkpt>
      <trkpt lat="47.05021" lon="6.15627">
        <ele>663</ele>
        <time>2022-10-02T12:09:36Z</time>
      </trkpt>
      <trkpt lat="47.05032" lon="6.1565">
        <ele>663.2</ele>
        <time>2022-10-02T12:09:41Z</time>
      </trkpt>
      <trkpt lat="47.05035" lon="6.15655">
        <ele>663.2</ele>
        <time>2022-10-02T12:09:42Z</time>
      </trkpt>
      <trkpt lat="47.05048" lon="6.15687">
        <ele>662.6</ele>
        <time>2022-10-02T12:09:49Z</time>
      </trkpt>
      <trkpt lat="47.05067" lon="6.15727">
        <ele>663.2</ele>
        <time>2022-10-02T12:09:58Z</time>
      </trkpt>
      <trkpt lat="47.05085" lon="6.15756">
        <ele>662.2</ele>
        <time>2022-10-02T12:10:04Z</time>
      </trkpt>
      <trkpt lat="47.05096" lon="6.15783">
        <ele>661.4</ele>
        <time>2022-10-02T12:10:10Z</time>
      </trkpt>
      <trkpt lat="47.051" lon="6.15789">
        <ele>661</ele>
        <time>2022-10-02T12:10:12Z</time>
      </trkpt>
      <trkpt lat="47.05108" lon="6.15797">
        <ele>661</ele>
        <time>2022-10-02T12:10:15Z</time>
      </trkpt>
      <trkpt lat="47.05131" lon="6.15819">
        <ele>659.8</ele>
        <time>2022-10-02T12:10:22Z</time>
      </trkpt>
      <trkpt lat="47.05142" lon="6.15826">
        <ele>658.8</ele>
        <time>2022-10-02T12:10:25Z</time>
      </trkpt>
      <trkpt lat="47.0515" lon="6.15832">
        <ele>658</ele>
        <time>2022-10-02T12:10:28Z</time>
      </trkpt>
      <trkpt lat="47.05152" lon="6.15835">
        <ele>657.6</ele>
        <time>2022-10-02T12:10:29Z</time>
      </trkpt>
      <trkpt lat="47.05156" lon="6.15848">
        <ele>656.6</ele>
        <time>2022-10-02T12:10:32Z</time>
      </trkpt>
      <trkpt lat="47.05163" lon="6.15865">
        <ele>655.2</ele>
        <time>2022-10-02T12:10:35Z</time>
      </trkpt>
      <trkpt lat="47.05168" lon="6.15875">
        <ele>654.6</ele>
        <time>2022-10-02T12:10:37Z</time>
      </trkpt>
      <trkpt lat="47.05173" lon="6.15883">
        <ele>654</ele>
        <time>2022-10-02T12:10:39Z</time>
      </trkpt>
      <trkpt lat="47.05183" lon="6.15894">
        <ele>652.8</ele>
        <time>2022-10-02T12:10:42Z</time>
      </trkpt>
      <trkpt lat="47.0519" lon="6.15902">
        <ele>652.2</ele>
        <time>2022-10-02T12:10:44Z</time>
      </trkpt>
      <trkpt lat="47.05198" lon="6.15909">
        <ele>651.8</ele>
        <time>2022-10-02T12:10:46Z</time>
      </trkpt>
      <trkpt lat="47.0522" lon="6.15933">
        <ele>650.8</ele>
        <time>2022-10-02T12:10:52Z</time>
      </trkpt>
      <trkpt lat="47.05224" lon="6.15937">
        <ele>650.6</ele>
        <time>2022-10-02T12:10:53Z</time>
      </trkpt>
      <trkpt lat="47.0525" lon="6.15965">
        <ele>650</ele>
        <time>2022-10-02T12:11:00Z</time>
      </trkpt>
      <trkpt lat="47.05276" lon="6.15983">
        <ele>649.8</ele>
        <time>2022-10-02T12:11:07Z</time>
      </trkpt>
      <trkpt lat="47.05302" lon="6.15997">
        <ele>650</ele>
        <time>2022-10-02T12:11:14Z</time>
      </trkpt>
      <trkpt lat="47.05323" lon="6.16006">
        <ele>649.6</ele>
        <time>2022-10-02T12:11:20Z</time>
      </trkpt>
      <trkpt lat="47.05327" lon="6.16007">
        <ele>649.6</ele>
        <time>2022-10-02T12:11:21Z</time>
      </trkpt>
      <trkpt lat="47.05352" lon="6.16025">
        <ele>649.4</ele>
        <time>2022-10-02T12:11:28Z</time>
      </trkpt>
      <trkpt lat="47.05365" lon="6.16037">
        <ele>648.8</ele>
        <time>2022-10-02T12:11:32Z</time>
      </trkpt>
      <trkpt lat="47.05369" lon="6.1604">
        <ele>648.8</ele>
        <time>2022-10-02T12:11:33Z</time>
      </trkpt>
      <trkpt lat="47.05399" lon="6.16057">
        <ele>649.8</ele>
        <time>2022-10-02T12:11:41Z</time>
      </trkpt>
      <trkpt lat="47.05412" lon="6.16066">
        <ele>650.6</ele>
        <time>2022-10-02T12:11:45Z</time>
      </trkpt>
      <trkpt lat="47.05423" lon="6.16075">
        <ele>651</ele>
        <time>2022-10-02T12:11:48Z</time>
      </trkpt>
      <trkpt lat="47.05432" lon="6.16088">
        <ele>651</ele>
        <time>2022-10-02T12:11:51Z</time>
      </trkpt>
      <trkpt lat="47.05439" lon="6.16101">
        <ele>651.2</ele>
        <time>2022-10-02T12:11:54Z</time>
      </trkpt>
      <trkpt lat="47.05449" lon="6.16127">
        <ele>650.8</ele>
        <time>2022-10-02T12:11:59Z</time>
      </trkpt>
      <trkpt lat="47.05453" lon="6.1616">
        <ele>649.6</ele>
        <time>2022-10-02T12:12:05Z</time>
      </trkpt>
      <trkpt lat="47.05454" lon="6.16166">
        <ele>649.2</ele>
        <time>2022-10-02T12:12:06Z</time>
      </trkpt>
      <trkpt lat="47.05456" lon="6.16177">
        <ele>648.4</ele>
        <time>2022-10-02T12:12:08Z</time>
      </trkpt>
      <trkpt lat="47.05462" lon="6.16195">
        <ele>647.2</ele>
        <time>2022-10-02T12:12:11Z</time>
      </trkpt>
      <trkpt lat="47.05468" lon="6.1621">
        <ele>646</ele>
        <time>2022-10-02T12:12:14Z</time>
      </trkpt>
      <trkpt lat="47.05473" lon="6.1622">
        <ele>645.2</ele>
        <time>2022-10-02T12:12:16Z</time>
      </trkpt>
      <trkpt lat="47.05475" lon="6.16226">
        <ele>644.8</ele>
        <time>2022-10-02T12:12:17Z</time>
      </trkpt>
      <trkpt lat="47.05482" lon="6.16242">
        <ele>643.8</ele>
        <time>2022-10-02T12:12:20Z</time>
      </trkpt>
      <trkpt lat="47.05491" lon="6.16256">
        <ele>642.4</ele>
        <time>2022-10-02T12:12:23Z</time>
      </trkpt>
      <trkpt lat="47.05503" lon="6.16276">
        <ele>641</ele>
        <time>2022-10-02T12:12:27Z</time>
      </trkpt>
      <trkpt lat="47.05512" lon="6.1629">
        <ele>640</ele>
        <time>2022-10-02T12:12:30Z</time>
      </trkpt>
      <trkpt lat="47.05515" lon="6.16295">
        <ele>639.6</ele>
        <time>2022-10-02T12:12:31Z</time>
      </trkpt>
      <trkpt lat="47.05522" lon="6.16308">
        <ele>638.2</ele>
        <time>2022-10-02T12:12:34Z</time>
      </trkpt>
      <trkpt lat="47.05527" lon="6.16317">
        <ele>637.2</ele>
        <time>2022-10-02T12:12:36Z</time>
      </trkpt>
      <trkpt lat="47.05531" lon="6.16323">
        <ele>636.8</ele>
        <time>2022-10-02T12:12:37Z</time>
      </trkpt>
      <trkpt lat="47.05533" lon="6.16329">
        <ele>636</ele>
        <time>2022-10-02T12:12:38Z</time>
      </trkpt>
      <trkpt lat="47.05537" lon="6.16341">
        <ele>634.8</ele>
        <time>2022-10-02T12:12:40Z</time>
      </trkpt>
      <trkpt lat="47.05538" lon="6.16347">
        <ele>634</ele>
        <time>2022-10-02T12:12:41Z</time>
      </trkpt>
      <trkpt lat="47.0554" lon="6.16352">
        <ele>633.2</ele>
        <time>2022-10-02T12:12:42Z</time>
      </trkpt>
      <trkpt lat="47.05542" lon="6.16361">
        <ele>631.8</ele>
        <time>2022-10-02T12:12:44Z</time>
      </trkpt>
      <trkpt lat="47.05546" lon="6.16369">
        <ele>630</ele>
        <time>2022-10-02T12:12:46Z</time>
      </trkpt>
      <trkpt lat="47.05552" lon="6.16377">
        <ele>628.6</ele>
        <time>2022-10-02T12:12:48Z</time>
      </trkpt>
      <trkpt lat="47.0556" lon="6.16387">
        <ele>627</ele>
        <time>2022-10-02T12:12:50Z</time>
      </trkpt>
      <trkpt lat="47.05563" lon="6.16391">
        <ele>626.2</ele>
        <time>2022-10-02T12:12:51Z</time>
      </trkpt>
      <trkpt lat="47.05567" lon="6.16395">
        <ele>625.4</ele>
        <time>2022-10-02T12:12:52Z</time>
      </trkpt>
      <trkpt lat="47.05574" lon="6.16405">
        <ele>624</ele>
        <time>2022-10-02T12:12:54Z</time>
      </trkpt>
      <trkpt lat="47.05581" lon="6.16416">
        <ele>625.2</ele>
        <time>2022-10-02T12:12:56Z</time>
      </trkpt>
      <trkpt lat="47.05588" lon="6.16426">
        <ele>626.6</ele>
        <time>2022-10-02T12:12:58Z</time>
      </trkpt>
      <trkpt lat="47.05593" lon="6.16435">
        <ele>627.6</ele>
        <time>2022-10-02T12:13:00Z</time>
      </trkpt>
      <trkpt lat="47.05596" lon="6.1644">
        <ele>628.2</ele>
        <time>2022-10-02T12:13:01Z</time>
      </trkpt>
      <trkpt lat="47.05598" lon="6.16444">
        <ele>629.2</ele>
        <time>2022-10-02T12:13:02Z</time>
      </trkpt>
      <trkpt lat="47.05606" lon="6.16463">
        <ele>630.4</ele>
        <time>2022-10-02T12:13:06Z</time>
      </trkpt>
      <trkpt lat="47.0562" lon="6.16484">
        <ele>630.8</ele>
        <time>2022-10-02T12:13:11Z</time>
      </trkpt>
      <trkpt lat="47.0563" lon="6.16503">
        <ele>630</ele>
        <time>2022-10-02T12:13:16Z</time>
      </trkpt>
      <trkpt lat="47.05634" lon="6.16515">
        <ele>629.2</ele>
        <time>2022-10-02T12:13:18Z</time>
      </trkpt>
      <trkpt lat="47.05637" lon="6.16528">
        <ele>628.8</ele>
        <time>2022-10-02T12:13:21Z</time>
      </trkpt>
      <trkpt lat="47.0564" lon="6.16548">
        <ele>629.6</ele>
        <time>2022-10-02T12:13:26Z</time>
      </trkpt>
      <trkpt lat="47.05647" lon="6.16569">
        <ele>628.4</ele>
        <time>2022-10-02T12:14:39Z</time>
      </trkpt>
      <trkpt lat="47.05649" lon="6.16574">
        <ele>628.4</ele>
        <time>2022-10-02T12:14:41Z</time>
      </trkpt>
      <trkpt lat="47.0565" lon="6.16577">
        <ele>628.2</ele>
        <time>2022-10-02T12:14:42Z</time>
      </trkpt>
      <trkpt lat="47.05656" lon="6.16592">
        <ele>627</ele>
        <time>2022-10-02T12:14:46Z</time>
      </trkpt>
      <trkpt lat="47.05658" lon="6.16598">
        <ele>626.6</ele>
        <time>2022-10-02T12:14:47Z</time>
      </trkpt>
      <trkpt lat="47.05662" lon="6.16612">
        <ele>626</ele>
        <time>2022-10-02T12:14:49Z</time>
      </trkpt>
      <trkpt lat="47.05669" lon="6.16631">
        <ele>625.4</ele>
        <time>2022-10-02T12:14:52Z</time>
      </trkpt>
      <trkpt lat="47.0567" lon="6.16638">
        <ele>625.2</ele>
        <time>2022-10-02T12:14:53Z</time>
      </trkpt>
      <trkpt lat="47.05671" lon="6.16645">
        <ele>624.8</ele>
        <time>2022-10-02T12:14:54Z</time>
      </trkpt>
      <trkpt lat="47.05672" lon="6.16664">
        <ele>624.2</ele>
        <time>2022-10-02T12:14:57Z</time>
      </trkpt>
      <trkpt lat="47.05673" lon="6.16669">
        <ele>624</ele>
        <time>2022-10-02T12:14:58Z</time>
      </trkpt>
      <trkpt lat="47.05673" lon="6.16681">
        <ele>623.4</ele>
        <time>2022-10-02T12:15:00Z</time>
      </trkpt>
      <trkpt lat="47.05674" lon="6.1669">
        <ele>622.2</ele>
        <time>2022-10-02T12:15:02Z</time>
      </trkpt>
      <trkpt lat="47.05674" lon="6.16694">
        <ele>621.8</ele>
        <time>2022-10-02T12:15:03Z</time>
      </trkpt>
      <trkpt lat="47.05675" lon="6.16704">
        <ele>620.6</ele>
        <time>2022-10-02T12:15:05Z</time>
      </trkpt>
      <trkpt lat="47.05676" lon="6.16713">
        <ele>619.4</ele>
        <time>2022-10-02T12:15:07Z</time>
      </trkpt>
      <trkpt lat="47.05677" lon="6.16726">
        <ele>618.4</ele>
        <time>2022-10-02T12:15:09Z</time>
      </trkpt>
      <trkpt lat="47.05677" lon="6.16734">
        <ele>618.2</ele>
        <time>2022-10-02T12:15:10Z</time>
      </trkpt>
      <trkpt lat="47.05676" lon="6.1675">
        <ele>619.6</ele>
        <time>2022-10-02T12:15:13Z</time>
      </trkpt>
      <trkpt lat="47.05676" lon="6.16756">
        <ele>620.2</ele>
        <time>2022-10-02T12:15:14Z</time>
      </trkpt>
      <trkpt lat="47.0568" lon="6.16788">
        <ele>619.2</ele>
        <time>2022-10-02T12:15:20Z</time>
      </trkpt>
      <trkpt lat="47.05682" lon="6.16799">
        <ele>618.6</ele>
        <time>2022-10-02T12:15:23Z</time>
      </trkpt>
      <trkpt lat="47.05684" lon="6.16813">
        <ele>617.4</ele>
        <time>2022-10-02T12:15:26Z</time>
      </trkpt>
      <trkpt lat="47.05684" lon="6.16819">
        <ele>617.2</ele>
        <time>2022-10-02T12:15:27Z</time>
      </trkpt>
      <trkpt lat="47.05685" lon="6.1686">
        <ele>616.2</ele>
        <time>2022-10-02T12:15:33Z</time>
      </trkpt>
      <trkpt lat="47.05686" lon="6.16866">
        <ele>616</ele>
        <time>2022-10-02T12:15:34Z</time>
      </trkpt>
      <trkpt lat="47.05686" lon="6.16898">
        <ele>614.4</ele>
        <time>2022-10-02T12:15:39Z</time>
      </trkpt>
      <trkpt lat="47.05687" lon="6.16903">
        <ele>613.2</ele>
        <time>2022-10-02T12:15:40Z</time>
      </trkpt>
      <trkpt lat="47.05688" lon="6.16934">
        <ele>614.2</ele>
        <time>2022-10-02T12:15:44Z</time>
      </trkpt>
      <trkpt lat="47.05696" lon="6.1697">
        <ele>613.2</ele>
        <time>2022-10-02T12:15:51Z</time>
      </trkpt>
      <trkpt lat="47.05702" lon="6.16987">
        <ele>611.8</ele>
        <time>2022-10-02T12:15:55Z</time>
      </trkpt>
      <trkpt lat="47.05705" lon="6.16997">
        <ele>611.4</ele>
        <time>2022-10-02T12:15:57Z</time>
      </trkpt>
      <trkpt lat="47.05712" lon="6.17034">
        <ele>611.2</ele>
        <time>2022-10-02T12:16:04Z</time>
      </trkpt>
      <trkpt lat="47.05713" lon="6.17038">
        <ele>610.6</ele>
        <time>2022-10-02T12:16:05Z</time>
      </trkpt>
      <trkpt lat="47.05717" lon="6.17052">
        <ele>609.4</ele>
        <time>2022-10-02T12:16:08Z</time>
      </trkpt>
      <trkpt lat="47.05719" lon="6.17063">
        <ele>608.6</ele>
        <time>2022-10-02T12:16:10Z</time>
      </trkpt>
      <trkpt lat="47.0572" lon="6.17068">
        <ele>608.4</ele>
        <time>2022-10-02T12:16:11Z</time>
      </trkpt>
      <trkpt lat="47.05723" lon="6.17085">
        <ele>607.2</ele>
        <time>2022-10-02T12:16:14Z</time>
      </trkpt>
      <trkpt lat="47.05729" lon="6.17103">
        <ele>606.6</ele>
        <time>2022-10-02T12:16:17Z</time>
      </trkpt>
      <trkpt lat="47.05743" lon="6.17138">
        <ele>607.4</ele>
        <time>2022-10-02T12:16:23Z</time>
      </trkpt>
      <trkpt lat="47.05747" lon="6.17143">
        <ele>608.8</ele>
        <time>2022-10-02T12:16:24Z</time>
      </trkpt>
      <trkpt lat="47.05753" lon="6.1715">
        <ele>610.8</ele>
        <time>2022-10-02T12:16:25Z</time>
      </trkpt>
      <trkpt lat="47.05758" lon="6.17156">
        <ele>612.8</ele>
        <time>2022-10-02T12:16:26Z</time>
      </trkpt>
      <trkpt lat="47.05762" lon="6.17162">
        <ele>614</ele>
        <time>2022-10-02T12:16:27Z</time>
      </trkpt>
      <trkpt lat="47.05765" lon="6.17168">
        <ele>615.4</ele>
        <time>2022-10-02T12:16:28Z</time>
      </trkpt>
      <trkpt lat="47.05772" lon="6.17179">
        <ele>617</ele>
        <time>2022-10-02T12:16:30Z</time>
      </trkpt>
      <trkpt lat="47.05789" lon="6.17205">
        <ele>617.8</ele>
        <time>2022-10-02T12:16:36Z</time>
      </trkpt>
      <trkpt lat="47.05801" lon="6.17219">
        <ele>618.2</ele>
        <time>2022-10-02T12:16:39Z</time>
      </trkpt>
      <trkpt lat="47.05812" lon="6.17233">
        <ele>618.4</ele>
        <time>2022-10-02T12:16:42Z</time>
      </trkpt>
      <trkpt lat="47.0582" lon="6.17239">
        <ele>618</ele>
        <time>2022-10-02T12:16:44Z</time>
      </trkpt>
      <trkpt lat="47.05831" lon="6.17247">
        <ele>617.4</ele>
        <time>2022-10-02T12:16:47Z</time>
      </trkpt>
      <trkpt lat="47.05835" lon="6.17249">
        <ele>617.2</ele>
        <time>2022-10-02T12:16:48Z</time>
      </trkpt>
      <trkpt lat="47.05851" lon="6.1726">
        <ele>616.4</ele>
        <time>2022-10-02T12:16:53Z</time>
      </trkpt>
      <trkpt lat="47.05854" lon="6.1726">
        <ele>616.2</ele>
        <time>2022-10-02T12:16:54Z</time>
      </trkpt>
      <trkpt lat="47.05856" lon="6.17258">
        <ele>615.8</ele>
        <time>2022-10-02T12:16:55Z</time>
      </trkpt>
      <trkpt lat="47.05862" lon="6.17255">
        <ele>615.2</ele>
        <time>2022-10-02T12:16:57Z</time>
      </trkpt>
      <trkpt lat="47.05866" lon="6.17252">
        <ele>615</ele>
        <time>2022-10-02T12:16:58Z</time>
      </trkpt>
      <trkpt lat="47.05883" lon="6.17237">
        <ele>614.4</ele>
        <time>2022-10-02T12:17:01Z</time>
      </trkpt>
      <trkpt lat="47.05903" lon="6.17219">
        <ele>613.6</ele>
        <time>2022-10-02T12:17:04Z</time>
      </trkpt>
      <trkpt lat="47.05924" lon="6.17198">
        <ele>612.8</ele>
        <time>2022-10-02T12:17:07Z</time>
      </trkpt>
      <trkpt lat="47.05931" lon="6.1719">
        <ele>612.4</ele>
        <time>2022-10-02T12:17:08Z</time>
      </trkpt>
      <trkpt lat="47.05956" lon="6.17158">
        <ele>612</ele>
        <time>2022-10-02T12:17:12Z</time>
      </trkpt>
      <trkpt lat="47.05975" lon="6.17135">
        <ele>612</ele>
        <time>2022-10-02T12:17:16Z</time>
      </trkpt>
      <trkpt lat="47.05984" lon="6.17118">
        <ele>611.4</ele>
        <time>2022-10-02T12:17:19Z</time>
      </trkpt>
      <trkpt lat="47.05987" lon="6.17108">
        <ele>611</ele>
        <time>2022-10-02T12:17:21Z</time>
      </trkpt>
      <trkpt lat="47.05992" lon="6.17093">
        <ele>610</ele>
        <time>2022-10-02T12:17:24Z</time>
      </trkpt>
      <trkpt lat="47.05997" lon="6.17086">
        <ele>609.2</ele>
        <time>2022-10-02T12:17:26Z</time>
      </trkpt>
      <trkpt lat="47.05998" lon="6.17081">
        <ele>609</ele>
        <time>2022-10-02T12:17:27Z</time>
      </trkpt>
      <trkpt lat="47.06007" lon="6.17062">
        <ele>607.8</ele>
        <time>2022-10-02T12:17:31Z</time>
      </trkpt>
      <trkpt lat="47.06018" lon="6.1705">
        <ele>606.8</ele>
        <time>2022-10-02T12:17:34Z</time>
      </trkpt>
      <trkpt lat="47.06026" lon="6.1704">
        <ele>605.8</ele>
        <time>2022-10-02T12:17:36Z</time>
      </trkpt>
      <trkpt lat="47.0603" lon="6.17033">
        <ele>605.4</ele>
        <time>2022-10-02T12:17:37Z</time>
      </trkpt>
      <trkpt lat="47.06039" lon="6.1702">
        <ele>604.2</ele>
        <time>2022-10-02T12:17:39Z</time>
      </trkpt>
      <trkpt lat="47.06043" lon="6.17011">
        <ele>603.4</ele>
        <time>2022-10-02T12:17:40Z</time>
      </trkpt>
      <trkpt lat="47.06047" lon="6.17003">
        <ele>602.8</ele>
        <time>2022-10-02T12:17:41Z</time>
      </trkpt>
      <trkpt lat="47.06053" lon="6.16989">
        <ele>601.2</ele>
        <time>2022-10-02T12:17:43Z</time>
      </trkpt>
      <trkpt lat="47.06055" lon="6.16977">
        <ele>599.8</ele>
        <time>2022-10-02T12:17:45Z</time>
      </trkpt>
      <trkpt lat="47.06058" lon="6.16968">
        <ele>598.4</ele>
        <time>2022-10-02T12:17:47Z</time>
      </trkpt>
      <trkpt lat="47.06062" lon="6.16959">
        <ele>597.4</ele>
        <time>2022-10-02T12:17:49Z</time>
      </trkpt>
      <trkpt lat="47.06064" lon="6.16954">
        <ele>596.6</ele>
        <time>2022-10-02T12:17:50Z</time>
      </trkpt>
      <trkpt lat="47.06065" lon="6.1695">
        <ele>595.8</ele>
        <time>2022-10-02T12:17:51Z</time>
      </trkpt>
      <trkpt lat="47.06069" lon="6.16943">
        <ele>594</ele>
        <time>2022-10-02T12:17:53Z</time>
      </trkpt>
      <trkpt lat="47.06072" lon="6.16935">
        <ele>592.2</ele>
        <time>2022-10-02T12:17:55Z</time>
      </trkpt>
      <trkpt lat="47.06076" lon="6.16928">
        <ele>590.4</ele>
        <time>2022-10-02T12:17:57Z</time>
      </trkpt>
      <trkpt lat="47.06081" lon="6.16921">
        <ele>588.8</ele>
        <time>2022-10-02T12:17:59Z</time>
      </trkpt>
      <trkpt lat="47.06087" lon="6.16914">
        <ele>587.2</ele>
        <time>2022-10-02T12:18:01Z</time>
      </trkpt>
      <trkpt lat="47.06091" lon="6.16906">
        <ele>585.8</ele>
        <time>2022-10-02T12:18:03Z</time>
      </trkpt>
      <trkpt lat="47.06095" lon="6.16902">
        <ele>584.4</ele>
        <time>2022-10-02T12:18:05Z</time>
      </trkpt>
      <trkpt lat="47.06098" lon="6.16899">
        <ele>583.6</ele>
        <time>2022-10-02T12:18:06Z</time>
      </trkpt>
      <trkpt lat="47.061" lon="6.16897">
        <ele>582.8</ele>
        <time>2022-10-02T12:18:07Z</time>
      </trkpt>
      <trkpt lat="47.06104" lon="6.1689">
        <ele>581.6</ele>
        <time>2022-10-02T12:18:09Z</time>
      </trkpt>
      <trkpt lat="47.06107" lon="6.16886">
        <ele>580</ele>
        <time>2022-10-02T12:18:11Z</time>
      </trkpt>
      <trkpt lat="47.06109" lon="6.16883">
        <ele>579.4</ele>
        <time>2022-10-02T12:18:12Z</time>
      </trkpt>
      <trkpt lat="47.0611" lon="6.16881">
        <ele>578.6</ele>
        <time>2022-10-02T12:18:13Z</time>
      </trkpt>
      <trkpt lat="47.06113" lon="6.16876">
        <ele>577</ele>
        <time>2022-10-02T12:18:15Z</time>
      </trkpt>
      <trkpt lat="47.06116" lon="6.16872">
        <ele>575.4</ele>
        <time>2022-10-02T12:18:17Z</time>
      </trkpt>
      <trkpt lat="47.06117" lon="6.16871">
        <ele>574.8</ele>
        <time>2022-10-02T12:18:18Z</time>
      </trkpt>
      <trkpt lat="47.06118" lon="6.16869">
        <ele>574</ele>
        <time>2022-10-02T12:18:19Z</time>
      </trkpt>
      <trkpt lat="47.0612" lon="6.16865">
        <ele>572.8</ele>
        <time>2022-10-02T12:18:21Z</time>
      </trkpt>
      <trkpt lat="47.06123" lon="6.1686">
        <ele>571.6</ele>
        <time>2022-10-02T12:18:23Z</time>
      </trkpt>
      <trkpt lat="47.06127" lon="6.16856">
        <ele>570.4</ele>
        <time>2022-10-02T12:18:25Z</time>
      </trkpt>
      <trkpt lat="47.06132" lon="6.16851">
        <ele>568.8</ele>
        <time>2022-10-02T12:18:27Z</time>
      </trkpt>
      <trkpt lat="47.06135" lon="6.16845">
        <ele>567.4</ele>
        <time>2022-10-02T12:18:29Z</time>
      </trkpt>
      <trkpt lat="47.06139" lon="6.16841">
        <ele>566</ele>
        <time>2022-10-02T12:18:31Z</time>
      </trkpt>
      <trkpt lat="47.06142" lon="6.16838">
        <ele>565.2</ele>
        <time>2022-10-02T12:18:32Z</time>
      </trkpt>
      <trkpt lat="47.06144" lon="6.16834">
        <ele>564.4</ele>
        <time>2022-10-02T12:18:33Z</time>
      </trkpt>
      <trkpt lat="47.06148" lon="6.16828">
        <ele>562.6</ele>
        <time>2022-10-02T12:18:35Z</time>
      </trkpt>
      <trkpt lat="47.06152" lon="6.16825">
        <ele>561</ele>
        <time>2022-10-02T12:18:37Z</time>
      </trkpt>
      <trkpt lat="47.06155" lon="6.16816">
        <ele>559.6</ele>
        <time>2022-10-02T12:18:50Z</time>
      </trkpt>
      <trkpt lat="47.06159" lon="6.16809">
        <ele>559</ele>
        <time>2022-10-02T12:18:52Z</time>
      </trkpt>
      <trkpt lat="47.06162" lon="6.16805">
        <ele>558.6</ele>
        <time>2022-10-02T12:18:53Z</time>
      </trkpt>
      <trkpt lat="47.06168" lon="6.16798">
        <ele>557.4</ele>
        <time>2022-10-02T12:18:55Z</time>
      </trkpt>
      <trkpt lat="47.06174" lon="6.16787">
        <ele>556.8</ele>
        <time>2022-10-02T12:18:58Z</time>
      </trkpt>
      <trkpt lat="47.06177" lon="6.16783">
        <ele>556.4</ele>
        <time>2022-10-02T12:18:59Z</time>
      </trkpt>
      <trkpt lat="47.06182" lon="6.16774">
        <ele>555.2</ele>
        <time>2022-10-02T12:19:02Z</time>
      </trkpt>
      <trkpt lat="47.06185" lon="6.1677">
        <ele>554.8</ele>
        <time>2022-10-02T12:19:03Z</time>
      </trkpt>
      <trkpt lat="47.06187" lon="6.16766">
        <ele>554.4</ele>
        <time>2022-10-02T12:19:04Z</time>
      </trkpt>
      <trkpt lat="47.06208" lon="6.16737">
        <ele>556.2</ele>
        <time>2022-10-02T12:19:10Z</time>
      </trkpt>
      <trkpt lat="47.06226" lon="6.16717">
        <ele>555.4</ele>
        <time>2022-10-02T12:19:19Z</time>
      </trkpt>
      <trkpt lat="47.06228" lon="6.16714">
        <ele>555</ele>
        <time>2022-10-02T12:19:20Z</time>
      </trkpt>
      <trkpt lat="47.06235" lon="6.16702">
        <ele>553.8</ele>
        <time>2022-10-02T12:19:23Z</time>
      </trkpt>
      <trkpt lat="47.06237" lon="6.16698">
        <ele>553.4</ele>
        <time>2022-10-02T12:19:24Z</time>
      </trkpt>
      <trkpt lat="47.06241" lon="6.16693">
        <ele>552.4</ele>
        <time>2022-10-02T12:19:26Z</time>
      </trkpt>
      <trkpt lat="47.06284" lon="6.16693">
        <ele>536</ele>
        <time>2022-10-02T12:20:31Z</time>
      </trkpt>
      <trkpt lat="47.06283" lon="6.16698">
        <ele>535.2</ele>
        <time>2022-10-02T12:20:33Z</time>
      </trkpt>
      <trkpt lat="47.06282" lon="6.16702">
        <ele>534.8</ele>
        <time>2022-10-02T12:20:34Z</time>
      </trkpt>
      <trkpt lat="47.06278" lon="6.16726">
        <ele>535.8</ele>
        <time>2022-10-02T12:20:40Z</time>
      </trkpt>
      <trkpt lat="47.06277" lon="6.1673">
        <ele>536</ele>
        <time>2022-10-02T12:20:41Z</time>
      </trkpt>
      <trkpt lat="47.06272" lon="6.16744">
        <ele>537.2</ele>
        <time>2022-10-02T12:20:44Z</time>
      </trkpt>
      <trkpt lat="47.06267" lon="6.16759">
        <ele>538.6</ele>
        <time>2022-10-02T12:20:47Z</time>
      </trkpt>
      <trkpt lat="47.06258" lon="6.16783">
        <ele>539.8</ele>
        <time>2022-10-02T12:20:51Z</time>
      </trkpt>
      <trkpt lat="47.06255" lon="6.16789">
        <ele>539.8</ele>
        <time>2022-10-02T12:20:52Z</time>
      </trkpt>
      <trkpt lat="47.06247" lon="6.16819">
        <ele>540.2</ele>
        <time>2022-10-02T12:20:57Z</time>
      </trkpt>
      <trkpt lat="47.06245" lon="6.16826">
        <ele>540.4</ele>
        <time>2022-10-02T12:20:58Z</time>
      </trkpt>
      <trkpt lat="47.06242" lon="6.16839">
        <ele>540.8</ele>
        <time>2022-10-02T12:21:00Z</time>
      </trkpt>
      <trkpt lat="47.06233" lon="6.16862">
        <ele>541.6</ele>
        <time>2022-10-02T12:21:04Z</time>
      </trkpt>
      <trkpt lat="47.06231" lon="6.16868">
        <ele>541.8</ele>
        <time>2022-10-02T12:21:05Z</time>
      </trkpt>
      <trkpt lat="47.06225" lon="6.16887">
        <ele>543.2</ele>
        <time>2022-10-02T12:21:09Z</time>
      </trkpt>
      <trkpt lat="47.06223" lon="6.16892">
        <ele>543.8</ele>
        <time>2022-10-02T12:21:10Z</time>
      </trkpt>
      <trkpt lat="47.06222" lon="6.16897">
        <ele>544.2</ele>
        <time>2022-10-02T12:21:11Z</time>
      </trkpt>
      <trkpt lat="47.06219" lon="6.16906">
        <ele>545.2</ele>
        <time>2022-10-02T12:21:13Z</time>
      </trkpt>
      <trkpt lat="47.06216" lon="6.16916">
        <ele>546.6</ele>
        <time>2022-10-02T12:21:15Z</time>
      </trkpt>
      <trkpt lat="47.06211" lon="6.1693">
        <ele>548</ele>
        <time>2022-10-02T12:21:18Z</time>
      </trkpt>
      <trkpt lat="47.06209" lon="6.16934">
        <ele>548.4</ele>
        <time>2022-10-02T12:21:19Z</time>
      </trkpt>
      <trkpt lat="47.06207" lon="6.16943">
        <ele>549.2</ele>
        <time>2022-10-02T12:21:21Z</time>
      </trkpt>
      <trkpt lat="47.06201" lon="6.16968">
        <ele>549.6</ele>
        <time>2022-10-02T12:21:26Z</time>
      </trkpt>
      <trkpt lat="47.062" lon="6.16998">
        <ele>550.6</ele>
        <time>2022-10-02T12:21:32Z</time>
      </trkpt>
      <trkpt lat="47.06205" lon="6.17005">
        <ele>551.8</ele>
        <time>2022-10-02T12:21:36Z</time>
      </trkpt>
      <trkpt lat="47.06206" lon="6.17005">
        <ele>552</ele>
        <time>2022-10-02T12:21:37Z</time>
      </trkpt>
      <trkpt lat="47.06211" lon="6.17005">
        <ele>552.2</ele>
        <time>2022-10-02T12:21:40Z</time>
      </trkpt>
      <trkpt lat="47.06216" lon="6.17002">
        <ele>553</ele>
        <time>2022-10-02T12:21:42Z</time>
      </trkpt>
      <trkpt lat="47.0622" lon="6.17">
        <ele>554.2</ele>
        <time>2022-10-02T12:21:44Z</time>
      </trkpt>
      <trkpt lat="47.06226" lon="6.16997">
        <ele>555.6</ele>
        <time>2022-10-02T12:21:47Z</time>
      </trkpt>
      <trkpt lat="47.06229" lon="6.16995">
        <ele>556.8</ele>
        <time>2022-10-02T12:21:49Z</time>
      </trkpt>
      <trkpt lat="47.0623" lon="6.16994">
        <ele>557</ele>
        <time>2022-10-02T12:21:50Z</time>
      </trkpt>
      <trkpt lat="47.06236" lon="6.16991">
        <ele>558</ele>
        <time>2022-10-02T12:21:53Z</time>
      </trkpt>
      <trkpt lat="47.0624" lon="6.16988">
        <ele>559</ele>
        <time>2022-10-02T12:21:56Z</time>
      </trkpt>
      <trkpt lat="47.06241" lon="6.16987">
        <ele>559.6</ele>
        <time>2022-10-02T12:21:57Z</time>
      </trkpt>
      <trkpt lat="47.06244" lon="6.16986">
        <ele>560.8</ele>
        <time>2022-10-02T12:21:59Z</time>
      </trkpt>
      <trkpt lat="47.06247" lon="6.16985">
        <ele>562.2</ele>
        <time>2022-10-02T12:22:01Z</time>
      </trkpt>
      <trkpt lat="47.06251" lon="6.16984">
        <ele>563.4</ele>
        <time>2022-10-02T12:22:03Z</time>
      </trkpt>
      <trkpt lat="47.06254" lon="6.16983">
        <ele>564.4</ele>
        <time>2022-10-02T12:22:05Z</time>
      </trkpt>
      <trkpt lat="47.06258" lon="6.16981">
        <ele>565.4</ele>
        <time>2022-10-02T12:22:07Z</time>
      </trkpt>
      <trkpt lat="47.06262" lon="6.1698">
        <ele>566.8</ele>
        <time>2022-10-02T12:22:10Z</time>
      </trkpt>
      <trkpt lat="47.06266" lon="6.16979">
        <ele>567.8</ele>
        <time>2022-10-02T12:22:12Z</time>
      </trkpt>
      <trkpt lat="47.0627" lon="6.16977">
        <ele>569.4</ele>
        <time>2022-10-02T12:22:15Z</time>
      </trkpt>
      <trkpt lat="47.06273" lon="6.16975">
        <ele>570.4</ele>
        <time>2022-10-02T12:22:17Z</time>
      </trkpt>
      <trkpt lat="47.06277" lon="6.16974">
        <ele>571.6</ele>
        <time>2022-10-02T12:22:20Z</time>
      </trkpt>
      <trkpt lat="47.06282" lon="6.16971">
        <ele>572.6</ele>
        <time>2022-10-02T12:22:23Z</time>
      </trkpt>
      <trkpt lat="47.0629" lon="6.16969">
        <ele>573</ele>
        <time>2022-10-02T12:22:27Z</time>
      </trkpt>
      <trkpt lat="47.06302" lon="6.16964">
        <ele>572.4</ele>
        <time>2022-10-02T12:22:34Z</time>
      </trkpt>
      <trkpt lat="47.06311" lon="6.16962">
        <ele>574</ele>
        <time>2022-10-02T12:22:40Z</time>
      </trkpt>
      <trkpt lat="47.06313" lon="6.16961">
        <ele>574.6</ele>
        <time>2022-10-02T12:22:41Z</time>
      </trkpt>
      <trkpt lat="47.06322" lon="6.16958">
        <ele>575.2</ele>
        <time>2022-10-02T12:22:47Z</time>
      </trkpt>
      <trkpt lat="47.06325" lon="6.16958">
        <ele>575.8</ele>
        <time>2022-10-02T12:22:49Z</time>
      </trkpt>
      <trkpt lat="47.06333" lon="6.16956">
        <ele>576.2</ele>
        <time>2022-10-02T12:22:53Z</time>
      </trkpt>
      <trkpt lat="47.06342" lon="6.16953">
        <ele>577</ele>
        <time>2022-10-02T12:22:57Z</time>
      </trkpt>
      <trkpt lat="47.06353" lon="6.1695">
        <ele>577</ele>
        <time>2022-10-02T12:23:03Z</time>
      </trkpt>
      <trkpt lat="47.06355" lon="6.1695">
        <ele>577.4</ele>
        <time>2022-10-02T12:23:04Z</time>
      </trkpt>
      <trkpt lat="47.06364" lon="6.1695">
        <ele>578.2</ele>
        <time>2022-10-02T12:23:10Z</time>
      </trkpt>
      <trkpt lat="47.06368" lon="6.16951">
        <ele>578.4</ele>
        <time>2022-10-02T12:23:12Z</time>
      </trkpt>
      <trkpt lat="47.06375" lon="6.16952">
        <ele>579.6</ele>
        <time>2022-10-02T12:23:16Z</time>
      </trkpt>
      <trkpt lat="47.06376" lon="6.16952">
        <ele>580</ele>
        <time>2022-10-02T12:23:17Z</time>
      </trkpt>
      <trkpt lat="47.0639" lon="6.16951">
        <ele>579.8</ele>
        <time>2022-10-02T12:23:24Z</time>
      </trkpt>
      <trkpt lat="47.06403" lon="6.16951">
        <ele>579.8</ele>
        <time>2022-10-02T12:23:31Z</time>
      </trkpt>
      <trkpt lat="47.0642" lon="6.16953">
        <ele>579.6</ele>
        <time>2022-10-02T12:23:38Z</time>
      </trkpt>
      <trkpt lat="47.06428" lon="6.16955">
        <ele>578.2</ele>
        <time>2022-10-02T12:23:42Z</time>
      </trkpt>
      <trkpt lat="47.06435" lon="6.16956">
        <ele>577.8</ele>
        <time>2022-10-02T12:23:45Z</time>
      </trkpt>
      <trkpt lat="47.06439" lon="6.1696">
        <ele>577.2</ele>
        <time>2022-10-02T12:23:48Z</time>
      </trkpt>
      <trkpt lat="47.06441" lon="6.1696">
        <ele>576.8</ele>
        <time>2022-10-02T12:23:49Z</time>
      </trkpt>
      <trkpt lat="47.06447" lon="6.16958">
        <ele>576.6</ele>
        <time>2022-10-02T12:23:51Z</time>
      </trkpt>
      <trkpt lat="47.06453" lon="6.16952">
        <ele>576</ele>
        <time>2022-10-02T12:23:53Z</time>
      </trkpt>
      <trkpt lat="47.06461" lon="6.16941">
        <ele>575.2</ele>
        <time>2022-10-02T12:23:55Z</time>
      </trkpt>
      <trkpt lat="47.06464" lon="6.16935">
        <ele>574.8</ele>
        <time>2022-10-02T12:23:56Z</time>
      </trkpt>
      <trkpt lat="47.06467" lon="6.16928">
        <ele>574.4</ele>
        <time>2022-10-02T12:23:57Z</time>
      </trkpt>
      <trkpt lat="47.06476" lon="6.16915">
        <ele>573.6</ele>
        <time>2022-10-02T12:23:59Z</time>
      </trkpt>
      <trkpt lat="47.0648" lon="6.16908">
        <ele>573.2</ele>
        <time>2022-10-02T12:24:00Z</time>
      </trkpt>
      <trkpt lat="47.06489" lon="6.16894">
        <ele>572</ele>
        <time>2022-10-02T12:24:02Z</time>
      </trkpt>
      <trkpt lat="47.06497" lon="6.16882">
        <ele>570.6</ele>
        <time>2022-10-02T12:24:04Z</time>
      </trkpt>
      <trkpt lat="47.065" lon="6.16871">
        <ele>569.2</ele>
        <time>2022-10-02T12:24:06Z</time>
      </trkpt>
      <trkpt lat="47.06499" lon="6.16853">
        <ele>568.2</ele>
        <time>2022-10-02T12:24:09Z</time>
      </trkpt>
      <trkpt lat="47.06497" lon="6.16848">
        <ele>567.8</ele>
        <time>2022-10-02T12:24:10Z</time>
      </trkpt>
      <trkpt lat="47.06492" lon="6.16842">
        <ele>566.8</ele>
        <time>2022-10-02T12:24:12Z</time>
      </trkpt>
      <trkpt lat="47.06487" lon="6.16838">
        <ele>565.4</ele>
        <time>2022-10-02T12:24:14Z</time>
      </trkpt>
      <trkpt lat="47.06482" lon="6.16836">
        <ele>564.2</ele>
        <time>2022-10-02T12:24:16Z</time>
      </trkpt>
      <trkpt lat="47.06476" lon="6.1684">
        <ele>562.8</ele>
        <time>2022-10-02T12:24:19Z</time>
      </trkpt>
      <trkpt lat="47.06467" lon="6.16843">
        <ele>561.6</ele>
        <time>2022-10-02T12:24:22Z</time>
      </trkpt>
      <trkpt lat="47.06464" lon="6.16844">
        <ele>561.2</ele>
        <time>2022-10-02T12:24:23Z</time>
      </trkpt>
      <trkpt lat="47.06458" lon="6.16844">
        <ele>560.4</ele>
        <time>2022-10-02T12:24:25Z</time>
      </trkpt>
      <trkpt lat="47.0645" lon="6.16836">
        <ele>559</ele>
        <time>2022-10-02T12:24:28Z</time>
      </trkpt>
      <trkpt lat="47.06448" lon="6.1683">
        <ele>558.2</ele>
        <time>2022-10-02T12:24:29Z</time>
      </trkpt>
      <trkpt lat="47.06448" lon="6.16824">
        <ele>557.4</ele>
        <time>2022-10-02T12:24:30Z</time>
      </trkpt>
      <trkpt lat="47.06449" lon="6.16808">
        <ele>555.8</ele>
        <time>2022-10-02T12:24:33Z</time>
      </trkpt>
      <trkpt lat="47.0645" lon="6.16801">
        <ele>555.2</ele>
        <time>2022-10-02T12:24:34Z</time>
      </trkpt>
      <trkpt lat="47.06452" lon="6.16792">
        <ele>554.2</ele>
        <time>2022-10-02T12:24:35Z</time>
      </trkpt>
      <trkpt lat="47.06454" lon="6.16784">
        <ele>553</ele>
        <time>2022-10-02T12:24:36Z</time>
      </trkpt>
      <trkpt lat="47.06458" lon="6.16778">
        <ele>552.2</ele>
        <time>2022-10-02T12:24:37Z</time>
      </trkpt>
      <trkpt lat="47.06461" lon="6.16771">
        <ele>551.2</ele>
        <time>2022-10-02T12:24:38Z</time>
      </trkpt>
      <trkpt lat="47.06468" lon="6.1676">
        <ele>549.8</ele>
        <time>2022-10-02T12:24:40Z</time>
      </trkpt>
      <trkpt lat="47.06474" lon="6.1675">
        <ele>548.4</ele>
        <time>2022-10-02T12:24:42Z</time>
      </trkpt>
      <trkpt lat="47.06476" lon="6.16744">
        <ele>547.6</ele>
        <time>2022-10-02T12:24:43Z</time>
      </trkpt>
      <trkpt lat="47.06479" lon="6.16738">
        <ele>546.6</ele>
        <time>2022-10-02T12:24:44Z</time>
      </trkpt>
      <trkpt lat="47.06484" lon="6.16728">
        <ele>545.4</ele>
        <time>2022-10-02T12:24:46Z</time>
      </trkpt>
      <trkpt lat="47.0649" lon="6.16717">
        <ele>544.2</ele>
        <time>2022-10-02T12:24:48Z</time>
      </trkpt>
      <trkpt lat="47.06496" lon="6.16705">
        <ele>543.2</ele>
        <time>2022-10-02T12:24:50Z</time>
      </trkpt>
      <trkpt lat="47.06502" lon="6.16694">
        <ele>542</ele>
        <time>2022-10-02T12:24:52Z</time>
      </trkpt>
      <trkpt lat="47.0651" lon="6.16678">
        <ele>540.6</ele>
        <time>2022-10-02T12:24:55Z</time>
      </trkpt>
      <trkpt lat="47.06511" lon="6.16675">
        <ele>540.4</ele>
        <time>2022-10-02T12:24:56Z</time>
      </trkpt>
      <trkpt lat="47.06516" lon="6.16667">
        <ele>539.4</ele>
        <time>2022-10-02T12:24:59Z</time>
      </trkpt>
      <trkpt lat="47.06518" lon="6.1666">
        <ele>538.8</ele>
        <time>2022-10-02T12:25:01Z</time>
      </trkpt>
      <trkpt lat="47.06523" lon="6.16643">
        <ele>538.2</ele>
        <time>2022-10-02T12:25:05Z</time>
      </trkpt>
      <trkpt lat="47.06526" lon="6.16631">
        <ele>537.8</ele>
        <time>2022-10-02T12:25:07Z</time>
      </trkpt>
      <trkpt lat="47.06528" lon="6.16624">
        <ele>537.4</ele>
        <time>2022-10-02T12:25:08Z</time>
      </trkpt>
      <trkpt lat="47.06532" lon="6.16616">
        <ele>536.8</ele>
        <time>2022-10-02T12:25:09Z</time>
      </trkpt>
      <trkpt lat="47.06539" lon="6.16599">
        <ele>535.4</ele>
        <time>2022-10-02T12:25:11Z</time>
      </trkpt>
      <trkpt lat="47.06547" lon="6.16584">
        <ele>534.2</ele>
        <time>2022-10-02T12:25:13Z</time>
      </trkpt>
      <trkpt lat="47.06554" lon="6.16566">
        <ele>533.2</ele>
        <time>2022-10-02T12:25:15Z</time>
      </trkpt>
      <trkpt lat="47.06559" lon="6.16551">
        <ele>532</ele>
        <time>2022-10-02T12:25:17Z</time>
      </trkpt>
      <trkpt lat="47.06564" lon="6.16539">
        <ele>531</ele>
        <time>2022-10-02T12:25:19Z</time>
      </trkpt>
      <trkpt lat="47.0657" lon="6.16519">
        <ele>529.4</ele>
        <time>2022-10-02T12:25:22Z</time>
      </trkpt>
      <trkpt lat="47.06576" lon="6.16501">
        <ele>528.4</ele>
        <time>2022-10-02T12:25:25Z</time>
      </trkpt>
      <trkpt lat="47.06582" lon="6.16486">
        <ele>527.4</ele>
        <time>2022-10-02T12:25:28Z</time>
      </trkpt>
      <trkpt lat="47.06585" lon="6.16481">
        <ele>527</ele>
        <time>2022-10-02T12:25:29Z</time>
      </trkpt>
      <trkpt lat="47.06597" lon="6.16463">
        <ele>525.8</ele>
        <time>2022-10-02T12:25:33Z</time>
      </trkpt>
      <trkpt lat="47.066" lon="6.1646">
        <ele>525.6</ele>
        <time>2022-10-02T12:25:34Z</time>
      </trkpt>
      <trkpt lat="47.06612" lon="6.16445">
        <ele>525.6</ele>
        <time>2022-10-02T12:25:39Z</time>
      </trkpt>
      <trkpt lat="47.06623" lon="6.16432">
        <ele>526.8</ele>
        <time>2022-10-02T12:25:46Z</time>
      </trkpt>
      <trkpt lat="47.06627" lon="6.16429">
        <ele>527.8</ele>
        <time>2022-10-02T12:25:48Z</time>
      </trkpt>
      <trkpt lat="47.06632" lon="6.16425">
        <ele>528.8</ele>
        <time>2022-10-02T12:25:50Z</time>
      </trkpt>
      <trkpt lat="47.06638" lon="6.16422">
        <ele>529.4</ele>
        <time>2022-10-02T12:25:53Z</time>
      </trkpt>
      <trkpt lat="47.06643" lon="6.16419">
        <ele>530.8</ele>
        <time>2022-10-02T12:25:55Z</time>
      </trkpt>
      <trkpt lat="47.06647" lon="6.16417">
        <ele>532.2</ele>
        <time>2022-10-02T12:25:57Z</time>
      </trkpt>
      <trkpt lat="47.06654" lon="6.1641">
        <ele>533.6</ele>
        <time>2022-10-02T12:26:00Z</time>
      </trkpt>
      <trkpt lat="47.06656" lon="6.16409">
        <ele>533.6</ele>
        <time>2022-10-02T12:26:01Z</time>
      </trkpt>
      <trkpt lat="47.06663" lon="6.16403">
        <ele>535</ele>
        <time>2022-10-02T12:26:05Z</time>
      </trkpt>
      <trkpt lat="47.06668" lon="6.16399">
        <ele>536.2</ele>
        <time>2022-10-02T12:26:08Z</time>
      </trkpt>
      <trkpt lat="47.06671" lon="6.16395">
        <ele>536.6</ele>
        <time>2022-10-02T12:26:09Z</time>
      </trkpt>
      <trkpt lat="47.06677" lon="6.16389">
        <ele>537.4</ele>
        <time>2022-10-02T12:26:12Z</time>
      </trkpt>
      <trkpt lat="47.06682" lon="6.16385">
        <ele>538.6</ele>
        <time>2022-10-02T12:26:15Z</time>
      </trkpt>
      <trkpt lat="47.0669" lon="6.1638">
        <ele>541.4</ele>
        <time>2022-10-02T12:26:18Z</time>
      </trkpt>
      <trkpt lat="47.06696" lon="6.16373">
        <ele>543</ele>
        <time>2022-10-02T12:26:20Z</time>
      </trkpt>
      <trkpt lat="47.06698" lon="6.16371">
        <ele>543.4</ele>
        <time>2022-10-02T12:26:21Z</time>
      </trkpt>
      <trkpt lat="47.06701" lon="6.16368">
        <ele>544.4</ele>
        <time>2022-10-02T12:26:22Z</time>
      </trkpt>
      <trkpt lat="47.06707" lon="6.16363">
        <ele>545.6</ele>
        <time>2022-10-02T12:26:25Z</time>
      </trkpt>
      <trkpt lat="47.06715" lon="6.16358">
        <ele>547</ele>
        <time>2022-10-02T12:26:28Z</time>
      </trkpt>
      <trkpt lat="47.06719" lon="6.16355">
        <ele>548.6</ele>
        <time>2022-10-02T12:26:30Z</time>
      </trkpt>
      <trkpt lat="47.06725" lon="6.1635">
        <ele>550.2</ele>
        <time>2022-10-02T12:26:33Z</time>
      </trkpt>
      <trkpt lat="47.06729" lon="6.16346">
        <ele>550.6</ele>
        <time>2022-10-02T12:26:35Z</time>
      </trkpt>
      <trkpt lat="47.06737" lon="6.1634">
        <ele>551.4</ele>
        <time>2022-10-02T12:26:39Z</time>
      </trkpt>
      <trkpt lat="47.06743" lon="6.16337">
        <ele>552.4</ele>
        <time>2022-10-02T12:26:42Z</time>
      </trkpt>
      <trkpt lat="47.06746" lon="6.16334">
        <ele>552.8</ele>
        <time>2022-10-02T12:26:43Z</time>
      </trkpt>
      <trkpt lat="47.06767" lon="6.1632">
        <ele>551.6</ele>
        <time>2022-10-02T12:26:48Z</time>
      </trkpt>
      <trkpt lat="47.0677" lon="6.16318">
        <ele>551</ele>
        <time>2022-10-02T12:26:49Z</time>
      </trkpt>
      <trkpt lat="47.06779" lon="6.16313">
        <ele>549.6</ele>
        <time>2022-10-02T12:26:51Z</time>
      </trkpt>
      <trkpt lat="47.06793" lon="6.16307">
        <ele>548.4</ele>
        <time>2022-10-02T12:26:55Z</time>
      </trkpt>
      <trkpt lat="47.06805" lon="6.16303">
        <ele>547.4</ele>
        <time>2022-10-02T12:26:58Z</time>
      </trkpt>
      <trkpt lat="47.06815" lon="6.16301">
        <ele>547</ele>
        <time>2022-10-02T12:27:02Z</time>
      </trkpt>
      <trkpt lat="47.06828" lon="6.16298">
        <ele>546.2</ele>
        <time>2022-10-02T12:27:08Z</time>
      </trkpt>
      <trkpt lat="47.06837" lon="6.16298">
        <ele>546.4</ele>
        <time>2022-10-02T12:27:12Z</time>
      </trkpt>
      <trkpt lat="47.06842" lon="6.16297">
        <ele>546.2</ele>
        <time>2022-10-02T12:27:14Z</time>
      </trkpt>
      <trkpt lat="47.0686" lon="6.1629">
        <ele>545.6</ele>
        <time>2022-10-02T12:27:21Z</time>
      </trkpt>
      <trkpt lat="47.06867" lon="6.1629">
        <ele>544.8</ele>
        <time>2022-10-02T12:27:24Z</time>
      </trkpt>
      <trkpt lat="47.06875" lon="6.1629">
        <ele>544.4</ele>
        <time>2022-10-02T12:27:28Z</time>
      </trkpt>
      <trkpt lat="47.06913" lon="6.16289">
        <ele>547.4</ele>
        <time>2022-10-02T12:27:50Z</time>
      </trkpt>
      <trkpt lat="47.06921" lon="6.1629">
        <ele>547.6</ele>
        <time>2022-10-02T12:27:54Z</time>
      </trkpt>
      <trkpt lat="47.06931" lon="6.16291">
        <ele>548.4</ele>
        <time>2022-10-02T12:27:58Z</time>
      </trkpt>
      <trkpt lat="47.06936" lon="6.16293">
        <ele>548.4</ele>
        <time>2022-10-02T12:28:01Z</time>
      </trkpt>
      <trkpt lat="47.06957" lon="6.16295">
        <ele>549.8</ele>
        <time>2022-10-02T12:28:08Z</time>
      </trkpt>
      <trkpt lat="47.06966" lon="6.16294">
        <ele>551</ele>
        <time>2022-10-02T12:28:11Z</time>
      </trkpt>
      <trkpt lat="47.0697" lon="6.16293">
        <ele>552.2</ele>
        <time>2022-10-02T12:28:13Z</time>
      </trkpt>
      <trkpt lat="47.06972" lon="6.16291">
        <ele>552.8</ele>
        <time>2022-10-02T12:28:14Z</time>
      </trkpt>
      <trkpt lat="47.0698" lon="6.16285">
        <ele>552.6</ele>
        <time>2022-10-02T12:28:17Z</time>
      </trkpt>
      <trkpt lat="47.06987" lon="6.16279">
        <ele>551.8</ele>
        <time>2022-10-02T12:28:19Z</time>
      </trkpt>
      <trkpt lat="47.06995" lon="6.16274">
        <ele>551</ele>
        <time>2022-10-02T12:28:21Z</time>
      </trkpt>
      <trkpt lat="47.07012" lon="6.16267">
        <ele>550</ele>
        <time>2022-10-02T12:28:24Z</time>
      </trkpt>
      <trkpt lat="47.07018" lon="6.16264">
        <ele>549.4</ele>
        <time>2022-10-02T12:28:25Z</time>
      </trkpt>
      <trkpt lat="47.07029" lon="6.16259">
        <ele>548.4</ele>
        <time>2022-10-02T12:28:27Z</time>
      </trkpt>
      <trkpt lat="47.0704" lon="6.16255">
        <ele>547.4</ele>
        <time>2022-10-02T12:28:29Z</time>
      </trkpt>
      <trkpt lat="47.07046" lon="6.16253">
        <ele>547</ele>
        <time>2022-10-02T12:28:30Z</time>
      </trkpt>
      <trkpt lat="47.07058" lon="6.16248">
        <ele>546</ele>
        <time>2022-10-02T12:28:32Z</time>
      </trkpt>
      <trkpt lat="47.07064" lon="6.16245">
        <ele>545.6</ele>
        <time>2022-10-02T12:28:33Z</time>
      </trkpt>
      <trkpt lat="47.07069" lon="6.16241">
        <ele>545.2</ele>
        <time>2022-10-02T12:28:34Z</time>
      </trkpt>
      <trkpt lat="47.07078" lon="6.16234">
        <ele>544.2</ele>
        <time>2022-10-02T12:28:36Z</time>
      </trkpt>
      <trkpt lat="47.07089" lon="6.16226">
        <ele>542.8</ele>
        <time>2022-10-02T12:28:39Z</time>
      </trkpt>
      <trkpt lat="47.07094" lon="6.16221">
        <ele>541.6</ele>
        <time>2022-10-02T12:28:41Z</time>
      </trkpt>
      <trkpt lat="47.071" lon="6.16216">
        <ele>540.4</ele>
        <time>2022-10-02T12:28:43Z</time>
      </trkpt>
      <trkpt lat="47.07102" lon="6.16213">
        <ele>540</ele>
        <time>2022-10-02T12:28:44Z</time>
      </trkpt>
      <trkpt lat="47.07103" lon="6.16211">
        <ele>539.2</ele>
        <time>2022-10-02T12:28:45Z</time>
      </trkpt>
      <trkpt lat="47.07107" lon="6.16206">
        <ele>537.8</ele>
        <time>2022-10-02T12:28:47Z</time>
      </trkpt>
      <trkpt lat="47.07114" lon="6.16201">
        <ele>536.6</ele>
        <time>2022-10-02T12:28:49Z</time>
      </trkpt>
      <trkpt lat="47.07121" lon="6.16197">
        <ele>535.4</ele>
        <time>2022-10-02T12:28:51Z</time>
      </trkpt>
      <trkpt lat="47.07128" lon="6.16193">
        <ele>534.4</ele>
        <time>2022-10-02T12:28:53Z</time>
      </trkpt>
      <trkpt lat="47.07132" lon="6.16192">
        <ele>533.6</ele>
        <time>2022-10-02T12:28:54Z</time>
      </trkpt>
      <trkpt lat="47.07136" lon="6.16192">
        <ele>532.8</ele>
        <time>2022-10-02T12:28:55Z</time>
      </trkpt>
      <trkpt lat="47.07145" lon="6.1619">
        <ele>531.8</ele>
        <time>2022-10-02T12:28:57Z</time>
      </trkpt>
      <trkpt lat="47.07158" lon="6.1619">
        <ele>530.4</ele>
        <time>2022-10-02T12:29:00Z</time>
      </trkpt>
      <trkpt lat="47.07168" lon="6.16189">
        <ele>529.4</ele>
        <time>2022-10-02T12:29:03Z</time>
      </trkpt>
      <trkpt lat="47.07175" lon="6.16188">
        <ele>528.2</ele>
        <time>2022-10-02T12:29:05Z</time>
      </trkpt>
      <trkpt lat="47.07185" lon="6.16183">
        <ele>527.2</ele>
        <time>2022-10-02T12:29:08Z</time>
      </trkpt>
      <trkpt lat="47.07195" lon="6.16178">
        <ele>525.8</ele>
        <time>2022-10-02T12:29:11Z</time>
      </trkpt>
      <trkpt lat="47.07207" lon="6.16174">
        <ele>524.6</ele>
        <time>2022-10-02T12:29:14Z</time>
      </trkpt>
      <trkpt lat="47.07223" lon="6.16173">
        <ele>522.2</ele>
        <time>2022-10-02T12:29:17Z</time>
      </trkpt>
      <trkpt lat="47.07229" lon="6.16174">
        <ele>520.8</ele>
        <time>2022-10-02T12:29:18Z</time>
      </trkpt>
      <trkpt lat="47.07235" lon="6.16175">
        <ele>519.4</ele>
        <time>2022-10-02T12:29:19Z</time>
      </trkpt>
      <trkpt lat="47.0724" lon="6.16176">
        <ele>518.4</ele>
        <time>2022-10-02T12:29:20Z</time>
      </trkpt>
      <trkpt lat="47.07251" lon="6.16178">
        <ele>516.6</ele>
        <time>2022-10-02T12:29:22Z</time>
      </trkpt>
      <trkpt lat="47.07257" lon="6.16178">
        <ele>515.8</ele>
        <time>2022-10-02T12:29:23Z</time>
      </trkpt>
      <trkpt lat="47.07263" lon="6.16178">
        <ele>514.8</ele>
        <time>2022-10-02T12:29:24Z</time>
      </trkpt>
      <trkpt lat="47.07274" lon="6.16178">
        <ele>512.8</ele>
        <time>2022-10-02T12:29:26Z</time>
      </trkpt>
      <trkpt lat="47.0728" lon="6.16178">
        <ele>511.8</ele>
        <time>2022-10-02T12:29:27Z</time>
      </trkpt>
      <trkpt lat="47.07286" lon="6.16179">
        <ele>510.6</ele>
        <time>2022-10-02T12:29:28Z</time>
      </trkpt>
      <trkpt lat="47.07292" lon="6.16179">
        <ele>509.8</ele>
        <time>2022-10-02T12:29:29Z</time>
      </trkpt>
      <trkpt lat="47.07299" lon="6.16179">
        <ele>509</ele>
        <time>2022-10-02T12:29:30Z</time>
      </trkpt>
      <trkpt lat="47.07314" lon="6.16179">
        <ele>507.8</ele>
        <time>2022-10-02T12:29:32Z</time>
      </trkpt>
      <trkpt lat="47.07328" lon="6.16179">
        <ele>506.8</ele>
        <time>2022-10-02T12:29:34Z</time>
      </trkpt>
      <trkpt lat="47.07343" lon="6.16178">
        <ele>505.6</ele>
        <time>2022-10-02T12:29:36Z</time>
      </trkpt>
      <trkpt lat="47.07358" lon="6.16176">
        <ele>504.2</ele>
        <time>2022-10-02T12:29:38Z</time>
      </trkpt>
      <trkpt lat="47.07373" lon="6.16176">
        <ele>503</ele>
        <time>2022-10-02T12:29:40Z</time>
      </trkpt>
      <trkpt lat="47.07389" lon="6.16175">
        <ele>501.6</ele>
        <time>2022-10-02T12:29:42Z</time>
      </trkpt>
      <trkpt lat="47.07429" lon="6.16171">
        <ele>501.4</ele>
        <time>2022-10-02T12:29:47Z</time>
      </trkpt>
      <trkpt lat="47.07464" lon="6.16165">
        <ele>501.2</ele>
        <time>2022-10-02T12:29:52Z</time>
      </trkpt>
      <trkpt lat="47.07485" lon="6.16154">
        <ele>500.4</ele>
        <time>2022-10-02T12:29:57Z</time>
      </trkpt>
      <trkpt lat="47.07508" lon="6.1614">
        <ele>499.2</ele>
        <time>2022-10-02T12:30:02Z</time>
      </trkpt>
      <trkpt lat="47.07513" lon="6.16137">
        <ele>499</ele>
        <time>2022-10-02T12:30:03Z</time>
      </trkpt>
      <trkpt lat="47.07522" lon="6.16132">
        <ele>498.4</ele>
        <time>2022-10-02T12:30:05Z</time>
      </trkpt>
      <trkpt lat="47.07526" lon="6.16129">
        <ele>498.2</ele>
        <time>2022-10-02T12:30:06Z</time>
      </trkpt>
      <trkpt lat="47.07535" lon="6.16123">
        <ele>497.8</ele>
        <time>2022-10-02T12:30:08Z</time>
      </trkpt>
      <trkpt lat="47.07544" lon="6.16119">
        <ele>497</ele>
        <time>2022-10-02T12:30:10Z</time>
      </trkpt>
      <trkpt lat="47.07555" lon="6.16115">
        <ele>495.6</ele>
        <time>2022-10-02T12:30:12Z</time>
      </trkpt>
      <trkpt lat="47.0756" lon="6.16113">
        <ele>495</ele>
        <time>2022-10-02T12:30:13Z</time>
      </trkpt>
      <trkpt lat="47.07566" lon="6.16112">
        <ele>494.2</ele>
        <time>2022-10-02T12:30:14Z</time>
      </trkpt>
      <trkpt lat="47.07577" lon="6.1611">
        <ele>492.8</ele>
        <time>2022-10-02T12:30:16Z</time>
      </trkpt>
      <trkpt lat="47.07587" lon="6.16106">
        <ele>491.6</ele>
        <time>2022-10-02T12:30:18Z</time>
      </trkpt>
      <trkpt lat="47.07597" lon="6.16102">
        <ele>490</ele>
        <time>2022-10-02T12:30:20Z</time>
      </trkpt>
      <trkpt lat="47.07606" lon="6.16099">
        <ele>488.4</ele>
        <time>2022-10-02T12:30:22Z</time>
      </trkpt>
      <trkpt lat="47.07609" lon="6.16097">
        <ele>487.8</ele>
        <time>2022-10-02T12:30:23Z</time>
      </trkpt>
      <trkpt lat="47.07612" lon="6.16095">
        <ele>487</ele>
        <time>2022-10-02T12:30:24Z</time>
      </trkpt>
      <trkpt lat="47.07619" lon="6.16093">
        <ele>485.2</ele>
        <time>2022-10-02T12:30:26Z</time>
      </trkpt>
      <trkpt lat="47.07626" lon="6.16091">
        <ele>483.4</ele>
        <time>2022-10-02T12:30:28Z</time>
      </trkpt>
      <trkpt lat="47.0763" lon="6.1609">
        <ele>482.4</ele>
        <time>2022-10-02T12:30:29Z</time>
      </trkpt>
      <trkpt lat="47.07633" lon="6.16089">
        <ele>481.6</ele>
        <time>2022-10-02T12:30:30Z</time>
      </trkpt>
      <trkpt lat="47.0764" lon="6.16087">
        <ele>479.8</ele>
        <time>2022-10-02T12:30:32Z</time>
      </trkpt>
      <trkpt lat="47.07648" lon="6.16086">
        <ele>478</ele>
        <time>2022-10-02T12:30:34Z</time>
      </trkpt>
      <trkpt lat="47.07652" lon="6.16086">
        <ele>477</ele>
        <time>2022-10-02T12:30:35Z</time>
      </trkpt>
      <trkpt lat="47.07656" lon="6.16086">
        <ele>476.2</ele>
        <time>2022-10-02T12:30:36Z</time>
      </trkpt>
      <trkpt lat="47.07664" lon="6.16086">
        <ele>474.6</ele>
        <time>2022-10-02T12:30:38Z</time>
      </trkpt>
      <trkpt lat="47.07672" lon="6.16085">
        <ele>473.2</ele>
        <time>2022-10-02T12:30:40Z</time>
      </trkpt>
      <trkpt lat="47.07676" lon="6.16085">
        <ele>472.4</ele>
        <time>2022-10-02T12:30:41Z</time>
      </trkpt>
      <trkpt lat="47.07681" lon="6.16085">
        <ele>471.4</ele>
        <time>2022-10-02T12:30:42Z</time>
      </trkpt>
      <trkpt lat="47.07689" lon="6.16085">
        <ele>469.6</ele>
        <time>2022-10-02T12:30:44Z</time>
      </trkpt>
      <trkpt lat="47.07693" lon="6.16085">
        <ele>468.6</ele>
        <time>2022-10-02T12:30:45Z</time>
      </trkpt>
      <trkpt lat="47.07701" lon="6.16086">
        <ele>466.8</ele>
        <time>2022-10-02T12:30:47Z</time>
      </trkpt>
      <trkpt lat="47.07708" lon="6.16087">
        <ele>465.4</ele>
        <time>2022-10-02T12:30:49Z</time>
      </trkpt>
      <trkpt lat="47.07716" lon="6.16088">
        <ele>464</ele>
        <time>2022-10-02T12:30:51Z</time>
      </trkpt>
      <trkpt lat="47.07725" lon="6.16089">
        <ele>462.4</ele>
        <time>2022-10-02T12:30:53Z</time>
      </trkpt>
      <trkpt lat="47.07733" lon="6.1609">
        <ele>460.6</ele>
        <time>2022-10-02T12:30:55Z</time>
      </trkpt>
      <trkpt lat="47.07742" lon="6.16091">
        <ele>459.4</ele>
        <time>2022-10-02T12:30:57Z</time>
      </trkpt>
      <trkpt lat="47.07746" lon="6.16091">
        <ele>458.6</ele>
        <time>2022-10-02T12:30:58Z</time>
      </trkpt>
      <trkpt lat="47.07752" lon="6.16092">
        <ele>457.6</ele>
        <time>2022-10-02T12:30:59Z</time>
      </trkpt>
      <trkpt lat="47.07759" lon="6.16093">
        <ele>456.4</ele>
        <time>2022-10-02T12:31:00Z</time>
      </trkpt>
      <trkpt lat="47.07766" lon="6.16095">
        <ele>455</ele>
        <time>2022-10-02T12:31:01Z</time>
      </trkpt>
      <trkpt lat="47.07773" lon="6.16096">
        <ele>453.6</ele>
        <time>2022-10-02T12:31:02Z</time>
      </trkpt>
      <trkpt lat="47.0778" lon="6.16097">
        <ele>452.2</ele>
        <time>2022-10-02T12:31:03Z</time>
      </trkpt>
      <trkpt lat="47.07787" lon="6.16098">
        <ele>450.8</ele>
        <time>2022-10-02T12:31:04Z</time>
      </trkpt>
      <trkpt lat="47.07793" lon="6.161">
        <ele>449.6</ele>
        <time>2022-10-02T12:31:05Z</time>
      </trkpt>
      <trkpt lat="47.078" lon="6.16101">
        <ele>448.2</ele>
        <time>2022-10-02T12:31:06Z</time>
      </trkpt>
      <trkpt lat="47.07806" lon="6.16102">
        <ele>447</ele>
        <time>2022-10-02T12:31:07Z</time>
      </trkpt>
      <trkpt lat="47.07812" lon="6.16104">
        <ele>445.6</ele>
        <time>2022-10-02T12:31:08Z</time>
      </trkpt>
      <trkpt lat="47.07818" lon="6.16105">
        <ele>444.6</ele>
        <time>2022-10-02T12:31:09Z</time>
      </trkpt>
      <trkpt lat="47.07825" lon="6.16106">
        <ele>443.4</ele>
        <time>2022-10-02T12:31:10Z</time>
      </trkpt>
      <trkpt lat="47.07831" lon="6.16108">
        <ele>442.2</ele>
        <time>2022-10-02T12:31:11Z</time>
      </trkpt>
      <trkpt lat="47.07837" lon="6.16109">
        <ele>441</ele>
        <time>2022-10-02T12:31:12Z</time>
      </trkpt>
      <trkpt lat="47.07843" lon="6.16111">
        <ele>439.8</ele>
        <time>2022-10-02T12:31:13Z</time>
      </trkpt>
      <trkpt lat="47.07849" lon="6.16114">
        <ele>438.4</ele>
        <time>2022-10-02T12:31:14Z</time>
      </trkpt>
      <trkpt lat="47.07856" lon="6.16116">
        <ele>437</ele>
        <time>2022-10-02T12:31:15Z</time>
      </trkpt>
      <trkpt lat="47.07862" lon="6.16118">
        <ele>435.4</ele>
        <time>2022-10-02T12:31:16Z</time>
      </trkpt>
      <trkpt lat="47.07868" lon="6.1612">
        <ele>434.2</ele>
        <time>2022-10-02T12:31:17Z</time>
      </trkpt>
      <trkpt lat="47.07874" lon="6.16123">
        <ele>433.2</ele>
        <time>2022-10-02T12:31:18Z</time>
      </trkpt>
      <trkpt lat="47.0788" lon="6.16127">
        <ele>432</ele>
        <time>2022-10-02T12:31:19Z</time>
      </trkpt>
      <trkpt lat="47.07887" lon="6.16131">
        <ele>431</ele>
        <time>2022-10-02T12:31:20Z</time>
      </trkpt>
      <trkpt lat="47.07893" lon="6.16135">
        <ele>429.8</ele>
        <time>2022-10-02T12:31:21Z</time>
      </trkpt>
      <trkpt lat="47.079" lon="6.16139">
        <ele>428.8</ele>
        <time>2022-10-02T12:31:22Z</time>
      </trkpt>
      <trkpt lat="47.07912" lon="6.16146">
        <ele>426.8</ele>
        <time>2022-10-02T12:31:24Z</time>
      </trkpt>
      <trkpt lat="47.07918" lon="6.16149">
        <ele>425.6</ele>
        <time>2022-10-02T12:31:25Z</time>
      </trkpt>
      <trkpt lat="47.07923" lon="6.16152">
        <ele>424.4</ele>
        <time>2022-10-02T12:31:26Z</time>
      </trkpt>
      <trkpt lat="47.07929" lon="6.16156">
        <ele>423.2</ele>
        <time>2022-10-02T12:31:27Z</time>
      </trkpt>
      <trkpt lat="47.07934" lon="6.1616">
        <ele>422.2</ele>
        <time>2022-10-02T12:31:28Z</time>
      </trkpt>
      <trkpt lat="47.0794" lon="6.16164">
        <ele>421</ele>
        <time>2022-10-02T12:31:29Z</time>
      </trkpt>
      <trkpt lat="47.07946" lon="6.16168">
        <ele>420</ele>
        <time>2022-10-02T12:31:30Z</time>
      </trkpt>
      <trkpt lat="47.07952" lon="6.16171">
        <ele>419</ele>
        <time>2022-10-02T12:31:31Z</time>
      </trkpt>
      <trkpt lat="47.07964" lon="6.1618">
        <ele>417</ele>
        <time>2022-10-02T12:31:33Z</time>
      </trkpt>
      <trkpt lat="47.07969" lon="6.16183">
        <ele>416.2</ele>
        <time>2022-10-02T12:31:34Z</time>
      </trkpt>
      <trkpt lat="47.07973" lon="6.16187">
        <ele>415</ele>
        <time>2022-10-02T12:31:35Z</time>
      </trkpt>
      <trkpt lat="47.07978" lon="6.1619">
        <ele>413.8</ele>
        <time>2022-10-02T12:31:36Z</time>
      </trkpt>
      <trkpt lat="47.07982" lon="6.16193">
        <ele>412.6</ele>
        <time>2022-10-02T12:31:37Z</time>
      </trkpt>
      <trkpt lat="47.07996" lon="6.16202">
        <ele>412.2</ele>
        <time>2022-10-02T12:31:40Z</time>
      </trkpt>
      <trkpt lat="47.08007" lon="6.1621">
        <ele>411.6</ele>
        <time>2022-10-02T12:31:42Z</time>
      </trkpt>
      <trkpt lat="47.0803" lon="6.16228">
        <ele>410.4</ele>
        <time>2022-10-02T12:31:47Z</time>
      </trkpt>
      <trkpt lat="47.08059" lon="6.16249">
        <ele>409.6</ele>
        <time>2022-10-02T12:31:54Z</time>
      </trkpt>
      <trkpt lat="47.08065" lon="6.16257">
        <ele>409.2</ele>
        <time>2022-10-02T12:31:56Z</time>
      </trkpt>
      <trkpt lat="47.08076" lon="6.16272">
        <ele>409.2</ele>
        <time>2022-10-02T12:32:00Z</time>
      </trkpt>
      <trkpt lat="47.08086" lon="6.16289">
        <ele>407.6</ele>
        <time>2022-10-02T12:32:03Z</time>
      </trkpt>
      <trkpt lat="47.08095" lon="6.16303">
        <ele>406</ele>
        <time>2022-10-02T12:32:05Z</time>
      </trkpt>
      <trkpt lat="47.081" lon="6.16311">
        <ele>405</ele>
        <time>2022-10-02T12:32:06Z</time>
      </trkpt>
      <trkpt lat="47.08112" lon="6.16335">
        <ele>404.2</ele>
        <time>2022-10-02T12:32:09Z</time>
      </trkpt>
      <trkpt lat="47.08116" lon="6.16342">
        <ele>403.8</ele>
        <time>2022-10-02T12:32:10Z</time>
      </trkpt>
      <trkpt lat="47.08122" lon="6.16349">
        <ele>403.8</ele>
        <time>2022-10-02T12:32:11Z</time>
      </trkpt>
      <trkpt lat="47.0814" lon="6.16365">
        <ele>403.4</ele>
        <time>2022-10-02T12:32:14Z</time>
      </trkpt>
      <trkpt lat="47.08164" lon="6.16376">
        <ele>402.6</ele>
        <time>2022-10-02T12:32:18Z</time>
      </trkpt>
      <trkpt lat="47.0817" lon="6.16378">
        <ele>402.4</ele>
        <time>2022-10-02T12:32:19Z</time>
      </trkpt>
      <trkpt lat="47.08176" lon="6.1638">
        <ele>402.2</ele>
        <time>2022-10-02T12:32:20Z</time>
      </trkpt>
      <trkpt lat="47.08204" lon="6.16383">
        <ele>401.4</ele>
        <time>2022-10-02T12:32:24Z</time>
      </trkpt>
      <trkpt lat="47.0822" lon="6.16384">
        <ele>401.2</ele>
        <time>2022-10-02T12:32:26Z</time>
      </trkpt>
      <trkpt lat="47.08254" lon="6.16385">
        <ele>400.4</ele>
        <time>2022-10-02T12:32:30Z</time>
      </trkpt>
      <trkpt lat="47.08262" lon="6.16386">
        <ele>400.2</ele>
        <time>2022-10-02T12:32:31Z</time>
      </trkpt>
      <trkpt lat="47.08276" lon="6.16389">
        <ele>399.4</ele>
        <time>2022-10-02T12:32:33Z</time>
      </trkpt>
      <trkpt lat="47.08294" lon="6.16391">
        <ele>398.2</ele>
        <time>2022-10-02T12:32:35Z</time>
      </trkpt>
      <trkpt lat="47.08312" lon="6.16395">
        <ele>396.6</ele>
        <time>2022-10-02T12:32:37Z</time>
      </trkpt>
      <trkpt lat="47.08329" lon="6.16397">
        <ele>394.8</ele>
        <time>2022-10-02T12:32:39Z</time>
      </trkpt>
      <trkpt lat="47.08343" lon="6.16398">
        <ele>392.6</ele>
        <time>2022-10-02T12:32:41Z</time>
      </trkpt>
      <trkpt lat="47.08349" lon="6.16397">
        <ele>391.4</ele>
        <time>2022-10-02T12:32:42Z</time>
      </trkpt>
      <trkpt lat="47.08354" lon="6.16396">
        <ele>390.8</ele>
        <time>2022-10-02T12:32:43Z</time>
      </trkpt>
      <trkpt lat="47.08358" lon="6.16395">
        <ele>390.2</ele>
        <time>2022-10-02T12:32:44Z</time>
      </trkpt>
      <trkpt lat="47.08361" lon="6.16393">
        <ele>389.6</ele>
        <time>2022-10-02T12:32:45Z</time>
      </trkpt>
      <trkpt lat="47.08362" lon="6.16389">
        <ele>385.6</ele>
        <time>2022-10-02T12:33:11Z</time>
      </trkpt>
      <trkpt lat="47.08363" lon="6.16387">
        <ele>384.4</ele>
        <time>2022-10-02T12:33:12Z</time>
      </trkpt>
      <trkpt lat="47.08364" lon="6.16385">
        <ele>383.2</ele>
        <time>2022-10-02T12:33:13Z</time>
      </trkpt>
      <trkpt lat="47.08365" lon="6.16383">
        <ele>381.8</ele>
        <time>2022-10-02T12:33:14Z</time>
      </trkpt>
      <trkpt lat="47.08367" lon="6.16381">
        <ele>380.4</ele>
        <time>2022-10-02T12:33:15Z</time>
      </trkpt>
      <trkpt lat="47.08369" lon="6.16379">
        <ele>379.2</ele>
        <time>2022-10-02T12:33:16Z</time>
      </trkpt>
      <trkpt lat="47.08372" lon="6.16377">
        <ele>377.6</ele>
        <time>2022-10-02T12:33:17Z</time>
      </trkpt>
      <trkpt lat="47.08376" lon="6.16376">
        <ele>376.4</ele>
        <time>2022-10-02T12:33:18Z</time>
      </trkpt>
      <trkpt lat="47.0838" lon="6.16376">
        <ele>375</ele>
        <time>2022-10-02T12:33:19Z</time>
      </trkpt>
      <trkpt lat="47.08387" lon="6.16373">
        <ele>373.4</ele>
        <time>2022-10-02T12:33:21Z</time>
      </trkpt>
      <trkpt lat="47.08391" lon="6.16372">
        <ele>372.4</ele>
        <time>2022-10-02T12:33:22Z</time>
      </trkpt>
      <trkpt lat="47.08395" lon="6.16371">
        <ele>371.6</ele>
        <time>2022-10-02T12:33:23Z</time>
      </trkpt>
      <trkpt lat="47.08405" lon="6.16371">
        <ele>369.8</ele>
        <time>2022-10-02T12:33:25Z</time>
      </trkpt>
      <trkpt lat="47.0841" lon="6.16372">
        <ele>369</ele>
        <time>2022-10-02T12:33:26Z</time>
      </trkpt>
      <trkpt lat="47.08415" lon="6.16372">
        <ele>368</ele>
        <time>2022-10-02T12:33:27Z</time>
      </trkpt>
      <trkpt lat="47.08426" lon="6.1637">
        <ele>366.8</ele>
        <time>2022-10-02T12:33:29Z</time>
      </trkpt>
      <trkpt lat="47.08437" lon="6.16369">
        <ele>365.6</ele>
        <time>2022-10-02T12:33:31Z</time>
      </trkpt>
      <trkpt lat="47.08448" lon="6.1637">
        <ele>365</ele>
        <time>2022-10-02T12:33:33Z</time>
      </trkpt>
      <trkpt lat="47.08454" lon="6.1637">
        <ele>364.6</ele>
        <time>2022-10-02T12:33:34Z</time>
      </trkpt>
      <trkpt lat="47.08472" lon="6.16369">
        <ele>363</ele>
        <time>2022-10-02T12:33:37Z</time>
      </trkpt>
      <trkpt lat="47.08497" lon="6.16367">
        <ele>362</ele>
        <time>2022-10-02T12:33:41Z</time>
      </trkpt>
      <trkpt lat="47.08521" lon="6.16355">
        <ele>360.8</ele>
        <time>2022-10-02T12:33:45Z</time>
      </trkpt>
      <trkpt lat="47.08527" lon="6.16351">
        <ele>360.6</ele>
        <time>2022-10-02T12:33:46Z</time>
      </trkpt>
      <trkpt lat="47.08538" lon="6.16342">
        <ele>359.8</ele>
        <time>2022-10-02T12:33:48Z</time>
      </trkpt>
      <trkpt lat="47.08549" lon="6.16331">
        <ele>359.2</ele>
        <time>2022-10-02T12:33:50Z</time>
      </trkpt>
      <trkpt lat="47.08553" lon="6.16324">
        <ele>359</ele>
        <time>2022-10-02T12:33:51Z</time>
      </trkpt>
      <trkpt lat="47.08557" lon="6.16317">
        <ele>358.6</ele>
        <time>2022-10-02T12:33:52Z</time>
      </trkpt>
      <trkpt lat="47.08561" lon="6.1631">
        <ele>358.4</ele>
        <time>2022-10-02T12:33:53Z</time>
      </trkpt>
      <trkpt lat="47.08573" lon="6.16303">
        <ele>358.2</ele>
        <time>2022-10-02T12:33:55Z</time>
      </trkpt>
      <trkpt lat="47.08586" lon="6.16303">
        <ele>357.4</ele>
        <time>2022-10-02T12:33:57Z</time>
      </trkpt>
      <trkpt lat="47.08594" lon="6.16304">
        <ele>357</ele>
        <time>2022-10-02T12:33:58Z</time>
      </trkpt>
      <trkpt lat="47.08607" lon="6.16309">
        <ele>356</ele>
        <time>2022-10-02T12:34:00Z</time>
      </trkpt>
      <trkpt lat="47.08614" lon="6.16312">
        <ele>355.6</ele>
        <time>2022-10-02T12:34:01Z</time>
      </trkpt>
      <trkpt lat="47.08628" lon="6.1632">
        <ele>355</ele>
        <time>2022-10-02T12:34:03Z</time>
      </trkpt>
      <trkpt lat="47.08659" lon="6.16341">
        <ele>354</ele>
        <time>2022-10-02T12:34:08Z</time>
      </trkpt>
      <trkpt lat="47.08665" lon="6.16344">
        <ele>353.6</ele>
        <time>2022-10-02T12:34:09Z</time>
      </trkpt>
      <trkpt lat="47.08678" lon="6.16349">
        <ele>353.4</ele>
        <time>2022-10-02T12:34:11Z</time>
      </trkpt>
      <trkpt lat="47.08691" lon="6.16351">
        <ele>352.8</ele>
        <time>2022-10-02T12:34:13Z</time>
      </trkpt>
      <trkpt lat="47.08706" lon="6.16349">
        <ele>352.6</ele>
        <time>2022-10-02T12:34:15Z</time>
      </trkpt>
      <trkpt lat="47.08733" lon="6.16342">
        <ele>352.8</ele>
        <time>2022-10-02T12:34:19Z</time>
      </trkpt>
      <trkpt lat="47.08781" lon="6.16335">
        <ele>352.4</ele>
        <time>2022-10-02T12:34:26Z</time>
      </trkpt>
      <trkpt lat="47.08818" lon="6.16337">
        <ele>352.2</ele>
        <time>2022-10-02T12:34:32Z</time>
      </trkpt>
      <trkpt lat="47.08864" lon="6.16344">
        <ele>352.4</ele>
        <time>2022-10-02T12:34:40Z</time>
      </trkpt>
      <trkpt lat="47.08902" lon="6.1635">
        <ele>353</ele>
        <time>2022-10-02T12:34:47Z</time>
      </trkpt>
      <trkpt lat="47.08931" lon="6.1635">
        <ele>353.2</ele>
        <time>2022-10-02T12:34:53Z</time>
      </trkpt>
      <trkpt lat="47.08959" lon="6.16354">
        <ele>353</ele>
        <time>2022-10-02T12:34:59Z</time>
      </trkpt>
      <trkpt lat="47.09002" lon="6.16362">
        <ele>353.4</ele>
        <time>2022-10-02T12:35:08Z</time>
      </trkpt>
      <trkpt lat="47.09011" lon="6.16364">
        <ele>353.8</ele>
        <time>2022-10-02T12:35:10Z</time>
      </trkpt>
      <trkpt lat="47.09023" lon="6.16369">
        <ele>354.4</ele>
        <time>2022-10-02T12:35:13Z</time>
      </trkpt>
      <trkpt lat="47.09052" lon="6.16384">
        <ele>354.8</ele>
        <time>2022-10-02T12:35:20Z</time>
      </trkpt>
      <trkpt lat="47.09081" lon="6.16397">
        <ele>354.4</ele>
        <time>2022-10-02T12:35:26Z</time>
      </trkpt>
      <trkpt lat="47.09113" lon="6.16403">
        <ele>354</ele>
        <time>2022-10-02T12:35:32Z</time>
      </trkpt>
      <trkpt lat="47.09127" lon="6.16402">
        <ele>353.8</ele>
        <time>2022-10-02T12:35:35Z</time>
      </trkpt>
      <trkpt lat="47.09143" lon="6.16401">
        <ele>353.4</ele>
        <time>2022-10-02T12:35:39Z</time>
      </trkpt>
      <trkpt lat="47.09168" lon="6.16398">
        <ele>353</ele>
        <time>2022-10-02T12:35:45Z</time>
      </trkpt>
      <trkpt lat="47.09173" lon="6.16397">
        <ele>352.8</ele>
        <time>2022-10-02T12:35:46Z</time>
      </trkpt>
      <trkpt lat="47.09197" lon="6.16386">
        <ele>352.6</ele>
        <time>2022-10-02T12:35:52Z</time>
      </trkpt>
      <trkpt lat="47.09227" lon="6.16374">
        <ele>351.8</ele>
        <time>2022-10-02T12:36:00Z</time>
      </trkpt>
      <trkpt lat="47.09255" lon="6.16371">
        <ele>350.8</ele>
        <time>2022-10-02T12:36:08Z</time>
      </trkpt>
      <trkpt lat="47.09258" lon="6.16371">
        <ele>350.6</ele>
        <time>2022-10-02T12:36:09Z</time>
      </trkpt>
      <trkpt lat="47.09278" lon="6.16371">
        <ele>350.6</ele>
        <time>2022-10-02T12:36:15Z</time>
      </trkpt>
      <trkpt lat="47.09289" lon="6.16372">
        <ele>351.6</ele>
        <time>2022-10-02T12:36:19Z</time>
      </trkpt>
      <trkpt lat="47.09294" lon="6.16372">
        <ele>352</ele>
        <time>2022-10-02T12:36:21Z</time>
      </trkpt>
      <trkpt lat="47.09304" lon="6.16376">
        <ele>352.6</ele>
        <time>2022-10-02T12:36:25Z</time>
      </trkpt>
      <trkpt lat="47.09313" lon="6.16378">
        <ele>353.2</ele>
        <time>2022-10-02T12:36:28Z</time>
      </trkpt>
      <trkpt lat="47.09328" lon="6.16384">
        <ele>352.6</ele>
        <time>2022-10-02T12:36:33Z</time>
      </trkpt>
      <trkpt lat="47.09344" lon="6.16384">
        <ele>353.2</ele>
        <time>2022-10-02T12:36:37Z</time>
      </trkpt>
      <trkpt lat="47.09348" lon="6.16382">
        <ele>353.4</ele>
        <time>2022-10-02T12:36:38Z</time>
      </trkpt>
      <trkpt lat="47.09357" lon="6.16377">
        <ele>353</ele>
        <time>2022-10-02T12:36:40Z</time>
      </trkpt>
      <trkpt lat="47.0937" lon="6.16365">
        <ele>352.2</ele>
        <time>2022-10-02T12:36:43Z</time>
      </trkpt>
      <trkpt lat="47.09401" lon="6.16331">
        <ele>351.6</ele>
        <time>2022-10-02T12:36:50Z</time>
      </trkpt>
      <trkpt lat="47.09422" lon="6.16312">
        <ele>350.6</ele>
        <time>2022-10-02T12:36:54Z</time>
      </trkpt>
      <trkpt lat="47.09438" lon="6.16301">
        <ele>350.2</ele>
        <time>2022-10-02T12:36:57Z</time>
      </trkpt>
      <trkpt lat="47.09464" lon="6.16285">
        <ele>349.4</ele>
        <time>2022-10-02T12:37:02Z</time>
      </trkpt>
      <trkpt lat="47.0948" lon="6.16278">
        <ele>349.2</ele>
        <time>2022-10-02T12:37:05Z</time>
      </trkpt>
      <trkpt lat="47.09503" lon="6.16269">
        <ele>349.4</ele>
        <time>2022-10-02T12:37:10Z</time>
      </trkpt>
      <trkpt lat="47.0955" lon="6.16251">
        <ele>349</ele>
        <time>2022-10-02T12:37:20Z</time>
      </trkpt>
      <trkpt lat="47.09596" lon="6.16232">
        <ele>348.6</ele>
        <time>2022-10-02T12:37:30Z</time>
      </trkpt>
      <trkpt lat="47.09612" lon="6.16226">
        <ele>348.4</ele>
        <time>2022-10-02T12:37:34Z</time>
      </trkpt>
      <trkpt lat="47.09624" lon="6.16223">
        <ele>348</ele>
        <time>2022-10-02T12:37:37Z</time>
      </trkpt>
      <trkpt lat="47.09661" lon="6.16217">
        <ele>348.2</ele>
        <time>2022-10-02T12:37:45Z</time>
      </trkpt>
      <trkpt lat="47.09692" lon="6.16211">
        <ele>348</ele>
        <time>2022-10-02T12:37:52Z</time>
      </trkpt>
      <trkpt lat="47.09694" lon="6.16225">
        <ele>347.8</ele>
        <time>2022-10-02T12:37:55Z</time>
      </trkpt>
      <trkpt lat="47.09685" lon="6.1624">
        <ele>347.6</ele>
        <time>2022-10-02T12:37:58Z</time>
      </trkpt>
      <trkpt lat="47.09681" lon="6.16245">
        <ele>347.4</ele>
        <time>2022-10-02T12:37:59Z</time>
      </trkpt>
      <trkpt lat="47.09655" lon="6.16289">
        <ele>347.2</ele>
        <time>2022-10-02T12:38:07Z</time>
      </trkpt>
      <trkpt lat="47.09632" lon="6.16332">
        <ele>347</ele>
        <time>2022-10-02T12:38:14Z</time>
      </trkpt>
      <trkpt lat="47.09615" lon="6.1636">
        <ele>346.4</ele>
        <time>2022-10-02T12:38:19Z</time>
      </trkpt>
      <trkpt lat="47.09603" lon="6.16381">
        <ele>346.2</ele>
        <time>2022-10-02T12:38:23Z</time>
      </trkpt>
      <trkpt lat="47.09574" lon="6.16428">
        <ele>345.6</ele>
        <time>2022-10-02T12:38:32Z</time>
      </trkpt>
      <trkpt lat="47.09563" lon="6.16448">
        <ele>345.6</ele>
        <time>2022-10-02T12:38:36Z</time>
      </trkpt>
      <trkpt lat="47.09557" lon="6.16457">
        <ele>345.6</ele>
        <time>2022-10-02T12:38:38Z</time>
      </trkpt>
      <trkpt lat="47.09536" lon="6.16491">
        <ele>346</ele>
        <time>2022-10-02T12:38:46Z</time>
      </trkpt>
      <trkpt lat="47.09534" lon="6.16496">
        <ele>346</ele>
        <time>2022-10-02T12:38:47Z</time>
      </trkpt>
      <trkpt lat="47.09524" lon="6.16515">
        <ele>346</ele>
        <time>2022-10-02T12:38:51Z</time>
      </trkpt>
      <trkpt lat="47.09503" lon="6.16565">
        <ele>346.4</ele>
        <time>2022-10-02T12:39:00Z</time>
      </trkpt>
      <trkpt lat="47.09482" lon="6.16611">
        <ele>346</ele>
        <time>2022-10-02T12:39:08Z</time>
      </trkpt>
      <trkpt lat="47.09469" lon="6.16637">
        <ele>345.4</ele>
        <time>2022-10-02T12:39:12Z</time>
      </trkpt>
      <trkpt lat="47.09453" lon="6.16665">
        <ele>344.6</ele>
        <time>2022-10-02T12:39:16Z</time>
      </trkpt>
      <trkpt lat="47.09445" lon="6.16679">
        <ele>344.2</ele>
        <time>2022-10-02T12:39:18Z</time>
      </trkpt>
      <trkpt lat="47.09428" lon="6.16703">
        <ele>343.2</ele>
        <time>2022-10-02T12:39:22Z</time>
      </trkpt>
      <trkpt lat="47.09424" lon="6.16709">
        <ele>343</ele>
        <time>2022-10-02T12:39:23Z</time>
      </trkpt>
      <trkpt lat="47.09389" lon="6.16758">
        <ele>342.4</ele>
        <time>2022-10-02T12:39:32Z</time>
      </trkpt>
      <trkpt lat="47.09376" lon="6.16775">
        <ele>342</ele>
        <time>2022-10-02T12:39:36Z</time>
      </trkpt>
      <trkpt lat="47.09367" lon="6.16789">
        <ele>342</ele>
        <time>2022-10-02T12:39:39Z</time>
      </trkpt>
      <trkpt lat="47.09365" lon="6.16794">
        <ele>342</ele>
        <time>2022-10-02T12:39:40Z</time>
      </trkpt>
      <trkpt lat="47.09366" lon="6.16812">
        <ele>342</ele>
        <time>2022-10-02T12:39:43Z</time>
      </trkpt>
      <trkpt lat="47.09374" lon="6.16826">
        <ele>341.4</ele>
        <time>2022-10-02T12:39:46Z</time>
      </trkpt>
      <trkpt lat="47.09381" lon="6.16835">
        <ele>341</ele>
        <time>2022-10-02T12:39:48Z</time>
      </trkpt>
      <trkpt lat="47.09385" lon="6.1684">
        <ele>341</ele>
        <time>2022-10-02T12:39:49Z</time>
      </trkpt>
      <trkpt lat="47.09409" lon="6.16864">
        <ele>340</ele>
        <time>2022-10-02T12:39:54Z</time>
      </trkpt>
      <trkpt lat="47.09436" lon="6.16889">
        <ele>339</ele>
        <time>2022-10-02T12:40:00Z</time>
      </trkpt>
      <trkpt lat="47.09446" lon="6.16896">
        <ele>338.8</ele>
        <time>2022-10-02T12:40:02Z</time>
      </trkpt>
      <trkpt lat="47.09451" lon="6.16898">
        <ele>338.6</ele>
        <time>2022-10-02T12:40:03Z</time>
      </trkpt>
      <trkpt lat="47.09467" lon="6.16897">
        <ele>338</ele>
        <time>2022-10-02T12:40:06Z</time>
      </trkpt>
      <trkpt lat="47.09471" lon="6.16893">
        <ele>337.8</ele>
        <time>2022-10-02T12:40:07Z</time>
      </trkpt>
      <trkpt lat="47.09475" lon="6.16889">
        <ele>337.4</ele>
        <time>2022-10-02T12:40:08Z</time>
      </trkpt>
      <trkpt lat="47.09483" lon="6.1688">
        <ele>337.2</ele>
        <time>2022-10-02T12:40:10Z</time>
      </trkpt>
      <trkpt lat="47.09523" lon="6.1684">
        <ele>336.8</ele>
        <time>2022-10-02T12:40:20Z</time>
      </trkpt>
      <trkpt lat="47.09552" lon="6.16808">
        <ele>337.8</ele>
        <time>2022-10-02T12:40:29Z</time>
      </trkpt>
      <trkpt lat="47.09579" lon="6.16782">
        <ele>338.6</ele>
        <time>2022-10-02T12:40:37Z</time>
      </trkpt>
      <trkpt lat="47.09606" lon="6.16754">
        <ele>338.8</ele>
        <time>2022-10-02T12:40:45Z</time>
      </trkpt>
      <trkpt lat="47.09639" lon="6.16721">
        <ele>339</ele>
        <time>2022-10-02T12:40:54Z</time>
      </trkpt>
      <trkpt lat="47.09673" lon="6.16688">
        <ele>338.4</ele>
        <time>2022-10-02T12:41:03Z</time>
      </trkpt>
      <trkpt lat="47.09699" lon="6.1666">
        <ele>339</ele>
        <time>2022-10-02T12:41:11Z</time>
      </trkpt>
      <trkpt lat="47.09725" lon="6.16633">
        <ele>339.6</ele>
        <time>2022-10-02T12:41:19Z</time>
      </trkpt>
      <trkpt lat="47.0975" lon="6.16609">
        <ele>339.2</ele>
        <time>2022-10-02T12:41:27Z</time>
      </trkpt>
      <trkpt lat="47.0977" lon="6.16589">
        <ele>339.2</ele>
        <time>2022-10-02T12:41:34Z</time>
      </trkpt>
      <trkpt lat="47.09794" lon="6.16565">
        <ele>339.4</ele>
        <time>2022-10-02T12:41:42Z</time>
      </trkpt>
      <trkpt lat="47.09814" lon="6.16543">
        <ele>339.4</ele>
        <time>2022-10-02T12:41:49Z</time>
      </trkpt>
      <trkpt lat="47.09832" lon="6.16526">
        <ele>339.2</ele>
        <time>2022-10-02T12:41:55Z</time>
      </trkpt>
      <trkpt lat="47.0986" lon="6.16498">
        <ele>339.2</ele>
        <time>2022-10-02T12:42:04Z</time>
      </trkpt>
      <trkpt lat="47.09878" lon="6.16478">
        <ele>339.2</ele>
        <time>2022-10-02T12:42:11Z</time>
      </trkpt>
      <trkpt lat="47.09898" lon="6.16456">
        <ele>339</ele>
        <time>2022-10-02T12:42:18Z</time>
      </trkpt>
      <trkpt lat="47.09928" lon="6.16427">
        <ele>338.6</ele>
        <time>2022-10-02T12:42:29Z</time>
      </trkpt>
      <trkpt lat="47.09947" lon="6.1641">
        <ele>338.4</ele>
        <time>2022-10-02T12:42:36Z</time>
      </trkpt>
      <trkpt lat="47.09966" lon="6.16388">
        <ele>338.6</ele>
        <time>2022-10-02T12:42:43Z</time>
      </trkpt>
      <trkpt lat="47.09992" lon="6.16362">
        <ele>338.6</ele>
        <time>2022-10-02T12:42:52Z</time>
      </trkpt>
      <trkpt lat="47.10015" lon="6.16339">
        <ele>338</ele>
        <time>2022-10-02T12:43:00Z</time>
      </trkpt>
      <trkpt lat="47.1004" lon="6.16315">
        <ele>338.8</ele>
        <time>2022-10-02T12:43:08Z</time>
      </trkpt>
      <trkpt lat="47.10062" lon="6.16293">
        <ele>339</ele>
        <time>2022-10-02T12:43:16Z</time>
      </trkpt>
      <trkpt lat="47.10078" lon="6.16281">
        <ele>338.6</ele>
        <time>2022-10-02T12:43:22Z</time>
      </trkpt>
      <trkpt lat="47.10099" lon="6.1627">
        <ele>339</ele>
        <time>2022-10-02T12:43:28Z</time>
      </trkpt>
      <trkpt lat="47.10126" lon="6.16251">
        <ele>339</ele>
        <time>2022-10-02T12:43:36Z</time>
      </trkpt>
      <trkpt lat="47.10138" lon="6.16251">
        <ele>338.8</ele>
        <time>2022-10-02T12:43:39Z</time>
      </trkpt>
      <trkpt lat="47.10143" lon="6.16253">
        <ele>338.4</ele>
        <time>2022-10-02T12:43:40Z</time>
      </trkpt>
      <trkpt lat="47.10152" lon="6.16253">
        <ele>338</ele>
        <time>2022-10-02T12:43:42Z</time>
      </trkpt>
      <trkpt lat="47.1016" lon="6.1625">
        <ele>337.8</ele>
        <time>2022-10-02T12:43:44Z</time>
      </trkpt>
      <trkpt lat="47.10168" lon="6.16244">
        <ele>337.6</ele>
        <time>2022-10-02T12:43:46Z</time>
      </trkpt>
      <trkpt lat="47.10172" lon="6.1624">
        <ele>337.6</ele>
        <time>2022-10-02T12:43:47Z</time>
      </trkpt>
      <trkpt lat="47.10179" lon="6.16229">
        <ele>337.4</ele>
        <time>2022-10-02T12:43:49Z</time>
      </trkpt>
      <trkpt lat="47.10183" lon="6.1621">
        <ele>337</ele>
        <time>2022-10-02T12:43:52Z</time>
      </trkpt>
      <trkpt lat="47.10184" lon="6.16203">
        <ele>336.8</ele>
        <time>2022-10-02T12:43:53Z</time>
      </trkpt>
      <trkpt lat="47.10183" lon="6.16197">
        <ele>336.8</ele>
        <time>2022-10-02T12:43:54Z</time>
      </trkpt>
      <trkpt lat="47.10183" lon="6.16185">
        <ele>337.4</ele>
        <time>2022-10-02T12:43:57Z</time>
      </trkpt>
      <trkpt lat="47.10185" lon="6.16166">
        <ele>337.8</ele>
        <time>2022-10-02T12:44:02Z</time>
      </trkpt>
      <trkpt lat="47.10198" lon="6.16152">
        <ele>338.2</ele>
        <time>2022-10-02T12:44:08Z</time>
      </trkpt>
      <trkpt lat="47.10206" lon="6.16143">
        <ele>338.8</ele>
        <time>2022-10-02T12:44:12Z</time>
      </trkpt>
      <trkpt lat="47.1021" lon="6.1614">
        <ele>338.8</ele>
        <time>2022-10-02T12:44:14Z</time>
      </trkpt>
      <trkpt lat="47.10225" lon="6.16125">
        <ele>338.8</ele>
        <time>2022-10-02T12:44:21Z</time>
      </trkpt>
      <trkpt lat="47.10246" lon="6.16107">
        <ele>339</ele>
        <time>2022-10-02T12:44:28Z</time>
      </trkpt>
      <trkpt lat="47.1026" lon="6.16092">
        <ele>339</ele>
        <time>2022-10-02T12:44:34Z</time>
      </trkpt>
      <trkpt lat="47.1027" lon="6.16079">
        <ele>339</ele>
        <time>2022-10-02T12:44:39Z</time>
      </trkpt>
      <trkpt lat="47.1027" lon="6.16076">
        <ele>339.2</ele>
        <time>2022-10-02T12:44:40Z</time>
      </trkpt>
      <trkpt lat="47.10268" lon="6.16072">
        <ele>339</ele>
        <time>2022-10-02T12:44:42Z</time>
      </trkpt>
      <trkpt lat="47.10258" lon="6.16078">
        <ele>338.8</ele>
        <time>2022-10-02T12:44:45Z</time>
      </trkpt>
      <trkpt lat="47.10236" lon="6.16087">
        <ele>338.6</ele>
        <time>2022-10-02T12:44:51Z</time>
      </trkpt>
      <trkpt lat="47.10217" lon="6.16089">
        <ele>339</ele>
        <time>2022-10-02T12:44:57Z</time>
      </trkpt>
      <trkpt lat="47.10193" lon="6.16087">
        <ele>339.4</ele>
        <time>2022-10-02T12:45:04Z</time>
      </trkpt>
      <trkpt lat="47.10168" lon="6.16079">
        <ele>339.4</ele>
        <time>2022-10-02T12:45:12Z</time>
      </trkpt>
      <trkpt lat="47.10142" lon="6.16075">
        <ele>339</ele>
        <time>2022-10-02T12:45:19Z</time>
      </trkpt>
      <trkpt lat="47.10122" lon="6.16082">
        <ele>338.8</ele>
        <time>2022-10-02T12:45:25Z</time>
      </trkpt>
      <trkpt lat="47.10106" lon="6.16091">
        <ele>339.6</ele>
        <time>2022-10-02T12:45:31Z</time>
      </trkpt>
      <trkpt lat="47.10105" lon="6.16094">
        <ele>339.6</ele>
        <time>2022-10-02T12:45:32Z</time>
      </trkpt>
      <trkpt lat="47.10106" lon="6.161">
        <ele>339.6</ele>
        <time>2022-10-02T12:45:34Z</time>
      </trkpt>
      <trkpt lat="47.10108" lon="6.16105">
        <ele>339.6</ele>
        <time>2022-10-02T12:45:36Z</time>
      </trkpt>
      <trkpt lat="47.1011" lon="6.16109">
        <ele>339.8</ele>
        <time>2022-10-02T12:45:38Z</time>
      </trkpt>
      <trkpt lat="47.10112" lon="6.1611">
        <ele>340</ele>
        <time>2022-10-02T12:45:40Z</time>
      </trkpt>
      <trkpt lat="47.10106" lon="6.16108">
        <ele>341</ele>
        <time>2022-10-02T12:46:10Z</time>
      </trkpt>
      <trkpt lat="47.10105" lon="6.16104">
        <ele>341.2</ele>
        <time>2022-10-02T12:46:12Z</time>
      </trkpt>
      <trkpt lat="47.10099" lon="6.16096">
        <ele>342</ele>
        <time>2022-10-02T12:46:18Z</time>
      </trkpt>
      <trkpt lat="47.10098" lon="6.16091">
        <ele>342.2</ele>
        <time>2022-10-02T12:46:21Z</time>
      </trkpt>
      <trkpt lat="47.10095" lon="6.16082">
        <ele>342.4</ele>
        <time>2022-10-02T12:46:28Z</time>
      </trkpt>
      <trkpt lat="47.10094" lon="6.16081">
        <ele>342.4</ele>
        <time>2022-10-02T12:46:29Z</time>
      </trkpt>
    </trkseg>
  </trk>
</gpx>